<?xml version="1.0" encoding="UTF-8" standalone="no" ?>
<gpx xmlns="http://www.topografix.com/GPX/1/1" xmlns:xsi="http://www.w3.org/2001/XMLSchema-instance" xsi:schemaLocation="http://www.topografix.com/GPX/1/1 http://www.topografix.com/GPX/1/1/gpx.xsd" version="1.1" creator="VisuGPX - https://www.visugpx.com">
  <metadata>
    <name>Peaugre 46 km</name>
    <desc><![CDATA[circuit dur pour vétetiste confirmé]]></desc>
  </metadata>
  <trk>
    <name><![CDATA[Peaugres Sans catégorie]]></name>
    <trkseg>
      <trkpt lat="45.29464" lon="4.72782">
        <ele>420</ele>
        <time>2016-01-13T09:24:02.000Z</time>
      </trkpt>
      <trkpt lat="45.29464" lon="4.72782">
        <ele>420</ele>
        <time>2016-01-13T09:24:04.000Z</time>
      </trkpt>
      <trkpt lat="45.29464" lon="4.72781">
        <ele>420</ele>
        <time>2016-01-13T09:24:33.000Z</time>
      </trkpt>
      <trkpt lat="45.29461" lon="4.72776">
        <ele>419.79998779297</ele>
        <time>2016-01-13T09:27:32.000Z</time>
      </trkpt>
      <trkpt lat="45.29428" lon="4.7275">
        <ele>416.60000610352</ele>
        <time>2016-01-13T09:27:45.000Z</time>
      </trkpt>
      <trkpt lat="45.29402" lon="4.72716">
        <ele>414</ele>
        <time>2016-01-13T09:27:55.000Z</time>
      </trkpt>
      <trkpt lat="45.29402" lon="4.72712">
        <ele>414</ele>
        <time>2016-01-13T09:27:56.000Z</time>
      </trkpt>
      <trkpt lat="45.294" lon="4.72703">
        <ele>414</ele>
        <time>2016-01-13T09:27:58.000Z</time>
      </trkpt>
      <trkpt lat="45.29398" lon="4.72699">
        <ele>413.79998779297</ele>
        <time>2016-01-13T09:27:59.000Z</time>
      </trkpt>
      <trkpt lat="45.29394" lon="4.72696">
        <ele>413.60000610352</ele>
        <time>2016-01-13T09:28:00.000Z</time>
      </trkpt>
      <trkpt lat="45.29391" lon="4.72693">
        <ele>413.39999389648</ele>
        <time>2016-01-13T09:28:01.000Z</time>
      </trkpt>
      <trkpt lat="45.29387" lon="4.7269">
        <ele>413.20001220703</ele>
        <time>2016-01-13T09:28:02.000Z</time>
      </trkpt>
      <trkpt lat="45.29383" lon="4.72688">
        <ele>412.79998779297</ele>
        <time>2016-01-13T09:28:03.000Z</time>
      </trkpt>
      <trkpt lat="45.29378" lon="4.72686">
        <ele>412.60000610352</ele>
        <time>2016-01-13T09:28:04.000Z</time>
      </trkpt>
      <trkpt lat="45.29374" lon="4.72685">
        <ele>412.20001220703</ele>
        <time>2016-01-13T09:28:05.000Z</time>
      </trkpt>
      <trkpt lat="45.2937" lon="4.72684">
        <ele>411.79998779297</ele>
        <time>2016-01-13T09:28:06.000Z</time>
      </trkpt>
      <trkpt lat="45.29366" lon="4.72684">
        <ele>411.60000610352</ele>
        <time>2016-01-13T09:28:07.000Z</time>
      </trkpt>
      <trkpt lat="45.29363" lon="4.72682">
        <ele>411.39999389648</ele>
        <time>2016-01-13T09:28:08.000Z</time>
      </trkpt>
      <trkpt lat="45.29361" lon="4.72679">
        <ele>411.39999389648</ele>
        <time>2016-01-13T09:28:09.000Z</time>
      </trkpt>
      <trkpt lat="45.2936" lon="4.72674">
        <ele>411.39999389648</ele>
        <time>2016-01-13T09:28:10.000Z</time>
      </trkpt>
      <trkpt lat="45.2936" lon="4.72669">
        <ele>411.60000610352</ele>
        <time>2016-01-13T09:28:11.000Z</time>
      </trkpt>
      <trkpt lat="45.29364" lon="4.72614">
        <ele>413.79998779297</ele>
        <time>2016-01-13T09:28:23.000Z</time>
      </trkpt>
      <trkpt lat="45.2937" lon="4.72552">
        <ele>415</ele>
        <time>2016-01-13T09:28:37.000Z</time>
      </trkpt>
      <trkpt lat="45.29382" lon="4.72491">
        <ele>414.60000610352</ele>
        <time>2016-01-13T09:28:50.000Z</time>
      </trkpt>
      <trkpt lat="45.29409" lon="4.72432">
        <ele>417.20001220703</ele>
        <time>2016-01-13T09:29:07.000Z</time>
      </trkpt>
      <trkpt lat="45.29431" lon="4.72434">
        <ele>419.79998779297</ele>
        <time>2016-01-13T09:29:18.000Z</time>
      </trkpt>
      <trkpt lat="45.29449" lon="4.72438">
        <ele>421.79998779297</ele>
        <time>2016-01-13T09:29:27.000Z</time>
      </trkpt>
      <trkpt lat="45.2948" lon="4.72429">
        <ele>423.79998779297</ele>
        <time>2016-01-13T09:29:42.000Z</time>
      </trkpt>
      <trkpt lat="45.29508" lon="4.72423">
        <ele>426.20001220703</ele>
        <time>2016-01-13T09:29:55.000Z</time>
      </trkpt>
      <trkpt lat="45.29536" lon="4.72398">
        <ele>429</ele>
        <time>2016-01-13T09:30:11.000Z</time>
      </trkpt>
      <trkpt lat="45.29545" lon="4.72368">
        <ele>429.79998779297</ele>
        <time>2016-01-13T09:30:23.000Z</time>
      </trkpt>
      <trkpt lat="45.29567" lon="4.72348">
        <ele>429.39999389648</ele>
        <time>2016-01-13T09:30:35.000Z</time>
      </trkpt>
      <trkpt lat="45.2959" lon="4.72316">
        <ele>429</ele>
        <time>2016-01-13T09:30:45.000Z</time>
      </trkpt>
      <trkpt lat="45.29618" lon="4.72277">
        <ele>431</ele>
        <time>2016-01-13T09:30:59.000Z</time>
      </trkpt>
      <trkpt lat="45.29649" lon="4.72274">
        <ele>434</ele>
        <time>2016-01-13T09:31:10.000Z</time>
      </trkpt>
      <trkpt lat="45.29676" lon="4.72274">
        <ele>436.60000610352</ele>
        <time>2016-01-13T09:31:21.000Z</time>
      </trkpt>
      <trkpt lat="45.29713" lon="4.72254">
        <ele>442.39999389648</ele>
        <time>2016-01-13T09:31:37.000Z</time>
      </trkpt>
      <trkpt lat="45.29747" lon="4.7223">
        <ele>447.60000610352</ele>
        <time>2016-01-13T09:31:54.000Z</time>
      </trkpt>
      <trkpt lat="45.29774" lon="4.72231">
        <ele>451.39999389648</ele>
        <time>2016-01-13T09:32:08.000Z</time>
      </trkpt>
      <trkpt lat="45.29789" lon="4.72235">
        <ele>453.20001220703</ele>
        <time>2016-01-13T09:32:17.000Z</time>
      </trkpt>
      <trkpt lat="45.2979" lon="4.72233">
        <ele>453.60000610352</ele>
        <time>2016-01-13T09:32:18.000Z</time>
      </trkpt>
      <trkpt lat="45.29792" lon="4.72204">
        <ele>457.20001220703</ele>
        <time>2016-01-13T09:32:30.000Z</time>
      </trkpt>
      <trkpt lat="45.29789" lon="4.7217">
        <ele>459.79998779297</ele>
        <time>2016-01-13T09:32:44.000Z</time>
      </trkpt>
      <trkpt lat="45.29784" lon="4.72129">
        <ele>462.60000610352</ele>
        <time>2016-01-13T09:32:58.000Z</time>
      </trkpt>
      <trkpt lat="45.29771" lon="4.72076">
        <ele>464.79998779297</ele>
        <time>2016-01-13T09:33:14.000Z</time>
      </trkpt>
      <trkpt lat="45.29766" lon="4.72015">
        <ele>468.79998779297</ele>
        <time>2016-01-13T09:33:30.000Z</time>
      </trkpt>
      <trkpt lat="45.29756" lon="4.71966">
        <ele>469.39999389648</ele>
        <time>2016-01-13T09:33:44.000Z</time>
      </trkpt>
      <trkpt lat="45.29745" lon="4.71916">
        <ele>469</ele>
        <time>2016-01-13T09:33:57.000Z</time>
      </trkpt>
      <trkpt lat="45.29736" lon="4.71871">
        <ele>467.39999389648</ele>
        <time>2016-01-13T09:34:08.000Z</time>
      </trkpt>
      <trkpt lat="45.29733" lon="4.71825">
        <ele>466.39999389648</ele>
        <time>2016-01-13T09:34:19.000Z</time>
      </trkpt>
      <trkpt lat="45.29738" lon="4.71772">
        <ele>466.79998779297</ele>
        <time>2016-01-13T09:34:34.000Z</time>
      </trkpt>
      <trkpt lat="45.29742" lon="4.71734">
        <ele>468.39999389648</ele>
        <time>2016-01-13T09:34:45.000Z</time>
      </trkpt>
      <trkpt lat="45.29746" lon="4.71684">
        <ele>471</ele>
        <time>2016-01-13T09:34:59.000Z</time>
      </trkpt>
      <trkpt lat="45.29746" lon="4.71681">
        <ele>471</ele>
        <time>2016-01-13T09:35:00.000Z</time>
      </trkpt>
      <trkpt lat="45.2973" lon="4.71677">
        <ele>468.20001220703</ele>
        <time>2016-01-13T09:35:05.000Z</time>
      </trkpt>
      <trkpt lat="45.2969" lon="4.71675">
        <ele>462.20001220703</ele>
        <time>2016-01-13T09:35:13.000Z</time>
      </trkpt>
      <trkpt lat="45.29687" lon="4.71673">
        <ele>462</ele>
        <time>2016-01-13T09:35:14.000Z</time>
      </trkpt>
      <trkpt lat="45.29685" lon="4.7167">
        <ele>461.79998779297</ele>
        <time>2016-01-13T09:35:15.000Z</time>
      </trkpt>
      <trkpt lat="45.29682" lon="4.71668">
        <ele>461.60000610352</ele>
        <time>2016-01-13T09:35:16.000Z</time>
      </trkpt>
      <trkpt lat="45.2968" lon="4.71667">
        <ele>461.20001220703</ele>
        <time>2016-01-13T09:35:17.000Z</time>
      </trkpt>
      <trkpt lat="45.29677" lon="4.71667">
        <ele>461</ele>
        <time>2016-01-13T09:35:18.000Z</time>
      </trkpt>
      <trkpt lat="45.29675" lon="4.71667">
        <ele>460.60000610352</ele>
        <time>2016-01-13T09:35:19.000Z</time>
      </trkpt>
      <trkpt lat="45.2964" lon="4.71669">
        <ele>456.60000610352</ele>
        <time>2016-01-13T09:35:28.000Z</time>
      </trkpt>
      <trkpt lat="45.29609" lon="4.71669">
        <ele>456.20001220703</ele>
        <time>2016-01-13T09:35:33.000Z</time>
      </trkpt>
      <trkpt lat="45.29591" lon="4.7167">
        <ele>456.60000610352</ele>
        <time>2016-01-13T09:35:39.000Z</time>
      </trkpt>
      <trkpt lat="45.29588" lon="4.71672">
        <ele>456.39999389648</ele>
        <time>2016-01-13T09:35:41.000Z</time>
      </trkpt>
      <trkpt lat="45.29565" lon="4.717">
        <ele>452</ele>
        <time>2016-01-13T09:35:52.000Z</time>
      </trkpt>
      <trkpt lat="45.29563" lon="4.71703">
        <ele>451.79998779297</ele>
        <time>2016-01-13T09:35:53.000Z</time>
      </trkpt>
      <trkpt lat="45.2956" lon="4.71704">
        <ele>451.39999389648</ele>
        <time>2016-01-13T09:35:54.000Z</time>
      </trkpt>
      <trkpt lat="45.29557" lon="4.71703">
        <ele>451.39999389648</ele>
        <time>2016-01-13T09:35:55.000Z</time>
      </trkpt>
      <trkpt lat="45.29555" lon="4.717">
        <ele>451.79998779297</ele>
        <time>2016-01-13T09:35:56.000Z</time>
      </trkpt>
      <trkpt lat="45.29554" lon="4.71698">
        <ele>452</ele>
        <time>2016-01-13T09:35:57.000Z</time>
      </trkpt>
      <trkpt lat="45.29553" lon="4.71696">
        <ele>452.20001220703</ele>
        <time>2016-01-13T09:35:58.000Z</time>
      </trkpt>
      <trkpt lat="45.29551" lon="4.71694">
        <ele>452.39999389648</ele>
        <time>2016-01-13T09:35:59.000Z</time>
      </trkpt>
      <trkpt lat="45.2955" lon="4.71691">
        <ele>452.60000610352</ele>
        <time>2016-01-13T09:36:00.000Z</time>
      </trkpt>
      <trkpt lat="45.29549" lon="4.71689">
        <ele>453</ele>
        <time>2016-01-13T09:36:01.000Z</time>
      </trkpt>
      <trkpt lat="45.29549" lon="4.71686">
        <ele>453.20001220703</ele>
        <time>2016-01-13T09:36:02.000Z</time>
      </trkpt>
      <trkpt lat="45.29546" lon="4.71672">
        <ele>454.79998779297</ele>
        <time>2016-01-13T09:36:08.000Z</time>
      </trkpt>
      <trkpt lat="45.29543" lon="4.71648">
        <ele>457.79998779297</ele>
        <time>2016-01-13T09:36:20.000Z</time>
      </trkpt>
      <trkpt lat="45.29549" lon="4.71622">
        <ele>460.79998779297</ele>
        <time>2016-01-13T09:36:35.000Z</time>
      </trkpt>
      <trkpt lat="45.29557" lon="4.71603">
        <ele>462.79998779297</ele>
        <time>2016-01-13T09:36:47.000Z</time>
      </trkpt>
      <trkpt lat="45.29562" lon="4.71588">
        <ele>464.39999389648</ele>
        <time>2016-01-13T09:36:55.000Z</time>
      </trkpt>
      <trkpt lat="45.2956" lon="4.71581">
        <ele>465.60000610352</ele>
        <time>2016-01-13T09:36:59.000Z</time>
      </trkpt>
      <trkpt lat="45.2954" lon="4.71575">
        <ele>467</ele>
        <time>2016-01-13T09:37:11.000Z</time>
      </trkpt>
      <trkpt lat="45.29505" lon="4.71569">
        <ele>468.20001220703</ele>
        <time>2016-01-13T09:37:30.000Z</time>
      </trkpt>
      <trkpt lat="45.295" lon="4.7153">
        <ele>473</ele>
        <time>2016-01-13T09:37:45.000Z</time>
      </trkpt>
      <trkpt lat="45.2949" lon="4.71506">
        <ele>474.79998779297</ele>
        <time>2016-01-13T09:37:56.000Z</time>
      </trkpt>
      <trkpt lat="45.29457" lon="4.71459">
        <ele>477.60000610352</ele>
        <time>2016-01-13T09:38:18.000Z</time>
      </trkpt>
      <trkpt lat="45.29463" lon="4.71411">
        <ele>481.39999389648</ele>
        <time>2016-01-13T09:38:34.000Z</time>
      </trkpt>
      <trkpt lat="45.29474" lon="4.71361">
        <ele>484.79998779297</ele>
        <time>2016-01-13T09:38:51.000Z</time>
      </trkpt>
      <trkpt lat="45.29476" lon="4.71359">
        <ele>484.79998779297</ele>
        <time>2016-01-13T09:38:52.000Z</time>
      </trkpt>
      <trkpt lat="45.29478" lon="4.71358">
        <ele>485</ele>
        <time>2016-01-13T09:38:53.000Z</time>
      </trkpt>
      <trkpt lat="45.2948" lon="4.71358">
        <ele>485</ele>
        <time>2016-01-13T09:38:54.000Z</time>
      </trkpt>
      <trkpt lat="45.29481" lon="4.71359">
        <ele>485</ele>
        <time>2016-01-13T09:38:55.000Z</time>
      </trkpt>
      <trkpt lat="45.29483" lon="4.7136">
        <ele>485</ele>
        <time>2016-01-13T09:38:56.000Z</time>
      </trkpt>
      <trkpt lat="45.29484" lon="4.71361">
        <ele>485</ele>
        <time>2016-01-13T09:38:57.000Z</time>
      </trkpt>
      <trkpt lat="45.29484" lon="4.71362">
        <ele>484.79998779297</ele>
        <time>2016-01-13T09:39:01.000Z</time>
      </trkpt>
      <trkpt lat="45.2949" lon="4.71369">
        <ele>484.79998779297</ele>
        <time>2016-01-13T09:41:20.000Z</time>
      </trkpt>
      <trkpt lat="45.29508" lon="4.71373">
        <ele>484.79998779297</ele>
        <time>2016-01-13T09:41:35.000Z</time>
      </trkpt>
      <trkpt lat="45.29515" lon="4.71335">
        <ele>487</ele>
        <time>2016-01-13T09:41:51.000Z</time>
      </trkpt>
      <trkpt lat="45.29514" lon="4.71304">
        <ele>488.79998779297</ele>
        <time>2016-01-13T09:42:05.000Z</time>
      </trkpt>
      <trkpt lat="45.29516" lon="4.7127">
        <ele>491.39999389648</ele>
        <time>2016-01-13T09:42:18.000Z</time>
      </trkpt>
      <trkpt lat="45.29518" lon="4.71226">
        <ele>496.20001220703</ele>
        <time>2016-01-13T09:42:35.000Z</time>
      </trkpt>
      <trkpt lat="45.29523" lon="4.71214">
        <ele>497.60000610352</ele>
        <time>2016-01-13T09:42:40.000Z</time>
      </trkpt>
      <trkpt lat="45.29523" lon="4.71212">
        <ele>498</ele>
        <time>2016-01-13T09:42:41.000Z</time>
      </trkpt>
      <trkpt lat="45.29524" lon="4.71209">
        <ele>498.20001220703</ele>
        <time>2016-01-13T09:42:42.000Z</time>
      </trkpt>
      <trkpt lat="45.29524" lon="4.71207">
        <ele>498.60000610352</ele>
        <time>2016-01-13T09:42:43.000Z</time>
      </trkpt>
      <trkpt lat="45.29524" lon="4.71204">
        <ele>498.79998779297</ele>
        <time>2016-01-13T09:42:44.000Z</time>
      </trkpt>
      <trkpt lat="45.29534" lon="4.71164">
        <ele>503.39999389648</ele>
        <time>2016-01-13T09:43:01.000Z</time>
      </trkpt>
      <trkpt lat="45.29535" lon="4.71152">
        <ele>504.60000610352</ele>
        <time>2016-01-13T09:43:06.000Z</time>
      </trkpt>
      <trkpt lat="45.29534" lon="4.71151">
        <ele>504.79998779297</ele>
        <time>2016-01-13T09:43:07.000Z</time>
      </trkpt>
      <trkpt lat="45.29533" lon="4.7115">
        <ele>504.79998779297</ele>
        <time>2016-01-13T09:43:08.000Z</time>
      </trkpt>
      <trkpt lat="45.29517" lon="4.71134">
        <ele>505.39999389648</ele>
        <time>2016-01-13T09:43:20.000Z</time>
      </trkpt>
      <trkpt lat="45.29499" lon="4.71093">
        <ele>509</ele>
        <time>2016-01-13T09:43:38.000Z</time>
      </trkpt>
      <trkpt lat="45.29489" lon="4.71034">
        <ele>517.40002441406</ele>
        <time>2016-01-13T09:43:56.000Z</time>
      </trkpt>
      <trkpt lat="45.29467" lon="4.71">
        <ele>521</ele>
        <time>2016-01-13T09:44:07.000Z</time>
      </trkpt>
      <trkpt lat="45.2943" lon="4.70994">
        <ele>524.79998779297</ele>
        <time>2016-01-13T09:44:22.000Z</time>
      </trkpt>
      <trkpt lat="45.29405" lon="4.71004">
        <ele>522</ele>
        <time>2016-01-13T09:44:32.000Z</time>
      </trkpt>
      <trkpt lat="45.29397" lon="4.71009">
        <ele>520.20001220703</ele>
        <time>2016-01-13T09:44:34.000Z</time>
      </trkpt>
      <trkpt lat="45.29377" lon="4.7102">
        <ele>517</ele>
        <time>2016-01-13T09:44:40.000Z</time>
      </trkpt>
      <trkpt lat="45.29343" lon="4.71036">
        <ele>517.79998779297</ele>
        <time>2016-01-13T09:44:55.000Z</time>
      </trkpt>
      <trkpt lat="45.29313" lon="4.71046">
        <ele>520.79998779297</ele>
        <time>2016-01-13T09:45:09.000Z</time>
      </trkpt>
      <trkpt lat="45.2929" lon="4.71047">
        <ele>522.40002441406</ele>
        <time>2016-01-13T09:45:21.000Z</time>
      </trkpt>
      <trkpt lat="45.29283" lon="4.71048">
        <ele>522.40002441406</ele>
        <time>2016-01-13T09:45:25.000Z</time>
      </trkpt>
      <trkpt lat="45.29253" lon="4.71049">
        <ele>522.79998779297</ele>
        <time>2016-01-13T09:45:38.000Z</time>
      </trkpt>
      <trkpt lat="45.29224" lon="4.71046">
        <ele>524.59997558594</ele>
        <time>2016-01-13T09:45:49.000Z</time>
      </trkpt>
      <trkpt lat="45.29183" lon="4.71041">
        <ele>520.20001220703</ele>
        <time>2016-01-13T09:45:59.000Z</time>
      </trkpt>
      <trkpt lat="45.29178" lon="4.71038">
        <ele>520.20001220703</ele>
        <time>2016-01-13T09:46:00.000Z</time>
      </trkpt>
      <trkpt lat="45.29174" lon="4.71031">
        <ele>520.40002441406</ele>
        <time>2016-01-13T09:46:01.000Z</time>
      </trkpt>
      <trkpt lat="45.29172" lon="4.71023">
        <ele>520.79998779297</ele>
        <time>2016-01-13T09:46:02.000Z</time>
      </trkpt>
      <trkpt lat="45.2917" lon="4.71014">
        <ele>521.79998779297</ele>
        <time>2016-01-13T09:46:03.000Z</time>
      </trkpt>
      <trkpt lat="45.2917" lon="4.71005">
        <ele>522.79998779297</ele>
        <time>2016-01-13T09:46:04.000Z</time>
      </trkpt>
      <trkpt lat="45.29168" lon="4.70989">
        <ele>525</ele>
        <time>2016-01-13T09:46:06.000Z</time>
      </trkpt>
      <trkpt lat="45.29164" lon="4.7097">
        <ele>528.59997558594</ele>
        <time>2016-01-13T09:46:09.000Z</time>
      </trkpt>
      <trkpt lat="45.29159" lon="4.70952">
        <ele>531.40002441406</ele>
        <time>2016-01-13T09:46:12.000Z</time>
      </trkpt>
      <trkpt lat="45.29157" lon="4.70947">
        <ele>531.59997558594</ele>
        <time>2016-01-13T09:46:13.000Z</time>
      </trkpt>
      <trkpt lat="45.29155" lon="4.70942">
        <ele>531.59997558594</ele>
        <time>2016-01-13T09:46:14.000Z</time>
      </trkpt>
      <trkpt lat="45.29151" lon="4.70932">
        <ele>531.79998779297</ele>
        <time>2016-01-13T09:46:16.000Z</time>
      </trkpt>
      <trkpt lat="45.29136" lon="4.709">
        <ele>531.40002441406</ele>
        <time>2016-01-13T09:46:22.000Z</time>
      </trkpt>
      <trkpt lat="45.29134" lon="4.70894">
        <ele>531.79998779297</ele>
        <time>2016-01-13T09:46:23.000Z</time>
      </trkpt>
      <trkpt lat="45.29132" lon="4.70888">
        <ele>532.20001220703</ele>
        <time>2016-01-13T09:46:24.000Z</time>
      </trkpt>
      <trkpt lat="45.2913" lon="4.70882">
        <ele>532.20001220703</ele>
        <time>2016-01-13T09:46:25.000Z</time>
      </trkpt>
      <trkpt lat="45.29128" lon="4.70877">
        <ele>532.40002441406</ele>
        <time>2016-01-13T09:46:26.000Z</time>
      </trkpt>
      <trkpt lat="45.29127" lon="4.70873">
        <ele>532.40002441406</ele>
        <time>2016-01-13T09:46:27.000Z</time>
      </trkpt>
      <trkpt lat="45.29125" lon="4.70868">
        <ele>532.40002441406</ele>
        <time>2016-01-13T09:46:28.000Z</time>
      </trkpt>
      <trkpt lat="45.29111" lon="4.70832">
        <ele>533.59997558594</ele>
        <time>2016-01-13T09:46:40.000Z</time>
      </trkpt>
      <trkpt lat="45.29107" lon="4.70789">
        <ele>541.20001220703</ele>
        <time>2016-01-13T09:46:54.000Z</time>
      </trkpt>
      <trkpt lat="45.29105" lon="4.7076">
        <ele>545.59997558594</ele>
        <time>2016-01-13T09:47:04.000Z</time>
      </trkpt>
      <trkpt lat="45.29098" lon="4.70737">
        <ele>546.79998779297</ele>
        <time>2016-01-13T09:47:13.000Z</time>
      </trkpt>
      <trkpt lat="45.29088" lon="4.70708">
        <ele>547.79998779297</ele>
        <time>2016-01-13T09:47:26.000Z</time>
      </trkpt>
      <trkpt lat="45.29077" lon="4.70679">
        <ele>548</ele>
        <time>2016-01-13T09:47:37.000Z</time>
      </trkpt>
      <trkpt lat="45.2907" lon="4.70655">
        <ele>548.59997558594</ele>
        <time>2016-01-13T09:47:46.000Z</time>
      </trkpt>
      <trkpt lat="45.29062" lon="4.70639">
        <ele>548.20001220703</ele>
        <time>2016-01-13T09:47:53.000Z</time>
      </trkpt>
      <trkpt lat="45.29058" lon="4.70624">
        <ele>548.59997558594</ele>
        <time>2016-01-13T09:47:59.000Z</time>
      </trkpt>
      <trkpt lat="45.29047" lon="4.7059">
        <ele>548.40002441406</ele>
        <time>2016-01-13T09:48:10.000Z</time>
      </trkpt>
      <trkpt lat="45.29039" lon="4.70557">
        <ele>549.40002441406</ele>
        <time>2016-01-13T09:48:22.000Z</time>
      </trkpt>
      <trkpt lat="45.29035" lon="4.70539">
        <ele>550</ele>
        <time>2016-01-13T09:48:30.000Z</time>
      </trkpt>
      <trkpt lat="45.29033" lon="4.70527">
        <ele>550</ele>
        <time>2016-01-13T09:48:35.000Z</time>
      </trkpt>
      <trkpt lat="45.29029" lon="4.70517">
        <ele>549.40002441406</ele>
        <time>2016-01-13T09:48:39.000Z</time>
      </trkpt>
      <trkpt lat="45.2903" lon="4.70508">
        <ele>550</ele>
        <time>2016-01-13T09:48:43.000Z</time>
      </trkpt>
      <trkpt lat="45.29029" lon="4.70498">
        <ele>550</ele>
        <time>2016-01-13T09:48:48.000Z</time>
      </trkpt>
      <trkpt lat="45.29032" lon="4.70464">
        <ele>552.79998779297</ele>
        <time>2016-01-13T09:49:02.000Z</time>
      </trkpt>
      <trkpt lat="45.2903" lon="4.70454">
        <ele>552.59997558594</ele>
        <time>2016-01-13T09:49:15.000Z</time>
      </trkpt>
      <trkpt lat="45.29029" lon="4.70462">
        <ele>552</ele>
        <time>2016-01-13T09:51:28.000Z</time>
      </trkpt>
      <trkpt lat="45.29029" lon="4.7046">
        <ele>552.20001220703</ele>
        <time>2016-01-13T09:51:29.000Z</time>
      </trkpt>
      <trkpt lat="45.29031" lon="4.70421">
        <ele>554.79998779297</ele>
        <time>2016-01-13T09:51:43.000Z</time>
      </trkpt>
      <trkpt lat="45.2903" lon="4.70379">
        <ele>557</ele>
        <time>2016-01-13T09:51:58.000Z</time>
      </trkpt>
      <trkpt lat="45.29028" lon="4.70362">
        <ele>557.20001220703</ele>
        <time>2016-01-13T09:52:03.000Z</time>
      </trkpt>
      <trkpt lat="45.29022" lon="4.70323">
        <ele>554.79998779297</ele>
        <time>2016-01-13T09:52:16.000Z</time>
      </trkpt>
      <trkpt lat="45.29023" lon="4.70291">
        <ele>554</ele>
        <time>2016-01-13T09:52:28.000Z</time>
      </trkpt>
      <trkpt lat="45.29024" lon="4.70288">
        <ele>554</ele>
        <time>2016-01-13T09:52:29.000Z</time>
      </trkpt>
      <trkpt lat="45.29032" lon="4.70242">
        <ele>554.59997558594</ele>
        <time>2016-01-13T09:52:46.000Z</time>
      </trkpt>
      <trkpt lat="45.29047" lon="4.70206">
        <ele>554.20001220703</ele>
        <time>2016-01-13T09:53:01.000Z</time>
      </trkpt>
      <trkpt lat="45.29061" lon="4.70169">
        <ele>554.79998779297</ele>
        <time>2016-01-13T09:53:19.000Z</time>
      </trkpt>
      <trkpt lat="45.29062" lon="4.70165">
        <ele>554.79998779297</ele>
        <time>2016-01-13T09:53:21.000Z</time>
      </trkpt>
      <trkpt lat="45.29076" lon="4.70157">
        <ele>556</ele>
        <time>2016-01-13T09:53:31.000Z</time>
      </trkpt>
      <trkpt lat="45.29095" lon="4.70132">
        <ele>559.20001220703</ele>
        <time>2016-01-13T09:53:45.000Z</time>
      </trkpt>
      <trkpt lat="45.29101" lon="4.70101">
        <ele>561.20001220703</ele>
        <time>2016-01-13T09:53:56.000Z</time>
      </trkpt>
      <trkpt lat="45.29099" lon="4.70067">
        <ele>563</ele>
        <time>2016-01-13T09:54:09.000Z</time>
      </trkpt>
      <trkpt lat="45.29104" lon="4.70033">
        <ele>566.20001220703</ele>
        <time>2016-01-13T09:54:23.000Z</time>
      </trkpt>
      <trkpt lat="45.29115" lon="4.70003">
        <ele>569.59997558594</ele>
        <time>2016-01-13T09:54:37.000Z</time>
      </trkpt>
      <trkpt lat="45.2913" lon="4.69973">
        <ele>572.40002441406</ele>
        <time>2016-01-13T09:54:55.000Z</time>
      </trkpt>
      <trkpt lat="45.29138" lon="4.69952">
        <ele>574.59997558594</ele>
        <time>2016-01-13T09:55:08.000Z</time>
      </trkpt>
      <trkpt lat="45.29149" lon="4.69931">
        <ele>576.40002441406</ele>
        <time>2016-01-13T09:55:22.000Z</time>
      </trkpt>
      <trkpt lat="45.29153" lon="4.69923">
        <ele>576.79998779297</ele>
        <time>2016-01-13T09:55:27.000Z</time>
      </trkpt>
      <trkpt lat="45.29161" lon="4.69893">
        <ele>577</ele>
        <time>2016-01-13T09:55:43.000Z</time>
      </trkpt>
      <trkpt lat="45.29168" lon="4.69861">
        <ele>574.40002441406</ele>
        <time>2016-01-13T09:55:58.000Z</time>
      </trkpt>
      <trkpt lat="45.29196" lon="4.69839">
        <ele>574.40002441406</ele>
        <time>2016-01-13T09:56:13.000Z</time>
      </trkpt>
      <trkpt lat="45.29234" lon="4.69819">
        <ele>572.79998779297</ele>
        <time>2016-01-13T09:56:28.000Z</time>
      </trkpt>
      <trkpt lat="45.29279" lon="4.69792">
        <ele>568.59997558594</ele>
        <time>2016-01-13T09:56:39.000Z</time>
      </trkpt>
      <trkpt lat="45.29327" lon="4.69738">
        <ele>560.20001220703</ele>
        <time>2016-01-13T09:56:49.000Z</time>
      </trkpt>
      <trkpt lat="45.29355" lon="4.6971">
        <ele>559.59997558594</ele>
        <time>2016-01-13T09:56:53.000Z</time>
      </trkpt>
      <trkpt lat="45.29383" lon="4.69668">
        <ele>559</ele>
        <time>2016-01-13T09:56:57.000Z</time>
      </trkpt>
      <trkpt lat="45.29387" lon="4.69656">
        <ele>559</ele>
        <time>2016-01-13T09:56:58.000Z</time>
      </trkpt>
      <trkpt lat="45.29389" lon="4.69644">
        <ele>558.40002441406</ele>
        <time>2016-01-13T09:56:59.000Z</time>
      </trkpt>
      <trkpt lat="45.29389" lon="4.69632">
        <ele>557.40002441406</ele>
        <time>2016-01-13T09:57:00.000Z</time>
      </trkpt>
      <trkpt lat="45.2939" lon="4.69618">
        <ele>556</ele>
        <time>2016-01-13T09:57:01.000Z</time>
      </trkpt>
      <trkpt lat="45.29392" lon="4.69606">
        <ele>555.20001220703</ele>
        <time>2016-01-13T09:57:02.000Z</time>
      </trkpt>
      <trkpt lat="45.29396" lon="4.69594">
        <ele>555</ele>
        <time>2016-01-13T09:57:03.000Z</time>
      </trkpt>
      <trkpt lat="45.29402" lon="4.69584">
        <ele>555.40002441406</ele>
        <time>2016-01-13T09:57:04.000Z</time>
      </trkpt>
      <trkpt lat="45.29409" lon="4.69575">
        <ele>556</ele>
        <time>2016-01-13T09:57:05.000Z</time>
      </trkpt>
      <trkpt lat="45.29415" lon="4.69567">
        <ele>556.20001220703</ele>
        <time>2016-01-13T09:57:06.000Z</time>
      </trkpt>
      <trkpt lat="45.2942" lon="4.69559">
        <ele>556</ele>
        <time>2016-01-13T09:57:07.000Z</time>
      </trkpt>
      <trkpt lat="45.29435" lon="4.69536">
        <ele>555.20001220703</ele>
        <time>2016-01-13T09:57:11.000Z</time>
      </trkpt>
      <trkpt lat="45.29453" lon="4.69493">
        <ele>554.20001220703</ele>
        <time>2016-01-13T09:57:23.000Z</time>
      </trkpt>
      <trkpt lat="45.29455" lon="4.69489">
        <ele>554.20001220703</ele>
        <time>2016-01-13T09:57:24.000Z</time>
      </trkpt>
      <trkpt lat="45.29491" lon="4.6941">
        <ele>550.59997558594</ele>
        <time>2016-01-13T09:57:37.000Z</time>
      </trkpt>
      <trkpt lat="45.29544" lon="4.69334">
        <ele>551</ele>
        <time>2016-01-13T09:57:54.000Z</time>
      </trkpt>
      <trkpt lat="45.29573" lon="4.6932">
        <ele>553.79998779297</ele>
        <time>2016-01-13T09:58:04.000Z</time>
      </trkpt>
      <trkpt lat="45.29621" lon="4.693">
        <ele>557</ele>
        <time>2016-01-13T09:58:21.000Z</time>
      </trkpt>
      <trkpt lat="45.29622" lon="4.69249">
        <ele>554.59997558594</ele>
        <time>2016-01-13T09:58:31.000Z</time>
      </trkpt>
      <trkpt lat="45.29619" lon="4.69248">
        <ele>554.40002441406</ele>
        <time>2016-01-13T09:58:32.000Z</time>
      </trkpt>
      <trkpt lat="45.29609" lon="4.69242">
        <ele>553.40002441406</ele>
        <time>2016-01-13T09:58:35.000Z</time>
      </trkpt>
      <trkpt lat="45.29608" lon="4.69236">
        <ele>553</ele>
        <time>2016-01-13T09:58:36.000Z</time>
      </trkpt>
      <trkpt lat="45.29608" lon="4.6923">
        <ele>552.59997558594</ele>
        <time>2016-01-13T09:58:37.000Z</time>
      </trkpt>
      <trkpt lat="45.29614" lon="4.6921">
        <ele>552.20001220703</ele>
        <time>2016-01-13T09:58:41.000Z</time>
      </trkpt>
      <trkpt lat="45.29617" lon="4.6921">
        <ele>552.40002441406</ele>
        <time>2016-01-13T09:58:42.000Z</time>
      </trkpt>
      <trkpt lat="45.29621" lon="4.6921">
        <ele>552.59997558594</ele>
        <time>2016-01-13T09:58:43.000Z</time>
      </trkpt>
      <trkpt lat="45.29624" lon="4.6921">
        <ele>553</ele>
        <time>2016-01-13T09:58:44.000Z</time>
      </trkpt>
      <trkpt lat="45.29639" lon="4.6921">
        <ele>554.20001220703</ele>
        <time>2016-01-13T09:58:49.000Z</time>
      </trkpt>
      <trkpt lat="45.29641" lon="4.69207">
        <ele>554.20001220703</ele>
        <time>2016-01-13T09:58:50.000Z</time>
      </trkpt>
      <trkpt lat="45.29642" lon="4.69202">
        <ele>554</ele>
        <time>2016-01-13T09:58:51.000Z</time>
      </trkpt>
      <trkpt lat="45.29643" lon="4.69198">
        <ele>553.59997558594</ele>
        <time>2016-01-13T09:58:52.000Z</time>
      </trkpt>
      <trkpt lat="45.29642" lon="4.69194">
        <ele>553.20001220703</ele>
        <time>2016-01-13T09:58:53.000Z</time>
      </trkpt>
      <trkpt lat="45.29641" lon="4.69189">
        <ele>552.79998779297</ele>
        <time>2016-01-13T09:58:54.000Z</time>
      </trkpt>
      <trkpt lat="45.2965" lon="4.69151">
        <ele>550.20001220703</ele>
        <time>2016-01-13T09:59:03.000Z</time>
      </trkpt>
      <trkpt lat="45.29653" lon="4.69151">
        <ele>550.59997558594</ele>
        <time>2016-01-13T09:59:04.000Z</time>
      </trkpt>
      <trkpt lat="45.29656" lon="4.69154">
        <ele>551</ele>
        <time>2016-01-13T09:59:05.000Z</time>
      </trkpt>
      <trkpt lat="45.29659" lon="4.69157">
        <ele>551.59997558594</ele>
        <time>2016-01-13T09:59:06.000Z</time>
      </trkpt>
      <trkpt lat="45.29662" lon="4.69156">
        <ele>551.59997558594</ele>
        <time>2016-01-13T09:59:07.000Z</time>
      </trkpt>
      <trkpt lat="45.29663" lon="4.69153">
        <ele>551.59997558594</ele>
        <time>2016-01-13T09:59:08.000Z</time>
      </trkpt>
      <trkpt lat="45.29665" lon="4.69148">
        <ele>551.40002441406</ele>
        <time>2016-01-13T09:59:09.000Z</time>
      </trkpt>
      <trkpt lat="45.29666" lon="4.69143">
        <ele>551.20001220703</ele>
        <time>2016-01-13T09:59:10.000Z</time>
      </trkpt>
      <trkpt lat="45.29667" lon="4.69137">
        <ele>551</ele>
        <time>2016-01-13T09:59:11.000Z</time>
      </trkpt>
      <trkpt lat="45.2967" lon="4.69121">
        <ele>550.40002441406</ele>
        <time>2016-01-13T09:59:14.000Z</time>
      </trkpt>
      <trkpt lat="45.29673" lon="4.69108">
        <ele>549.79998779297</ele>
        <time>2016-01-13T09:59:16.000Z</time>
      </trkpt>
      <trkpt lat="45.29694" lon="4.69035">
        <ele>546.79998779297</ele>
        <time>2016-01-13T09:59:25.000Z</time>
      </trkpt>
      <trkpt lat="45.2971" lon="4.68954">
        <ele>541.79998779297</ele>
        <time>2016-01-13T09:59:39.000Z</time>
      </trkpt>
      <trkpt lat="45.2973" lon="4.68844">
        <ele>535.20001220703</ele>
        <time>2016-01-13T09:59:52.000Z</time>
      </trkpt>
      <trkpt lat="45.29732" lon="4.68837">
        <ele>534.79998779297</ele>
        <time>2016-01-13T09:59:53.000Z</time>
      </trkpt>
      <trkpt lat="45.29723" lon="4.68826">
        <ele>533.40002441406</ele>
        <time>2016-01-13T09:59:57.000Z</time>
      </trkpt>
      <trkpt lat="45.29713" lon="4.68831">
        <ele>533.20001220703</ele>
        <time>2016-01-13T10:00:00.000Z</time>
      </trkpt>
      <trkpt lat="45.29692" lon="4.68837">
        <ele>533.20001220703</ele>
        <time>2016-01-13T10:00:05.000Z</time>
      </trkpt>
      <trkpt lat="45.29684" lon="4.6884">
        <ele>533.20001220703</ele>
        <time>2016-01-13T10:00:07.000Z</time>
      </trkpt>
      <trkpt lat="45.29648" lon="4.68865">
        <ele>531.20001220703</ele>
        <time>2016-01-13T10:00:16.000Z</time>
      </trkpt>
      <trkpt lat="45.29625" lon="4.689">
        <ele>532</ele>
        <time>2016-01-13T10:00:24.000Z</time>
      </trkpt>
      <trkpt lat="45.29605" lon="4.6892">
        <ele>532.79998779297</ele>
        <time>2016-01-13T10:00:30.000Z</time>
      </trkpt>
      <trkpt lat="45.29575" lon="4.68923">
        <ele>531.59997558594</ele>
        <time>2016-01-13T10:00:39.000Z</time>
      </trkpt>
      <trkpt lat="45.2957" lon="4.68923">
        <ele>531.40002441406</ele>
        <time>2016-01-13T10:00:40.000Z</time>
      </trkpt>
      <trkpt lat="45.29566" lon="4.68923">
        <ele>531.20001220703</ele>
        <time>2016-01-13T10:00:41.000Z</time>
      </trkpt>
      <trkpt lat="45.29526" lon="4.68932">
        <ele>529.79998779297</ele>
        <time>2016-01-13T10:00:50.000Z</time>
      </trkpt>
      <trkpt lat="45.29522" lon="4.68931">
        <ele>529.40002441406</ele>
        <time>2016-01-13T10:00:51.000Z</time>
      </trkpt>
      <trkpt lat="45.29517" lon="4.68929">
        <ele>529</ele>
        <time>2016-01-13T10:00:52.000Z</time>
      </trkpt>
      <trkpt lat="45.29458" lon="4.68883">
        <ele>523.40002441406</ele>
        <time>2016-01-13T10:01:00.000Z</time>
      </trkpt>
      <trkpt lat="45.29416" lon="4.68856">
        <ele>520.59997558594</ele>
        <time>2016-01-13T10:01:04.000Z</time>
      </trkpt>
      <trkpt lat="45.29387" lon="4.68839">
        <ele>519.20001220703</ele>
        <time>2016-01-13T10:01:07.000Z</time>
      </trkpt>
      <trkpt lat="45.29371" lon="4.68833">
        <ele>518.59997558594</ele>
        <time>2016-01-13T10:01:09.000Z</time>
      </trkpt>
      <trkpt lat="45.29363" lon="4.68834">
        <ele>518.40002441406</ele>
        <time>2016-01-13T10:01:10.000Z</time>
      </trkpt>
      <trkpt lat="45.29356" lon="4.68837">
        <ele>518.20001220703</ele>
        <time>2016-01-13T10:01:11.000Z</time>
      </trkpt>
      <trkpt lat="45.29348" lon="4.68841">
        <ele>518</ele>
        <time>2016-01-13T10:01:12.000Z</time>
      </trkpt>
      <trkpt lat="45.29323" lon="4.68842">
        <ele>517.40002441406</ele>
        <time>2016-01-13T10:01:15.000Z</time>
      </trkpt>
      <trkpt lat="45.29303" lon="4.68828">
        <ele>517.20001220703</ele>
        <time>2016-01-13T10:01:18.000Z</time>
      </trkpt>
      <trkpt lat="45.29278" lon="4.68818">
        <ele>517.59997558594</ele>
        <time>2016-01-13T10:01:22.000Z</time>
      </trkpt>
      <trkpt lat="45.29274" lon="4.68824">
        <ele>517.59997558594</ele>
        <time>2016-01-13T10:01:23.000Z</time>
      </trkpt>
      <trkpt lat="45.29269" lon="4.68832">
        <ele>517.59997558594</ele>
        <time>2016-01-13T10:01:24.000Z</time>
      </trkpt>
      <trkpt lat="45.29266" lon="4.68839">
        <ele>517.40002441406</ele>
        <time>2016-01-13T10:01:25.000Z</time>
      </trkpt>
      <trkpt lat="45.29263" lon="4.68847">
        <ele>517</ele>
        <time>2016-01-13T10:01:26.000Z</time>
      </trkpt>
      <trkpt lat="45.2925" lon="4.68879">
        <ele>515.79998779297</ele>
        <time>2016-01-13T10:01:30.000Z</time>
      </trkpt>
      <trkpt lat="45.29246" lon="4.68886">
        <ele>515.59997558594</ele>
        <time>2016-01-13T10:01:31.000Z</time>
      </trkpt>
      <trkpt lat="45.29242" lon="4.68891">
        <ele>515.40002441406</ele>
        <time>2016-01-13T10:01:32.000Z</time>
      </trkpt>
      <trkpt lat="45.29236" lon="4.68895">
        <ele>515.20001220703</ele>
        <time>2016-01-13T10:01:33.000Z</time>
      </trkpt>
      <trkpt lat="45.2923" lon="4.68898">
        <ele>515</ele>
        <time>2016-01-13T10:01:34.000Z</time>
      </trkpt>
      <trkpt lat="45.29224" lon="4.68901">
        <ele>514.59997558594</ele>
        <time>2016-01-13T10:01:35.000Z</time>
      </trkpt>
      <trkpt lat="45.29169" lon="4.68922">
        <ele>514</ele>
        <time>2016-01-13T10:01:45.000Z</time>
      </trkpt>
      <trkpt lat="45.29148" lon="4.68922">
        <ele>514</ele>
        <time>2016-01-13T10:01:49.000Z</time>
      </trkpt>
      <trkpt lat="45.29144" lon="4.68922">
        <ele>514</ele>
        <time>2016-01-13T10:01:50.000Z</time>
      </trkpt>
      <trkpt lat="45.29082" lon="4.68933">
        <ele>514.79998779297</ele>
        <time>2016-01-13T10:02:04.000Z</time>
      </trkpt>
      <trkpt lat="45.29077" lon="4.68933">
        <ele>514.79998779297</ele>
        <time>2016-01-13T10:02:05.000Z</time>
      </trkpt>
      <trkpt lat="45.29051" lon="4.68933">
        <ele>515.79998779297</ele>
        <time>2016-01-13T10:02:11.000Z</time>
      </trkpt>
      <trkpt lat="45.29042" lon="4.68934">
        <ele>515.79998779297</ele>
        <time>2016-01-13T10:02:13.000Z</time>
      </trkpt>
      <trkpt lat="45.29034" lon="4.68932">
        <ele>515.79998779297</ele>
        <time>2016-01-13T10:02:15.000Z</time>
      </trkpt>
      <trkpt lat="45.29029" lon="4.68932">
        <ele>515.79998779297</ele>
        <time>2016-01-13T10:02:16.000Z</time>
      </trkpt>
      <trkpt lat="45.28974" lon="4.68908">
        <ele>517.20001220703</ele>
        <time>2016-01-13T10:02:31.000Z</time>
      </trkpt>
      <trkpt lat="45.28941" lon="4.68884">
        <ele>517.40002441406</ele>
        <time>2016-01-13T10:02:40.000Z</time>
      </trkpt>
      <trkpt lat="45.28899" lon="4.68847">
        <ele>517</ele>
        <time>2016-01-13T10:02:52.000Z</time>
      </trkpt>
      <trkpt lat="45.28832" lon="4.68758">
        <ele>517.20001220703</ele>
        <time>2016-01-13T10:03:11.000Z</time>
      </trkpt>
      <trkpt lat="45.28799" lon="4.68739">
        <ele>514.79998779297</ele>
        <time>2016-01-13T10:03:18.000Z</time>
      </trkpt>
      <trkpt lat="45.28743" lon="4.6868">
        <ele>515</ele>
        <time>2016-01-13T10:03:33.000Z</time>
      </trkpt>
      <trkpt lat="45.2867" lon="4.68612">
        <ele>515.59997558594</ele>
        <time>2016-01-13T10:03:52.000Z</time>
      </trkpt>
      <trkpt lat="45.28588" lon="4.68535">
        <ele>515.20001220703</ele>
        <time>2016-01-13T10:04:10.000Z</time>
      </trkpt>
      <trkpt lat="45.28574" lon="4.68522">
        <ele>515</ele>
        <time>2016-01-13T10:04:13.000Z</time>
      </trkpt>
      <trkpt lat="45.28546" lon="4.68509">
        <ele>513.59997558594</ele>
        <time>2016-01-13T10:04:18.000Z</time>
      </trkpt>
      <trkpt lat="45.28535" lon="4.68503">
        <ele>513.40002441406</ele>
        <time>2016-01-13T10:04:20.000Z</time>
      </trkpt>
      <trkpt lat="45.28467" lon="4.68442">
        <ele>514.20001220703</ele>
        <time>2016-01-13T10:04:34.000Z</time>
      </trkpt>
      <trkpt lat="45.28463" lon="4.68437">
        <ele>514.20001220703</ele>
        <time>2016-01-13T10:04:35.000Z</time>
      </trkpt>
      <trkpt lat="45.28459" lon="4.68432">
        <ele>514.40002441406</ele>
        <time>2016-01-13T10:04:36.000Z</time>
      </trkpt>
      <trkpt lat="45.28456" lon="4.68427">
        <ele>514.59997558594</ele>
        <time>2016-01-13T10:04:37.000Z</time>
      </trkpt>
      <trkpt lat="45.28427" lon="4.68352">
        <ele>517.59997558594</ele>
        <time>2016-01-13T10:04:54.000Z</time>
      </trkpt>
      <trkpt lat="45.2841" lon="4.683">
        <ele>519</ele>
        <time>2016-01-13T10:05:07.000Z</time>
      </trkpt>
      <trkpt lat="45.28394" lon="4.68222">
        <ele>519</ele>
        <time>2016-01-13T10:05:23.000Z</time>
      </trkpt>
      <trkpt lat="45.28384" lon="4.68161">
        <ele>517.59997558594</ele>
        <time>2016-01-13T10:05:35.000Z</time>
      </trkpt>
      <trkpt lat="45.28374" lon="4.68084">
        <ele>513.59997558594</ele>
        <time>2016-01-13T10:05:47.000Z</time>
      </trkpt>
      <trkpt lat="45.28375" lon="4.68074">
        <ele>513.20001220703</ele>
        <time>2016-01-13T10:05:48.000Z</time>
      </trkpt>
      <trkpt lat="45.28377" lon="4.68064">
        <ele>513</ele>
        <time>2016-01-13T10:05:49.000Z</time>
      </trkpt>
      <trkpt lat="45.28379" lon="4.68054">
        <ele>512.79998779297</ele>
        <time>2016-01-13T10:05:50.000Z</time>
      </trkpt>
      <trkpt lat="45.28381" lon="4.68045">
        <ele>512.59997558594</ele>
        <time>2016-01-13T10:05:51.000Z</time>
      </trkpt>
      <trkpt lat="45.28382" lon="4.68035">
        <ele>512.40002441406</ele>
        <time>2016-01-13T10:05:52.000Z</time>
      </trkpt>
      <trkpt lat="45.28382" lon="4.68026">
        <ele>512.20001220703</ele>
        <time>2016-01-13T10:05:53.000Z</time>
      </trkpt>
      <trkpt lat="45.2838" lon="4.68015">
        <ele>511.79998779297</ele>
        <time>2016-01-13T10:05:54.000Z</time>
      </trkpt>
      <trkpt lat="45.28376" lon="4.68006">
        <ele>511.20001220703</ele>
        <time>2016-01-13T10:05:55.000Z</time>
      </trkpt>
      <trkpt lat="45.2837" lon="4.67997">
        <ele>510.39999389648</ele>
        <time>2016-01-13T10:05:56.000Z</time>
      </trkpt>
      <trkpt lat="45.28363" lon="4.67988">
        <ele>509.60000610352</ele>
        <time>2016-01-13T10:05:57.000Z</time>
      </trkpt>
      <trkpt lat="45.2835" lon="4.67969">
        <ele>508</ele>
        <time>2016-01-13T10:05:59.000Z</time>
      </trkpt>
      <trkpt lat="45.28346" lon="4.67958">
        <ele>507.39999389648</ele>
        <time>2016-01-13T10:06:00.000Z</time>
      </trkpt>
      <trkpt lat="45.28342" lon="4.67946">
        <ele>507.20001220703</ele>
        <time>2016-01-13T10:06:01.000Z</time>
      </trkpt>
      <trkpt lat="45.28327" lon="4.67901">
        <ele>507.20001220703</ele>
        <time>2016-01-13T10:06:05.000Z</time>
      </trkpt>
      <trkpt lat="45.28312" lon="4.67862">
        <ele>508</ele>
        <time>2016-01-13T10:06:09.000Z</time>
      </trkpt>
      <trkpt lat="45.28272" lon="4.67766">
        <ele>510.79998779297</ele>
        <time>2016-01-13T10:06:22.000Z</time>
      </trkpt>
      <trkpt lat="45.28229" lon="4.677">
        <ele>511.60000610352</ele>
        <time>2016-01-13T10:06:36.000Z</time>
      </trkpt>
      <trkpt lat="45.28208" lon="4.67663">
        <ele>510.60000610352</ele>
        <time>2016-01-13T10:06:43.000Z</time>
      </trkpt>
      <trkpt lat="45.28185" lon="4.67629">
        <ele>509.79998779297</ele>
        <time>2016-01-13T10:06:50.000Z</time>
      </trkpt>
      <trkpt lat="45.28149" lon="4.67543">
        <ele>510.20001220703</ele>
        <time>2016-01-13T10:07:06.000Z</time>
      </trkpt>
      <trkpt lat="45.28139" lon="4.67472">
        <ele>511.60000610352</ele>
        <time>2016-01-13T10:07:19.000Z</time>
      </trkpt>
      <trkpt lat="45.28142" lon="4.67439">
        <ele>513</ele>
        <time>2016-01-13T10:07:28.000Z</time>
      </trkpt>
      <trkpt lat="45.28143" lon="4.67437">
        <ele>513</ele>
        <time>2016-01-13T10:07:29.000Z</time>
      </trkpt>
      <trkpt lat="45.28144" lon="4.67436">
        <ele>513.20001220703</ele>
        <time>2016-01-13T10:07:30.000Z</time>
      </trkpt>
      <trkpt lat="45.28146" lon="4.67435">
        <ele>513.40002441406</ele>
        <time>2016-01-13T10:07:31.000Z</time>
      </trkpt>
      <trkpt lat="45.28147" lon="4.67434">
        <ele>513.79998779297</ele>
        <time>2016-01-13T10:07:32.000Z</time>
      </trkpt>
      <trkpt lat="45.28149" lon="4.67433">
        <ele>514</ele>
        <time>2016-01-13T10:07:33.000Z</time>
      </trkpt>
      <trkpt lat="45.28151" lon="4.6743">
        <ele>514.20001220703</ele>
        <time>2016-01-13T10:07:35.000Z</time>
      </trkpt>
      <trkpt lat="45.2816" lon="4.67398">
        <ele>515.40002441406</ele>
        <time>2016-01-13T10:07:46.000Z</time>
      </trkpt>
      <trkpt lat="45.28146" lon="4.67347">
        <ele>513.40002441406</ele>
        <time>2016-01-13T10:07:57.000Z</time>
      </trkpt>
      <trkpt lat="45.2814" lon="4.67333">
        <ele>512.59997558594</ele>
        <time>2016-01-13T10:08:01.000Z</time>
      </trkpt>
      <trkpt lat="45.28138" lon="4.67332">
        <ele>512.40002441406</ele>
        <time>2016-01-13T10:08:02.000Z</time>
      </trkpt>
      <trkpt lat="45.28136" lon="4.67332">
        <ele>512</ele>
        <time>2016-01-13T10:08:03.000Z</time>
      </trkpt>
      <trkpt lat="45.28134" lon="4.67332">
        <ele>511.60000610352</ele>
        <time>2016-01-13T10:08:04.000Z</time>
      </trkpt>
      <trkpt lat="45.28132" lon="4.67332">
        <ele>511.39999389648</ele>
        <time>2016-01-13T10:08:05.000Z</time>
      </trkpt>
      <trkpt lat="45.28131" lon="4.67332">
        <ele>511.20001220703</ele>
        <time>2016-01-13T10:08:06.000Z</time>
      </trkpt>
      <trkpt lat="45.28128" lon="4.67332">
        <ele>510.79998779297</ele>
        <time>2016-01-13T10:08:08.000Z</time>
      </trkpt>
      <trkpt lat="45.28126" lon="4.67331">
        <ele>510.39999389648</ele>
        <time>2016-01-13T10:08:09.000Z</time>
      </trkpt>
      <trkpt lat="45.28125" lon="4.67329">
        <ele>510.39999389648</ele>
        <time>2016-01-13T10:08:10.000Z</time>
      </trkpt>
      <trkpt lat="45.28124" lon="4.67326">
        <ele>510.39999389648</ele>
        <time>2016-01-13T10:08:11.000Z</time>
      </trkpt>
      <trkpt lat="45.28124" lon="4.67322">
        <ele>510.39999389648</ele>
        <time>2016-01-13T10:08:12.000Z</time>
      </trkpt>
      <trkpt lat="45.28125" lon="4.67318">
        <ele>510.60000610352</ele>
        <time>2016-01-13T10:08:13.000Z</time>
      </trkpt>
      <trkpt lat="45.28126" lon="4.67314">
        <ele>510.79998779297</ele>
        <time>2016-01-13T10:08:14.000Z</time>
      </trkpt>
      <trkpt lat="45.28127" lon="4.6731">
        <ele>511</ele>
        <time>2016-01-13T10:08:15.000Z</time>
      </trkpt>
      <trkpt lat="45.28141" lon="4.67235">
        <ele>515.79998779297</ele>
        <time>2016-01-13T10:08:33.000Z</time>
      </trkpt>
      <trkpt lat="45.2816" lon="4.67178">
        <ele>521.79998779297</ele>
        <time>2016-01-13T10:08:49.000Z</time>
      </trkpt>
      <trkpt lat="45.28141" lon="4.67154">
        <ele>521</ele>
        <time>2016-01-13T10:08:59.000Z</time>
      </trkpt>
      <trkpt lat="45.28105" lon="4.67118">
        <ele>520.59997558594</ele>
        <time>2016-01-13T10:09:15.000Z</time>
      </trkpt>
      <trkpt lat="45.28074" lon="4.6708">
        <ele>523.40002441406</ele>
        <time>2016-01-13T10:09:31.000Z</time>
      </trkpt>
      <trkpt lat="45.2805" lon="4.67043">
        <ele>526.40002441406</ele>
        <time>2016-01-13T10:09:45.000Z</time>
      </trkpt>
      <trkpt lat="45.28015" lon="4.67">
        <ele>528.20001220703</ele>
        <time>2016-01-13T10:10:00.000Z</time>
      </trkpt>
      <trkpt lat="45.28014" lon="4.66995">
        <ele>528.59997558594</ele>
        <time>2016-01-13T10:10:01.000Z</time>
      </trkpt>
      <trkpt lat="45.28013" lon="4.66967">
        <ele>533</ele>
        <time>2016-01-13T10:10:11.000Z</time>
      </trkpt>
      <trkpt lat="45.28007" lon="4.66931">
        <ele>539</ele>
        <time>2016-01-13T10:10:27.000Z</time>
      </trkpt>
      <trkpt lat="45.28002" lon="4.669">
        <ele>545.20001220703</ele>
        <time>2016-01-13T10:10:40.000Z</time>
      </trkpt>
      <trkpt lat="45.27984" lon="4.6688">
        <ele>546.79998779297</ele>
        <time>2016-01-13T10:10:54.000Z</time>
      </trkpt>
      <trkpt lat="45.27957" lon="4.66865">
        <ele>546.79998779297</ele>
        <time>2016-01-13T10:11:10.000Z</time>
      </trkpt>
      <trkpt lat="45.27934" lon="4.6685">
        <ele>549.79998779297</ele>
        <time>2016-01-13T10:11:23.000Z</time>
      </trkpt>
      <trkpt lat="45.27908" lon="4.66835">
        <ele>552.40002441406</ele>
        <time>2016-01-13T10:11:37.000Z</time>
      </trkpt>
      <trkpt lat="45.27889" lon="4.66822">
        <ele>555</ele>
        <time>2016-01-13T10:11:48.000Z</time>
      </trkpt>
      <trkpt lat="45.27876" lon="4.66813">
        <ele>556.59997558594</ele>
        <time>2016-01-13T10:11:56.000Z</time>
      </trkpt>
      <trkpt lat="45.27865" lon="4.66811">
        <ele>556.59997558594</ele>
        <time>2016-01-13T10:12:02.000Z</time>
      </trkpt>
      <trkpt lat="45.27855" lon="4.66806">
        <ele>557.40002441406</ele>
        <time>2016-01-13T10:12:07.000Z</time>
      </trkpt>
      <trkpt lat="45.27828" lon="4.66793">
        <ele>559.40002441406</ele>
        <time>2016-01-13T10:12:20.000Z</time>
      </trkpt>
      <trkpt lat="45.27801" lon="4.66764">
        <ele>565.59997558594</ele>
        <time>2016-01-13T10:12:36.000Z</time>
      </trkpt>
      <trkpt lat="45.27784" lon="4.66745">
        <ele>568.20001220703</ele>
        <time>2016-01-13T10:12:47.000Z</time>
      </trkpt>
      <trkpt lat="45.27771" lon="4.66731">
        <ele>570.20001220703</ele>
        <time>2016-01-13T10:12:55.000Z</time>
      </trkpt>
      <trkpt lat="45.27764" lon="4.66718">
        <ele>572.40002441406</ele>
        <time>2016-01-13T10:13:02.000Z</time>
      </trkpt>
      <trkpt lat="45.27765" lon="4.66715">
        <ele>573.40002441406</ele>
        <time>2016-01-13T10:13:04.000Z</time>
      </trkpt>
      <trkpt lat="45.27769" lon="4.66717">
        <ele>573.40002441406</ele>
        <time>2016-01-13T10:13:07.000Z</time>
      </trkpt>
      <trkpt lat="45.27786" lon="4.66722">
        <ele>575</ele>
        <time>2016-01-13T10:13:17.000Z</time>
      </trkpt>
      <trkpt lat="45.27806" lon="4.66724">
        <ele>577</ele>
        <time>2016-01-13T10:13:29.000Z</time>
      </trkpt>
      <trkpt lat="45.27808" lon="4.66724">
        <ele>577</ele>
        <time>2016-01-13T10:13:30.000Z</time>
      </trkpt>
      <trkpt lat="45.27835" lon="4.66728">
        <ele>578</ele>
        <time>2016-01-13T10:13:43.000Z</time>
      </trkpt>
      <trkpt lat="45.27861" lon="4.66726">
        <ele>580.40002441406</ele>
        <time>2016-01-13T10:13:56.000Z</time>
      </trkpt>
      <trkpt lat="45.27889" lon="4.66724">
        <ele>583</ele>
        <time>2016-01-13T10:14:10.000Z</time>
      </trkpt>
      <trkpt lat="45.27918" lon="4.66717">
        <ele>586.79998779297</ele>
        <time>2016-01-13T10:14:23.000Z</time>
      </trkpt>
      <trkpt lat="45.27943" lon="4.66712">
        <ele>590</ele>
        <time>2016-01-13T10:14:34.000Z</time>
      </trkpt>
      <trkpt lat="45.27963" lon="4.66712">
        <ele>591.40002441406</ele>
        <time>2016-01-13T10:14:44.000Z</time>
      </trkpt>
      <trkpt lat="45.27991" lon="4.66712">
        <ele>593.59997558594</ele>
        <time>2016-01-13T10:14:58.000Z</time>
      </trkpt>
      <trkpt lat="45.28007" lon="4.66702">
        <ele>596.79998779297</ele>
        <time>2016-01-13T10:15:08.000Z</time>
      </trkpt>
      <trkpt lat="45.28012" lon="4.66701">
        <ele>597.20001220703</ele>
        <time>2016-01-13T10:15:11.000Z</time>
      </trkpt>
      <trkpt lat="45.28041" lon="4.66705">
        <ele>598.20001220703</ele>
        <time>2016-01-13T10:15:24.000Z</time>
      </trkpt>
      <trkpt lat="45.28074" lon="4.66713">
        <ele>595.59997558594</ele>
        <time>2016-01-13T10:15:38.000Z</time>
      </trkpt>
      <trkpt lat="45.28108" lon="4.66719">
        <ele>592.59997558594</ele>
        <time>2016-01-13T10:15:52.000Z</time>
      </trkpt>
      <trkpt lat="45.28141" lon="4.66698">
        <ele>595</ele>
        <time>2016-01-13T10:16:04.000Z</time>
      </trkpt>
      <trkpt lat="45.28157" lon="4.66658">
        <ele>602.20001220703</ele>
        <time>2016-01-13T10:16:15.000Z</time>
      </trkpt>
      <trkpt lat="45.28183" lon="4.66636">
        <ele>606</ele>
        <time>2016-01-13T10:16:25.000Z</time>
      </trkpt>
      <trkpt lat="45.28215" lon="4.6663">
        <ele>607.20001220703</ele>
        <time>2016-01-13T10:16:36.000Z</time>
      </trkpt>
      <trkpt lat="45.28231" lon="4.6663">
        <ele>607.40002441406</ele>
        <time>2016-01-13T10:16:42.000Z</time>
      </trkpt>
      <trkpt lat="45.28263" lon="4.66617">
        <ele>606.79998779297</ele>
        <time>2016-01-13T10:16:53.000Z</time>
      </trkpt>
      <trkpt lat="45.28298" lon="4.66609">
        <ele>605</ele>
        <time>2016-01-13T10:17:04.000Z</time>
      </trkpt>
      <trkpt lat="45.28323" lon="4.66601">
        <ele>604.40002441406</ele>
        <time>2016-01-13T10:17:13.000Z</time>
      </trkpt>
      <trkpt lat="45.28325" lon="4.66599">
        <ele>604.40002441406</ele>
        <time>2016-01-13T10:17:14.000Z</time>
      </trkpt>
      <trkpt lat="45.28346" lon="4.66581">
        <ele>603.20001220703</ele>
        <time>2016-01-13T10:17:24.000Z</time>
      </trkpt>
      <trkpt lat="45.28347" lon="4.6658">
        <ele>603</ele>
        <time>2016-01-13T10:17:29.000Z</time>
      </trkpt>
      <trkpt lat="45.28341" lon="4.66576">
        <ele>603.40002441406</ele>
        <time>2016-01-13T10:21:22.000Z</time>
      </trkpt>
      <trkpt lat="45.2834" lon="4.66578">
        <ele>603.79998779297</ele>
        <time>2016-01-13T10:21:23.000Z</time>
      </trkpt>
      <trkpt lat="45.28336" lon="4.6658">
        <ele>604</ele>
        <time>2016-01-13T10:21:25.000Z</time>
      </trkpt>
      <trkpt lat="45.28334" lon="4.66579">
        <ele>604</ele>
        <time>2016-01-13T10:21:26.000Z</time>
      </trkpt>
      <trkpt lat="45.28333" lon="4.66578">
        <ele>604.20001220703</ele>
        <time>2016-01-13T10:21:27.000Z</time>
      </trkpt>
      <trkpt lat="45.28331" lon="4.66577">
        <ele>604.20001220703</ele>
        <time>2016-01-13T10:21:28.000Z</time>
      </trkpt>
      <trkpt lat="45.28329" lon="4.66577">
        <ele>604.20001220703</ele>
        <time>2016-01-13T10:21:29.000Z</time>
      </trkpt>
      <trkpt lat="45.28327" lon="4.66576">
        <ele>604.20001220703</ele>
        <time>2016-01-13T10:21:30.000Z</time>
      </trkpt>
      <trkpt lat="45.28325" lon="4.66576">
        <ele>604.40002441406</ele>
        <time>2016-01-13T10:21:31.000Z</time>
      </trkpt>
      <trkpt lat="45.28323" lon="4.66575">
        <ele>604.40002441406</ele>
        <time>2016-01-13T10:21:32.000Z</time>
      </trkpt>
      <trkpt lat="45.28321" lon="4.66575">
        <ele>604.40002441406</ele>
        <time>2016-01-13T10:21:33.000Z</time>
      </trkpt>
      <trkpt lat="45.28319" lon="4.66575">
        <ele>604.40002441406</ele>
        <time>2016-01-13T10:21:34.000Z</time>
      </trkpt>
      <trkpt lat="45.28317" lon="4.66575">
        <ele>604.59997558594</ele>
        <time>2016-01-13T10:21:35.000Z</time>
      </trkpt>
      <trkpt lat="45.28314" lon="4.66575">
        <ele>604.59997558594</ele>
        <time>2016-01-13T10:21:36.000Z</time>
      </trkpt>
      <trkpt lat="45.28312" lon="4.66575">
        <ele>604.59997558594</ele>
        <time>2016-01-13T10:21:37.000Z</time>
      </trkpt>
      <trkpt lat="45.2831" lon="4.66575">
        <ele>604.59997558594</ele>
        <time>2016-01-13T10:21:38.000Z</time>
      </trkpt>
      <trkpt lat="45.28289" lon="4.66572">
        <ele>606</ele>
        <time>2016-01-13T10:21:48.000Z</time>
      </trkpt>
      <trkpt lat="45.28287" lon="4.66572">
        <ele>606.20001220703</ele>
        <time>2016-01-13T10:21:49.000Z</time>
      </trkpt>
      <trkpt lat="45.28285" lon="4.66572">
        <ele>606.59997558594</ele>
        <time>2016-01-13T10:21:50.000Z</time>
      </trkpt>
      <trkpt lat="45.28257" lon="4.66569">
        <ele>610.59997558594</ele>
        <time>2016-01-13T10:22:02.000Z</time>
      </trkpt>
      <trkpt lat="45.28229" lon="4.66563">
        <ele>613.59997558594</ele>
        <time>2016-01-13T10:22:15.000Z</time>
      </trkpt>
      <trkpt lat="45.28195" lon="4.66562">
        <ele>614.40002441406</ele>
        <time>2016-01-13T10:22:29.000Z</time>
      </trkpt>
      <trkpt lat="45.28182" lon="4.66563">
        <ele>614.40002441406</ele>
        <time>2016-01-13T10:22:34.000Z</time>
      </trkpt>
      <trkpt lat="45.2818" lon="4.66562">
        <ele>614.59997558594</ele>
        <time>2016-01-13T10:22:35.000Z</time>
      </trkpt>
      <trkpt lat="45.28171" lon="4.66559">
        <ele>614.79998779297</ele>
        <time>2016-01-13T10:22:39.000Z</time>
      </trkpt>
      <trkpt lat="45.2816" lon="4.6657">
        <ele>613.79998779297</ele>
        <time>2016-01-13T10:22:43.000Z</time>
      </trkpt>
      <trkpt lat="45.28156" lon="4.66572">
        <ele>613.59997558594</ele>
        <time>2016-01-13T10:22:44.000Z</time>
      </trkpt>
      <trkpt lat="45.28144" lon="4.66573">
        <ele>613.40002441406</ele>
        <time>2016-01-13T10:22:47.000Z</time>
      </trkpt>
      <trkpt lat="45.2813" lon="4.66576">
        <ele>613.20001220703</ele>
        <time>2016-01-13T10:22:52.000Z</time>
      </trkpt>
      <trkpt lat="45.28119" lon="4.66578">
        <ele>612.20001220703</ele>
        <time>2016-01-13T10:22:58.000Z</time>
      </trkpt>
      <trkpt lat="45.28117" lon="4.66575">
        <ele>612.40002441406</ele>
        <time>2016-01-13T10:23:00.000Z</time>
      </trkpt>
      <trkpt lat="45.28105" lon="4.66576">
        <ele>611.40002441406</ele>
        <time>2016-01-13T10:23:06.000Z</time>
      </trkpt>
      <trkpt lat="45.28083" lon="4.66584">
        <ele>610</ele>
        <time>2016-01-13T10:23:15.000Z</time>
      </trkpt>
      <trkpt lat="45.28074" lon="4.66593">
        <ele>610</ele>
        <time>2016-01-13T10:23:20.000Z</time>
      </trkpt>
      <trkpt lat="45.28062" lon="4.66597">
        <ele>610</ele>
        <time>2016-01-13T10:23:24.000Z</time>
      </trkpt>
      <trkpt lat="45.28048" lon="4.66596">
        <ele>610.20001220703</ele>
        <time>2016-01-13T10:23:29.000Z</time>
      </trkpt>
      <trkpt lat="45.28032" lon="4.666">
        <ele>608.40002441406</ele>
        <time>2016-01-13T10:23:36.000Z</time>
      </trkpt>
      <trkpt lat="45.28021" lon="4.66605">
        <ele>607.59997558594</ele>
        <time>2016-01-13T10:23:43.000Z</time>
      </trkpt>
      <trkpt lat="45.28007" lon="4.66574">
        <ele>605.79998779297</ele>
        <time>2016-01-13T10:23:53.000Z</time>
      </trkpt>
      <trkpt lat="45.27999" lon="4.66573">
        <ele>605</ele>
        <time>2016-01-13T10:23:57.000Z</time>
      </trkpt>
      <trkpt lat="45.27968" lon="4.66582">
        <ele>603</ele>
        <time>2016-01-13T10:24:08.000Z</time>
      </trkpt>
      <trkpt lat="45.27949" lon="4.66574">
        <ele>602.59997558594</ele>
        <time>2016-01-13T10:24:14.000Z</time>
      </trkpt>
      <trkpt lat="45.27938" lon="4.66565">
        <ele>602.40002441406</ele>
        <time>2016-01-13T10:24:22.000Z</time>
      </trkpt>
      <trkpt lat="45.27935" lon="4.66561">
        <ele>602.20001220703</ele>
        <time>2016-01-13T10:24:28.000Z</time>
      </trkpt>
      <trkpt lat="45.27928" lon="4.66524">
        <ele>600.20001220703</ele>
        <time>2016-01-13T10:24:41.000Z</time>
      </trkpt>
      <trkpt lat="45.27901" lon="4.66476">
        <ele>595.20001220703</ele>
        <time>2016-01-13T10:24:58.000Z</time>
      </trkpt>
      <trkpt lat="45.27887" lon="4.66458">
        <ele>593.40002441406</ele>
        <time>2016-01-13T10:25:05.000Z</time>
      </trkpt>
      <trkpt lat="45.27885" lon="4.66443">
        <ele>590.59997558594</ele>
        <time>2016-01-13T10:25:11.000Z</time>
      </trkpt>
      <trkpt lat="45.27886" lon="4.66438">
        <ele>589.79998779297</ele>
        <time>2016-01-13T10:25:18.000Z</time>
      </trkpt>
      <trkpt lat="45.27912" lon="4.66439">
        <ele>589.20001220703</ele>
        <time>2016-01-13T10:26:05.000Z</time>
      </trkpt>
      <trkpt lat="45.2798" lon="4.66433">
        <ele>589.79998779297</ele>
        <time>2016-01-13T10:26:14.000Z</time>
      </trkpt>
      <trkpt lat="45.27988" lon="4.66433">
        <ele>591</ele>
        <time>2016-01-13T10:26:15.000Z</time>
      </trkpt>
      <trkpt lat="45.28005" lon="4.66429">
        <ele>592.79998779297</ele>
        <time>2016-01-13T10:26:17.000Z</time>
      </trkpt>
      <trkpt lat="45.28025" lon="4.66406">
        <ele>593</ele>
        <time>2016-01-13T10:26:21.000Z</time>
      </trkpt>
      <trkpt lat="45.28027" lon="4.66397">
        <ele>592.40002441406</ele>
        <time>2016-01-13T10:26:22.000Z</time>
      </trkpt>
      <trkpt lat="45.28031" lon="4.66383">
        <ele>591.40002441406</ele>
        <time>2016-01-13T10:26:25.000Z</time>
      </trkpt>
      <trkpt lat="45.28038" lon="4.66366">
        <ele>591.20001220703</ele>
        <time>2016-01-13T10:26:32.000Z</time>
      </trkpt>
      <trkpt lat="45.28044" lon="4.66344">
        <ele>589.79998779297</ele>
        <time>2016-01-13T10:26:44.000Z</time>
      </trkpt>
      <trkpt lat="45.28052" lon="4.66326">
        <ele>589.40002441406</ele>
        <time>2016-01-13T10:26:49.000Z</time>
      </trkpt>
      <trkpt lat="45.28054" lon="4.66324">
        <ele>589.40002441406</ele>
        <time>2016-01-13T10:26:50.000Z</time>
      </trkpt>
      <trkpt lat="45.28055" lon="4.66321">
        <ele>589.20001220703</ele>
        <time>2016-01-13T10:26:51.000Z</time>
      </trkpt>
      <trkpt lat="45.28053" lon="4.66318">
        <ele>588.59997558594</ele>
        <time>2016-01-13T10:26:53.000Z</time>
      </trkpt>
      <trkpt lat="45.2805" lon="4.66318">
        <ele>588.20001220703</ele>
        <time>2016-01-13T10:26:54.000Z</time>
      </trkpt>
      <trkpt lat="45.28047" lon="4.66318">
        <ele>587.59997558594</ele>
        <time>2016-01-13T10:26:55.000Z</time>
      </trkpt>
      <trkpt lat="45.28039" lon="4.66318">
        <ele>586.20001220703</ele>
        <time>2016-01-13T10:26:57.000Z</time>
      </trkpt>
      <trkpt lat="45.28036" lon="4.66314">
        <ele>585.40002441406</ele>
        <time>2016-01-13T10:26:58.000Z</time>
      </trkpt>
      <trkpt lat="45.28033" lon="4.66308">
        <ele>584.40002441406</ele>
        <time>2016-01-13T10:26:59.000Z</time>
      </trkpt>
      <trkpt lat="45.2803" lon="4.66302">
        <ele>583.20001220703</ele>
        <time>2016-01-13T10:27:00.000Z</time>
      </trkpt>
      <trkpt lat="45.28027" lon="4.66296">
        <ele>582</ele>
        <time>2016-01-13T10:27:01.000Z</time>
      </trkpt>
      <trkpt lat="45.28025" lon="4.6629">
        <ele>581</ele>
        <time>2016-01-13T10:27:02.000Z</time>
      </trkpt>
      <trkpt lat="45.28023" lon="4.66284">
        <ele>580.40002441406</ele>
        <time>2016-01-13T10:27:03.000Z</time>
      </trkpt>
      <trkpt lat="45.28023" lon="4.66279">
        <ele>579.79998779297</ele>
        <time>2016-01-13T10:27:04.000Z</time>
      </trkpt>
      <trkpt lat="45.28023" lon="4.66274">
        <ele>579.40002441406</ele>
        <time>2016-01-13T10:27:05.000Z</time>
      </trkpt>
      <trkpt lat="45.28022" lon="4.66265">
        <ele>578.79998779297</ele>
        <time>2016-01-13T10:27:07.000Z</time>
      </trkpt>
      <trkpt lat="45.28017" lon="4.66258">
        <ele>577.40002441406</ele>
        <time>2016-01-13T10:27:09.000Z</time>
      </trkpt>
      <trkpt lat="45.28012" lon="4.6625">
        <ele>575.79998779297</ele>
        <time>2016-01-13T10:27:11.000Z</time>
      </trkpt>
      <trkpt lat="45.28007" lon="4.66233">
        <ele>572.79998779297</ele>
        <time>2016-01-13T10:27:14.000Z</time>
      </trkpt>
      <trkpt lat="45.28007" lon="4.66213">
        <ele>569.79998779297</ele>
        <time>2016-01-13T10:27:17.000Z</time>
      </trkpt>
      <trkpt lat="45.28007" lon="4.66199">
        <ele>567.79998779297</ele>
        <time>2016-01-13T10:27:19.000Z</time>
      </trkpt>
      <trkpt lat="45.28003" lon="4.66184">
        <ele>565.79998779297</ele>
        <time>2016-01-13T10:27:22.000Z</time>
      </trkpt>
      <trkpt lat="45.28005" lon="4.66153">
        <ele>562</ele>
        <time>2016-01-13T10:27:28.000Z</time>
      </trkpt>
      <trkpt lat="45.27992" lon="4.66131">
        <ele>558.20001220703</ele>
        <time>2016-01-13T10:27:35.000Z</time>
      </trkpt>
      <trkpt lat="45.27979" lon="4.66121">
        <ele>556.20001220703</ele>
        <time>2016-01-13T10:27:39.000Z</time>
      </trkpt>
      <trkpt lat="45.27971" lon="4.66102">
        <ele>552.20001220703</ele>
        <time>2016-01-13T10:27:42.000Z</time>
      </trkpt>
      <trkpt lat="45.27956" lon="4.66083">
        <ele>548</ele>
        <time>2016-01-13T10:27:46.000Z</time>
      </trkpt>
      <trkpt lat="45.27939" lon="4.66063">
        <ele>543.20001220703</ele>
        <time>2016-01-13T10:27:50.000Z</time>
      </trkpt>
      <trkpt lat="45.27928" lon="4.66051">
        <ele>540.40002441406</ele>
        <time>2016-01-13T10:27:53.000Z</time>
      </trkpt>
      <trkpt lat="45.27918" lon="4.66035">
        <ele>536.79998779297</ele>
        <time>2016-01-13T10:27:56.000Z</time>
      </trkpt>
      <trkpt lat="45.27915" lon="4.66031">
        <ele>536</ele>
        <time>2016-01-13T10:27:57.000Z</time>
      </trkpt>
      <trkpt lat="45.27893" lon="4.66011">
        <ele>532.59997558594</ele>
        <time>2016-01-13T10:28:02.000Z</time>
      </trkpt>
      <trkpt lat="45.27888" lon="4.66007">
        <ele>532</ele>
        <time>2016-01-13T10:28:03.000Z</time>
      </trkpt>
      <trkpt lat="45.27869" lon="4.65988">
        <ele>528.20001220703</ele>
        <time>2016-01-13T10:28:07.000Z</time>
      </trkpt>
      <trkpt lat="45.27863" lon="4.65982">
        <ele>527</ele>
        <time>2016-01-13T10:28:08.000Z</time>
      </trkpt>
      <trkpt lat="45.27842" lon="4.65957">
        <ele>521.59997558594</ele>
        <time>2016-01-13T10:28:12.000Z</time>
      </trkpt>
      <trkpt lat="45.27824" lon="4.6594">
        <ele>518</ele>
        <time>2016-01-13T10:28:15.000Z</time>
      </trkpt>
      <trkpt lat="45.2781" lon="4.65927">
        <ele>515.40002441406</ele>
        <time>2016-01-13T10:28:17.000Z</time>
      </trkpt>
      <trkpt lat="45.27796" lon="4.65915">
        <ele>513</ele>
        <time>2016-01-13T10:28:19.000Z</time>
      </trkpt>
      <trkpt lat="45.27781" lon="4.65902">
        <ele>510.39999389648</ele>
        <time>2016-01-13T10:28:21.000Z</time>
      </trkpt>
      <trkpt lat="45.27767" lon="4.65887">
        <ele>507.79998779297</ele>
        <time>2016-01-13T10:28:23.000Z</time>
      </trkpt>
      <trkpt lat="45.27751" lon="4.65872">
        <ele>505</ele>
        <time>2016-01-13T10:28:25.000Z</time>
      </trkpt>
      <trkpt lat="45.27729" lon="4.65851">
        <ele>501.60000610352</ele>
        <time>2016-01-13T10:28:28.000Z</time>
      </trkpt>
      <trkpt lat="45.27712" lon="4.65832">
        <ele>498.79998779297</ele>
        <time>2016-01-13T10:28:31.000Z</time>
      </trkpt>
      <trkpt lat="45.27698" lon="4.65818">
        <ele>496.39999389648</ele>
        <time>2016-01-13T10:28:34.000Z</time>
      </trkpt>
      <trkpt lat="45.2769" lon="4.6581">
        <ele>495</ele>
        <time>2016-01-13T10:28:36.000Z</time>
      </trkpt>
      <trkpt lat="45.27687" lon="4.65805">
        <ele>494.39999389648</ele>
        <time>2016-01-13T10:28:37.000Z</time>
      </trkpt>
      <trkpt lat="45.27682" lon="4.65801">
        <ele>493.60000610352</ele>
        <time>2016-01-13T10:28:38.000Z</time>
      </trkpt>
      <trkpt lat="45.27658" lon="4.6578">
        <ele>489.79998779297</ele>
        <time>2016-01-13T10:28:45.000Z</time>
      </trkpt>
      <trkpt lat="45.27653" lon="4.65775">
        <ele>488.79998779297</ele>
        <time>2016-01-13T10:28:48.000Z</time>
      </trkpt>
      <trkpt lat="45.27649" lon="4.65777">
        <ele>488.60000610352</ele>
        <time>2016-01-13T10:28:53.000Z</time>
      </trkpt>
      <trkpt lat="45.27649" lon="4.65777">
        <ele>488.60000610352</ele>
        <time>2016-01-13T10:28:54.000Z</time>
      </trkpt>
      <trkpt lat="45.27647" lon="4.65788">
        <ele>489.60000610352</ele>
        <time>2016-01-13T10:29:54.000Z</time>
      </trkpt>
      <trkpt lat="45.27646" lon="4.65791">
        <ele>489.79998779297</ele>
        <time>2016-01-13T10:29:55.000Z</time>
      </trkpt>
      <trkpt lat="45.27645" lon="4.65794">
        <ele>490</ele>
        <time>2016-01-13T10:29:56.000Z</time>
      </trkpt>
      <trkpt lat="45.27642" lon="4.65804">
        <ele>490.60000610352</ele>
        <time>2016-01-13T10:30:04.000Z</time>
      </trkpt>
      <trkpt lat="45.27639" lon="4.65811">
        <ele>490.60000610352</ele>
        <time>2016-01-13T10:30:11.000Z</time>
      </trkpt>
      <trkpt lat="45.27617" lon="4.65863">
        <ele>492</ele>
        <time>2016-01-13T10:30:23.000Z</time>
      </trkpt>
      <trkpt lat="45.27577" lon="4.65905">
        <ele>488.79998779297</ele>
        <time>2016-01-13T10:30:35.000Z</time>
      </trkpt>
      <trkpt lat="45.27573" lon="4.65908">
        <ele>488.60000610352</ele>
        <time>2016-01-13T10:30:36.000Z</time>
      </trkpt>
      <trkpt lat="45.27569" lon="4.6591">
        <ele>488.20001220703</ele>
        <time>2016-01-13T10:30:37.000Z</time>
      </trkpt>
      <trkpt lat="45.27565" lon="4.65912">
        <ele>487.79998779297</ele>
        <time>2016-01-13T10:30:38.000Z</time>
      </trkpt>
      <trkpt lat="45.2756" lon="4.65913">
        <ele>487.20001220703</ele>
        <time>2016-01-13T10:30:39.000Z</time>
      </trkpt>
      <trkpt lat="45.27522" lon="4.6592">
        <ele>484.39999389648</ele>
        <time>2016-01-13T10:30:48.000Z</time>
      </trkpt>
      <trkpt lat="45.27518" lon="4.65922">
        <ele>484.20001220703</ele>
        <time>2016-01-13T10:30:49.000Z</time>
      </trkpt>
      <trkpt lat="45.27515" lon="4.65925">
        <ele>484</ele>
        <time>2016-01-13T10:30:50.000Z</time>
      </trkpt>
      <trkpt lat="45.27495" lon="4.6595">
        <ele>483.60000610352</ele>
        <time>2016-01-13T10:30:59.000Z</time>
      </trkpt>
      <trkpt lat="45.27499" lon="4.65946">
        <ele>483.60000610352</ele>
        <time>2016-01-13T10:31:02.000Z</time>
      </trkpt>
      <trkpt lat="45.275" lon="4.65944">
        <ele>483.79998779297</ele>
        <time>2016-01-13T10:31:03.000Z</time>
      </trkpt>
      <trkpt lat="45.27529" lon="4.6592">
        <ele>484.79998779297</ele>
        <time>2016-01-13T10:31:16.000Z</time>
      </trkpt>
      <trkpt lat="45.27528" lon="4.65919">
        <ele>484.60000610352</ele>
        <time>2016-01-13T10:31:21.000Z</time>
      </trkpt>
      <trkpt lat="45.27522" lon="4.65922">
        <ele>484.39999389648</ele>
        <time>2016-01-13T10:36:30.000Z</time>
      </trkpt>
      <trkpt lat="45.27518" lon="4.65925">
        <ele>484.20001220703</ele>
        <time>2016-01-13T10:36:32.000Z</time>
      </trkpt>
      <trkpt lat="45.27498" lon="4.65944">
        <ele>483.60000610352</ele>
        <time>2016-01-13T10:36:38.000Z</time>
      </trkpt>
      <trkpt lat="45.27458" lon="4.66002">
        <ele>482.79998779297</ele>
        <time>2016-01-13T10:36:47.000Z</time>
      </trkpt>
      <trkpt lat="45.27452" lon="4.66008">
        <ele>482.39999389648</ele>
        <time>2016-01-13T10:36:48.000Z</time>
      </trkpt>
      <trkpt lat="45.27446" lon="4.66013">
        <ele>482</ele>
        <time>2016-01-13T10:36:49.000Z</time>
      </trkpt>
      <trkpt lat="45.27439" lon="4.66017">
        <ele>481.39999389648</ele>
        <time>2016-01-13T10:36:50.000Z</time>
      </trkpt>
      <trkpt lat="45.27432" lon="4.6602">
        <ele>480.79998779297</ele>
        <time>2016-01-13T10:36:51.000Z</time>
      </trkpt>
      <trkpt lat="45.27419" lon="4.66023">
        <ele>479.39999389648</ele>
        <time>2016-01-13T10:36:54.000Z</time>
      </trkpt>
      <trkpt lat="45.27418" lon="4.66019">
        <ele>479</ele>
        <time>2016-01-13T10:36:55.000Z</time>
      </trkpt>
      <trkpt lat="45.27418" lon="4.66014">
        <ele>478.79998779297</ele>
        <time>2016-01-13T10:36:56.000Z</time>
      </trkpt>
      <trkpt lat="45.27419" lon="4.66008">
        <ele>478.79998779297</ele>
        <time>2016-01-13T10:36:57.000Z</time>
      </trkpt>
      <trkpt lat="45.2742" lon="4.66002">
        <ele>478.60000610352</ele>
        <time>2016-01-13T10:36:58.000Z</time>
      </trkpt>
      <trkpt lat="45.27421" lon="4.65995">
        <ele>478.60000610352</ele>
        <time>2016-01-13T10:36:59.000Z</time>
      </trkpt>
      <trkpt lat="45.27423" lon="4.6598">
        <ele>478</ele>
        <time>2016-01-13T10:37:01.000Z</time>
      </trkpt>
      <trkpt lat="45.27423" lon="4.65972">
        <ele>477.60000610352</ele>
        <time>2016-01-13T10:37:02.000Z</time>
      </trkpt>
      <trkpt lat="45.27421" lon="4.65922">
        <ele>476.79998779297</ele>
        <time>2016-01-13T10:37:09.000Z</time>
      </trkpt>
      <trkpt lat="45.27421" lon="4.6581">
        <ele>472</ele>
        <time>2016-01-13T10:37:25.000Z</time>
      </trkpt>
      <trkpt lat="45.27422" lon="4.65796">
        <ele>471.20001220703</ele>
        <time>2016-01-13T10:37:27.000Z</time>
      </trkpt>
      <trkpt lat="45.27422" lon="4.65743">
        <ele>466</ele>
        <time>2016-01-13T10:37:34.000Z</time>
      </trkpt>
      <trkpt lat="45.27418" lon="4.65741">
        <ele>465.60000610352</ele>
        <time>2016-01-13T10:37:35.000Z</time>
      </trkpt>
      <trkpt lat="45.27409" lon="4.65743">
        <ele>465.39999389648</ele>
        <time>2016-01-13T10:37:37.000Z</time>
      </trkpt>
      <trkpt lat="45.27405" lon="4.65744">
        <ele>465.39999389648</ele>
        <time>2016-01-13T10:37:38.000Z</time>
      </trkpt>
      <trkpt lat="45.27332" lon="4.65788">
        <ele>466.20001220703</ele>
        <time>2016-01-13T10:37:52.000Z</time>
      </trkpt>
      <trkpt lat="45.27325" lon="4.65795">
        <ele>466.20001220703</ele>
        <time>2016-01-13T10:37:53.000Z</time>
      </trkpt>
      <trkpt lat="45.27318" lon="4.65804">
        <ele>466.20001220703</ele>
        <time>2016-01-13T10:37:54.000Z</time>
      </trkpt>
      <trkpt lat="45.27286" lon="4.65848">
        <ele>463</ele>
        <time>2016-01-13T10:37:59.000Z</time>
      </trkpt>
      <trkpt lat="45.27274" lon="4.65865">
        <ele>461</ele>
        <time>2016-01-13T10:38:01.000Z</time>
      </trkpt>
      <trkpt lat="45.27249" lon="4.65904">
        <ele>456.39999389648</ele>
        <time>2016-01-13T10:38:05.000Z</time>
      </trkpt>
      <trkpt lat="45.27214" lon="4.65958">
        <ele>449</ele>
        <time>2016-01-13T10:38:10.000Z</time>
      </trkpt>
      <trkpt lat="45.27196" lon="4.65986">
        <ele>447</ele>
        <time>2016-01-13T10:38:13.000Z</time>
      </trkpt>
      <trkpt lat="45.27184" lon="4.66002">
        <ele>445.60000610352</ele>
        <time>2016-01-13T10:38:16.000Z</time>
      </trkpt>
      <trkpt lat="45.27182" lon="4.66002">
        <ele>445.39999389648</ele>
        <time>2016-01-13T10:38:17.000Z</time>
      </trkpt>
      <trkpt lat="45.27179" lon="4.66">
        <ele>445.20001220703</ele>
        <time>2016-01-13T10:38:18.000Z</time>
      </trkpt>
      <trkpt lat="45.27177" lon="4.65997">
        <ele>445</ele>
        <time>2016-01-13T10:38:19.000Z</time>
      </trkpt>
      <trkpt lat="45.27165" lon="4.65937">
        <ele>444.79998779297</ele>
        <time>2016-01-13T10:38:31.000Z</time>
      </trkpt>
      <trkpt lat="45.27151" lon="4.65845">
        <ele>446.20001220703</ele>
        <time>2016-01-13T10:38:48.000Z</time>
      </trkpt>
      <trkpt lat="45.27146" lon="4.65769">
        <ele>447.60000610352</ele>
        <time>2016-01-13T10:39:04.000Z</time>
      </trkpt>
      <trkpt lat="45.27135" lon="4.65701">
        <ele>445.60000610352</ele>
        <time>2016-01-13T10:39:19.000Z</time>
      </trkpt>
      <trkpt lat="45.27105" lon="4.65616">
        <ele>440.20001220703</ele>
        <time>2016-01-13T10:39:31.000Z</time>
      </trkpt>
      <trkpt lat="45.27101" lon="4.65608">
        <ele>439.39999389648</ele>
        <time>2016-01-13T10:39:32.000Z</time>
      </trkpt>
      <trkpt lat="45.27074" lon="4.65558">
        <ele>435</ele>
        <time>2016-01-13T10:39:37.000Z</time>
      </trkpt>
      <trkpt lat="45.27069" lon="4.65547">
        <ele>434</ele>
        <time>2016-01-13T10:39:38.000Z</time>
      </trkpt>
      <trkpt lat="45.27055" lon="4.6552">
        <ele>430.39999389648</ele>
        <time>2016-01-13T10:39:41.000Z</time>
      </trkpt>
      <trkpt lat="45.27048" lon="4.65514">
        <ele>429.20001220703</ele>
        <time>2016-01-13T10:39:42.000Z</time>
      </trkpt>
      <trkpt lat="45.27039" lon="4.65508">
        <ele>427.60000610352</ele>
        <time>2016-01-13T10:39:43.000Z</time>
      </trkpt>
      <trkpt lat="45.2703" lon="4.65502">
        <ele>426</ele>
        <time>2016-01-13T10:39:44.000Z</time>
      </trkpt>
      <trkpt lat="45.26986" lon="4.65478">
        <ele>418.60000610352</ele>
        <time>2016-01-13T10:39:49.000Z</time>
      </trkpt>
      <trkpt lat="45.26974" lon="4.65482">
        <ele>417.79998779297</ele>
        <time>2016-01-13T10:39:52.000Z</time>
      </trkpt>
      <trkpt lat="45.26969" lon="4.65489">
        <ele>418</ele>
        <time>2016-01-13T10:39:54.000Z</time>
      </trkpt>
      <trkpt lat="45.2696" lon="4.65504">
        <ele>418.79998779297</ele>
        <time>2016-01-13T10:39:58.000Z</time>
      </trkpt>
      <trkpt lat="45.26934" lon="4.65528">
        <ele>418.79998779297</ele>
        <time>2016-01-13T10:40:08.000Z</time>
      </trkpt>
      <trkpt lat="45.2693" lon="4.65531">
        <ele>418.60000610352</ele>
        <time>2016-01-13T10:40:10.000Z</time>
      </trkpt>
      <trkpt lat="45.26927" lon="4.65531">
        <ele>418.20001220703</ele>
        <time>2016-01-13T10:40:12.000Z</time>
      </trkpt>
      <trkpt lat="45.26914" lon="4.65505">
        <ele>414.20001220703</ele>
        <time>2016-01-13T10:40:22.000Z</time>
      </trkpt>
      <trkpt lat="45.26911" lon="4.6549">
        <ele>412.39999389648</ele>
        <time>2016-01-13T10:40:26.000Z</time>
      </trkpt>
      <trkpt lat="45.26911" lon="4.65489">
        <ele>412.20001220703</ele>
        <time>2016-01-13T10:40:31.000Z</time>
      </trkpt>
      <trkpt lat="45.2691" lon="4.6549">
        <ele>412.20001220703</ele>
        <time>2016-01-13T10:40:34.000Z</time>
      </trkpt>
      <trkpt lat="45.26909" lon="4.6548">
        <ele>411.20001220703</ele>
        <time>2016-01-13T10:41:07.000Z</time>
      </trkpt>
      <trkpt lat="45.26905" lon="4.65415">
        <ele>407.79998779297</ele>
        <time>2016-01-13T10:41:20.000Z</time>
      </trkpt>
      <trkpt lat="45.26903" lon="4.65389">
        <ele>407.79998779297</ele>
        <time>2016-01-13T10:41:25.000Z</time>
      </trkpt>
      <trkpt lat="45.26901" lon="4.65372">
        <ele>406.79998779297</ele>
        <time>2016-01-13T10:41:28.000Z</time>
      </trkpt>
      <trkpt lat="45.26898" lon="4.65299">
        <ele>407.20001220703</ele>
        <time>2016-01-13T10:41:42.000Z</time>
      </trkpt>
      <trkpt lat="45.26895" lon="4.65271">
        <ele>407.20001220703</ele>
        <time>2016-01-13T10:41:49.000Z</time>
      </trkpt>
      <trkpt lat="45.26895" lon="4.65265">
        <ele>407.20001220703</ele>
        <time>2016-01-13T10:41:50.000Z</time>
      </trkpt>
      <trkpt lat="45.26896" lon="4.65194">
        <ele>407.60000610352</ele>
        <time>2016-01-13T10:42:03.000Z</time>
      </trkpt>
      <trkpt lat="45.26902" lon="4.65148">
        <ele>407.79998779297</ele>
        <time>2016-01-13T10:42:13.000Z</time>
      </trkpt>
      <trkpt lat="45.26903" lon="4.65133">
        <ele>408.39999389648</ele>
        <time>2016-01-13T10:42:16.000Z</time>
      </trkpt>
      <trkpt lat="45.26909" lon="4.65095">
        <ele>409.20001220703</ele>
        <time>2016-01-13T10:42:24.000Z</time>
      </trkpt>
      <trkpt lat="45.26925" lon="4.65044">
        <ele>412.20001220703</ele>
        <time>2016-01-13T10:42:34.000Z</time>
      </trkpt>
      <trkpt lat="45.2693" lon="4.65033">
        <ele>413.20001220703</ele>
        <time>2016-01-13T10:42:36.000Z</time>
      </trkpt>
      <trkpt lat="45.26933" lon="4.65029">
        <ele>413.60000610352</ele>
        <time>2016-01-13T10:42:37.000Z</time>
      </trkpt>
      <trkpt lat="45.26935" lon="4.65024">
        <ele>414</ele>
        <time>2016-01-13T10:42:38.000Z</time>
      </trkpt>
      <trkpt lat="45.26938" lon="4.6502">
        <ele>414.39999389648</ele>
        <time>2016-01-13T10:42:39.000Z</time>
      </trkpt>
      <trkpt lat="45.2694" lon="4.65016">
        <ele>414.60000610352</ele>
        <time>2016-01-13T10:42:40.000Z</time>
      </trkpt>
      <trkpt lat="45.26976" lon="4.64952">
        <ele>412.20001220703</ele>
        <time>2016-01-13T10:42:54.000Z</time>
      </trkpt>
      <trkpt lat="45.26989" lon="4.64931">
        <ele>412.79998779297</ele>
        <time>2016-01-13T10:42:59.000Z</time>
      </trkpt>
      <trkpt lat="45.26993" lon="4.64927">
        <ele>413</ele>
        <time>2016-01-13T10:43:00.000Z</time>
      </trkpt>
      <trkpt lat="45.26996" lon="4.64923">
        <ele>413</ele>
        <time>2016-01-13T10:43:01.000Z</time>
      </trkpt>
      <trkpt lat="45.26999" lon="4.6492">
        <ele>413.20001220703</ele>
        <time>2016-01-13T10:43:02.000Z</time>
      </trkpt>
      <trkpt lat="45.27001" lon="4.64916">
        <ele>413.39999389648</ele>
        <time>2016-01-13T10:43:03.000Z</time>
      </trkpt>
      <trkpt lat="45.27003" lon="4.64913">
        <ele>413.39999389648</ele>
        <time>2016-01-13T10:43:04.000Z</time>
      </trkpt>
      <trkpt lat="45.27006" lon="4.6491">
        <ele>413.39999389648</ele>
        <time>2016-01-13T10:43:05.000Z</time>
      </trkpt>
      <trkpt lat="45.27009" lon="4.64907">
        <ele>413.20001220703</ele>
        <time>2016-01-13T10:43:06.000Z</time>
      </trkpt>
      <trkpt lat="45.27011" lon="4.64904">
        <ele>412.79998779297</ele>
        <time>2016-01-13T10:43:07.000Z</time>
      </trkpt>
      <trkpt lat="45.27016" lon="4.64899">
        <ele>412.20001220703</ele>
        <time>2016-01-13T10:43:08.000Z</time>
      </trkpt>
      <trkpt lat="45.2702" lon="4.64896">
        <ele>411.79998779297</ele>
        <time>2016-01-13T10:43:09.000Z</time>
      </trkpt>
      <trkpt lat="45.27044" lon="4.64874">
        <ele>409.60000610352</ele>
        <time>2016-01-13T10:43:16.000Z</time>
      </trkpt>
      <trkpt lat="45.27045" lon="4.64871">
        <ele>409.20001220703</ele>
        <time>2016-01-13T10:43:17.000Z</time>
      </trkpt>
      <trkpt lat="45.27045" lon="4.64866">
        <ele>409</ele>
        <time>2016-01-13T10:43:18.000Z</time>
      </trkpt>
      <trkpt lat="45.2704" lon="4.64803">
        <ele>410</ele>
        <time>2016-01-13T10:43:31.000Z</time>
      </trkpt>
      <trkpt lat="45.27037" lon="4.64782">
        <ele>410.20001220703</ele>
        <time>2016-01-13T10:43:35.000Z</time>
      </trkpt>
      <trkpt lat="45.27037" lon="4.64777">
        <ele>410.39999389648</ele>
        <time>2016-01-13T10:43:36.000Z</time>
      </trkpt>
      <trkpt lat="45.27035" lon="4.64772">
        <ele>410.39999389648</ele>
        <time>2016-01-13T10:43:37.000Z</time>
      </trkpt>
      <trkpt lat="45.27017" lon="4.64718">
        <ele>411.60000610352</ele>
        <time>2016-01-13T10:43:49.000Z</time>
      </trkpt>
      <trkpt lat="45.26995" lon="4.64667">
        <ele>413</ele>
        <time>2016-01-13T10:44:03.000Z</time>
      </trkpt>
      <trkpt lat="45.26977" lon="4.64633">
        <ele>414.39999389648</ele>
        <time>2016-01-13T10:44:14.000Z</time>
      </trkpt>
      <trkpt lat="45.26977" lon="4.64629">
        <ele>414.79998779297</ele>
        <time>2016-01-13T10:44:15.000Z</time>
      </trkpt>
      <trkpt lat="45.26978" lon="4.64624">
        <ele>415.39999389648</ele>
        <time>2016-01-13T10:44:16.000Z</time>
      </trkpt>
      <trkpt lat="45.2698" lon="4.64619">
        <ele>416</ele>
        <time>2016-01-13T10:44:17.000Z</time>
      </trkpt>
      <trkpt lat="45.26982" lon="4.64614">
        <ele>416.79998779297</ele>
        <time>2016-01-13T10:44:18.000Z</time>
      </trkpt>
      <trkpt lat="45.26984" lon="4.64608">
        <ele>417.79998779297</ele>
        <time>2016-01-13T10:44:19.000Z</time>
      </trkpt>
      <trkpt lat="45.26998" lon="4.64571">
        <ele>424</ele>
        <time>2016-01-13T10:44:27.000Z</time>
      </trkpt>
      <trkpt lat="45.27001" lon="4.6457">
        <ele>424.39999389648</ele>
        <time>2016-01-13T10:44:28.000Z</time>
      </trkpt>
      <trkpt lat="45.27004" lon="4.6457">
        <ele>424.60000610352</ele>
        <time>2016-01-13T10:44:29.000Z</time>
      </trkpt>
      <trkpt lat="45.27007" lon="4.64571">
        <ele>424.60000610352</ele>
        <time>2016-01-13T10:44:30.000Z</time>
      </trkpt>
      <trkpt lat="45.27009" lon="4.64573">
        <ele>424.39999389648</ele>
        <time>2016-01-13T10:44:31.000Z</time>
      </trkpt>
      <trkpt lat="45.27012" lon="4.64576">
        <ele>424.20001220703</ele>
        <time>2016-01-13T10:44:32.000Z</time>
      </trkpt>
      <trkpt lat="45.27043" lon="4.64615">
        <ele>420.39999389648</ele>
        <time>2016-01-13T10:44:43.000Z</time>
      </trkpt>
      <trkpt lat="45.27047" lon="4.6462">
        <ele>420</ele>
        <time>2016-01-13T10:44:44.000Z</time>
      </trkpt>
      <trkpt lat="45.27053" lon="4.64623">
        <ele>419.60000610352</ele>
        <time>2016-01-13T10:44:45.000Z</time>
      </trkpt>
      <trkpt lat="45.27058" lon="4.64623">
        <ele>419.60000610352</ele>
        <time>2016-01-13T10:44:46.000Z</time>
      </trkpt>
      <trkpt lat="45.27064" lon="4.64622">
        <ele>419.60000610352</ele>
        <time>2016-01-13T10:44:47.000Z</time>
      </trkpt>
      <trkpt lat="45.2707" lon="4.6462">
        <ele>419.79998779297</ele>
        <time>2016-01-13T10:44:48.000Z</time>
      </trkpt>
      <trkpt lat="45.27091" lon="4.64612">
        <ele>421</ele>
        <time>2016-01-13T10:44:53.000Z</time>
      </trkpt>
      <trkpt lat="45.27151" lon="4.64597">
        <ele>424.39999389648</ele>
        <time>2016-01-13T10:45:09.000Z</time>
      </trkpt>
      <trkpt lat="45.27211" lon="4.64581">
        <ele>430</ele>
        <time>2016-01-13T10:45:24.000Z</time>
      </trkpt>
      <trkpt lat="45.27261" lon="4.64568">
        <ele>431.79998779297</ele>
        <time>2016-01-13T10:45:35.000Z</time>
      </trkpt>
      <trkpt lat="45.27265" lon="4.64568">
        <ele>431.79998779297</ele>
        <time>2016-01-13T10:45:36.000Z</time>
      </trkpt>
      <trkpt lat="45.27269" lon="4.64567">
        <ele>432</ele>
        <time>2016-01-13T10:45:37.000Z</time>
      </trkpt>
      <trkpt lat="45.27274" lon="4.64566">
        <ele>432.20001220703</ele>
        <time>2016-01-13T10:45:38.000Z</time>
      </trkpt>
      <trkpt lat="45.27279" lon="4.64565">
        <ele>432.39999389648</ele>
        <time>2016-01-13T10:45:39.000Z</time>
      </trkpt>
      <trkpt lat="45.27284" lon="4.64564">
        <ele>432.60000610352</ele>
        <time>2016-01-13T10:45:40.000Z</time>
      </trkpt>
      <trkpt lat="45.27292" lon="4.64563">
        <ele>432.79998779297</ele>
        <time>2016-01-13T10:45:42.000Z</time>
      </trkpt>
      <trkpt lat="45.27301" lon="4.64561">
        <ele>433.20001220703</ele>
        <time>2016-01-13T10:45:44.000Z</time>
      </trkpt>
      <trkpt lat="45.27306" lon="4.64559">
        <ele>433.20001220703</ele>
        <time>2016-01-13T10:45:45.000Z</time>
      </trkpt>
      <trkpt lat="45.27326" lon="4.64554">
        <ele>432.60000610352</ele>
        <time>2016-01-13T10:45:49.000Z</time>
      </trkpt>
      <trkpt lat="45.27393" lon="4.64539">
        <ele>427</ele>
        <time>2016-01-13T10:46:03.000Z</time>
      </trkpt>
      <trkpt lat="45.27403" lon="4.64536">
        <ele>426.79998779297</ele>
        <time>2016-01-13T10:46:05.000Z</time>
      </trkpt>
      <trkpt lat="45.27408" lon="4.64534">
        <ele>427.20001220703</ele>
        <time>2016-01-13T10:46:06.000Z</time>
      </trkpt>
      <trkpt lat="45.27412" lon="4.64533">
        <ele>427.39999389648</ele>
        <time>2016-01-13T10:46:07.000Z</time>
      </trkpt>
      <trkpt lat="45.27431" lon="4.64529">
        <ele>427.79998779297</ele>
        <time>2016-01-13T10:46:11.000Z</time>
      </trkpt>
      <trkpt lat="45.27449" lon="4.64522">
        <ele>429.39999389648</ele>
        <time>2016-01-13T10:46:15.000Z</time>
      </trkpt>
      <trkpt lat="45.27481" lon="4.64513">
        <ele>430</ele>
        <time>2016-01-13T10:46:22.000Z</time>
      </trkpt>
      <trkpt lat="45.27486" lon="4.64511">
        <ele>430.20001220703</ele>
        <time>2016-01-13T10:46:23.000Z</time>
      </trkpt>
      <trkpt lat="45.2749" lon="4.64509">
        <ele>430.39999389648</ele>
        <time>2016-01-13T10:46:24.000Z</time>
      </trkpt>
      <trkpt lat="45.27494" lon="4.64507">
        <ele>430.60000610352</ele>
        <time>2016-01-13T10:46:25.000Z</time>
      </trkpt>
      <trkpt lat="45.27499" lon="4.64506">
        <ele>430.60000610352</ele>
        <time>2016-01-13T10:46:26.000Z</time>
      </trkpt>
      <trkpt lat="45.2753" lon="4.64495">
        <ele>429.60000610352</ele>
        <time>2016-01-13T10:46:35.000Z</time>
      </trkpt>
      <trkpt lat="45.2753" lon="4.64492">
        <ele>430.20001220703</ele>
        <time>2016-01-13T10:46:36.000Z</time>
      </trkpt>
      <trkpt lat="45.27529" lon="4.6449">
        <ele>431</ele>
        <time>2016-01-13T10:46:37.000Z</time>
      </trkpt>
      <trkpt lat="45.27527" lon="4.64489">
        <ele>431.39999389648</ele>
        <time>2016-01-13T10:46:38.000Z</time>
      </trkpt>
      <trkpt lat="45.27526" lon="4.64489">
        <ele>431.79998779297</ele>
        <time>2016-01-13T10:46:39.000Z</time>
      </trkpt>
      <trkpt lat="45.27506" lon="4.64485">
        <ele>436</ele>
        <time>2016-01-13T10:46:51.000Z</time>
      </trkpt>
      <trkpt lat="45.27502" lon="4.64485">
        <ele>436.60000610352</ele>
        <time>2016-01-13T10:46:53.000Z</time>
      </trkpt>
      <trkpt lat="45.275" lon="4.64485">
        <ele>436.79998779297</ele>
        <time>2016-01-13T10:46:54.000Z</time>
      </trkpt>
      <trkpt lat="45.27498" lon="4.64485">
        <ele>437.20001220703</ele>
        <time>2016-01-13T10:46:55.000Z</time>
      </trkpt>
      <trkpt lat="45.27481" lon="4.64482">
        <ele>439.79998779297</ele>
        <time>2016-01-13T10:47:07.000Z</time>
      </trkpt>
      <trkpt lat="45.27475" lon="4.64481">
        <ele>440.79998779297</ele>
        <time>2016-01-13T10:47:10.000Z</time>
      </trkpt>
      <trkpt lat="45.27463" lon="4.6448">
        <ele>442</ele>
        <time>2016-01-13T10:47:17.000Z</time>
      </trkpt>
      <trkpt lat="45.27437" lon="4.64477">
        <ele>444.60000610352</ele>
        <time>2016-01-13T10:47:31.000Z</time>
      </trkpt>
      <trkpt lat="45.27419" lon="4.6447">
        <ele>448</ele>
        <time>2016-01-13T10:47:42.000Z</time>
      </trkpt>
      <trkpt lat="45.27407" lon="4.64469">
        <ele>449</ele>
        <time>2016-01-13T10:47:49.000Z</time>
      </trkpt>
      <trkpt lat="45.27406" lon="4.6447">
        <ele>448.79998779297</ele>
        <time>2016-01-13T10:47:50.000Z</time>
      </trkpt>
      <trkpt lat="45.27404" lon="4.6447">
        <ele>448.79998779297</ele>
        <time>2016-01-13T10:47:51.000Z</time>
      </trkpt>
      <trkpt lat="45.27402" lon="4.64471">
        <ele>448.60000610352</ele>
        <time>2016-01-13T10:47:52.000Z</time>
      </trkpt>
      <trkpt lat="45.274" lon="4.64472">
        <ele>448.39999389648</ele>
        <time>2016-01-13T10:47:53.000Z</time>
      </trkpt>
      <trkpt lat="45.27398" lon="4.64473">
        <ele>448.20001220703</ele>
        <time>2016-01-13T10:47:54.000Z</time>
      </trkpt>
      <trkpt lat="45.27376" lon="4.64487">
        <ele>444.60000610352</ele>
        <time>2016-01-13T10:48:06.000Z</time>
      </trkpt>
      <trkpt lat="45.27369" lon="4.64493">
        <ele>442.60000610352</ele>
        <time>2016-01-13T10:48:11.000Z</time>
      </trkpt>
      <trkpt lat="45.27368" lon="4.64494">
        <ele>442.39999389648</ele>
        <time>2016-01-13T10:48:12.000Z</time>
      </trkpt>
      <trkpt lat="45.27365" lon="4.64495">
        <ele>442.20001220703</ele>
        <time>2016-01-13T10:48:14.000Z</time>
      </trkpt>
      <trkpt lat="45.27363" lon="4.64495">
        <ele>442.39999389648</ele>
        <time>2016-01-13T10:48:15.000Z</time>
      </trkpt>
      <trkpt lat="45.27361" lon="4.64495">
        <ele>442.39999389648</ele>
        <time>2016-01-13T10:48:16.000Z</time>
      </trkpt>
      <trkpt lat="45.27359" lon="4.64495">
        <ele>442.39999389648</ele>
        <time>2016-01-13T10:48:17.000Z</time>
      </trkpt>
      <trkpt lat="45.27358" lon="4.64495">
        <ele>442.39999389648</ele>
        <time>2016-01-13T10:48:18.000Z</time>
      </trkpt>
      <trkpt lat="45.27356" lon="4.64496">
        <ele>442.20001220703</ele>
        <time>2016-01-13T10:48:19.000Z</time>
      </trkpt>
      <trkpt lat="45.27354" lon="4.64496">
        <ele>442.20001220703</ele>
        <time>2016-01-13T10:48:20.000Z</time>
      </trkpt>
      <trkpt lat="45.27353" lon="4.64496">
        <ele>442.20001220703</ele>
        <time>2016-01-13T10:48:21.000Z</time>
      </trkpt>
      <trkpt lat="45.27351" lon="4.64496">
        <ele>442.20001220703</ele>
        <time>2016-01-13T10:48:22.000Z</time>
      </trkpt>
      <trkpt lat="45.27349" lon="4.64497">
        <ele>442.20001220703</ele>
        <time>2016-01-13T10:48:23.000Z</time>
      </trkpt>
      <trkpt lat="45.27348" lon="4.64497">
        <ele>442.20001220703</ele>
        <time>2016-01-13T10:48:24.000Z</time>
      </trkpt>
      <trkpt lat="45.27346" lon="4.64497">
        <ele>442.20001220703</ele>
        <time>2016-01-13T10:48:25.000Z</time>
      </trkpt>
      <trkpt lat="45.27345" lon="4.64497">
        <ele>442.39999389648</ele>
        <time>2016-01-13T10:48:26.000Z</time>
      </trkpt>
      <trkpt lat="45.27343" lon="4.64497">
        <ele>442.39999389648</ele>
        <time>2016-01-13T10:48:27.000Z</time>
      </trkpt>
      <trkpt lat="45.27342" lon="4.64497">
        <ele>442.39999389648</ele>
        <time>2016-01-13T10:48:28.000Z</time>
      </trkpt>
      <trkpt lat="45.27322" lon="4.64496">
        <ele>445.60000610352</ele>
        <time>2016-01-13T10:48:39.000Z</time>
      </trkpt>
      <trkpt lat="45.27296" lon="4.64488">
        <ele>451</ele>
        <time>2016-01-13T10:48:53.000Z</time>
      </trkpt>
      <trkpt lat="45.27272" lon="4.64478">
        <ele>452.60000610352</ele>
        <time>2016-01-13T10:49:05.000Z</time>
      </trkpt>
      <trkpt lat="45.27252" lon="4.64457">
        <ele>456.79998779297</ele>
        <time>2016-01-13T10:49:18.000Z</time>
      </trkpt>
      <trkpt lat="45.27237" lon="4.6443">
        <ele>461.60000610352</ele>
        <time>2016-01-13T10:49:31.000Z</time>
      </trkpt>
      <trkpt lat="45.27233" lon="4.64424">
        <ele>462.60000610352</ele>
        <time>2016-01-13T10:49:35.000Z</time>
      </trkpt>
      <trkpt lat="45.27232" lon="4.64422">
        <ele>462.79998779297</ele>
        <time>2016-01-13T10:49:36.000Z</time>
      </trkpt>
      <trkpt lat="45.2723" lon="4.64421">
        <ele>463</ele>
        <time>2016-01-13T10:49:37.000Z</time>
      </trkpt>
      <trkpt lat="45.27199" lon="4.64401">
        <ele>465.20001220703</ele>
        <time>2016-01-13T10:49:52.000Z</time>
      </trkpt>
      <trkpt lat="45.27157" lon="4.64371">
        <ele>467.60000610352</ele>
        <time>2016-01-13T10:50:12.000Z</time>
      </trkpt>
      <trkpt lat="45.27134" lon="4.64349">
        <ele>470.20001220703</ele>
        <time>2016-01-13T10:50:26.000Z</time>
      </trkpt>
      <trkpt lat="45.27151" lon="4.64333">
        <ele>474.39999389648</ele>
        <time>2016-01-13T10:50:40.000Z</time>
      </trkpt>
      <trkpt lat="45.27167" lon="4.6432">
        <ele>478.20001220703</ele>
        <time>2016-01-13T10:50:53.000Z</time>
      </trkpt>
      <trkpt lat="45.27166" lon="4.64306">
        <ele>480.79998779297</ele>
        <time>2016-01-13T10:51:00.000Z</time>
      </trkpt>
      <trkpt lat="45.27153" lon="4.6429">
        <ele>482.79998779297</ele>
        <time>2016-01-13T10:51:13.000Z</time>
      </trkpt>
      <trkpt lat="45.27141" lon="4.64266">
        <ele>485.60000610352</ele>
        <time>2016-01-13T10:51:26.000Z</time>
      </trkpt>
      <trkpt lat="45.27139" lon="4.6426">
        <ele>486.39999389648</ele>
        <time>2016-01-13T10:51:29.000Z</time>
      </trkpt>
      <trkpt lat="45.27136" lon="4.64244">
        <ele>488.39999389648</ele>
        <time>2016-01-13T10:51:36.000Z</time>
      </trkpt>
      <trkpt lat="45.27135" lon="4.6424">
        <ele>489</ele>
        <time>2016-01-13T10:51:38.000Z</time>
      </trkpt>
      <trkpt lat="45.27126" lon="4.64225">
        <ele>490</ele>
        <time>2016-01-13T10:51:47.000Z</time>
      </trkpt>
      <trkpt lat="45.27122" lon="4.64215">
        <ele>490.79998779297</ele>
        <time>2016-01-13T10:51:52.000Z</time>
      </trkpt>
      <trkpt lat="45.2712" lon="4.642">
        <ele>492.39999389648</ele>
        <time>2016-01-13T10:51:59.000Z</time>
      </trkpt>
      <trkpt lat="45.2711" lon="4.64182">
        <ele>492.79998779297</ele>
        <time>2016-01-13T10:52:10.000Z</time>
      </trkpt>
      <trkpt lat="45.27108" lon="4.64155">
        <ele>494.79998779297</ele>
        <time>2016-01-13T10:52:23.000Z</time>
      </trkpt>
      <trkpt lat="45.27113" lon="4.64137">
        <ele>497.60000610352</ele>
        <time>2016-01-13T10:52:32.000Z</time>
      </trkpt>
      <trkpt lat="45.27118" lon="4.6411">
        <ele>500.79998779297</ele>
        <time>2016-01-13T10:52:45.000Z</time>
      </trkpt>
      <trkpt lat="45.27124" lon="4.64086">
        <ele>501.79998779297</ele>
        <time>2016-01-13T10:52:57.000Z</time>
      </trkpt>
      <trkpt lat="45.27131" lon="4.64072">
        <ele>502.60000610352</ele>
        <time>2016-01-13T10:53:05.000Z</time>
      </trkpt>
      <trkpt lat="45.27139" lon="4.6404">
        <ele>502.39999389648</ele>
        <time>2016-01-13T10:53:19.000Z</time>
      </trkpt>
      <trkpt lat="45.27141" lon="4.64025">
        <ele>502.20001220703</ele>
        <time>2016-01-13T10:53:25.000Z</time>
      </trkpt>
      <trkpt lat="45.27143" lon="4.64011">
        <ele>502.20001220703</ele>
        <time>2016-01-13T10:53:31.000Z</time>
      </trkpt>
      <trkpt lat="45.27145" lon="4.63968">
        <ele>502.39999389648</ele>
        <time>2016-01-13T10:53:45.000Z</time>
      </trkpt>
      <trkpt lat="45.27146" lon="4.63928">
        <ele>505.60000610352</ele>
        <time>2016-01-13T10:53:59.000Z</time>
      </trkpt>
      <trkpt lat="45.27146" lon="4.63924">
        <ele>506.20001220703</ele>
        <time>2016-01-13T10:54:05.000Z</time>
      </trkpt>
      <trkpt lat="45.27145" lon="4.63918">
        <ele>507</ele>
        <time>2016-01-13T10:57:42.000Z</time>
      </trkpt>
      <trkpt lat="45.27141" lon="4.63873">
        <ele>513</ele>
        <time>2016-01-13T10:57:55.000Z</time>
      </trkpt>
      <trkpt lat="45.27137" lon="4.63838">
        <ele>519</ele>
        <time>2016-01-13T10:58:08.000Z</time>
      </trkpt>
      <trkpt lat="45.27128" lon="4.63813">
        <ele>523.20001220703</ele>
        <time>2016-01-13T10:58:21.000Z</time>
      </trkpt>
      <trkpt lat="45.27127" lon="4.63805">
        <ele>524.40002441406</ele>
        <time>2016-01-13T10:58:25.000Z</time>
      </trkpt>
      <trkpt lat="45.27126" lon="4.63797">
        <ele>525.59997558594</ele>
        <time>2016-01-13T10:58:29.000Z</time>
      </trkpt>
      <trkpt lat="45.27124" lon="4.6378">
        <ele>528</ele>
        <time>2016-01-13T10:58:38.000Z</time>
      </trkpt>
      <trkpt lat="45.27119" lon="4.6375">
        <ele>531.20001220703</ele>
        <time>2016-01-13T10:58:52.000Z</time>
      </trkpt>
      <trkpt lat="45.27098" lon="4.6372">
        <ele>532.20001220703</ele>
        <time>2016-01-13T10:59:09.000Z</time>
      </trkpt>
      <trkpt lat="45.27075" lon="4.63692">
        <ele>532.40002441406</ele>
        <time>2016-01-13T10:59:26.000Z</time>
      </trkpt>
      <trkpt lat="45.27055" lon="4.63666">
        <ele>533.20001220703</ele>
        <time>2016-01-13T10:59:42.000Z</time>
      </trkpt>
      <trkpt lat="45.27041" lon="4.63626">
        <ele>536.40002441406</ele>
        <time>2016-01-13T10:59:58.000Z</time>
      </trkpt>
      <trkpt lat="45.27024" lon="4.63592">
        <ele>539.40002441406</ele>
        <time>2016-01-13T11:00:13.000Z</time>
      </trkpt>
      <trkpt lat="45.27" lon="4.63554">
        <ele>542.20001220703</ele>
        <time>2016-01-13T11:00:31.000Z</time>
      </trkpt>
      <trkpt lat="45.26999" lon="4.63552">
        <ele>542.40002441406</ele>
        <time>2016-01-13T11:00:32.000Z</time>
      </trkpt>
      <trkpt lat="45.26985" lon="4.63517">
        <ele>545.79998779297</ele>
        <time>2016-01-13T11:00:47.000Z</time>
      </trkpt>
      <trkpt lat="45.26975" lon="4.63493">
        <ele>548.20001220703</ele>
        <time>2016-01-13T11:00:57.000Z</time>
      </trkpt>
      <trkpt lat="45.26961" lon="4.63462">
        <ele>551.40002441406</ele>
        <time>2016-01-13T11:01:10.000Z</time>
      </trkpt>
      <trkpt lat="45.26939" lon="4.6343">
        <ele>552.40002441406</ele>
        <time>2016-01-13T11:01:24.000Z</time>
      </trkpt>
      <trkpt lat="45.26901" lon="4.63377">
        <ele>554.20001220703</ele>
        <time>2016-01-13T11:01:41.000Z</time>
      </trkpt>
      <trkpt lat="45.2687" lon="4.63322">
        <ele>553.20001220703</ele>
        <time>2016-01-13T11:01:55.000Z</time>
      </trkpt>
      <trkpt lat="45.26847" lon="4.6324">
        <ele>555.40002441406</ele>
        <time>2016-01-13T11:02:10.000Z</time>
      </trkpt>
      <trkpt lat="45.26843" lon="4.6322">
        <ele>555.59997558594</ele>
        <time>2016-01-13T11:02:13.000Z</time>
      </trkpt>
      <trkpt lat="45.26825" lon="4.63185">
        <ele>555.59997558594</ele>
        <time>2016-01-13T11:02:20.000Z</time>
      </trkpt>
      <trkpt lat="45.26783" lon="4.63136">
        <ele>555</ele>
        <time>2016-01-13T11:02:35.000Z</time>
      </trkpt>
      <trkpt lat="45.26741" lon="4.63061">
        <ele>557.20001220703</ele>
        <time>2016-01-13T11:02:58.000Z</time>
      </trkpt>
      <trkpt lat="45.26716" lon="4.63">
        <ele>559.79998779297</ele>
        <time>2016-01-13T11:03:17.000Z</time>
      </trkpt>
      <trkpt lat="45.26712" lon="4.62988">
        <ele>560.59997558594</ele>
        <time>2016-01-13T11:03:21.000Z</time>
      </trkpt>
      <trkpt lat="45.26705" lon="4.62944">
        <ele>564.59997558594</ele>
        <time>2016-01-13T11:03:36.000Z</time>
      </trkpt>
      <trkpt lat="45.26698" lon="4.6291">
        <ele>567.40002441406</ele>
        <time>2016-01-13T11:03:49.000Z</time>
      </trkpt>
      <trkpt lat="45.26697" lon="4.62897">
        <ele>568.59997558594</ele>
        <time>2016-01-13T11:03:59.000Z</time>
      </trkpt>
      <trkpt lat="45.26698" lon="4.62892">
        <ele>569.40002441406</ele>
        <time>2016-01-13T11:06:12.000Z</time>
      </trkpt>
      <trkpt lat="45.26703" lon="4.62875">
        <ele>572.40002441406</ele>
        <time>2016-01-13T11:06:20.000Z</time>
      </trkpt>
      <trkpt lat="45.26701" lon="4.62852">
        <ele>574.59997558594</ele>
        <time>2016-01-13T11:06:30.000Z</time>
      </trkpt>
      <trkpt lat="45.26698" lon="4.62839">
        <ele>576</ele>
        <time>2016-01-13T11:06:36.000Z</time>
      </trkpt>
      <trkpt lat="45.26698" lon="4.62801">
        <ele>582.40002441406</ele>
        <time>2016-01-13T11:06:51.000Z</time>
      </trkpt>
      <trkpt lat="45.26685" lon="4.62773">
        <ele>584.20001220703</ele>
        <time>2016-01-13T11:07:06.000Z</time>
      </trkpt>
      <trkpt lat="45.26684" lon="4.62732">
        <ele>590.79998779297</ele>
        <time>2016-01-13T11:07:26.000Z</time>
      </trkpt>
      <trkpt lat="45.2668" lon="4.62709">
        <ele>593.40002441406</ele>
        <time>2016-01-13T11:07:38.000Z</time>
      </trkpt>
      <trkpt lat="45.26672" lon="4.62682">
        <ele>597.40002441406</ele>
        <time>2016-01-13T11:07:52.000Z</time>
      </trkpt>
      <trkpt lat="45.2667" lon="4.62667">
        <ele>600.20001220703</ele>
        <time>2016-01-13T11:08:00.000Z</time>
      </trkpt>
      <trkpt lat="45.26646" lon="4.62664">
        <ele>595.40002441406</ele>
        <time>2016-01-13T11:08:15.000Z</time>
      </trkpt>
      <trkpt lat="45.26623" lon="4.62663">
        <ele>592.40002441406</ele>
        <time>2016-01-13T11:08:30.000Z</time>
      </trkpt>
      <trkpt lat="45.26621" lon="4.62663">
        <ele>592.59997558594</ele>
        <time>2016-01-13T11:08:31.000Z</time>
      </trkpt>
      <trkpt lat="45.26599" lon="4.62655">
        <ele>595.79998779297</ele>
        <time>2016-01-13T11:08:47.000Z</time>
      </trkpt>
      <trkpt lat="45.26579" lon="4.62648">
        <ele>599</ele>
        <time>2016-01-13T11:09:00.000Z</time>
      </trkpt>
      <trkpt lat="45.2656" lon="4.62635">
        <ele>603.20001220703</ele>
        <time>2016-01-13T11:09:12.000Z</time>
      </trkpt>
      <trkpt lat="45.26527" lon="4.62612">
        <ele>607.59997558594</ele>
        <time>2016-01-13T11:09:30.000Z</time>
      </trkpt>
      <trkpt lat="45.26506" lon="4.62599">
        <ele>608.79998779297</ele>
        <time>2016-01-13T11:09:40.000Z</time>
      </trkpt>
      <trkpt lat="45.26483" lon="4.62571">
        <ele>613.79998779297</ele>
        <time>2016-01-13T11:09:54.000Z</time>
      </trkpt>
      <trkpt lat="45.2647" lon="4.62545">
        <ele>619.20001220703</ele>
        <time>2016-01-13T11:10:07.000Z</time>
      </trkpt>
      <trkpt lat="45.26453" lon="4.62516">
        <ele>624.20001220703</ele>
        <time>2016-01-13T11:10:23.000Z</time>
      </trkpt>
      <trkpt lat="45.26439" lon="4.62495">
        <ele>626.59997558594</ele>
        <time>2016-01-13T11:10:35.000Z</time>
      </trkpt>
      <trkpt lat="45.2642" lon="4.62469">
        <ele>629.20001220703</ele>
        <time>2016-01-13T11:10:51.000Z</time>
      </trkpt>
      <trkpt lat="45.26404" lon="4.62446">
        <ele>631.59997558594</ele>
        <time>2016-01-13T11:11:06.000Z</time>
      </trkpt>
      <trkpt lat="45.26391" lon="4.62429">
        <ele>633.20001220703</ele>
        <time>2016-01-13T11:11:18.000Z</time>
      </trkpt>
      <trkpt lat="45.26373" lon="4.62428">
        <ele>630</ele>
        <time>2016-01-13T11:11:29.000Z</time>
      </trkpt>
      <trkpt lat="45.2637" lon="4.62432">
        <ele>628.40002441406</ele>
        <time>2016-01-13T11:11:32.000Z</time>
      </trkpt>
      <trkpt lat="45.26364" lon="4.62448">
        <ele>624.40002441406</ele>
        <time>2016-01-13T11:11:39.000Z</time>
      </trkpt>
      <trkpt lat="45.26338" lon="4.62463">
        <ele>621.79998779297</ele>
        <time>2016-01-13T11:11:52.000Z</time>
      </trkpt>
      <trkpt lat="45.26316" lon="4.62463">
        <ele>622.59997558594</ele>
        <time>2016-01-13T11:12:03.000Z</time>
      </trkpt>
      <trkpt lat="45.26295" lon="4.62465">
        <ele>623.79998779297</ele>
        <time>2016-01-13T11:12:14.000Z</time>
      </trkpt>
      <trkpt lat="45.2629" lon="4.62471">
        <ele>623.79998779297</ele>
        <time>2016-01-13T11:12:18.000Z</time>
      </trkpt>
      <trkpt lat="45.26301" lon="4.62494">
        <ele>618</ele>
        <time>2016-01-13T11:12:30.000Z</time>
      </trkpt>
      <trkpt lat="45.26301" lon="4.62496">
        <ele>617.59997558594</ele>
        <time>2016-01-13T11:12:31.000Z</time>
      </trkpt>
      <trkpt lat="45.26289" lon="4.6252">
        <ele>615.20001220703</ele>
        <time>2016-01-13T11:12:44.000Z</time>
      </trkpt>
      <trkpt lat="45.26269" lon="4.62541">
        <ele>616.40002441406</ele>
        <time>2016-01-13T11:12:58.000Z</time>
      </trkpt>
      <trkpt lat="45.26259" lon="4.62542">
        <ele>618.40002441406</ele>
        <time>2016-01-13T11:13:04.000Z</time>
      </trkpt>
      <trkpt lat="45.26242" lon="4.62529">
        <ele>623.79998779297</ele>
        <time>2016-01-13T11:13:18.000Z</time>
      </trkpt>
      <trkpt lat="45.26233" lon="4.62505">
        <ele>629.79998779297</ele>
        <time>2016-01-13T11:13:33.000Z</time>
      </trkpt>
      <trkpt lat="45.26224" lon="4.62477">
        <ele>636.40002441406</ele>
        <time>2016-01-13T11:13:51.000Z</time>
      </trkpt>
      <trkpt lat="45.26217" lon="4.62457">
        <ele>641.20001220703</ele>
        <time>2016-01-13T11:14:04.000Z</time>
      </trkpt>
      <trkpt lat="45.26215" lon="4.62425">
        <ele>647.79998779297</ele>
        <time>2016-01-13T11:14:22.000Z</time>
      </trkpt>
      <trkpt lat="45.26214" lon="4.62405">
        <ele>651.79998779297</ele>
        <time>2016-01-13T11:14:33.000Z</time>
      </trkpt>
      <trkpt lat="45.26209" lon="4.62394">
        <ele>654.20001220703</ele>
        <time>2016-01-13T11:14:40.000Z</time>
      </trkpt>
      <trkpt lat="45.26202" lon="4.62387">
        <ele>655.59997558594</ele>
        <time>2016-01-13T11:14:52.000Z</time>
      </trkpt>
      <trkpt lat="45.26197" lon="4.62375">
        <ele>658</ele>
        <time>2016-01-13T11:15:07.000Z</time>
      </trkpt>
      <trkpt lat="45.26208" lon="4.62365">
        <ele>659.20001220703</ele>
        <time>2016-01-13T11:15:23.000Z</time>
      </trkpt>
      <trkpt lat="45.26215" lon="4.6235">
        <ele>661.79998779297</ele>
        <time>2016-01-13T11:15:40.000Z</time>
      </trkpt>
      <trkpt lat="45.26216" lon="4.62328">
        <ele>665.20001220703</ele>
        <time>2016-01-13T11:15:58.000Z</time>
      </trkpt>
      <trkpt lat="45.26215" lon="4.62322">
        <ele>666.40002441406</ele>
        <time>2016-01-13T11:16:03.000Z</time>
      </trkpt>
      <trkpt lat="45.26212" lon="4.62315">
        <ele>667.79998779297</ele>
        <time>2016-01-13T11:16:12.000Z</time>
      </trkpt>
      <trkpt lat="45.26212" lon="4.62309">
        <ele>669</ele>
        <time>2016-01-13T11:16:20.000Z</time>
      </trkpt>
      <trkpt lat="45.26212" lon="4.62307">
        <ele>669.20001220703</ele>
        <time>2016-01-13T11:16:21.000Z</time>
      </trkpt>
      <trkpt lat="45.26216" lon="4.62278">
        <ele>673.59997558594</ele>
        <time>2016-01-13T11:16:38.000Z</time>
      </trkpt>
      <trkpt lat="45.26222" lon="4.62253">
        <ele>675.40002441406</ele>
        <time>2016-01-13T11:16:53.000Z</time>
      </trkpt>
      <trkpt lat="45.26227" lon="4.6224">
        <ele>676.40002441406</ele>
        <time>2016-01-13T11:17:02.000Z</time>
      </trkpt>
      <trkpt lat="45.2623" lon="4.62237">
        <ele>676.40002441406</ele>
        <time>2016-01-13T11:17:05.000Z</time>
      </trkpt>
      <trkpt lat="45.26237" lon="4.62234">
        <ele>676.20001220703</ele>
        <time>2016-01-13T11:17:16.000Z</time>
      </trkpt>
      <trkpt lat="45.26234" lon="4.6222">
        <ele>678.40002441406</ele>
        <time>2016-01-13T11:49:56.000Z</time>
      </trkpt>
      <trkpt lat="45.26232" lon="4.62223">
        <ele>677.59997558594</ele>
        <time>2016-01-13T11:49:58.000Z</time>
      </trkpt>
      <trkpt lat="45.26227" lon="4.62226">
        <ele>677.59997558594</ele>
        <time>2016-01-13T11:50:01.000Z</time>
      </trkpt>
      <trkpt lat="45.26226" lon="4.62225">
        <ele>677.79998779297</ele>
        <time>2016-01-13T11:50:02.000Z</time>
      </trkpt>
      <trkpt lat="45.26225" lon="4.62223">
        <ele>678</ele>
        <time>2016-01-13T11:50:03.000Z</time>
      </trkpt>
      <trkpt lat="45.26225" lon="4.62221">
        <ele>678.40002441406</ele>
        <time>2016-01-13T11:50:04.000Z</time>
      </trkpt>
      <trkpt lat="45.26225" lon="4.62218">
        <ele>678.59997558594</ele>
        <time>2016-01-13T11:50:05.000Z</time>
      </trkpt>
      <trkpt lat="45.26225" lon="4.62216">
        <ele>678.79998779297</ele>
        <time>2016-01-13T11:50:06.000Z</time>
      </trkpt>
      <trkpt lat="45.26224" lon="4.62214">
        <ele>679</ele>
        <time>2016-01-13T11:50:07.000Z</time>
      </trkpt>
      <trkpt lat="45.26224" lon="4.62212">
        <ele>679.59997558594</ele>
        <time>2016-01-13T11:50:08.000Z</time>
      </trkpt>
      <trkpt lat="45.26224" lon="4.6221">
        <ele>680.20001220703</ele>
        <time>2016-01-13T11:50:09.000Z</time>
      </trkpt>
      <trkpt lat="45.26228" lon="4.62183">
        <ele>683.59997558594</ele>
        <time>2016-01-13T11:50:21.000Z</time>
      </trkpt>
      <trkpt lat="45.26237" lon="4.62146">
        <ele>686.20001220703</ele>
        <time>2016-01-13T11:50:38.000Z</time>
      </trkpt>
      <trkpt lat="45.26237" lon="4.62102">
        <ele>688.20001220703</ele>
        <time>2016-01-13T11:50:54.000Z</time>
      </trkpt>
      <trkpt lat="45.26242" lon="4.6205">
        <ele>685.79998779297</ele>
        <time>2016-01-13T11:51:10.000Z</time>
      </trkpt>
      <trkpt lat="45.26256" lon="4.62009">
        <ele>684.79998779297</ele>
        <time>2016-01-13T11:51:23.000Z</time>
      </trkpt>
      <trkpt lat="45.26278" lon="4.61955">
        <ele>680.40002441406</ele>
        <time>2016-01-13T11:51:42.000Z</time>
      </trkpt>
      <trkpt lat="45.26308" lon="4.61917">
        <ele>677.40002441406</ele>
        <time>2016-01-13T11:51:58.000Z</time>
      </trkpt>
      <trkpt lat="45.26358" lon="4.61889">
        <ele>678.20001220703</ele>
        <time>2016-01-13T11:52:16.000Z</time>
      </trkpt>
      <trkpt lat="45.26415" lon="4.61882">
        <ele>687.79998779297</ele>
        <time>2016-01-13T11:52:32.000Z</time>
      </trkpt>
      <trkpt lat="45.26421" lon="4.61883">
        <ele>689.59997558594</ele>
        <time>2016-01-13T11:52:34.000Z</time>
      </trkpt>
      <trkpt lat="45.26422" lon="4.61881">
        <ele>689.79998779297</ele>
        <time>2016-01-13T11:52:35.000Z</time>
      </trkpt>
      <trkpt lat="45.2642" lon="4.61877">
        <ele>688.79998779297</ele>
        <time>2016-01-13T11:52:37.000Z</time>
      </trkpt>
      <trkpt lat="45.26417" lon="4.61875">
        <ele>687.79998779297</ele>
        <time>2016-01-13T11:52:38.000Z</time>
      </trkpt>
      <trkpt lat="45.26413" lon="4.61875">
        <ele>686.79998779297</ele>
        <time>2016-01-13T11:52:39.000Z</time>
      </trkpt>
      <trkpt lat="45.26409" lon="4.61874">
        <ele>685.59997558594</ele>
        <time>2016-01-13T11:52:40.000Z</time>
      </trkpt>
      <trkpt lat="45.26406" lon="4.61875">
        <ele>684.79998779297</ele>
        <time>2016-01-13T11:52:41.000Z</time>
      </trkpt>
      <trkpt lat="45.26402" lon="4.61875">
        <ele>683.79998779297</ele>
        <time>2016-01-13T11:52:42.000Z</time>
      </trkpt>
      <trkpt lat="45.26355" lon="4.61875">
        <ele>674.79998779297</ele>
        <time>2016-01-13T11:52:55.000Z</time>
      </trkpt>
      <trkpt lat="45.2635" lon="4.61875">
        <ele>674</ele>
        <time>2016-01-13T11:52:56.000Z</time>
      </trkpt>
      <trkpt lat="45.26342" lon="4.61874">
        <ele>672.59997558594</ele>
        <time>2016-01-13T11:52:58.000Z</time>
      </trkpt>
      <trkpt lat="45.26333" lon="4.61873">
        <ele>671.20001220703</ele>
        <time>2016-01-13T11:53:00.000Z</time>
      </trkpt>
      <trkpt lat="45.26329" lon="4.61872">
        <ele>670.40002441406</ele>
        <time>2016-01-13T11:53:01.000Z</time>
      </trkpt>
      <trkpt lat="45.26317" lon="4.61872">
        <ele>668.59997558594</ele>
        <time>2016-01-13T11:53:04.000Z</time>
      </trkpt>
      <trkpt lat="45.26313" lon="4.61871">
        <ele>668</ele>
        <time>2016-01-13T11:53:05.000Z</time>
      </trkpt>
      <trkpt lat="45.26309" lon="4.6187">
        <ele>667.20001220703</ele>
        <time>2016-01-13T11:53:06.000Z</time>
      </trkpt>
      <trkpt lat="45.26304" lon="4.61871">
        <ele>666.59997558594</ele>
        <time>2016-01-13T11:53:07.000Z</time>
      </trkpt>
      <trkpt lat="45.263" lon="4.61872">
        <ele>666.20001220703</ele>
        <time>2016-01-13T11:53:08.000Z</time>
      </trkpt>
      <trkpt lat="45.26297" lon="4.61873">
        <ele>666</ele>
        <time>2016-01-13T11:53:09.000Z</time>
      </trkpt>
      <trkpt lat="45.26291" lon="4.61874">
        <ele>665.20001220703</ele>
        <time>2016-01-13T11:53:11.000Z</time>
      </trkpt>
      <trkpt lat="45.26287" lon="4.61876">
        <ele>665</ele>
        <time>2016-01-13T11:53:12.000Z</time>
      </trkpt>
      <trkpt lat="45.2628" lon="4.6188">
        <ele>664.40002441406</ele>
        <time>2016-01-13T11:53:14.000Z</time>
      </trkpt>
      <trkpt lat="45.26266" lon="4.61883">
        <ele>662.59997558594</ele>
        <time>2016-01-13T11:53:17.000Z</time>
      </trkpt>
      <trkpt lat="45.26245" lon="4.61897">
        <ele>661.59997558594</ele>
        <time>2016-01-13T11:53:22.000Z</time>
      </trkpt>
      <trkpt lat="45.2624" lon="4.619">
        <ele>661.20001220703</ele>
        <time>2016-01-13T11:53:23.000Z</time>
      </trkpt>
      <trkpt lat="45.26235" lon="4.61901">
        <ele>660.40002441406</ele>
        <time>2016-01-13T11:53:24.000Z</time>
      </trkpt>
      <trkpt lat="45.26231" lon="4.61902">
        <ele>659.59997558594</ele>
        <time>2016-01-13T11:53:25.000Z</time>
      </trkpt>
      <trkpt lat="45.26226" lon="4.61905">
        <ele>659</ele>
        <time>2016-01-13T11:53:26.000Z</time>
      </trkpt>
      <trkpt lat="45.26221" lon="4.61908">
        <ele>658.59997558594</ele>
        <time>2016-01-13T11:53:27.000Z</time>
      </trkpt>
      <trkpt lat="45.26217" lon="4.61913">
        <ele>658.40002441406</ele>
        <time>2016-01-13T11:53:28.000Z</time>
      </trkpt>
      <trkpt lat="45.26212" lon="4.61919">
        <ele>658.59997558594</ele>
        <time>2016-01-13T11:53:29.000Z</time>
      </trkpt>
      <trkpt lat="45.26207" lon="4.61926">
        <ele>658.59997558594</ele>
        <time>2016-01-13T11:53:30.000Z</time>
      </trkpt>
      <trkpt lat="45.26186" lon="4.61961">
        <ele>657.20001220703</ele>
        <time>2016-01-13T11:53:34.000Z</time>
      </trkpt>
      <trkpt lat="45.26176" lon="4.61979">
        <ele>656.40002441406</ele>
        <time>2016-01-13T11:53:36.000Z</time>
      </trkpt>
      <trkpt lat="45.2617" lon="4.61988">
        <ele>655.79998779297</ele>
        <time>2016-01-13T11:53:37.000Z</time>
      </trkpt>
      <trkpt lat="45.26161" lon="4.62006">
        <ele>655.59997558594</ele>
        <time>2016-01-13T11:53:39.000Z</time>
      </trkpt>
      <trkpt lat="45.26154" lon="4.62027">
        <ele>656.20001220703</ele>
        <time>2016-01-13T11:53:41.000Z</time>
      </trkpt>
      <trkpt lat="45.2615" lon="4.62037">
        <ele>656.40002441406</ele>
        <time>2016-01-13T11:53:42.000Z</time>
      </trkpt>
      <trkpt lat="45.26146" lon="4.62047">
        <ele>655.59997558594</ele>
        <time>2016-01-13T11:53:43.000Z</time>
      </trkpt>
      <trkpt lat="45.2614" lon="4.62055">
        <ele>654.20001220703</ele>
        <time>2016-01-13T11:53:44.000Z</time>
      </trkpt>
      <trkpt lat="45.26133" lon="4.62059">
        <ele>652.40002441406</ele>
        <time>2016-01-13T11:53:45.000Z</time>
      </trkpt>
      <trkpt lat="45.26126" lon="4.62059">
        <ele>650.59997558594</ele>
        <time>2016-01-13T11:53:46.000Z</time>
      </trkpt>
      <trkpt lat="45.2612" lon="4.62058">
        <ele>649.40002441406</ele>
        <time>2016-01-13T11:53:47.000Z</time>
      </trkpt>
      <trkpt lat="45.26115" lon="4.62058">
        <ele>648.20001220703</ele>
        <time>2016-01-13T11:53:48.000Z</time>
      </trkpt>
      <trkpt lat="45.26086" lon="4.62056">
        <ele>642.20001220703</ele>
        <time>2016-01-13T11:53:59.000Z</time>
      </trkpt>
      <trkpt lat="45.26055" lon="4.6207">
        <ele>639.59997558594</ele>
        <time>2016-01-13T11:54:08.000Z</time>
      </trkpt>
      <trkpt lat="45.26026" lon="4.62079">
        <ele>637.40002441406</ele>
        <time>2016-01-13T11:54:15.000Z</time>
      </trkpt>
      <trkpt lat="45.26013" lon="4.62087">
        <ele>636.79998779297</ele>
        <time>2016-01-13T11:54:18.000Z</time>
      </trkpt>
      <trkpt lat="45.26004" lon="4.62096">
        <ele>637.40002441406</ele>
        <time>2016-01-13T11:54:20.000Z</time>
      </trkpt>
      <trkpt lat="45.25994" lon="4.62109">
        <ele>638.59997558594</ele>
        <time>2016-01-13T11:54:22.000Z</time>
      </trkpt>
      <trkpt lat="45.2599" lon="4.62116">
        <ele>639.40002441406</ele>
        <time>2016-01-13T11:54:23.000Z</time>
      </trkpt>
      <trkpt lat="45.25982" lon="4.62133">
        <ele>640.59997558594</ele>
        <time>2016-01-13T11:54:25.000Z</time>
      </trkpt>
      <trkpt lat="45.25975" lon="4.6215">
        <ele>641.40002441406</ele>
        <time>2016-01-13T11:54:27.000Z</time>
      </trkpt>
      <trkpt lat="45.25966" lon="4.62199">
        <ele>644.20001220703</ele>
        <time>2016-01-13T11:54:32.000Z</time>
      </trkpt>
      <trkpt lat="45.25958" lon="4.62247">
        <ele>643.79998779297</ele>
        <time>2016-01-13T11:54:39.000Z</time>
      </trkpt>
      <trkpt lat="45.25952" lon="4.62306">
        <ele>642.20001220703</ele>
        <time>2016-01-13T11:54:50.000Z</time>
      </trkpt>
      <trkpt lat="45.25947" lon="4.62335">
        <ele>639.20001220703</ele>
        <time>2016-01-13T11:54:55.000Z</time>
      </trkpt>
      <trkpt lat="45.25923" lon="4.62415">
        <ele>631.79998779297</ele>
        <time>2016-01-13T11:55:09.000Z</time>
      </trkpt>
      <trkpt lat="45.25921" lon="4.62421">
        <ele>632.20001220703</ele>
        <time>2016-01-13T11:55:10.000Z</time>
      </trkpt>
      <trkpt lat="45.25919" lon="4.62426">
        <ele>632.40002441406</ele>
        <time>2016-01-13T11:55:11.000Z</time>
      </trkpt>
      <trkpt lat="45.25914" lon="4.62438">
        <ele>633</ele>
        <time>2016-01-13T11:55:13.000Z</time>
      </trkpt>
      <trkpt lat="45.25913" lon="4.62444">
        <ele>633.20001220703</ele>
        <time>2016-01-13T11:55:14.000Z</time>
      </trkpt>
      <trkpt lat="45.25898" lon="4.62494">
        <ele>632.40002441406</ele>
        <time>2016-01-13T11:55:25.000Z</time>
      </trkpt>
      <trkpt lat="45.25898" lon="4.62499">
        <ele>632.40002441406</ele>
        <time>2016-01-13T11:55:26.000Z</time>
      </trkpt>
      <trkpt lat="45.25887" lon="4.62553">
        <ele>630.79998779297</ele>
        <time>2016-01-13T11:55:37.000Z</time>
      </trkpt>
      <trkpt lat="45.25883" lon="4.62556">
        <ele>630.59997558594</ele>
        <time>2016-01-13T11:55:38.000Z</time>
      </trkpt>
      <trkpt lat="45.2588" lon="4.62561">
        <ele>630.20001220703</ele>
        <time>2016-01-13T11:55:39.000Z</time>
      </trkpt>
      <trkpt lat="45.25872" lon="4.62573">
        <ele>628.20001220703</ele>
        <time>2016-01-13T11:55:41.000Z</time>
      </trkpt>
      <trkpt lat="45.25868" lon="4.62581">
        <ele>626.59997558594</ele>
        <time>2016-01-13T11:55:42.000Z</time>
      </trkpt>
      <trkpt lat="45.25841" lon="4.62644">
        <ele>617.40002441406</ele>
        <time>2016-01-13T11:55:48.000Z</time>
      </trkpt>
      <trkpt lat="45.25838" lon="4.62658">
        <ele>614.79998779297</ele>
        <time>2016-01-13T11:55:50.000Z</time>
      </trkpt>
      <trkpt lat="45.25836" lon="4.62663">
        <ele>614.40002441406</ele>
        <time>2016-01-13T11:55:51.000Z</time>
      </trkpt>
      <trkpt lat="45.25834" lon="4.6267">
        <ele>614</ele>
        <time>2016-01-13T11:55:53.000Z</time>
      </trkpt>
      <trkpt lat="45.25832" lon="4.62672">
        <ele>614</ele>
        <time>2016-01-13T11:55:54.000Z</time>
      </trkpt>
      <trkpt lat="45.25827" lon="4.62674">
        <ele>614.20001220703</ele>
        <time>2016-01-13T11:55:57.000Z</time>
      </trkpt>
      <trkpt lat="45.25818" lon="4.62675">
        <ele>614.59997558594</ele>
        <time>2016-01-13T11:56:00.000Z</time>
      </trkpt>
      <trkpt lat="45.25809" lon="4.62674">
        <ele>615.40002441406</ele>
        <time>2016-01-13T11:56:02.000Z</time>
      </trkpt>
      <trkpt lat="45.25784" lon="4.62675">
        <ele>613.59997558594</ele>
        <time>2016-01-13T11:56:07.000Z</time>
      </trkpt>
      <trkpt lat="45.25766" lon="4.62686">
        <ele>611.20001220703</ele>
        <time>2016-01-13T11:56:11.000Z</time>
      </trkpt>
      <trkpt lat="45.25756" lon="4.6269">
        <ele>611.20001220703</ele>
        <time>2016-01-13T11:56:13.000Z</time>
      </trkpt>
      <trkpt lat="45.25737" lon="4.62689">
        <ele>610.40002441406</ele>
        <time>2016-01-13T11:56:17.000Z</time>
      </trkpt>
      <trkpt lat="45.25724" lon="4.6268">
        <ele>609</ele>
        <time>2016-01-13T11:56:20.000Z</time>
      </trkpt>
      <trkpt lat="45.25711" lon="4.62675">
        <ele>607.79998779297</ele>
        <time>2016-01-13T11:56:23.000Z</time>
      </trkpt>
      <trkpt lat="45.25662" lon="4.62662">
        <ele>603.20001220703</ele>
        <time>2016-01-13T11:56:36.000Z</time>
      </trkpt>
      <trkpt lat="45.25638" lon="4.62659">
        <ele>603</ele>
        <time>2016-01-13T11:56:44.000Z</time>
      </trkpt>
      <trkpt lat="45.25605" lon="4.62661">
        <ele>605.59997558594</ele>
        <time>2016-01-13T11:56:56.000Z</time>
      </trkpt>
      <trkpt lat="45.25561" lon="4.62671">
        <ele>610.20001220703</ele>
        <time>2016-01-13T11:57:13.000Z</time>
      </trkpt>
      <trkpt lat="45.25533" lon="4.62702">
        <ele>616</ele>
        <time>2016-01-13T11:57:27.000Z</time>
      </trkpt>
      <trkpt lat="45.25519" lon="4.62723">
        <ele>617.20001220703</ele>
        <time>2016-01-13T11:57:31.000Z</time>
      </trkpt>
      <trkpt lat="45.25497" lon="4.62795">
        <ele>618.79998779297</ele>
        <time>2016-01-13T11:57:39.000Z</time>
      </trkpt>
      <trkpt lat="45.25499" lon="4.62846">
        <ele>618.59997558594</ele>
        <time>2016-01-13T11:57:44.000Z</time>
      </trkpt>
      <trkpt lat="45.25509" lon="4.62876">
        <ele>618.79998779297</ele>
        <time>2016-01-13T11:57:47.000Z</time>
      </trkpt>
      <trkpt lat="45.25518" lon="4.62896">
        <ele>619</ele>
        <time>2016-01-13T11:57:50.000Z</time>
      </trkpt>
      <trkpt lat="45.25522" lon="4.62908">
        <ele>618.79998779297</ele>
        <time>2016-01-13T11:57:52.000Z</time>
      </trkpt>
      <trkpt lat="45.25525" lon="4.62919">
        <ele>618.59997558594</ele>
        <time>2016-01-13T11:57:54.000Z</time>
      </trkpt>
      <trkpt lat="45.25531" lon="4.62936">
        <ele>618.40002441406</ele>
        <time>2016-01-13T11:57:57.000Z</time>
      </trkpt>
      <trkpt lat="45.25533" lon="4.62942">
        <ele>617.79998779297</ele>
        <time>2016-01-13T11:57:58.000Z</time>
      </trkpt>
      <trkpt lat="45.25537" lon="4.62956">
        <ele>616.79998779297</ele>
        <time>2016-01-13T11:58:00.000Z</time>
      </trkpt>
      <trkpt lat="45.25543" lon="4.6299">
        <ele>612.59997558594</ele>
        <time>2016-01-13T11:58:04.000Z</time>
      </trkpt>
      <trkpt lat="45.25549" lon="4.63025">
        <ele>608.40002441406</ele>
        <time>2016-01-13T11:58:09.000Z</time>
      </trkpt>
      <trkpt lat="45.25555" lon="4.63052">
        <ele>606.20001220703</ele>
        <time>2016-01-13T11:58:13.000Z</time>
      </trkpt>
      <trkpt lat="45.25567" lon="4.63076">
        <ele>606.20001220703</ele>
        <time>2016-01-13T11:58:16.000Z</time>
      </trkpt>
      <trkpt lat="45.25564" lon="4.63107">
        <ele>601.20001220703</ele>
        <time>2016-01-13T11:58:20.000Z</time>
      </trkpt>
      <trkpt lat="45.25553" lon="4.63124">
        <ele>596.59997558594</ele>
        <time>2016-01-13T11:58:23.000Z</time>
      </trkpt>
      <trkpt lat="45.2555" lon="4.63129">
        <ele>595.59997558594</ele>
        <time>2016-01-13T11:58:27.000Z</time>
      </trkpt>
      <trkpt lat="45.25548" lon="4.63132">
        <ele>595</ele>
        <time>2016-01-13T11:58:30.000Z</time>
      </trkpt>
      <trkpt lat="45.25538" lon="4.63169">
        <ele>591.79998779297</ele>
        <time>2016-01-13T11:58:37.000Z</time>
      </trkpt>
      <trkpt lat="45.25539" lon="4.63195">
        <ele>591.40002441406</ele>
        <time>2016-01-13T11:58:40.000Z</time>
      </trkpt>
      <trkpt lat="45.25537" lon="4.63244">
        <ele>586.79998779297</ele>
        <time>2016-01-13T11:58:48.000Z</time>
      </trkpt>
      <trkpt lat="45.25543" lon="4.63259">
        <ele>586.79998779297</ele>
        <time>2016-01-13T11:58:53.000Z</time>
      </trkpt>
      <trkpt lat="45.25546" lon="4.63262">
        <ele>587.40002441406</ele>
        <time>2016-01-13T11:58:55.000Z</time>
      </trkpt>
      <trkpt lat="45.25562" lon="4.6326">
        <ele>590.20001220703</ele>
        <time>2016-01-13T11:59:04.000Z</time>
      </trkpt>
      <trkpt lat="45.25573" lon="4.63265">
        <ele>591.79998779297</ele>
        <time>2016-01-13T11:59:12.000Z</time>
      </trkpt>
      <trkpt lat="45.25574" lon="4.63267">
        <ele>591.79998779297</ele>
        <time>2016-01-13T11:59:13.000Z</time>
      </trkpt>
      <trkpt lat="45.25577" lon="4.63269">
        <ele>592.20001220703</ele>
        <time>2016-01-13T11:59:15.000Z</time>
      </trkpt>
      <trkpt lat="45.25592" lon="4.63281">
        <ele>593.59997558594</ele>
        <time>2016-01-13T11:59:30.000Z</time>
      </trkpt>
      <trkpt lat="45.25603" lon="4.63287">
        <ele>594.79998779297</ele>
        <time>2016-01-13T11:59:38.000Z</time>
      </trkpt>
      <trkpt lat="45.25609" lon="4.63299">
        <ele>594</ele>
        <time>2016-01-13T11:59:45.000Z</time>
      </trkpt>
      <trkpt lat="45.2561" lon="4.63301">
        <ele>593.79998779297</ele>
        <time>2016-01-13T11:59:46.000Z</time>
      </trkpt>
      <trkpt lat="45.25614" lon="4.63311">
        <ele>592.79998779297</ele>
        <time>2016-01-13T11:59:50.000Z</time>
      </trkpt>
      <trkpt lat="45.25619" lon="4.63318">
        <ele>592.40002441406</ele>
        <time>2016-01-13T11:59:54.000Z</time>
      </trkpt>
      <trkpt lat="45.25636" lon="4.63331">
        <ele>592</ele>
        <time>2016-01-13T12:00:06.000Z</time>
      </trkpt>
      <trkpt lat="45.25648" lon="4.63338">
        <ele>591</ele>
        <time>2016-01-13T12:00:14.000Z</time>
      </trkpt>
      <trkpt lat="45.25659" lon="4.63348">
        <ele>589.40002441406</ele>
        <time>2016-01-13T12:00:20.000Z</time>
      </trkpt>
      <trkpt lat="45.25672" lon="4.63356">
        <ele>588.40002441406</ele>
        <time>2016-01-13T12:00:27.000Z</time>
      </trkpt>
      <trkpt lat="45.25679" lon="4.63358">
        <ele>588</ele>
        <time>2016-01-13T12:00:31.000Z</time>
      </trkpt>
      <trkpt lat="45.25681" lon="4.63361">
        <ele>587.59997558594</ele>
        <time>2016-01-13T12:00:33.000Z</time>
      </trkpt>
      <trkpt lat="45.25708" lon="4.63389">
        <ele>581.59997558594</ele>
        <time>2016-01-13T12:00:42.000Z</time>
      </trkpt>
      <trkpt lat="45.25714" lon="4.63393">
        <ele>580.59997558594</ele>
        <time>2016-01-13T12:00:43.000Z</time>
      </trkpt>
      <trkpt lat="45.25719" lon="4.63391">
        <ele>580.20001220703</ele>
        <time>2016-01-13T12:00:44.000Z</time>
      </trkpt>
      <trkpt lat="45.25722" lon="4.6339">
        <ele>580.20001220703</ele>
        <time>2016-01-13T12:00:48.000Z</time>
      </trkpt>
      <trkpt lat="45.25721" lon="4.63398">
        <ele>578.40002441406</ele>
        <time>2016-01-13T12:00:56.000Z</time>
      </trkpt>
      <trkpt lat="45.25721" lon="4.63401">
        <ele>577.59997558594</ele>
        <time>2016-01-13T12:00:57.000Z</time>
      </trkpt>
      <trkpt lat="45.25718" lon="4.63426">
        <ele>571.20001220703</ele>
        <time>2016-01-13T12:01:02.000Z</time>
      </trkpt>
      <trkpt lat="45.25722" lon="4.63435">
        <ele>568.40002441406</ele>
        <time>2016-01-13T12:01:06.000Z</time>
      </trkpt>
      <trkpt lat="45.25726" lon="4.63442">
        <ele>566</ele>
        <time>2016-01-13T12:01:10.000Z</time>
      </trkpt>
      <trkpt lat="45.25726" lon="4.63448">
        <ele>564.20001220703</ele>
        <time>2016-01-13T12:01:14.000Z</time>
      </trkpt>
      <trkpt lat="45.25722" lon="4.63451">
        <ele>564.20001220703</ele>
        <time>2016-01-13T12:01:17.000Z</time>
      </trkpt>
      <trkpt lat="45.25714" lon="4.63458">
        <ele>563.59997558594</ele>
        <time>2016-01-13T12:01:22.000Z</time>
      </trkpt>
      <trkpt lat="45.25713" lon="4.63471">
        <ele>560.20001220703</ele>
        <time>2016-01-13T12:01:28.000Z</time>
      </trkpt>
      <trkpt lat="45.25722" lon="4.63477">
        <ele>557.79998779297</ele>
        <time>2016-01-13T12:01:34.000Z</time>
      </trkpt>
      <trkpt lat="45.25726" lon="4.63481">
        <ele>556.79998779297</ele>
        <time>2016-01-13T12:01:37.000Z</time>
      </trkpt>
      <trkpt lat="45.25727" lon="4.63489">
        <ele>554.40002441406</ele>
        <time>2016-01-13T12:01:41.000Z</time>
      </trkpt>
      <trkpt lat="45.25724" lon="4.63497">
        <ele>552.79998779297</ele>
        <time>2016-01-13T12:01:43.000Z</time>
      </trkpt>
      <trkpt lat="45.25719" lon="4.63516">
        <ele>548.40002441406</ele>
        <time>2016-01-13T12:01:48.000Z</time>
      </trkpt>
      <trkpt lat="45.25723" lon="4.63512">
        <ele>549</ele>
        <time>2016-01-13T12:01:51.000Z</time>
      </trkpt>
      <trkpt lat="45.25726" lon="4.63514">
        <ele>548.40002441406</ele>
        <time>2016-01-13T12:01:54.000Z</time>
      </trkpt>
      <trkpt lat="45.25727" lon="4.63514">
        <ele>548.20001220703</ele>
        <time>2016-01-13T12:01:55.000Z</time>
      </trkpt>
      <trkpt lat="45.25726" lon="4.63509">
        <ele>549.79998779297</ele>
        <time>2016-01-13T12:02:02.000Z</time>
      </trkpt>
      <trkpt lat="45.25709" lon="4.63504">
        <ele>551.79998779297</ele>
        <time>2016-01-13T12:04:55.000Z</time>
      </trkpt>
      <trkpt lat="45.25706" lon="4.63503">
        <ele>552.20001220703</ele>
        <time>2016-01-13T12:04:57.000Z</time>
      </trkpt>
      <trkpt lat="45.25681" lon="4.63492">
        <ele>555</ele>
        <time>2016-01-13T12:05:14.000Z</time>
      </trkpt>
      <trkpt lat="45.2567" lon="4.63489">
        <ele>555.59997558594</ele>
        <time>2016-01-13T12:05:20.000Z</time>
      </trkpt>
      <trkpt lat="45.25664" lon="4.63496">
        <ele>554.79998779297</ele>
        <time>2016-01-13T12:05:26.000Z</time>
      </trkpt>
      <trkpt lat="45.25676" lon="4.63526">
        <ele>549</ele>
        <time>2016-01-13T12:05:38.000Z</time>
      </trkpt>
      <trkpt lat="45.25693" lon="4.63555">
        <ele>545.40002441406</ele>
        <time>2016-01-13T12:05:49.000Z</time>
      </trkpt>
      <trkpt lat="45.25699" lon="4.63591">
        <ele>544</ele>
        <time>2016-01-13T12:06:01.000Z</time>
      </trkpt>
      <trkpt lat="45.25714" lon="4.6362">
        <ele>542</ele>
        <time>2016-01-13T12:06:12.000Z</time>
      </trkpt>
      <trkpt lat="45.25732" lon="4.63648">
        <ele>541.79998779297</ele>
        <time>2016-01-13T12:06:23.000Z</time>
      </trkpt>
      <trkpt lat="45.2576" lon="4.6368">
        <ele>539.79998779297</ele>
        <time>2016-01-13T12:06:34.000Z</time>
      </trkpt>
      <trkpt lat="45.25777" lon="4.63717">
        <ele>539.79998779297</ele>
        <time>2016-01-13T12:06:46.000Z</time>
      </trkpt>
      <trkpt lat="45.25793" lon="4.63758">
        <ele>538.40002441406</ele>
        <time>2016-01-13T12:06:56.000Z</time>
      </trkpt>
      <trkpt lat="45.25804" lon="4.63811">
        <ele>537.59997558594</ele>
        <time>2016-01-13T12:07:08.000Z</time>
      </trkpt>
      <trkpt lat="45.25808" lon="4.63872">
        <ele>538.40002441406</ele>
        <time>2016-01-13T12:07:21.000Z</time>
      </trkpt>
      <trkpt lat="45.25824" lon="4.63918">
        <ele>539</ele>
        <time>2016-01-13T12:07:32.000Z</time>
      </trkpt>
      <trkpt lat="45.25836" lon="4.63951">
        <ele>538.59997558594</ele>
        <time>2016-01-13T12:07:40.000Z</time>
      </trkpt>
      <trkpt lat="45.25853" lon="4.63997">
        <ele>542</ele>
        <time>2016-01-13T12:07:51.000Z</time>
      </trkpt>
      <trkpt lat="45.25873" lon="4.64014">
        <ele>541</ele>
        <time>2016-01-13T12:07:58.000Z</time>
      </trkpt>
      <trkpt lat="45.25898" lon="4.64025">
        <ele>539</ele>
        <time>2016-01-13T12:08:05.000Z</time>
      </trkpt>
      <trkpt lat="45.25902" lon="4.64026">
        <ele>538.79998779297</ele>
        <time>2016-01-13T12:08:06.000Z</time>
      </trkpt>
      <trkpt lat="45.25906" lon="4.64029">
        <ele>538.59997558594</ele>
        <time>2016-01-13T12:08:07.000Z</time>
      </trkpt>
      <trkpt lat="45.25909" lon="4.64033">
        <ele>538.79998779297</ele>
        <time>2016-01-13T12:08:08.000Z</time>
      </trkpt>
      <trkpt lat="45.25913" lon="4.64034">
        <ele>538.40002441406</ele>
        <time>2016-01-13T12:08:09.000Z</time>
      </trkpt>
      <trkpt lat="45.25916" lon="4.64038">
        <ele>538.40002441406</ele>
        <time>2016-01-13T12:08:10.000Z</time>
      </trkpt>
      <trkpt lat="45.25919" lon="4.6404">
        <ele>538.20001220703</ele>
        <time>2016-01-13T12:08:11.000Z</time>
      </trkpt>
      <trkpt lat="45.25923" lon="4.64043">
        <ele>538</ele>
        <time>2016-01-13T12:08:12.000Z</time>
      </trkpt>
      <trkpt lat="45.25925" lon="4.64045">
        <ele>538</ele>
        <time>2016-01-13T12:08:13.000Z</time>
      </trkpt>
      <trkpt lat="45.25929" lon="4.64047">
        <ele>537.79998779297</ele>
        <time>2016-01-13T12:08:14.000Z</time>
      </trkpt>
      <trkpt lat="45.25971" lon="4.64081">
        <ele>536.20001220703</ele>
        <time>2016-01-13T12:08:26.000Z</time>
      </trkpt>
      <trkpt lat="45.25976" lon="4.64085">
        <ele>536.20001220703</ele>
        <time>2016-01-13T12:08:27.000Z</time>
      </trkpt>
      <trkpt lat="45.26" lon="4.64108">
        <ele>536.59997558594</ele>
        <time>2016-01-13T12:08:33.000Z</time>
      </trkpt>
      <trkpt lat="45.26002" lon="4.64112">
        <ele>537</ele>
        <time>2016-01-13T12:08:34.000Z</time>
      </trkpt>
      <trkpt lat="45.26004" lon="4.64116">
        <ele>537.20001220703</ele>
        <time>2016-01-13T12:08:35.000Z</time>
      </trkpt>
      <trkpt lat="45.26007" lon="4.6412">
        <ele>537.40002441406</ele>
        <time>2016-01-13T12:08:36.000Z</time>
      </trkpt>
      <trkpt lat="45.26009" lon="4.64124">
        <ele>537.59997558594</ele>
        <time>2016-01-13T12:08:37.000Z</time>
      </trkpt>
      <trkpt lat="45.2604" lon="4.64159">
        <ele>537.40002441406</ele>
        <time>2016-01-13T12:08:48.000Z</time>
      </trkpt>
      <trkpt lat="45.26057" lon="4.64178">
        <ele>536.79998779297</ele>
        <time>2016-01-13T12:08:54.000Z</time>
      </trkpt>
      <trkpt lat="45.2606" lon="4.64199">
        <ele>537.59997558594</ele>
        <time>2016-01-13T12:08:59.000Z</time>
      </trkpt>
      <trkpt lat="45.26071" lon="4.64232">
        <ele>535.40002441406</ele>
        <time>2016-01-13T12:09:06.000Z</time>
      </trkpt>
      <trkpt lat="45.26079" lon="4.6429">
        <ele>534.40002441406</ele>
        <time>2016-01-13T12:09:16.000Z</time>
      </trkpt>
      <trkpt lat="45.26078" lon="4.6435">
        <ele>532.40002441406</ele>
        <time>2016-01-13T12:09:26.000Z</time>
      </trkpt>
      <trkpt lat="45.26073" lon="4.64376">
        <ele>533.59997558594</ele>
        <time>2016-01-13T12:09:30.000Z</time>
      </trkpt>
      <trkpt lat="45.26071" lon="4.64388">
        <ele>534.59997558594</ele>
        <time>2016-01-13T12:09:32.000Z</time>
      </trkpt>
      <trkpt lat="45.26076" lon="4.64423">
        <ele>533.40002441406</ele>
        <time>2016-01-13T12:09:37.000Z</time>
      </trkpt>
      <trkpt lat="45.26079" lon="4.64435">
        <ele>532.59997558594</ele>
        <time>2016-01-13T12:09:39.000Z</time>
      </trkpt>
      <trkpt lat="45.26088" lon="4.64443">
        <ele>530.59997558594</ele>
        <time>2016-01-13T12:09:41.000Z</time>
      </trkpt>
      <trkpt lat="45.261" lon="4.64477">
        <ele>528.59997558594</ele>
        <time>2016-01-13T12:09:46.000Z</time>
      </trkpt>
      <trkpt lat="45.26113" lon="4.6452">
        <ele>527.40002441406</ele>
        <time>2016-01-13T12:09:52.000Z</time>
      </trkpt>
      <trkpt lat="45.26118" lon="4.64543">
        <ele>527</ele>
        <time>2016-01-13T12:09:55.000Z</time>
      </trkpt>
      <trkpt lat="45.26117" lon="4.64596">
        <ele>531.59997558594</ele>
        <time>2016-01-13T12:10:06.000Z</time>
      </trkpt>
      <trkpt lat="45.26109" lon="4.64612">
        <ele>533.79998779297</ele>
        <time>2016-01-13T12:10:13.000Z</time>
      </trkpt>
      <trkpt lat="45.26105" lon="4.64616">
        <ele>534.79998779297</ele>
        <time>2016-01-13T12:10:16.000Z</time>
      </trkpt>
      <trkpt lat="45.26102" lon="4.64617">
        <ele>535.20001220703</ele>
        <time>2016-01-13T12:10:18.000Z</time>
      </trkpt>
      <trkpt lat="45.26102" lon="4.64623">
        <ele>535.59997558594</ele>
        <time>2016-01-13T12:10:25.000Z</time>
      </trkpt>
      <trkpt lat="45.261" lon="4.64636">
        <ele>536.79998779297</ele>
        <time>2016-01-13T12:10:34.000Z</time>
      </trkpt>
      <trkpt lat="45.261" lon="4.64641">
        <ele>537.20001220703</ele>
        <time>2016-01-13T12:10:39.000Z</time>
      </trkpt>
      <trkpt lat="45.26104" lon="4.64649">
        <ele>537</ele>
        <time>2016-01-13T12:10:44.000Z</time>
      </trkpt>
      <trkpt lat="45.26107" lon="4.6465">
        <ele>536.79998779297</ele>
        <time>2016-01-13T12:10:45.000Z</time>
      </trkpt>
      <trkpt lat="45.26109" lon="4.64651">
        <ele>536.40002441406</ele>
        <time>2016-01-13T12:10:46.000Z</time>
      </trkpt>
      <trkpt lat="45.26112" lon="4.64652">
        <ele>536.20001220703</ele>
        <time>2016-01-13T12:10:47.000Z</time>
      </trkpt>
      <trkpt lat="45.26114" lon="4.64654">
        <ele>535.79998779297</ele>
        <time>2016-01-13T12:10:48.000Z</time>
      </trkpt>
      <trkpt lat="45.26117" lon="4.64655">
        <ele>535.59997558594</ele>
        <time>2016-01-13T12:10:49.000Z</time>
      </trkpt>
      <trkpt lat="45.2612" lon="4.64657">
        <ele>535.20001220703</ele>
        <time>2016-01-13T12:10:50.000Z</time>
      </trkpt>
      <trkpt lat="45.26124" lon="4.64659">
        <ele>534.59997558594</ele>
        <time>2016-01-13T12:10:51.000Z</time>
      </trkpt>
      <trkpt lat="45.26143" lon="4.6467">
        <ele>533</ele>
        <time>2016-01-13T12:10:56.000Z</time>
      </trkpt>
      <trkpt lat="45.26147" lon="4.64672">
        <ele>532.79998779297</ele>
        <time>2016-01-13T12:10:57.000Z</time>
      </trkpt>
      <trkpt lat="45.26151" lon="4.64674">
        <ele>532.40002441406</ele>
        <time>2016-01-13T12:10:58.000Z</time>
      </trkpt>
      <trkpt lat="45.26154" lon="4.64675">
        <ele>532</ele>
        <time>2016-01-13T12:10:59.000Z</time>
      </trkpt>
      <trkpt lat="45.26158" lon="4.64677">
        <ele>531.59997558594</ele>
        <time>2016-01-13T12:11:00.000Z</time>
      </trkpt>
      <trkpt lat="45.26208" lon="4.64702">
        <ele>527.59997558594</ele>
        <time>2016-01-13T12:11:10.000Z</time>
      </trkpt>
      <trkpt lat="45.26243" lon="4.64723">
        <ele>527.20001220703</ele>
        <time>2016-01-13T12:11:16.000Z</time>
      </trkpt>
      <trkpt lat="45.26258" lon="4.64734">
        <ele>527.20001220703</ele>
        <time>2016-01-13T12:11:19.000Z</time>
      </trkpt>
      <trkpt lat="45.26262" lon="4.64736">
        <ele>527.20001220703</ele>
        <time>2016-01-13T12:11:20.000Z</time>
      </trkpt>
      <trkpt lat="45.26264" lon="4.64738">
        <ele>527.20001220703</ele>
        <time>2016-01-13T12:11:21.000Z</time>
      </trkpt>
      <trkpt lat="45.26267" lon="4.64741">
        <ele>527.40002441406</ele>
        <time>2016-01-13T12:11:22.000Z</time>
      </trkpt>
      <trkpt lat="45.26268" lon="4.64744">
        <ele>527.40002441406</ele>
        <time>2016-01-13T12:11:23.000Z</time>
      </trkpt>
      <trkpt lat="45.26269" lon="4.64748">
        <ele>527.79998779297</ele>
        <time>2016-01-13T12:11:24.000Z</time>
      </trkpt>
      <trkpt lat="45.26269" lon="4.64752">
        <ele>528</ele>
        <time>2016-01-13T12:11:25.000Z</time>
      </trkpt>
      <trkpt lat="45.26269" lon="4.64757">
        <ele>528.20001220703</ele>
        <time>2016-01-13T12:11:26.000Z</time>
      </trkpt>
      <trkpt lat="45.26269" lon="4.64762">
        <ele>528.40002441406</ele>
        <time>2016-01-13T12:11:27.000Z</time>
      </trkpt>
      <trkpt lat="45.26269" lon="4.64767">
        <ele>528.59997558594</ele>
        <time>2016-01-13T12:11:28.000Z</time>
      </trkpt>
      <trkpt lat="45.26269" lon="4.64773">
        <ele>528.79998779297</ele>
        <time>2016-01-13T12:11:29.000Z</time>
      </trkpt>
      <trkpt lat="45.26269" lon="4.64779">
        <ele>529</ele>
        <time>2016-01-13T12:11:30.000Z</time>
      </trkpt>
      <trkpt lat="45.2627" lon="4.64786">
        <ele>529.20001220703</ele>
        <time>2016-01-13T12:11:31.000Z</time>
      </trkpt>
      <trkpt lat="45.26271" lon="4.64793">
        <ele>528.79998779297</ele>
        <time>2016-01-13T12:11:32.000Z</time>
      </trkpt>
      <trkpt lat="45.26274" lon="4.648">
        <ele>528.40002441406</ele>
        <time>2016-01-13T12:11:33.000Z</time>
      </trkpt>
      <trkpt lat="45.26277" lon="4.64808">
        <ele>527.79998779297</ele>
        <time>2016-01-13T12:11:34.000Z</time>
      </trkpt>
      <trkpt lat="45.26283" lon="4.64815">
        <ele>527.40002441406</ele>
        <time>2016-01-13T12:11:35.000Z</time>
      </trkpt>
      <trkpt lat="45.26289" lon="4.6482">
        <ele>527</ele>
        <time>2016-01-13T12:11:36.000Z</time>
      </trkpt>
      <trkpt lat="45.26295" lon="4.64825">
        <ele>526.59997558594</ele>
        <time>2016-01-13T12:11:37.000Z</time>
      </trkpt>
      <trkpt lat="45.263" lon="4.64829">
        <ele>526.59997558594</ele>
        <time>2016-01-13T12:11:38.000Z</time>
      </trkpt>
      <trkpt lat="45.26304" lon="4.64833">
        <ele>526.40002441406</ele>
        <time>2016-01-13T12:11:39.000Z</time>
      </trkpt>
      <trkpt lat="45.26304" lon="4.64838">
        <ele>526</ele>
        <time>2016-01-13T12:11:40.000Z</time>
      </trkpt>
      <trkpt lat="45.26301" lon="4.64842">
        <ele>525.79998779297</ele>
        <time>2016-01-13T12:11:41.000Z</time>
      </trkpt>
      <trkpt lat="45.26297" lon="4.64845">
        <ele>525.40002441406</ele>
        <time>2016-01-13T12:11:42.000Z</time>
      </trkpt>
      <trkpt lat="45.26291" lon="4.64847">
        <ele>525.40002441406</ele>
        <time>2016-01-13T12:11:43.000Z</time>
      </trkpt>
      <trkpt lat="45.26285" lon="4.64849">
        <ele>525.40002441406</ele>
        <time>2016-01-13T12:11:44.000Z</time>
      </trkpt>
      <trkpt lat="45.26278" lon="4.64849">
        <ele>525.40002441406</ele>
        <time>2016-01-13T12:11:45.000Z</time>
      </trkpt>
      <trkpt lat="45.26257" lon="4.64851">
        <ele>525</ele>
        <time>2016-01-13T12:11:48.000Z</time>
      </trkpt>
      <trkpt lat="45.2625" lon="4.64854">
        <ele>524.79998779297</ele>
        <time>2016-01-13T12:11:49.000Z</time>
      </trkpt>
      <trkpt lat="45.26217" lon="4.64868">
        <ele>523.20001220703</ele>
        <time>2016-01-13T12:11:53.000Z</time>
      </trkpt>
      <trkpt lat="45.26193" lon="4.64876">
        <ele>520.59997558594</ele>
        <time>2016-01-13T12:11:56.000Z</time>
      </trkpt>
      <trkpt lat="45.26179" lon="4.64881">
        <ele>518.79998779297</ele>
        <time>2016-01-13T12:11:58.000Z</time>
      </trkpt>
      <trkpt lat="45.26173" lon="4.64884">
        <ele>517.79998779297</ele>
        <time>2016-01-13T12:11:59.000Z</time>
      </trkpt>
      <trkpt lat="45.2617" lon="4.64886">
        <ele>517.20001220703</ele>
        <time>2016-01-13T12:12:00.000Z</time>
      </trkpt>
      <trkpt lat="45.26168" lon="4.64889">
        <ele>516.40002441406</ele>
        <time>2016-01-13T12:12:01.000Z</time>
      </trkpt>
      <trkpt lat="45.26168" lon="4.64891">
        <ele>515.79998779297</ele>
        <time>2016-01-13T12:12:02.000Z</time>
      </trkpt>
      <trkpt lat="45.26168" lon="4.64892">
        <ele>515.59997558594</ele>
        <time>2016-01-13T12:12:03.000Z</time>
      </trkpt>
      <trkpt lat="45.26177" lon="4.64896">
        <ele>515.20001220703</ele>
        <time>2016-01-13T12:12:06.000Z</time>
      </trkpt>
      <trkpt lat="45.2619" lon="4.64901">
        <ele>514.59997558594</ele>
        <time>2016-01-13T12:12:09.000Z</time>
      </trkpt>
      <trkpt lat="45.26195" lon="4.64902">
        <ele>514.59997558594</ele>
        <time>2016-01-13T12:12:10.000Z</time>
      </trkpt>
      <trkpt lat="45.26218" lon="4.64903">
        <ele>515.59997558594</ele>
        <time>2016-01-13T12:12:14.000Z</time>
      </trkpt>
      <trkpt lat="45.26238" lon="4.64909">
        <ele>515</ele>
        <time>2016-01-13T12:12:18.000Z</time>
      </trkpt>
      <trkpt lat="45.26281" lon="4.6494">
        <ele>510</ele>
        <time>2016-01-13T12:12:29.000Z</time>
      </trkpt>
      <trkpt lat="45.263" lon="4.64951">
        <ele>508.60000610352</ele>
        <time>2016-01-13T12:12:33.000Z</time>
      </trkpt>
      <trkpt lat="45.2631" lon="4.64955">
        <ele>508</ele>
        <time>2016-01-13T12:12:35.000Z</time>
      </trkpt>
      <trkpt lat="45.26344" lon="4.64974">
        <ele>504.79998779297</ele>
        <time>2016-01-13T12:12:41.000Z</time>
      </trkpt>
      <trkpt lat="45.26369" lon="4.65001">
        <ele>499.39999389648</ele>
        <time>2016-01-13T12:12:46.000Z</time>
      </trkpt>
      <trkpt lat="45.26382" lon="4.6501">
        <ele>497.39999389648</ele>
        <time>2016-01-13T12:12:48.000Z</time>
      </trkpt>
      <trkpt lat="45.26391" lon="4.65022">
        <ele>494.60000610352</ele>
        <time>2016-01-13T12:12:50.000Z</time>
      </trkpt>
      <trkpt lat="45.26413" lon="4.65065">
        <ele>485.60000610352</ele>
        <time>2016-01-13T12:12:54.000Z</time>
      </trkpt>
      <trkpt lat="45.26426" lon="4.65108">
        <ele>476.79998779297</ele>
        <time>2016-01-13T12:12:58.000Z</time>
      </trkpt>
      <trkpt lat="45.26427" lon="4.65119">
        <ele>474.60000610352</ele>
        <time>2016-01-13T12:12:59.000Z</time>
      </trkpt>
      <trkpt lat="45.26438" lon="4.65141">
        <ele>470</ele>
        <time>2016-01-13T12:13:02.000Z</time>
      </trkpt>
      <trkpt lat="45.26447" lon="4.65153">
        <ele>467.60000610352</ele>
        <time>2016-01-13T12:13:04.000Z</time>
      </trkpt>
      <trkpt lat="45.26471" lon="4.65163">
        <ele>465</ele>
        <time>2016-01-13T12:13:08.000Z</time>
      </trkpt>
      <trkpt lat="45.26478" lon="4.65163">
        <ele>464.39999389648</ele>
        <time>2016-01-13T12:13:09.000Z</time>
      </trkpt>
      <trkpt lat="45.26491" lon="4.65163">
        <ele>463.39999389648</ele>
        <time>2016-01-13T12:13:11.000Z</time>
      </trkpt>
      <trkpt lat="45.26506" lon="4.65173">
        <ele>460.20001220703</ele>
        <time>2016-01-13T12:13:15.000Z</time>
      </trkpt>
      <trkpt lat="45.26507" lon="4.65194">
        <ele>455.60000610352</ele>
        <time>2016-01-13T12:13:19.000Z</time>
      </trkpt>
      <trkpt lat="45.2651" lon="4.65198">
        <ele>454.60000610352</ele>
        <time>2016-01-13T12:13:25.000Z</time>
      </trkpt>
      <trkpt lat="45.26507" lon="4.65201">
        <ele>454.20001220703</ele>
        <time>2016-01-13T12:13:28.000Z</time>
      </trkpt>
      <trkpt lat="45.26493" lon="4.65205">
        <ele>454.20001220703</ele>
        <time>2016-01-13T12:13:33.000Z</time>
      </trkpt>
      <trkpt lat="45.26444" lon="4.6521">
        <ele>455.60000610352</ele>
        <time>2016-01-13T12:13:46.000Z</time>
      </trkpt>
      <trkpt lat="45.2644" lon="4.6521">
        <ele>455.79998779297</ele>
        <time>2016-01-13T12:13:47.000Z</time>
      </trkpt>
      <trkpt lat="45.26422" lon="4.65208">
        <ele>456.39999389648</ele>
        <time>2016-01-13T12:13:51.000Z</time>
      </trkpt>
      <trkpt lat="45.26399" lon="4.65206">
        <ele>457</ele>
        <time>2016-01-13T12:13:56.000Z</time>
      </trkpt>
      <trkpt lat="45.2639" lon="4.65208">
        <ele>456.60000610352</ele>
        <time>2016-01-13T12:13:58.000Z</time>
      </trkpt>
      <trkpt lat="45.26388" lon="4.65231">
        <ele>452.79998779297</ele>
        <time>2016-01-13T12:14:05.000Z</time>
      </trkpt>
      <trkpt lat="45.26412" lon="4.65269">
        <ele>444.79998779297</ele>
        <time>2016-01-13T12:14:17.000Z</time>
      </trkpt>
      <trkpt lat="45.26436" lon="4.65314">
        <ele>440</ele>
        <time>2016-01-13T12:14:29.000Z</time>
      </trkpt>
      <trkpt lat="45.26456" lon="4.65363">
        <ele>437.60000610352</ele>
        <time>2016-01-13T12:14:41.000Z</time>
      </trkpt>
      <trkpt lat="45.26475" lon="4.65404">
        <ele>438.39999389648</ele>
        <time>2016-01-13T12:14:52.000Z</time>
      </trkpt>
      <trkpt lat="45.26493" lon="4.65452">
        <ele>440.20001220703</ele>
        <time>2016-01-13T12:15:05.000Z</time>
      </trkpt>
      <trkpt lat="45.26494" lon="4.65493">
        <ele>442.39999389648</ele>
        <time>2016-01-13T12:15:18.000Z</time>
      </trkpt>
      <trkpt lat="45.26479" lon="4.65513">
        <ele>446.39999389648</ele>
        <time>2016-01-13T12:15:29.000Z</time>
      </trkpt>
      <trkpt lat="45.26464" lon="4.65542">
        <ele>451</ele>
        <time>2016-01-13T12:15:43.000Z</time>
      </trkpt>
      <trkpt lat="45.26453" lon="4.65568">
        <ele>453.20001220703</ele>
        <time>2016-01-13T12:15:57.000Z</time>
      </trkpt>
      <trkpt lat="45.26436" lon="4.65593">
        <ele>456.60000610352</ele>
        <time>2016-01-13T12:16:11.000Z</time>
      </trkpt>
      <trkpt lat="45.26414" lon="4.65613">
        <ele>461.20001220703</ele>
        <time>2016-01-13T12:16:26.000Z</time>
      </trkpt>
      <trkpt lat="45.26376" lon="4.6564">
        <ele>467.79998779297</ele>
        <time>2016-01-13T12:16:47.000Z</time>
      </trkpt>
      <trkpt lat="45.26336" lon="4.65659">
        <ele>471.79998779297</ele>
        <time>2016-01-13T12:17:07.000Z</time>
      </trkpt>
      <trkpt lat="45.26311" lon="4.65673">
        <ele>474.20001220703</ele>
        <time>2016-01-13T12:17:23.000Z</time>
      </trkpt>
      <trkpt lat="45.26311" lon="4.65673">
        <ele>474</ele>
        <time>2016-01-13T12:17:26.000Z</time>
      </trkpt>
      <trkpt lat="45.26314" lon="4.65678">
        <ele>473.60000610352</ele>
        <time>2016-01-13T12:17:51.000Z</time>
      </trkpt>
      <trkpt lat="45.26313" lon="4.65689">
        <ele>473.60000610352</ele>
        <time>2016-01-13T12:17:55.000Z</time>
      </trkpt>
      <trkpt lat="45.26304" lon="4.65736">
        <ele>474</ele>
        <time>2016-01-13T12:18:07.000Z</time>
      </trkpt>
      <trkpt lat="45.26287" lon="4.65807">
        <ele>475.20001220703</ele>
        <time>2016-01-13T12:18:23.000Z</time>
      </trkpt>
      <trkpt lat="45.26284" lon="4.65826">
        <ele>475.20001220703</ele>
        <time>2016-01-13T12:18:26.000Z</time>
      </trkpt>
      <trkpt lat="45.26282" lon="4.65832">
        <ele>475.20001220703</ele>
        <time>2016-01-13T12:18:27.000Z</time>
      </trkpt>
      <trkpt lat="45.2628" lon="4.65838">
        <ele>475.20001220703</ele>
        <time>2016-01-13T12:18:28.000Z</time>
      </trkpt>
      <trkpt lat="45.26276" lon="4.65842">
        <ele>475.20001220703</ele>
        <time>2016-01-13T12:18:29.000Z</time>
      </trkpt>
      <trkpt lat="45.26272" lon="4.65846">
        <ele>475.20001220703</ele>
        <time>2016-01-13T12:18:30.000Z</time>
      </trkpt>
      <trkpt lat="45.26268" lon="4.65851">
        <ele>475.20001220703</ele>
        <time>2016-01-13T12:18:31.000Z</time>
      </trkpt>
      <trkpt lat="45.26264" lon="4.65857">
        <ele>475</ele>
        <time>2016-01-13T12:18:32.000Z</time>
      </trkpt>
      <trkpt lat="45.26261" lon="4.65862">
        <ele>474.79998779297</ele>
        <time>2016-01-13T12:18:33.000Z</time>
      </trkpt>
      <trkpt lat="45.26254" lon="4.65874">
        <ele>474.39999389648</ele>
        <time>2016-01-13T12:18:35.000Z</time>
      </trkpt>
      <trkpt lat="45.2625" lon="4.65879">
        <ele>474</ele>
        <time>2016-01-13T12:18:36.000Z</time>
      </trkpt>
      <trkpt lat="45.26246" lon="4.65883">
        <ele>473.79998779297</ele>
        <time>2016-01-13T12:18:37.000Z</time>
      </trkpt>
      <trkpt lat="45.26241" lon="4.65887">
        <ele>473.79998779297</ele>
        <time>2016-01-13T12:18:38.000Z</time>
      </trkpt>
      <trkpt lat="45.26236" lon="4.65889">
        <ele>473.60000610352</ele>
        <time>2016-01-13T12:18:39.000Z</time>
      </trkpt>
      <trkpt lat="45.26231" lon="4.65892">
        <ele>473.39999389648</ele>
        <time>2016-01-13T12:18:40.000Z</time>
      </trkpt>
      <trkpt lat="45.26183" lon="4.65926">
        <ele>472.60000610352</ele>
        <time>2016-01-13T12:18:50.000Z</time>
      </trkpt>
      <trkpt lat="45.26148" lon="4.65954">
        <ele>471.39999389648</ele>
        <time>2016-01-13T12:18:58.000Z</time>
      </trkpt>
      <trkpt lat="45.26145" lon="4.65959">
        <ele>471.20001220703</ele>
        <time>2016-01-13T12:18:59.000Z</time>
      </trkpt>
      <trkpt lat="45.26141" lon="4.65964">
        <ele>470.79998779297</ele>
        <time>2016-01-13T12:19:00.000Z</time>
      </trkpt>
      <trkpt lat="45.26138" lon="4.65969">
        <ele>470.39999389648</ele>
        <time>2016-01-13T12:19:01.000Z</time>
      </trkpt>
      <trkpt lat="45.26133" lon="4.65972">
        <ele>470.20001220703</ele>
        <time>2016-01-13T12:19:02.000Z</time>
      </trkpt>
      <trkpt lat="45.26129" lon="4.65974">
        <ele>469.79998779297</ele>
        <time>2016-01-13T12:19:03.000Z</time>
      </trkpt>
      <trkpt lat="45.26124" lon="4.65976">
        <ele>469.60000610352</ele>
        <time>2016-01-13T12:19:04.000Z</time>
      </trkpt>
      <trkpt lat="45.26119" lon="4.65978">
        <ele>469.39999389648</ele>
        <time>2016-01-13T12:19:05.000Z</time>
      </trkpt>
      <trkpt lat="45.26114" lon="4.65979">
        <ele>469.20001220703</ele>
        <time>2016-01-13T12:19:06.000Z</time>
      </trkpt>
      <trkpt lat="45.26062" lon="4.66021">
        <ele>464.39999389648</ele>
        <time>2016-01-13T12:19:19.000Z</time>
      </trkpt>
      <trkpt lat="45.26046" lon="4.66044">
        <ele>462.60000610352</ele>
        <time>2016-01-13T12:19:24.000Z</time>
      </trkpt>
      <trkpt lat="45.26043" lon="4.66049">
        <ele>462.20001220703</ele>
        <time>2016-01-13T12:19:25.000Z</time>
      </trkpt>
      <trkpt lat="45.26034" lon="4.66073">
        <ele>461.20001220703</ele>
        <time>2016-01-13T12:19:29.000Z</time>
      </trkpt>
      <trkpt lat="45.2603" lon="4.66078">
        <ele>461</ele>
        <time>2016-01-13T12:19:30.000Z</time>
      </trkpt>
      <trkpt lat="45.26011" lon="4.66109">
        <ele>460.39999389648</ele>
        <time>2016-01-13T12:19:37.000Z</time>
      </trkpt>
      <trkpt lat="45.26012" lon="4.66113">
        <ele>460.20001220703</ele>
        <time>2016-01-13T12:19:38.000Z</time>
      </trkpt>
      <trkpt lat="45.26019" lon="4.66123">
        <ele>459.39999389648</ele>
        <time>2016-01-13T12:19:40.000Z</time>
      </trkpt>
      <trkpt lat="45.26023" lon="4.66128">
        <ele>458.79998779297</ele>
        <time>2016-01-13T12:19:41.000Z</time>
      </trkpt>
      <trkpt lat="45.26073" lon="4.66185">
        <ele>453.79998779297</ele>
        <time>2016-01-13T12:19:51.000Z</time>
      </trkpt>
      <trkpt lat="45.26102" lon="4.66216">
        <ele>451.79998779297</ele>
        <time>2016-01-13T12:19:56.000Z</time>
      </trkpt>
      <trkpt lat="45.26121" lon="4.66232">
        <ele>451</ele>
        <time>2016-01-13T12:19:59.000Z</time>
      </trkpt>
      <trkpt lat="45.26167" lon="4.66268">
        <ele>448.79998779297</ele>
        <time>2016-01-13T12:20:06.000Z</time>
      </trkpt>
      <trkpt lat="45.26174" lon="4.66275">
        <ele>448.39999389648</ele>
        <time>2016-01-13T12:20:07.000Z</time>
      </trkpt>
      <trkpt lat="45.2618" lon="4.66283">
        <ele>448</ele>
        <time>2016-01-13T12:20:08.000Z</time>
      </trkpt>
      <trkpt lat="45.26185" lon="4.66292">
        <ele>447</ele>
        <time>2016-01-13T12:20:09.000Z</time>
      </trkpt>
      <trkpt lat="45.26231" lon="4.66376">
        <ele>437</ele>
        <time>2016-01-13T12:20:17.000Z</time>
      </trkpt>
      <trkpt lat="45.26237" lon="4.66383">
        <ele>436.60000610352</ele>
        <time>2016-01-13T12:20:18.000Z</time>
      </trkpt>
      <trkpt lat="45.26246" lon="4.66395">
        <ele>435.79998779297</ele>
        <time>2016-01-13T12:20:20.000Z</time>
      </trkpt>
      <trkpt lat="45.26248" lon="4.66401">
        <ele>435.60000610352</ele>
        <time>2016-01-13T12:20:21.000Z</time>
      </trkpt>
      <trkpt lat="45.26247" lon="4.66407">
        <ele>435.39999389648</ele>
        <time>2016-01-13T12:20:22.000Z</time>
      </trkpt>
      <trkpt lat="45.26243" lon="4.66412">
        <ele>435.39999389648</ele>
        <time>2016-01-13T12:20:23.000Z</time>
      </trkpt>
      <trkpt lat="45.26239" lon="4.66416">
        <ele>435.39999389648</ele>
        <time>2016-01-13T12:20:24.000Z</time>
      </trkpt>
      <trkpt lat="45.26234" lon="4.66418">
        <ele>435.60000610352</ele>
        <time>2016-01-13T12:20:25.000Z</time>
      </trkpt>
      <trkpt lat="45.26228" lon="4.6642">
        <ele>435.60000610352</ele>
        <time>2016-01-13T12:20:26.000Z</time>
      </trkpt>
      <trkpt lat="45.26223" lon="4.66423">
        <ele>435.79998779297</ele>
        <time>2016-01-13T12:20:27.000Z</time>
      </trkpt>
      <trkpt lat="45.26218" lon="4.66426">
        <ele>435.79998779297</ele>
        <time>2016-01-13T12:20:28.000Z</time>
      </trkpt>
      <trkpt lat="45.26198" lon="4.66441">
        <ele>436.20001220703</ele>
        <time>2016-01-13T12:20:33.000Z</time>
      </trkpt>
      <trkpt lat="45.26189" lon="4.66451">
        <ele>435.60000610352</ele>
        <time>2016-01-13T12:20:36.000Z</time>
      </trkpt>
      <trkpt lat="45.26186" lon="4.66455">
        <ele>435.60000610352</ele>
        <time>2016-01-13T12:20:37.000Z</time>
      </trkpt>
      <trkpt lat="45.26127" lon="4.66517">
        <ele>434.79998779297</ele>
        <time>2016-01-13T12:20:54.000Z</time>
      </trkpt>
      <trkpt lat="45.26102" lon="4.66544">
        <ele>434.60000610352</ele>
        <time>2016-01-13T12:21:05.000Z</time>
      </trkpt>
      <trkpt lat="45.26103" lon="4.66546">
        <ele>434.39999389648</ele>
        <time>2016-01-13T12:21:06.000Z</time>
      </trkpt>
      <trkpt lat="45.26104" lon="4.66548">
        <ele>434.39999389648</ele>
        <time>2016-01-13T12:21:07.000Z</time>
      </trkpt>
      <trkpt lat="45.26105" lon="4.66552">
        <ele>434.20001220703</ele>
        <time>2016-01-13T12:21:08.000Z</time>
      </trkpt>
      <trkpt lat="45.26106" lon="4.66557">
        <ele>433.79998779297</ele>
        <time>2016-01-13T12:21:09.000Z</time>
      </trkpt>
      <trkpt lat="45.26107" lon="4.66562">
        <ele>433.60000610352</ele>
        <time>2016-01-13T12:21:10.000Z</time>
      </trkpt>
      <trkpt lat="45.26108" lon="4.66568">
        <ele>433.20001220703</ele>
        <time>2016-01-13T12:21:11.000Z</time>
      </trkpt>
      <trkpt lat="45.26111" lon="4.66587">
        <ele>432.20001220703</ele>
        <time>2016-01-13T12:21:14.000Z</time>
      </trkpt>
      <trkpt lat="45.26113" lon="4.66602">
        <ele>431.39999389648</ele>
        <time>2016-01-13T12:21:16.000Z</time>
      </trkpt>
      <trkpt lat="45.26115" lon="4.6662">
        <ele>430.39999389648</ele>
        <time>2016-01-13T12:21:20.000Z</time>
      </trkpt>
      <trkpt lat="45.26125" lon="4.66635">
        <ele>429.39999389648</ele>
        <time>2016-01-13T12:21:24.000Z</time>
      </trkpt>
      <trkpt lat="45.26139" lon="4.66659">
        <ele>428.20001220703</ele>
        <time>2016-01-13T12:21:28.000Z</time>
      </trkpt>
      <trkpt lat="45.26166" lon="4.66682">
        <ele>427.39999389648</ele>
        <time>2016-01-13T12:21:35.000Z</time>
      </trkpt>
      <trkpt lat="45.26194" lon="4.66693">
        <ele>427.20001220703</ele>
        <time>2016-01-13T12:21:43.000Z</time>
      </trkpt>
      <trkpt lat="45.26234" lon="4.66716">
        <ele>425.20001220703</ele>
        <time>2016-01-13T12:21:54.000Z</time>
      </trkpt>
      <trkpt lat="45.26257" lon="4.66739">
        <ele>422.79998779297</ele>
        <time>2016-01-13T12:22:04.000Z</time>
      </trkpt>
      <trkpt lat="45.26262" lon="4.66752">
        <ele>421.79998779297</ele>
        <time>2016-01-13T12:22:09.000Z</time>
      </trkpt>
      <trkpt lat="45.26264" lon="4.66752">
        <ele>421.60000610352</ele>
        <time>2016-01-13T12:22:10.000Z</time>
      </trkpt>
      <trkpt lat="45.26266" lon="4.66752">
        <ele>421.60000610352</ele>
        <time>2016-01-13T12:22:11.000Z</time>
      </trkpt>
      <trkpt lat="45.26269" lon="4.6675">
        <ele>421.39999389648</ele>
        <time>2016-01-13T12:22:12.000Z</time>
      </trkpt>
      <trkpt lat="45.26272" lon="4.66748">
        <ele>421.39999389648</ele>
        <time>2016-01-13T12:22:13.000Z</time>
      </trkpt>
      <trkpt lat="45.26274" lon="4.66746">
        <ele>421.39999389648</ele>
        <time>2016-01-13T12:22:14.000Z</time>
      </trkpt>
      <trkpt lat="45.26273" lon="4.66742">
        <ele>421.79998779297</ele>
        <time>2016-01-13T12:22:20.000Z</time>
      </trkpt>
      <trkpt lat="45.26284" lon="4.66741">
        <ele>421.20001220703</ele>
        <time>2016-01-13T12:22:37.000Z</time>
      </trkpt>
      <trkpt lat="45.26288" lon="4.66741">
        <ele>421</ele>
        <time>2016-01-13T12:22:38.000Z</time>
      </trkpt>
      <trkpt lat="45.26292" lon="4.66742">
        <ele>420.79998779297</ele>
        <time>2016-01-13T12:22:39.000Z</time>
      </trkpt>
      <trkpt lat="45.26296" lon="4.66741">
        <ele>420.79998779297</ele>
        <time>2016-01-13T12:22:40.000Z</time>
      </trkpt>
      <trkpt lat="45.26299" lon="4.66741">
        <ele>420.60000610352</ele>
        <time>2016-01-13T12:22:41.000Z</time>
      </trkpt>
      <trkpt lat="45.26312" lon="4.66737">
        <ele>420.20001220703</ele>
        <time>2016-01-13T12:22:45.000Z</time>
      </trkpt>
      <trkpt lat="45.26317" lon="4.66736">
        <ele>420</ele>
        <time>2016-01-13T12:22:46.000Z</time>
      </trkpt>
      <trkpt lat="45.26321" lon="4.66739">
        <ele>419.60000610352</ele>
        <time>2016-01-13T12:22:47.000Z</time>
      </trkpt>
      <trkpt lat="45.26326" lon="4.66743">
        <ele>419.20001220703</ele>
        <time>2016-01-13T12:22:48.000Z</time>
      </trkpt>
      <trkpt lat="45.26331" lon="4.66748">
        <ele>418.60000610352</ele>
        <time>2016-01-13T12:22:49.000Z</time>
      </trkpt>
      <trkpt lat="45.2636" lon="4.66776">
        <ele>415.60000610352</ele>
        <time>2016-01-13T12:22:54.000Z</time>
      </trkpt>
      <trkpt lat="45.26365" lon="4.66784">
        <ele>414.79998779297</ele>
        <time>2016-01-13T12:22:55.000Z</time>
      </trkpt>
      <trkpt lat="45.26369" lon="4.66793">
        <ele>414.20001220703</ele>
        <time>2016-01-13T12:22:56.000Z</time>
      </trkpt>
      <trkpt lat="45.26374" lon="4.66803">
        <ele>413.60000610352</ele>
        <time>2016-01-13T12:22:57.000Z</time>
      </trkpt>
      <trkpt lat="45.26377" lon="4.66814">
        <ele>413.20001220703</ele>
        <time>2016-01-13T12:22:58.000Z</time>
      </trkpt>
      <trkpt lat="45.26379" lon="4.66824">
        <ele>412.60000610352</ele>
        <time>2016-01-13T12:22:59.000Z</time>
      </trkpt>
      <trkpt lat="45.26381" lon="4.66835">
        <ele>412.20001220703</ele>
        <time>2016-01-13T12:23:00.000Z</time>
      </trkpt>
      <trkpt lat="45.26388" lon="4.6687">
        <ele>410.60000610352</ele>
        <time>2016-01-13T12:23:03.000Z</time>
      </trkpt>
      <trkpt lat="45.26391" lon="4.66882">
        <ele>409.60000610352</ele>
        <time>2016-01-13T12:23:04.000Z</time>
      </trkpt>
      <trkpt lat="45.26395" lon="4.66894">
        <ele>408.60000610352</ele>
        <time>2016-01-13T12:23:05.000Z</time>
      </trkpt>
      <trkpt lat="45.26401" lon="4.66905">
        <ele>407.60000610352</ele>
        <time>2016-01-13T12:23:06.000Z</time>
      </trkpt>
      <trkpt lat="45.26408" lon="4.66914">
        <ele>406.60000610352</ele>
        <time>2016-01-13T12:23:07.000Z</time>
      </trkpt>
      <trkpt lat="45.26416" lon="4.6692">
        <ele>405.79998779297</ele>
        <time>2016-01-13T12:23:08.000Z</time>
      </trkpt>
      <trkpt lat="45.26425" lon="4.66924">
        <ele>405</ele>
        <time>2016-01-13T12:23:09.000Z</time>
      </trkpt>
      <trkpt lat="45.26433" lon="4.66925">
        <ele>404.39999389648</ele>
        <time>2016-01-13T12:23:10.000Z</time>
      </trkpt>
      <trkpt lat="45.26441" lon="4.66926">
        <ele>404</ele>
        <time>2016-01-13T12:23:11.000Z</time>
      </trkpt>
      <trkpt lat="45.26447" lon="4.66928">
        <ele>403.60000610352</ele>
        <time>2016-01-13T12:23:12.000Z</time>
      </trkpt>
      <trkpt lat="45.26451" lon="4.66932">
        <ele>403.20001220703</ele>
        <time>2016-01-13T12:23:13.000Z</time>
      </trkpt>
      <trkpt lat="45.26451" lon="4.66943">
        <ele>402.20001220703</ele>
        <time>2016-01-13T12:23:15.000Z</time>
      </trkpt>
      <trkpt lat="45.26442" lon="4.66973">
        <ele>400</ele>
        <time>2016-01-13T12:23:21.000Z</time>
      </trkpt>
      <trkpt lat="45.26439" lon="4.66986">
        <ele>398.79998779297</ele>
        <time>2016-01-13T12:23:23.000Z</time>
      </trkpt>
      <trkpt lat="45.26426" lon="4.6702">
        <ele>396.79998779297</ele>
        <time>2016-01-13T12:23:29.000Z</time>
      </trkpt>
      <trkpt lat="45.2639" lon="4.67052">
        <ele>398.79998779297</ele>
        <time>2016-01-13T12:23:39.000Z</time>
      </trkpt>
      <trkpt lat="45.26384" lon="4.67057">
        <ele>399</ele>
        <time>2016-01-13T12:23:41.000Z</time>
      </trkpt>
      <trkpt lat="45.26374" lon="4.67062">
        <ele>399.20001220703</ele>
        <time>2016-01-13T12:23:44.000Z</time>
      </trkpt>
      <trkpt lat="45.26329" lon="4.67068">
        <ele>402</ele>
        <time>2016-01-13T12:23:52.000Z</time>
      </trkpt>
      <trkpt lat="45.26301" lon="4.67064">
        <ele>402</ele>
        <time>2016-01-13T12:23:57.000Z</time>
      </trkpt>
      <trkpt lat="45.26291" lon="4.67061">
        <ele>402.60000610352</ele>
        <time>2016-01-13T12:23:59.000Z</time>
      </trkpt>
      <trkpt lat="45.26278" lon="4.6706">
        <ele>403.20001220703</ele>
        <time>2016-01-13T12:24:02.000Z</time>
      </trkpt>
      <trkpt lat="45.26254" lon="4.67067">
        <ele>402.39999389648</ele>
        <time>2016-01-13T12:24:07.000Z</time>
      </trkpt>
      <trkpt lat="45.26221" lon="4.67074">
        <ele>402.39999389648</ele>
        <time>2016-01-13T12:24:13.000Z</time>
      </trkpt>
      <trkpt lat="45.26168" lon="4.67079">
        <ele>400.20001220703</ele>
        <time>2016-01-13T12:24:26.000Z</time>
      </trkpt>
      <trkpt lat="45.26128" lon="4.67066">
        <ele>403</ele>
        <time>2016-01-13T12:24:38.000Z</time>
      </trkpt>
      <trkpt lat="45.2608" lon="4.67059">
        <ele>406.39999389648</ele>
        <time>2016-01-13T12:24:47.000Z</time>
      </trkpt>
      <trkpt lat="45.26069" lon="4.67058">
        <ele>407</ele>
        <time>2016-01-13T12:24:49.000Z</time>
      </trkpt>
      <trkpt lat="45.26059" lon="4.67055">
        <ele>407.60000610352</ele>
        <time>2016-01-13T12:24:51.000Z</time>
      </trkpt>
      <trkpt lat="45.26046" lon="4.67059">
        <ele>407.39999389648</ele>
        <time>2016-01-13T12:24:54.000Z</time>
      </trkpt>
      <trkpt lat="45.25985" lon="4.67098">
        <ele>405.20001220703</ele>
        <time>2016-01-13T12:25:10.000Z</time>
      </trkpt>
      <trkpt lat="45.25962" lon="4.67105">
        <ele>406</ele>
        <time>2016-01-13T12:25:16.000Z</time>
      </trkpt>
      <trkpt lat="45.25936" lon="4.67116">
        <ele>406</ele>
        <time>2016-01-13T12:25:22.000Z</time>
      </trkpt>
      <trkpt lat="45.25928" lon="4.67121">
        <ele>405.60000610352</ele>
        <time>2016-01-13T12:25:24.000Z</time>
      </trkpt>
      <trkpt lat="45.25875" lon="4.6715">
        <ele>404.60000610352</ele>
        <time>2016-01-13T12:25:38.000Z</time>
      </trkpt>
      <trkpt lat="45.25873" lon="4.67151">
        <ele>404.60000610352</ele>
        <time>2016-01-13T12:25:41.000Z</time>
      </trkpt>
      <trkpt lat="45.25872" lon="4.67151">
        <ele>404.60000610352</ele>
        <time>2016-01-13T12:25:42.000Z</time>
      </trkpt>
      <trkpt lat="45.2587" lon="4.67152">
        <ele>404.39999389648</ele>
        <time>2016-01-13T12:25:43.000Z</time>
      </trkpt>
      <trkpt lat="45.25867" lon="4.67153">
        <ele>404.39999389648</ele>
        <time>2016-01-13T12:25:44.000Z</time>
      </trkpt>
      <trkpt lat="45.25864" lon="4.67155">
        <ele>404.39999389648</ele>
        <time>2016-01-13T12:25:45.000Z</time>
      </trkpt>
      <trkpt lat="45.25832" lon="4.67161">
        <ele>405</ele>
        <time>2016-01-13T12:25:56.000Z</time>
      </trkpt>
      <trkpt lat="45.25818" lon="4.67163">
        <ele>405.79998779297</ele>
        <time>2016-01-13T12:26:03.000Z</time>
      </trkpt>
      <trkpt lat="45.25816" lon="4.67164">
        <ele>406</ele>
        <time>2016-01-13T12:26:04.000Z</time>
      </trkpt>
      <trkpt lat="45.25814" lon="4.67165">
        <ele>406</ele>
        <time>2016-01-13T12:26:05.000Z</time>
      </trkpt>
      <trkpt lat="45.25782" lon="4.67171">
        <ele>407.39999389648</ele>
        <time>2016-01-13T12:26:17.000Z</time>
      </trkpt>
      <trkpt lat="45.2575" lon="4.67166">
        <ele>408.60000610352</ele>
        <time>2016-01-13T12:26:30.000Z</time>
      </trkpt>
      <trkpt lat="45.25726" lon="4.67171">
        <ele>409.20001220703</ele>
        <time>2016-01-13T12:26:41.000Z</time>
      </trkpt>
      <trkpt lat="45.25684" lon="4.67164">
        <ele>410.20001220703</ele>
        <time>2016-01-13T12:26:55.000Z</time>
      </trkpt>
      <trkpt lat="45.25644" lon="4.67161">
        <ele>411.39999389648</ele>
        <time>2016-01-13T12:27:12.000Z</time>
      </trkpt>
      <trkpt lat="45.25644" lon="4.67158">
        <ele>411.39999389648</ele>
        <time>2016-01-13T12:27:13.000Z</time>
      </trkpt>
      <trkpt lat="45.25643" lon="4.67156">
        <ele>411.60000610352</ele>
        <time>2016-01-13T12:27:14.000Z</time>
      </trkpt>
      <trkpt lat="45.25641" lon="4.67155">
        <ele>411.60000610352</ele>
        <time>2016-01-13T12:27:15.000Z</time>
      </trkpt>
      <trkpt lat="45.25639" lon="4.67156">
        <ele>411.60000610352</ele>
        <time>2016-01-13T12:27:16.000Z</time>
      </trkpt>
      <trkpt lat="45.25638" lon="4.67158">
        <ele>411.79998779297</ele>
        <time>2016-01-13T12:27:17.000Z</time>
      </trkpt>
      <trkpt lat="45.25637" lon="4.67161">
        <ele>411.79998779297</ele>
        <time>2016-01-13T12:27:18.000Z</time>
      </trkpt>
      <trkpt lat="45.25637" lon="4.67165">
        <ele>411.79998779297</ele>
        <time>2016-01-13T12:27:19.000Z</time>
      </trkpt>
      <trkpt lat="45.25637" lon="4.67169">
        <ele>411.79998779297</ele>
        <time>2016-01-13T12:27:20.000Z</time>
      </trkpt>
      <trkpt lat="45.25637" lon="4.67174">
        <ele>411.79998779297</ele>
        <time>2016-01-13T12:27:21.000Z</time>
      </trkpt>
      <trkpt lat="45.25647" lon="4.67259">
        <ele>411.39999389648</ele>
        <time>2016-01-13T12:27:37.000Z</time>
      </trkpt>
      <trkpt lat="45.25673" lon="4.67335">
        <ele>410.60000610352</ele>
        <time>2016-01-13T12:27:52.000Z</time>
      </trkpt>
      <trkpt lat="45.25689" lon="4.67391">
        <ele>410.79998779297</ele>
        <time>2016-01-13T12:28:03.000Z</time>
      </trkpt>
      <trkpt lat="45.25688" lon="4.67397">
        <ele>410.79998779297</ele>
        <time>2016-01-13T12:28:04.000Z</time>
      </trkpt>
      <trkpt lat="45.25686" lon="4.67402">
        <ele>411</ele>
        <time>2016-01-13T12:28:05.000Z</time>
      </trkpt>
      <trkpt lat="45.25684" lon="4.67407">
        <ele>411</ele>
        <time>2016-01-13T12:28:06.000Z</time>
      </trkpt>
      <trkpt lat="45.25681" lon="4.67412">
        <ele>411.20001220703</ele>
        <time>2016-01-13T12:28:07.000Z</time>
      </trkpt>
      <trkpt lat="45.25678" lon="4.67416">
        <ele>411.60000610352</ele>
        <time>2016-01-13T12:28:08.000Z</time>
      </trkpt>
      <trkpt lat="45.25674" lon="4.6742">
        <ele>411.60000610352</ele>
        <time>2016-01-13T12:28:09.000Z</time>
      </trkpt>
      <trkpt lat="45.25628" lon="4.67483">
        <ele>412.60000610352</ele>
        <time>2016-01-13T12:28:24.000Z</time>
      </trkpt>
      <trkpt lat="45.2558" lon="4.67517">
        <ele>414.39999389648</ele>
        <time>2016-01-13T12:28:37.000Z</time>
      </trkpt>
      <trkpt lat="45.25538" lon="4.67545">
        <ele>415.39999389648</ele>
        <time>2016-01-13T12:28:47.000Z</time>
      </trkpt>
      <trkpt lat="45.25468" lon="4.67594">
        <ele>409.60000610352</ele>
        <time>2016-01-13T12:29:00.000Z</time>
      </trkpt>
      <trkpt lat="45.25451" lon="4.67608">
        <ele>408.39999389648</ele>
        <time>2016-01-13T12:29:03.000Z</time>
      </trkpt>
      <trkpt lat="45.25447" lon="4.67616">
        <ele>408</ele>
        <time>2016-01-13T12:29:04.000Z</time>
      </trkpt>
      <trkpt lat="45.25446" lon="4.67625">
        <ele>407.79998779297</ele>
        <time>2016-01-13T12:29:05.000Z</time>
      </trkpt>
      <trkpt lat="45.25446" lon="4.67636">
        <ele>407.60000610352</ele>
        <time>2016-01-13T12:29:06.000Z</time>
      </trkpt>
      <trkpt lat="45.25448" lon="4.67645">
        <ele>407.60000610352</ele>
        <time>2016-01-13T12:29:07.000Z</time>
      </trkpt>
      <trkpt lat="45.25451" lon="4.67653">
        <ele>407.79998779297</ele>
        <time>2016-01-13T12:29:08.000Z</time>
      </trkpt>
      <trkpt lat="45.25453" lon="4.67661">
        <ele>407.79998779297</ele>
        <time>2016-01-13T12:29:09.000Z</time>
      </trkpt>
      <trkpt lat="45.25457" lon="4.67677">
        <ele>407.79998779297</ele>
        <time>2016-01-13T12:29:12.000Z</time>
      </trkpt>
      <trkpt lat="45.25456" lon="4.67681">
        <ele>407.79998779297</ele>
        <time>2016-01-13T12:29:13.000Z</time>
      </trkpt>
      <trkpt lat="45.25454" lon="4.67683">
        <ele>407.60000610352</ele>
        <time>2016-01-13T12:29:14.000Z</time>
      </trkpt>
      <trkpt lat="45.25449" lon="4.67683">
        <ele>407.20001220703</ele>
        <time>2016-01-13T12:29:15.000Z</time>
      </trkpt>
      <trkpt lat="45.25444" lon="4.67681">
        <ele>406.79998779297</ele>
        <time>2016-01-13T12:29:16.000Z</time>
      </trkpt>
      <trkpt lat="45.25438" lon="4.67677">
        <ele>406.60000610352</ele>
        <time>2016-01-13T12:29:17.000Z</time>
      </trkpt>
      <trkpt lat="45.25433" lon="4.67671">
        <ele>406.20001220703</ele>
        <time>2016-01-13T12:29:18.000Z</time>
      </trkpt>
      <trkpt lat="45.2543" lon="4.67666">
        <ele>406</ele>
        <time>2016-01-13T12:29:19.000Z</time>
      </trkpt>
      <trkpt lat="45.25424" lon="4.67657">
        <ele>405.79998779297</ele>
        <time>2016-01-13T12:29:25.000Z</time>
      </trkpt>
      <trkpt lat="45.25423" lon="4.67657">
        <ele>405.79998779297</ele>
        <time>2016-01-13T12:29:28.000Z</time>
      </trkpt>
      <trkpt lat="45.25418" lon="4.67648">
        <ele>405.39999389648</ele>
        <time>2016-01-13T12:29:35.000Z</time>
      </trkpt>
      <trkpt lat="45.25391" lon="4.67636">
        <ele>403</ele>
        <time>2016-01-13T12:29:45.000Z</time>
      </trkpt>
      <trkpt lat="45.25388" lon="4.67635">
        <ele>402.60000610352</ele>
        <time>2016-01-13T12:29:46.000Z</time>
      </trkpt>
      <trkpt lat="45.25386" lon="4.67635">
        <ele>402.39999389648</ele>
        <time>2016-01-13T12:29:47.000Z</time>
      </trkpt>
      <trkpt lat="45.2536" lon="4.67623">
        <ele>401.60000610352</ele>
        <time>2016-01-13T12:29:58.000Z</time>
      </trkpt>
      <trkpt lat="45.25345" lon="4.67617">
        <ele>401.39999389648</ele>
        <time>2016-01-13T12:30:02.000Z</time>
      </trkpt>
      <trkpt lat="45.2534" lon="4.67617">
        <ele>401.20001220703</ele>
        <time>2016-01-13T12:30:03.000Z</time>
      </trkpt>
      <trkpt lat="45.25336" lon="4.67618">
        <ele>401</ele>
        <time>2016-01-13T12:30:04.000Z</time>
      </trkpt>
      <trkpt lat="45.25326" lon="4.67619">
        <ele>400.39999389648</ele>
        <time>2016-01-13T12:30:06.000Z</time>
      </trkpt>
      <trkpt lat="45.25322" lon="4.67621">
        <ele>400</ele>
        <time>2016-01-13T12:30:07.000Z</time>
      </trkpt>
      <trkpt lat="45.25318" lon="4.67624">
        <ele>399.39999389648</ele>
        <time>2016-01-13T12:30:08.000Z</time>
      </trkpt>
      <trkpt lat="45.25299" lon="4.67636">
        <ele>396</ele>
        <time>2016-01-13T12:30:13.000Z</time>
      </trkpt>
      <trkpt lat="45.25298" lon="4.6764">
        <ele>395.20001220703</ele>
        <time>2016-01-13T12:30:14.000Z</time>
      </trkpt>
      <trkpt lat="45.25297" lon="4.67643">
        <ele>394.60000610352</ele>
        <time>2016-01-13T12:30:15.000Z</time>
      </trkpt>
      <trkpt lat="45.25296" lon="4.67645">
        <ele>394</ele>
        <time>2016-01-13T12:30:16.000Z</time>
      </trkpt>
      <trkpt lat="45.25294" lon="4.67648">
        <ele>393.60000610352</ele>
        <time>2016-01-13T12:30:17.000Z</time>
      </trkpt>
      <trkpt lat="45.25291" lon="4.67651">
        <ele>393.20001220703</ele>
        <time>2016-01-13T12:30:18.000Z</time>
      </trkpt>
      <trkpt lat="45.25289" lon="4.67652">
        <ele>393</ele>
        <time>2016-01-13T12:30:19.000Z</time>
      </trkpt>
      <trkpt lat="45.25287" lon="4.67653">
        <ele>392.79998779297</ele>
        <time>2016-01-13T12:30:20.000Z</time>
      </trkpt>
      <trkpt lat="45.25285" lon="4.67654">
        <ele>392.60000610352</ele>
        <time>2016-01-13T12:30:21.000Z</time>
      </trkpt>
      <trkpt lat="45.25283" lon="4.67654">
        <ele>392.60000610352</ele>
        <time>2016-01-13T12:30:22.000Z</time>
      </trkpt>
      <trkpt lat="45.25281" lon="4.67655">
        <ele>392.60000610352</ele>
        <time>2016-01-13T12:30:23.000Z</time>
      </trkpt>
      <trkpt lat="45.25268" lon="4.6767">
        <ele>390</ele>
        <time>2016-01-13T12:30:30.000Z</time>
      </trkpt>
      <trkpt lat="45.25236" lon="4.6771">
        <ele>391.60000610352</ele>
        <time>2016-01-13T12:30:44.000Z</time>
      </trkpt>
      <trkpt lat="45.25224" lon="4.67726">
        <ele>390</ele>
        <time>2016-01-13T12:30:49.000Z</time>
      </trkpt>
      <trkpt lat="45.25218" lon="4.67735">
        <ele>389.60000610352</ele>
        <time>2016-01-13T12:30:51.000Z</time>
      </trkpt>
      <trkpt lat="45.25215" lon="4.67739">
        <ele>389.60000610352</ele>
        <time>2016-01-13T12:30:52.000Z</time>
      </trkpt>
      <trkpt lat="45.25203" lon="4.6775">
        <ele>387</ele>
        <time>2016-01-13T12:30:56.000Z</time>
      </trkpt>
      <trkpt lat="45.252" lon="4.67756">
        <ele>385.60000610352</ele>
        <time>2016-01-13T12:30:57.000Z</time>
      </trkpt>
      <trkpt lat="45.25192" lon="4.67775">
        <ele>382.60000610352</ele>
        <time>2016-01-13T12:31:00.000Z</time>
      </trkpt>
      <trkpt lat="45.25191" lon="4.67782">
        <ele>382.39999389648</ele>
        <time>2016-01-13T12:31:01.000Z</time>
      </trkpt>
      <trkpt lat="45.25192" lon="4.6779">
        <ele>381.39999389648</ele>
        <time>2016-01-13T12:31:02.000Z</time>
      </trkpt>
      <trkpt lat="45.25193" lon="4.67797">
        <ele>379.79998779297</ele>
        <time>2016-01-13T12:31:03.000Z</time>
      </trkpt>
      <trkpt lat="45.25194" lon="4.67803">
        <ele>378.39999389648</ele>
        <time>2016-01-13T12:31:04.000Z</time>
      </trkpt>
      <trkpt lat="45.25196" lon="4.67821">
        <ele>374.20001220703</ele>
        <time>2016-01-13T12:31:08.000Z</time>
      </trkpt>
      <trkpt lat="45.25196" lon="4.6783">
        <ele>372.39999389648</ele>
        <time>2016-01-13T12:31:11.000Z</time>
      </trkpt>
      <trkpt lat="45.25197" lon="4.67833">
        <ele>371.60000610352</ele>
        <time>2016-01-13T12:31:12.000Z</time>
      </trkpt>
      <trkpt lat="45.25196" lon="4.6784">
        <ele>370.20001220703</ele>
        <time>2016-01-13T12:31:16.000Z</time>
      </trkpt>
      <trkpt lat="45.25196" lon="4.67842">
        <ele>369.79998779297</ele>
        <time>2016-01-13T12:31:20.000Z</time>
      </trkpt>
      <trkpt lat="45.25196" lon="4.67838">
        <ele>370.79998779297</ele>
        <time>2016-01-13T12:31:40.000Z</time>
      </trkpt>
      <trkpt lat="45.25195" lon="4.67836">
        <ele>371.20001220703</ele>
        <time>2016-01-13T12:31:45.000Z</time>
      </trkpt>
      <trkpt lat="45.25196" lon="4.67844">
        <ele>369.39999389648</ele>
        <time>2016-01-13T12:31:52.000Z</time>
      </trkpt>
      <trkpt lat="45.25196" lon="4.67846">
        <ele>368.79998779297</ele>
        <time>2016-01-13T12:31:53.000Z</time>
      </trkpt>
      <trkpt lat="45.25195" lon="4.67849">
        <ele>368.20001220703</ele>
        <time>2016-01-13T12:31:54.000Z</time>
      </trkpt>
      <trkpt lat="45.25195" lon="4.67853">
        <ele>367.39999389648</ele>
        <time>2016-01-13T12:31:55.000Z</time>
      </trkpt>
      <trkpt lat="45.25196" lon="4.67858">
        <ele>366.79998779297</ele>
        <time>2016-01-13T12:31:56.000Z</time>
      </trkpt>
      <trkpt lat="45.25197" lon="4.67863">
        <ele>366</ele>
        <time>2016-01-13T12:31:57.000Z</time>
      </trkpt>
      <trkpt lat="45.25197" lon="4.67869">
        <ele>365</ele>
        <time>2016-01-13T12:31:58.000Z</time>
      </trkpt>
      <trkpt lat="45.25197" lon="4.67874">
        <ele>364.60000610352</ele>
        <time>2016-01-13T12:31:59.000Z</time>
      </trkpt>
      <trkpt lat="45.252" lon="4.67883">
        <ele>363.60000610352</ele>
        <time>2016-01-13T12:32:02.000Z</time>
      </trkpt>
      <trkpt lat="45.25201" lon="4.67896">
        <ele>362.39999389648</ele>
        <time>2016-01-13T12:32:07.000Z</time>
      </trkpt>
      <trkpt lat="45.25193" lon="4.6792">
        <ele>362.20001220703</ele>
        <time>2016-01-13T12:32:14.000Z</time>
      </trkpt>
      <trkpt lat="45.25193" lon="4.67928">
        <ele>361.39999389648</ele>
        <time>2016-01-13T12:32:17.000Z</time>
      </trkpt>
      <trkpt lat="45.25209" lon="4.67917">
        <ele>359.39999389648</ele>
        <time>2016-01-13T12:32:24.000Z</time>
      </trkpt>
      <trkpt lat="45.25223" lon="4.67898">
        <ele>361.60000610352</ele>
        <time>2016-01-13T12:32:31.000Z</time>
      </trkpt>
      <trkpt lat="45.25224" lon="4.67895">
        <ele>362</ele>
        <time>2016-01-13T12:32:32.000Z</time>
      </trkpt>
      <trkpt lat="45.25229" lon="4.67883">
        <ele>362.79998779297</ele>
        <time>2016-01-13T12:32:35.000Z</time>
      </trkpt>
      <trkpt lat="45.25235" lon="4.67869">
        <ele>361.20001220703</ele>
        <time>2016-01-13T12:32:38.000Z</time>
      </trkpt>
      <trkpt lat="45.25237" lon="4.67866">
        <ele>361.60000610352</ele>
        <time>2016-01-13T12:32:39.000Z</time>
      </trkpt>
      <trkpt lat="45.25239" lon="4.67866">
        <ele>361.60000610352</ele>
        <time>2016-01-13T12:32:40.000Z</time>
      </trkpt>
      <trkpt lat="45.25244" lon="4.67866">
        <ele>361.20001220703</ele>
        <time>2016-01-13T12:32:44.000Z</time>
      </trkpt>
      <trkpt lat="45.25247" lon="4.67865">
        <ele>361.39999389648</ele>
        <time>2016-01-13T12:32:50.000Z</time>
      </trkpt>
      <trkpt lat="45.25256" lon="4.67867">
        <ele>360.60000610352</ele>
        <time>2016-01-13T12:35:33.000Z</time>
      </trkpt>
      <trkpt lat="45.25258" lon="4.67868">
        <ele>360.20001220703</ele>
        <time>2016-01-13T12:35:34.000Z</time>
      </trkpt>
      <trkpt lat="45.25281" lon="4.67878">
        <ele>359.79998779297</ele>
        <time>2016-01-13T12:35:43.000Z</time>
      </trkpt>
      <trkpt lat="45.25285" lon="4.67876">
        <ele>359.20001220703</ele>
        <time>2016-01-13T12:35:45.000Z</time>
      </trkpt>
      <trkpt lat="45.25287" lon="4.67873">
        <ele>358.79998779297</ele>
        <time>2016-01-13T12:35:46.000Z</time>
      </trkpt>
      <trkpt lat="45.25306" lon="4.67828">
        <ele>358.60000610352</ele>
        <time>2016-01-13T12:36:00.000Z</time>
      </trkpt>
      <trkpt lat="45.25331" lon="4.67788">
        <ele>364.79998779297</ele>
        <time>2016-01-13T12:36:14.000Z</time>
      </trkpt>
      <trkpt lat="45.25361" lon="4.67771">
        <ele>376.79998779297</ele>
        <time>2016-01-13T12:36:26.000Z</time>
      </trkpt>
      <trkpt lat="45.25383" lon="4.67806">
        <ele>375.79998779297</ele>
        <time>2016-01-13T12:36:38.000Z</time>
      </trkpt>
      <trkpt lat="45.25381" lon="4.67843">
        <ele>370.39999389648</ele>
        <time>2016-01-13T12:36:48.000Z</time>
      </trkpt>
      <trkpt lat="45.25386" lon="4.67885">
        <ele>368.39999389648</ele>
        <time>2016-01-13T12:36:59.000Z</time>
      </trkpt>
      <trkpt lat="45.254" lon="4.67935">
        <ele>370.79998779297</ele>
        <time>2016-01-13T12:37:14.000Z</time>
      </trkpt>
      <trkpt lat="45.25413" lon="4.67963">
        <ele>371.20001220703</ele>
        <time>2016-01-13T12:37:24.000Z</time>
      </trkpt>
      <trkpt lat="45.25436" lon="4.67984">
        <ele>371</ele>
        <time>2016-01-13T12:37:34.000Z</time>
      </trkpt>
      <trkpt lat="45.25444" lon="4.67993">
        <ele>370.39999389648</ele>
        <time>2016-01-13T12:37:38.000Z</time>
      </trkpt>
      <trkpt lat="45.25445" lon="4.67996">
        <ele>369.79998779297</ele>
        <time>2016-01-13T12:37:39.000Z</time>
      </trkpt>
      <trkpt lat="45.25445" lon="4.68">
        <ele>369</ele>
        <time>2016-01-13T12:37:40.000Z</time>
      </trkpt>
      <trkpt lat="45.25446" lon="4.68003">
        <ele>368.20001220703</ele>
        <time>2016-01-13T12:37:41.000Z</time>
      </trkpt>
      <trkpt lat="45.25446" lon="4.68007">
        <ele>367</ele>
        <time>2016-01-13T12:37:42.000Z</time>
      </trkpt>
      <trkpt lat="45.25443" lon="4.68022">
        <ele>363.79998779297</ele>
        <time>2016-01-13T12:37:47.000Z</time>
      </trkpt>
      <trkpt lat="45.25447" lon="4.68029">
        <ele>363.79998779297</ele>
        <time>2016-01-13T12:37:51.000Z</time>
      </trkpt>
      <trkpt lat="45.25451" lon="4.68035">
        <ele>363.79998779297</ele>
        <time>2016-01-13T12:37:55.000Z</time>
      </trkpt>
      <trkpt lat="45.25454" lon="4.68049">
        <ele>364</ele>
        <time>2016-01-13T12:38:02.000Z</time>
      </trkpt>
      <trkpt lat="45.25455" lon="4.68051">
        <ele>363.79998779297</ele>
        <time>2016-01-13T12:38:03.000Z</time>
      </trkpt>
      <trkpt lat="45.25457" lon="4.68052">
        <ele>363.79998779297</ele>
        <time>2016-01-13T12:38:04.000Z</time>
      </trkpt>
      <trkpt lat="45.25459" lon="4.68054">
        <ele>363.60000610352</ele>
        <time>2016-01-13T12:38:05.000Z</time>
      </trkpt>
      <trkpt lat="45.25461" lon="4.68055">
        <ele>363.60000610352</ele>
        <time>2016-01-13T12:38:06.000Z</time>
      </trkpt>
      <trkpt lat="45.25462" lon="4.68057">
        <ele>363.60000610352</ele>
        <time>2016-01-13T12:38:07.000Z</time>
      </trkpt>
      <trkpt lat="45.25464" lon="4.68071">
        <ele>363.79998779297</ele>
        <time>2016-01-13T12:38:15.000Z</time>
      </trkpt>
      <trkpt lat="45.25463" lon="4.68078">
        <ele>364</ele>
        <time>2016-01-13T12:38:20.000Z</time>
      </trkpt>
      <trkpt lat="45.25482" lon="4.68096">
        <ele>365.39999389648</ele>
        <time>2016-01-13T12:38:36.000Z</time>
      </trkpt>
      <trkpt lat="45.25484" lon="4.68097">
        <ele>365.39999389648</ele>
        <time>2016-01-13T12:38:42.000Z</time>
      </trkpt>
      <trkpt lat="45.25472" lon="4.68086">
        <ele>364.60000610352</ele>
        <time>2016-01-13T12:39:08.000Z</time>
      </trkpt>
      <trkpt lat="45.25465" lon="4.6808">
        <ele>364.20001220703</ele>
        <time>2016-01-13T12:39:10.000Z</time>
      </trkpt>
      <trkpt lat="45.25462" lon="4.68075">
        <ele>364</ele>
        <time>2016-01-13T12:39:11.000Z</time>
      </trkpt>
      <trkpt lat="45.25459" lon="4.68073">
        <ele>364.20001220703</ele>
        <time>2016-01-13T12:39:12.000Z</time>
      </trkpt>
      <trkpt lat="45.25433" lon="4.68048">
        <ele>365.39999389648</ele>
        <time>2016-01-13T12:39:25.000Z</time>
      </trkpt>
      <trkpt lat="45.25404" lon="4.68027">
        <ele>366.79998779297</ele>
        <time>2016-01-13T12:39:41.000Z</time>
      </trkpt>
      <trkpt lat="45.25379" lon="4.68008">
        <ele>367.60000610352</ele>
        <time>2016-01-13T12:39:56.000Z</time>
      </trkpt>
      <trkpt lat="45.2537" lon="4.67998">
        <ele>367.39999389648</ele>
        <time>2016-01-13T12:40:04.000Z</time>
      </trkpt>
      <trkpt lat="45.25369" lon="4.67999">
        <ele>367.60000610352</ele>
        <time>2016-01-13T12:40:05.000Z</time>
      </trkpt>
      <trkpt lat="45.25368" lon="4.68002">
        <ele>367.79998779297</ele>
        <time>2016-01-13T12:40:06.000Z</time>
      </trkpt>
      <trkpt lat="45.25369" lon="4.68004">
        <ele>367.79998779297</ele>
        <time>2016-01-13T12:40:07.000Z</time>
      </trkpt>
      <trkpt lat="45.2537" lon="4.68007">
        <ele>368</ele>
        <time>2016-01-13T12:40:08.000Z</time>
      </trkpt>
      <trkpt lat="45.25375" lon="4.68015">
        <ele>368.20001220703</ele>
        <time>2016-01-13T12:40:12.000Z</time>
      </trkpt>
      <trkpt lat="45.25376" lon="4.68016">
        <ele>368.20001220703</ele>
        <time>2016-01-13T12:40:13.000Z</time>
      </trkpt>
      <trkpt lat="45.25389" lon="4.68033">
        <ele>368.20001220703</ele>
        <time>2016-01-13T12:40:24.000Z</time>
      </trkpt>
      <trkpt lat="45.25395" lon="4.6804">
        <ele>368</ele>
        <time>2016-01-13T12:40:29.000Z</time>
      </trkpt>
      <trkpt lat="45.25397" lon="4.68041">
        <ele>367.79998779297</ele>
        <time>2016-01-13T12:40:30.000Z</time>
      </trkpt>
      <trkpt lat="45.25399" lon="4.68042">
        <ele>367.60000610352</ele>
        <time>2016-01-13T12:40:31.000Z</time>
      </trkpt>
      <trkpt lat="45.25404" lon="4.68045">
        <ele>367.39999389648</ele>
        <time>2016-01-13T12:40:33.000Z</time>
      </trkpt>
      <trkpt lat="45.25405" lon="4.68047">
        <ele>367.39999389648</ele>
        <time>2016-01-13T12:40:34.000Z</time>
      </trkpt>
      <trkpt lat="45.25408" lon="4.68051">
        <ele>367.20001220703</ele>
        <time>2016-01-13T12:40:36.000Z</time>
      </trkpt>
      <trkpt lat="45.25413" lon="4.68065">
        <ele>367.20001220703</ele>
        <time>2016-01-13T12:40:47.000Z</time>
      </trkpt>
      <trkpt lat="45.25417" lon="4.68081">
        <ele>368.39999389648</ele>
        <time>2016-01-13T12:41:02.000Z</time>
      </trkpt>
      <trkpt lat="45.25418" lon="4.68082">
        <ele>368.20001220703</ele>
        <time>2016-01-13T12:41:07.000Z</time>
      </trkpt>
      <trkpt lat="45.25424" lon="4.68087">
        <ele>367.79998779297</ele>
        <time>2016-01-13T12:42:16.000Z</time>
      </trkpt>
      <trkpt lat="45.25438" lon="4.68102">
        <ele>367.20001220703</ele>
        <time>2016-01-13T12:42:27.000Z</time>
      </trkpt>
      <trkpt lat="45.25451" lon="4.68119">
        <ele>367.20001220703</ele>
        <time>2016-01-13T12:42:37.000Z</time>
      </trkpt>
      <trkpt lat="45.25458" lon="4.68129">
        <ele>367.60000610352</ele>
        <time>2016-01-13T12:42:43.000Z</time>
      </trkpt>
      <trkpt lat="45.2546" lon="4.68131">
        <ele>367.60000610352</ele>
        <time>2016-01-13T12:42:44.000Z</time>
      </trkpt>
      <trkpt lat="45.25461" lon="4.68133">
        <ele>368</ele>
        <time>2016-01-13T12:42:45.000Z</time>
      </trkpt>
      <trkpt lat="45.25462" lon="4.68136">
        <ele>368</ele>
        <time>2016-01-13T12:42:46.000Z</time>
      </trkpt>
      <trkpt lat="45.25464" lon="4.68138">
        <ele>368.20001220703</ele>
        <time>2016-01-13T12:42:47.000Z</time>
      </trkpt>
      <trkpt lat="45.25466" lon="4.6814">
        <ele>368.39999389648</ele>
        <time>2016-01-13T12:42:48.000Z</time>
      </trkpt>
      <trkpt lat="45.25467" lon="4.68142">
        <ele>368.39999389648</ele>
        <time>2016-01-13T12:42:49.000Z</time>
      </trkpt>
      <trkpt lat="45.25469" lon="4.68144">
        <ele>368.60000610352</ele>
        <time>2016-01-13T12:42:50.000Z</time>
      </trkpt>
      <trkpt lat="45.2547" lon="4.68146">
        <ele>368.60000610352</ele>
        <time>2016-01-13T12:42:51.000Z</time>
      </trkpt>
      <trkpt lat="45.25471" lon="4.68149">
        <ele>369</ele>
        <time>2016-01-13T12:42:52.000Z</time>
      </trkpt>
      <trkpt lat="45.25472" lon="4.68152">
        <ele>369.20001220703</ele>
        <time>2016-01-13T12:42:53.000Z</time>
      </trkpt>
      <trkpt lat="45.25473" lon="4.68154">
        <ele>369.60000610352</ele>
        <time>2016-01-13T12:42:54.000Z</time>
      </trkpt>
      <trkpt lat="45.25473" lon="4.68157">
        <ele>370</ele>
        <time>2016-01-13T12:42:55.000Z</time>
      </trkpt>
      <trkpt lat="45.25474" lon="4.68159">
        <ele>370.39999389648</ele>
        <time>2016-01-13T12:42:56.000Z</time>
      </trkpt>
      <trkpt lat="45.25481" lon="4.68192">
        <ele>375.20001220703</ele>
        <time>2016-01-13T12:43:09.000Z</time>
      </trkpt>
      <trkpt lat="45.25488" lon="4.68228">
        <ele>377.60000610352</ele>
        <time>2016-01-13T12:43:22.000Z</time>
      </trkpt>
      <trkpt lat="45.25498" lon="4.68266">
        <ele>381.60000610352</ele>
        <time>2016-01-13T12:43:32.000Z</time>
      </trkpt>
      <trkpt lat="45.2551" lon="4.68298">
        <ele>384.39999389648</ele>
        <time>2016-01-13T12:43:41.000Z</time>
      </trkpt>
      <trkpt lat="45.25524" lon="4.68335">
        <ele>388.20001220703</ele>
        <time>2016-01-13T12:43:54.000Z</time>
      </trkpt>
      <trkpt lat="45.25546" lon="4.68353">
        <ele>385</ele>
        <time>2016-01-13T12:44:04.000Z</time>
      </trkpt>
      <trkpt lat="45.25575" lon="4.68362">
        <ele>383</ele>
        <time>2016-01-13T12:44:12.000Z</time>
      </trkpt>
      <trkpt lat="45.25596" lon="4.6837">
        <ele>381.79998779297</ele>
        <time>2016-01-13T12:44:18.000Z</time>
      </trkpt>
      <trkpt lat="45.25607" lon="4.68371">
        <ele>380.60000610352</ele>
        <time>2016-01-13T12:44:21.000Z</time>
      </trkpt>
      <trkpt lat="45.25611" lon="4.68373">
        <ele>380.39999389648</ele>
        <time>2016-01-13T12:44:23.000Z</time>
      </trkpt>
      <trkpt lat="45.2564" lon="4.68385">
        <ele>379.39999389648</ele>
        <time>2016-01-13T12:44:33.000Z</time>
      </trkpt>
      <trkpt lat="45.2568" lon="4.68396">
        <ele>379.60000610352</ele>
        <time>2016-01-13T12:44:44.000Z</time>
      </trkpt>
      <trkpt lat="45.25685" lon="4.68399">
        <ele>380</ele>
        <time>2016-01-13T12:44:46.000Z</time>
      </trkpt>
      <trkpt lat="45.25718" lon="4.6842">
        <ele>382.20001220703</ele>
        <time>2016-01-13T12:44:56.000Z</time>
      </trkpt>
      <trkpt lat="45.2575" lon="4.68398">
        <ele>377.39999389648</ele>
        <time>2016-01-13T12:45:05.000Z</time>
      </trkpt>
      <trkpt lat="45.25761" lon="4.68393">
        <ele>376.79998779297</ele>
        <time>2016-01-13T12:45:10.000Z</time>
      </trkpt>
      <trkpt lat="45.25762" lon="4.68394">
        <ele>377</ele>
        <time>2016-01-13T12:45:11.000Z</time>
      </trkpt>
      <trkpt lat="45.25764" lon="4.68397">
        <ele>377.20001220703</ele>
        <time>2016-01-13T12:45:12.000Z</time>
      </trkpt>
      <trkpt lat="45.25773" lon="4.68407">
        <ele>378.39999389648</ele>
        <time>2016-01-13T12:45:16.000Z</time>
      </trkpt>
      <trkpt lat="45.25776" lon="4.68406">
        <ele>378.39999389648</ele>
        <time>2016-01-13T12:45:17.000Z</time>
      </trkpt>
      <trkpt lat="45.25778" lon="4.68407">
        <ele>378.39999389648</ele>
        <time>2016-01-13T12:45:18.000Z</time>
      </trkpt>
      <trkpt lat="45.25781" lon="4.68408">
        <ele>378.60000610352</ele>
        <time>2016-01-13T12:45:19.000Z</time>
      </trkpt>
      <trkpt lat="45.25784" lon="4.68409">
        <ele>378.60000610352</ele>
        <time>2016-01-13T12:45:20.000Z</time>
      </trkpt>
      <trkpt lat="45.25791" lon="4.68396">
        <ele>377.20001220703</ele>
        <time>2016-01-13T12:45:24.000Z</time>
      </trkpt>
      <trkpt lat="45.25792" lon="4.6839">
        <ele>376.39999389648</ele>
        <time>2016-01-13T12:45:26.000Z</time>
      </trkpt>
      <trkpt lat="45.25791" lon="4.68357">
        <ele>373</ele>
        <time>2016-01-13T12:45:32.000Z</time>
      </trkpt>
      <trkpt lat="45.25787" lon="4.6835">
        <ele>372.39999389648</ele>
        <time>2016-01-13T12:45:34.000Z</time>
      </trkpt>
      <trkpt lat="45.25781" lon="4.68338">
        <ele>371.60000610352</ele>
        <time>2016-01-13T12:45:38.000Z</time>
      </trkpt>
      <trkpt lat="45.25783" lon="4.68331">
        <ele>371</ele>
        <time>2016-01-13T12:45:42.000Z</time>
      </trkpt>
      <trkpt lat="45.25786" lon="4.68329">
        <ele>371</ele>
        <time>2016-01-13T12:45:43.000Z</time>
      </trkpt>
      <trkpt lat="45.25833" lon="4.68296">
        <ele>373.39999389648</ele>
        <time>2016-01-13T12:46:00.000Z</time>
      </trkpt>
      <trkpt lat="45.25877" lon="4.68243">
        <ele>383.20001220703</ele>
        <time>2016-01-13T12:46:19.000Z</time>
      </trkpt>
      <trkpt lat="45.25902" lon="4.68203">
        <ele>389</ele>
        <time>2016-01-13T12:46:32.000Z</time>
      </trkpt>
      <trkpt lat="45.2592" lon="4.68156">
        <ele>391.39999389648</ele>
        <time>2016-01-13T12:46:44.000Z</time>
      </trkpt>
      <trkpt lat="45.2593" lon="4.6811">
        <ele>393.60000610352</ele>
        <time>2016-01-13T12:46:55.000Z</time>
      </trkpt>
      <trkpt lat="45.25943" lon="4.68049">
        <ele>393</ele>
        <time>2016-01-13T12:47:08.000Z</time>
      </trkpt>
      <trkpt lat="45.25954" lon="4.67974">
        <ele>390</ele>
        <time>2016-01-13T12:47:23.000Z</time>
      </trkpt>
      <trkpt lat="45.25971" lon="4.67907">
        <ele>391.60000610352</ele>
        <time>2016-01-13T12:47:36.000Z</time>
      </trkpt>
      <trkpt lat="45.25975" lon="4.67897">
        <ele>392.39999389648</ele>
        <time>2016-01-13T12:47:38.000Z</time>
      </trkpt>
      <trkpt lat="45.25982" lon="4.67875">
        <ele>393.20001220703</ele>
        <time>2016-01-13T12:47:42.000Z</time>
      </trkpt>
      <trkpt lat="45.25992" lon="4.67841">
        <ele>394</ele>
        <time>2016-01-13T12:47:47.000Z</time>
      </trkpt>
      <trkpt lat="45.26006" lon="4.67811">
        <ele>394</ele>
        <time>2016-01-13T12:47:52.000Z</time>
      </trkpt>
      <trkpt lat="45.26013" lon="4.67802">
        <ele>393.39999389648</ele>
        <time>2016-01-13T12:47:54.000Z</time>
      </trkpt>
      <trkpt lat="45.26019" lon="4.6779">
        <ele>392.60000610352</ele>
        <time>2016-01-13T12:47:56.000Z</time>
      </trkpt>
      <trkpt lat="45.26036" lon="4.67761">
        <ele>391</ele>
        <time>2016-01-13T12:48:01.000Z</time>
      </trkpt>
      <trkpt lat="45.2605" lon="4.67739">
        <ele>391.60000610352</ele>
        <time>2016-01-13T12:48:05.000Z</time>
      </trkpt>
      <trkpt lat="45.26062" lon="4.6772">
        <ele>392</ele>
        <time>2016-01-13T12:48:09.000Z</time>
      </trkpt>
      <trkpt lat="45.26075" lon="4.67707">
        <ele>393</ele>
        <time>2016-01-13T12:48:13.000Z</time>
      </trkpt>
      <trkpt lat="45.26095" lon="4.67677">
        <ele>394.20001220703</ele>
        <time>2016-01-13T12:48:24.000Z</time>
      </trkpt>
      <trkpt lat="45.26127" lon="4.67641">
        <ele>396.20001220703</ele>
        <time>2016-01-13T12:48:40.000Z</time>
      </trkpt>
      <trkpt lat="45.26159" lon="4.67606">
        <ele>396.39999389648</ele>
        <time>2016-01-13T12:48:55.000Z</time>
      </trkpt>
      <trkpt lat="45.26198" lon="4.67561">
        <ele>396.79998779297</ele>
        <time>2016-01-13T12:49:13.000Z</time>
      </trkpt>
      <trkpt lat="45.26235" lon="4.67517">
        <ele>396.39999389648</ele>
        <time>2016-01-13T12:49:30.000Z</time>
      </trkpt>
      <trkpt lat="45.26294" lon="4.67452">
        <ele>398.60000610352</ele>
        <time>2016-01-13T12:49:53.000Z</time>
      </trkpt>
      <trkpt lat="45.26343" lon="4.674">
        <ele>398</ele>
        <time>2016-01-13T12:50:12.000Z</time>
      </trkpt>
      <trkpt lat="45.26397" lon="4.67361">
        <ele>399.20001220703</ele>
        <time>2016-01-13T12:50:31.000Z</time>
      </trkpt>
      <trkpt lat="45.26451" lon="4.67338">
        <ele>400.39999389648</ele>
        <time>2016-01-13T12:50:49.000Z</time>
      </trkpt>
      <trkpt lat="45.26488" lon="4.67338">
        <ele>402.60000610352</ele>
        <time>2016-01-13T12:51:02.000Z</time>
      </trkpt>
      <trkpt lat="45.26515" lon="4.67351">
        <ele>406</ele>
        <time>2016-01-13T12:51:14.000Z</time>
      </trkpt>
      <trkpt lat="45.26548" lon="4.67351">
        <ele>408</ele>
        <time>2016-01-13T12:51:27.000Z</time>
      </trkpt>
      <trkpt lat="45.26591" lon="4.67337">
        <ele>408</ele>
        <time>2016-01-13T12:51:44.000Z</time>
      </trkpt>
      <trkpt lat="45.2663" lon="4.6733">
        <ele>410.20001220703</ele>
        <time>2016-01-13T12:51:58.000Z</time>
      </trkpt>
      <trkpt lat="45.26633" lon="4.67331">
        <ele>410.20001220703</ele>
        <time>2016-01-13T12:51:59.000Z</time>
      </trkpt>
      <trkpt lat="45.26634" lon="4.67333">
        <ele>410.39999389648</ele>
        <time>2016-01-13T12:52:00.000Z</time>
      </trkpt>
      <trkpt lat="45.26635" lon="4.67337">
        <ele>410.60000610352</ele>
        <time>2016-01-13T12:52:01.000Z</time>
      </trkpt>
      <trkpt lat="45.26636" lon="4.6734">
        <ele>410.79998779297</ele>
        <time>2016-01-13T12:52:02.000Z</time>
      </trkpt>
      <trkpt lat="45.26637" lon="4.67344">
        <ele>411.20001220703</ele>
        <time>2016-01-13T12:52:03.000Z</time>
      </trkpt>
      <trkpt lat="45.26637" lon="4.67348">
        <ele>411.39999389648</ele>
        <time>2016-01-13T12:52:04.000Z</time>
      </trkpt>
      <trkpt lat="45.26638" lon="4.67351">
        <ele>411.60000610352</ele>
        <time>2016-01-13T12:52:05.000Z</time>
      </trkpt>
      <trkpt lat="45.26638" lon="4.67355">
        <ele>412</ele>
        <time>2016-01-13T12:52:06.000Z</time>
      </trkpt>
      <trkpt lat="45.2663" lon="4.67395">
        <ele>414.20001220703</ele>
        <time>2016-01-13T12:52:19.000Z</time>
      </trkpt>
      <trkpt lat="45.26576" lon="4.67423">
        <ele>413.39999389648</ele>
        <time>2016-01-13T12:52:34.000Z</time>
      </trkpt>
      <trkpt lat="45.26569" lon="4.67428">
        <ele>413.20001220703</ele>
        <time>2016-01-13T12:52:36.000Z</time>
      </trkpt>
      <trkpt lat="45.26497" lon="4.67491">
        <ele>411.20001220703</ele>
        <time>2016-01-13T12:52:56.000Z</time>
      </trkpt>
      <trkpt lat="45.26449" lon="4.67564">
        <ele>410.20001220703</ele>
        <time>2016-01-13T12:53:12.000Z</time>
      </trkpt>
      <trkpt lat="45.2644" lon="4.67573">
        <ele>409.79998779297</ele>
        <time>2016-01-13T12:53:14.000Z</time>
      </trkpt>
      <trkpt lat="45.26434" lon="4.67577">
        <ele>409.39999389648</ele>
        <time>2016-01-13T12:53:15.000Z</time>
      </trkpt>
      <trkpt lat="45.26429" lon="4.6758">
        <ele>409.20001220703</ele>
        <time>2016-01-13T12:53:16.000Z</time>
      </trkpt>
      <trkpt lat="45.26417" lon="4.67589">
        <ele>409</ele>
        <time>2016-01-13T12:53:18.000Z</time>
      </trkpt>
      <trkpt lat="45.26412" lon="4.67594">
        <ele>408.79998779297</ele>
        <time>2016-01-13T12:53:19.000Z</time>
      </trkpt>
      <trkpt lat="45.26407" lon="4.67599">
        <ele>408.60000610352</ele>
        <time>2016-01-13T12:53:20.000Z</time>
      </trkpt>
      <trkpt lat="45.26369" lon="4.67647">
        <ele>407</ele>
        <time>2016-01-13T12:53:28.000Z</time>
      </trkpt>
      <trkpt lat="45.26364" lon="4.67654">
        <ele>406.60000610352</ele>
        <time>2016-01-13T12:53:29.000Z</time>
      </trkpt>
      <trkpt lat="45.2636" lon="4.67662">
        <ele>406.20001220703</ele>
        <time>2016-01-13T12:53:30.000Z</time>
      </trkpt>
      <trkpt lat="45.26357" lon="4.6767">
        <ele>405.79998779297</ele>
        <time>2016-01-13T12:53:31.000Z</time>
      </trkpt>
      <trkpt lat="45.26355" lon="4.67679">
        <ele>405.60000610352</ele>
        <time>2016-01-13T12:53:32.000Z</time>
      </trkpt>
      <trkpt lat="45.26353" lon="4.67689">
        <ele>405.79998779297</ele>
        <time>2016-01-13T12:53:33.000Z</time>
      </trkpt>
      <trkpt lat="45.26352" lon="4.67698">
        <ele>405.79998779297</ele>
        <time>2016-01-13T12:53:34.000Z</time>
      </trkpt>
      <trkpt lat="45.26344" lon="4.67735">
        <ele>405</ele>
        <time>2016-01-13T12:53:38.000Z</time>
      </trkpt>
      <trkpt lat="45.26338" lon="4.67764">
        <ele>404.79998779297</ele>
        <time>2016-01-13T12:53:41.000Z</time>
      </trkpt>
      <trkpt lat="45.26334" lon="4.67773">
        <ele>404.79998779297</ele>
        <time>2016-01-13T12:53:42.000Z</time>
      </trkpt>
      <trkpt lat="45.26315" lon="4.67824">
        <ele>403.79998779297</ele>
        <time>2016-01-13T12:53:48.000Z</time>
      </trkpt>
      <trkpt lat="45.26314" lon="4.67834">
        <ele>403.60000610352</ele>
        <time>2016-01-13T12:53:49.000Z</time>
      </trkpt>
      <trkpt lat="45.26313" lon="4.67843">
        <ele>403.20001220703</ele>
        <time>2016-01-13T12:53:50.000Z</time>
      </trkpt>
      <trkpt lat="45.26311" lon="4.67853">
        <ele>402.79998779297</ele>
        <time>2016-01-13T12:53:51.000Z</time>
      </trkpt>
      <trkpt lat="45.26308" lon="4.67863">
        <ele>402.39999389648</ele>
        <time>2016-01-13T12:53:52.000Z</time>
      </trkpt>
      <trkpt lat="45.26307" lon="4.67872">
        <ele>402.20001220703</ele>
        <time>2016-01-13T12:53:53.000Z</time>
      </trkpt>
      <trkpt lat="45.26314" lon="4.67892">
        <ele>402.60000610352</ele>
        <time>2016-01-13T12:53:56.000Z</time>
      </trkpt>
      <trkpt lat="45.26322" lon="4.67904">
        <ele>403</ele>
        <time>2016-01-13T12:54:00.000Z</time>
      </trkpt>
      <trkpt lat="45.26326" lon="4.67916">
        <ele>403</ele>
        <time>2016-01-13T12:54:04.000Z</time>
      </trkpt>
      <trkpt lat="45.26342" lon="4.67946">
        <ele>403.60000610352</ele>
        <time>2016-01-13T12:54:18.000Z</time>
      </trkpt>
      <trkpt lat="45.26343" lon="4.67948">
        <ele>403.60000610352</ele>
        <time>2016-01-13T12:54:19.000Z</time>
      </trkpt>
      <trkpt lat="45.26346" lon="4.67961">
        <ele>404.39999389648</ele>
        <time>2016-01-13T12:54:24.000Z</time>
      </trkpt>
      <trkpt lat="45.26353" lon="4.67972">
        <ele>405.39999389648</ele>
        <time>2016-01-13T12:54:29.000Z</time>
      </trkpt>
      <trkpt lat="45.26368" lon="4.68008">
        <ele>408.60000610352</ele>
        <time>2016-01-13T12:54:44.000Z</time>
      </trkpt>
      <trkpt lat="45.26398" lon="4.68044">
        <ele>411.39999389648</ele>
        <time>2016-01-13T12:55:03.000Z</time>
      </trkpt>
      <trkpt lat="45.26434" lon="4.68073">
        <ele>412.60000610352</ele>
        <time>2016-01-13T12:55:20.000Z</time>
      </trkpt>
      <trkpt lat="45.26466" lon="4.68092">
        <ele>413.39999389648</ele>
        <time>2016-01-13T12:55:33.000Z</time>
      </trkpt>
      <trkpt lat="45.26468" lon="4.68091">
        <ele>413.39999389648</ele>
        <time>2016-01-13T12:55:34.000Z</time>
      </trkpt>
      <trkpt lat="45.26469" lon="4.68084">
        <ele>413.39999389648</ele>
        <time>2016-01-13T12:55:36.000Z</time>
      </trkpt>
      <trkpt lat="45.2647" lon="4.68081">
        <ele>413.39999389648</ele>
        <time>2016-01-13T12:55:37.000Z</time>
      </trkpt>
      <trkpt lat="45.26477" lon="4.68038">
        <ele>412.20001220703</ele>
        <time>2016-01-13T12:55:48.000Z</time>
      </trkpt>
      <trkpt lat="45.26477" lon="4.68016">
        <ele>410.79998779297</ele>
        <time>2016-01-13T12:55:58.000Z</time>
      </trkpt>
      <trkpt lat="45.26475" lon="4.68023">
        <ele>411.20001220703</ele>
        <time>2016-01-13T12:56:01.000Z</time>
      </trkpt>
      <trkpt lat="45.26476" lon="4.68027">
        <ele>411.39999389648</ele>
        <time>2016-01-13T12:56:02.000Z</time>
      </trkpt>
      <trkpt lat="45.26476" lon="4.68031">
        <ele>411.60000610352</ele>
        <time>2016-01-13T12:56:03.000Z</time>
      </trkpt>
      <trkpt lat="45.26476" lon="4.68035">
        <ele>411.79998779297</ele>
        <time>2016-01-13T12:56:04.000Z</time>
      </trkpt>
      <trkpt lat="45.26476" lon="4.68039">
        <ele>412.20001220703</ele>
        <time>2016-01-13T12:56:05.000Z</time>
      </trkpt>
      <trkpt lat="45.26467" lon="4.68087">
        <ele>413.39999389648</ele>
        <time>2016-01-13T12:56:18.000Z</time>
      </trkpt>
      <trkpt lat="45.26469" lon="4.6809">
        <ele>413.60000610352</ele>
        <time>2016-01-13T12:56:19.000Z</time>
      </trkpt>
      <trkpt lat="45.26471" lon="4.68092">
        <ele>413.60000610352</ele>
        <time>2016-01-13T12:56:20.000Z</time>
      </trkpt>
      <trkpt lat="45.26473" lon="4.68094">
        <ele>413.79998779297</ele>
        <time>2016-01-13T12:56:21.000Z</time>
      </trkpt>
      <trkpt lat="45.26476" lon="4.68096">
        <ele>414</ele>
        <time>2016-01-13T12:56:22.000Z</time>
      </trkpt>
      <trkpt lat="45.26479" lon="4.68098">
        <ele>414</ele>
        <time>2016-01-13T12:56:23.000Z</time>
      </trkpt>
      <trkpt lat="45.26481" lon="4.681">
        <ele>414.20001220703</ele>
        <time>2016-01-13T12:56:24.000Z</time>
      </trkpt>
      <trkpt lat="45.26532" lon="4.68118">
        <ele>416.39999389648</ele>
        <time>2016-01-13T12:56:41.000Z</time>
      </trkpt>
      <trkpt lat="45.2659" lon="4.68129">
        <ele>418.20001220703</ele>
        <time>2016-01-13T12:56:59.000Z</time>
      </trkpt>
      <trkpt lat="45.26616" lon="4.68131">
        <ele>419</ele>
        <time>2016-01-13T12:57:08.000Z</time>
      </trkpt>
      <trkpt lat="45.26617" lon="4.68129">
        <ele>419</ele>
        <time>2016-01-13T12:57:09.000Z</time>
      </trkpt>
      <trkpt lat="45.26618" lon="4.68126">
        <ele>418.79998779297</ele>
        <time>2016-01-13T12:57:10.000Z</time>
      </trkpt>
      <trkpt lat="45.26636" lon="4.68058">
        <ele>415.39999389648</ele>
        <time>2016-01-13T12:57:27.000Z</time>
      </trkpt>
      <trkpt lat="45.26638" lon="4.68045">
        <ele>414.79998779297</ele>
        <time>2016-01-13T12:57:29.000Z</time>
      </trkpt>
      <trkpt lat="45.26641" lon="4.68038">
        <ele>414.39999389648</ele>
        <time>2016-01-13T12:57:30.000Z</time>
      </trkpt>
      <trkpt lat="45.26645" lon="4.68032">
        <ele>414</ele>
        <time>2016-01-13T12:57:31.000Z</time>
      </trkpt>
      <trkpt lat="45.2665" lon="4.68028">
        <ele>414</ele>
        <time>2016-01-13T12:57:32.000Z</time>
      </trkpt>
      <trkpt lat="45.26661" lon="4.68025">
        <ele>414</ele>
        <time>2016-01-13T12:57:34.000Z</time>
      </trkpt>
      <trkpt lat="45.26711" lon="4.68028">
        <ele>414.60000610352</ele>
        <time>2016-01-13T12:57:46.000Z</time>
      </trkpt>
      <trkpt lat="45.26715" lon="4.68028">
        <ele>414.79998779297</ele>
        <time>2016-01-13T12:57:47.000Z</time>
      </trkpt>
      <trkpt lat="45.26719" lon="4.68028">
        <ele>414.79998779297</ele>
        <time>2016-01-13T12:57:48.000Z</time>
      </trkpt>
      <trkpt lat="45.26773" lon="4.68032">
        <ele>416.20001220703</ele>
        <time>2016-01-13T12:58:01.000Z</time>
      </trkpt>
      <trkpt lat="45.2683" lon="4.68052">
        <ele>417.39999389648</ele>
        <time>2016-01-13T12:58:16.000Z</time>
      </trkpt>
      <trkpt lat="45.26894" lon="4.68071">
        <ele>418</ele>
        <time>2016-01-13T12:58:32.000Z</time>
      </trkpt>
      <trkpt lat="45.26904" lon="4.68071">
        <ele>418</ele>
        <time>2016-01-13T12:58:35.000Z</time>
      </trkpt>
      <trkpt lat="45.26927" lon="4.6803">
        <ele>416.79998779297</ele>
        <time>2016-01-13T12:58:48.000Z</time>
      </trkpt>
      <trkpt lat="45.26951" lon="4.6796">
        <ele>417.79998779297</ele>
        <time>2016-01-13T12:59:03.000Z</time>
      </trkpt>
      <trkpt lat="45.26956" lon="4.67938">
        <ele>418.60000610352</ele>
        <time>2016-01-13T12:59:08.000Z</time>
      </trkpt>
      <trkpt lat="45.26958" lon="4.67935">
        <ele>418.79998779297</ele>
        <time>2016-01-13T12:59:09.000Z</time>
      </trkpt>
      <trkpt lat="45.26965" lon="4.67881">
        <ele>421.39999389648</ele>
        <time>2016-01-13T12:59:20.000Z</time>
      </trkpt>
      <trkpt lat="45.26971" lon="4.6781">
        <ele>423.39999389648</ele>
        <time>2016-01-13T12:59:34.000Z</time>
      </trkpt>
      <trkpt lat="45.26981" lon="4.67714">
        <ele>425.79998779297</ele>
        <time>2016-01-13T12:59:52.000Z</time>
      </trkpt>
      <trkpt lat="45.27015" lon="4.67613">
        <ele>427.20001220703</ele>
        <time>2016-01-13T13:00:12.000Z</time>
      </trkpt>
      <trkpt lat="45.2702" lon="4.67605">
        <ele>427.20001220703</ele>
        <time>2016-01-13T13:00:14.000Z</time>
      </trkpt>
      <trkpt lat="45.27023" lon="4.67604">
        <ele>427.20001220703</ele>
        <time>2016-01-13T13:00:15.000Z</time>
      </trkpt>
      <trkpt lat="45.27034" lon="4.67628">
        <ele>427.39999389648</ele>
        <time>2016-01-13T13:00:22.000Z</time>
      </trkpt>
      <trkpt lat="45.27046" lon="4.6767">
        <ele>426.79998779297</ele>
        <time>2016-01-13T13:00:30.000Z</time>
      </trkpt>
      <trkpt lat="45.27064" lon="4.6773">
        <ele>426</ele>
        <time>2016-01-13T13:00:41.000Z</time>
      </trkpt>
      <trkpt lat="45.27071" lon="4.67759">
        <ele>425.60000610352</ele>
        <time>2016-01-13T13:00:46.000Z</time>
      </trkpt>
      <trkpt lat="45.27091" lon="4.67848">
        <ele>424.60000610352</ele>
        <time>2016-01-13T13:01:00.000Z</time>
      </trkpt>
      <trkpt lat="45.27097" lon="4.67913">
        <ele>423.39999389648</ele>
        <time>2016-01-13T13:01:09.000Z</time>
      </trkpt>
      <trkpt lat="45.27107" lon="4.67963">
        <ele>422.39999389648</ele>
        <time>2016-01-13T13:01:17.000Z</time>
      </trkpt>
      <trkpt lat="45.27119" lon="4.68013">
        <ele>422</ele>
        <time>2016-01-13T13:01:28.000Z</time>
      </trkpt>
      <trkpt lat="45.27137" lon="4.68063">
        <ele>421.60000610352</ele>
        <time>2016-01-13T13:01:39.000Z</time>
      </trkpt>
      <trkpt lat="45.27151" lon="4.68084">
        <ele>421.60000610352</ele>
        <time>2016-01-13T13:01:44.000Z</time>
      </trkpt>
      <trkpt lat="45.27167" lon="4.68107">
        <ele>421.60000610352</ele>
        <time>2016-01-13T13:01:50.000Z</time>
      </trkpt>
      <trkpt lat="45.27172" lon="4.68133">
        <ele>421.39999389648</ele>
        <time>2016-01-13T13:01:55.000Z</time>
      </trkpt>
      <trkpt lat="45.2717" lon="4.68181">
        <ele>421.20001220703</ele>
        <time>2016-01-13T13:02:06.000Z</time>
      </trkpt>
      <trkpt lat="45.27175" lon="4.68237">
        <ele>422</ele>
        <time>2016-01-13T13:02:18.000Z</time>
      </trkpt>
      <trkpt lat="45.27192" lon="4.68272">
        <ele>422.79998779297</ele>
        <time>2016-01-13T13:02:28.000Z</time>
      </trkpt>
      <trkpt lat="45.27209" lon="4.68328">
        <ele>425</ele>
        <time>2016-01-13T13:02:44.000Z</time>
      </trkpt>
      <trkpt lat="45.2721" lon="4.68359">
        <ele>426.60000610352</ele>
        <time>2016-01-13T13:02:53.000Z</time>
      </trkpt>
      <trkpt lat="45.27224" lon="4.68367">
        <ele>427</ele>
        <time>2016-01-13T13:03:00.000Z</time>
      </trkpt>
      <trkpt lat="45.27233" lon="4.6837">
        <ele>427.20001220703</ele>
        <time>2016-01-13T13:03:05.000Z</time>
      </trkpt>
      <trkpt lat="45.2724" lon="4.68374">
        <ele>427.60000610352</ele>
        <time>2016-01-13T13:03:09.000Z</time>
      </trkpt>
      <trkpt lat="45.27244" lon="4.68391">
        <ele>429</ele>
        <time>2016-01-13T13:03:15.000Z</time>
      </trkpt>
      <trkpt lat="45.2725" lon="4.68433">
        <ele>432.60000610352</ele>
        <time>2016-01-13T13:03:29.000Z</time>
      </trkpt>
      <trkpt lat="45.27267" lon="4.68489">
        <ele>436.39999389648</ele>
        <time>2016-01-13T13:03:46.000Z</time>
      </trkpt>
      <trkpt lat="45.27287" lon="4.68541">
        <ele>439</ele>
        <time>2016-01-13T13:04:01.000Z</time>
      </trkpt>
      <trkpt lat="45.27305" lon="4.68603">
        <ele>442.20001220703</ele>
        <time>2016-01-13T13:04:17.000Z</time>
      </trkpt>
      <trkpt lat="45.27328" lon="4.68677">
        <ele>444.39999389648</ele>
        <time>2016-01-13T13:04:36.000Z</time>
      </trkpt>
      <trkpt lat="45.27348" lon="4.68767">
        <ele>447.20001220703</ele>
        <time>2016-01-13T13:04:56.000Z</time>
      </trkpt>
      <trkpt lat="45.27353" lon="4.68794">
        <ele>448</ele>
        <time>2016-01-13T13:05:05.000Z</time>
      </trkpt>
      <trkpt lat="45.27354" lon="4.68796">
        <ele>448</ele>
        <time>2016-01-13T13:05:06.000Z</time>
      </trkpt>
      <trkpt lat="45.27356" lon="4.68797">
        <ele>448</ele>
        <time>2016-01-13T13:05:11.000Z</time>
      </trkpt>
      <trkpt lat="45.27357" lon="4.68805">
        <ele>448.39999389648</ele>
        <time>2016-01-13T13:10:01.000Z</time>
      </trkpt>
      <trkpt lat="45.27345" lon="4.6886">
        <ele>449</ele>
        <time>2016-01-13T13:10:14.000Z</time>
      </trkpt>
      <trkpt lat="45.27332" lon="4.6893">
        <ele>448.20001220703</ele>
        <time>2016-01-13T13:10:30.000Z</time>
      </trkpt>
      <trkpt lat="45.27325" lon="4.68981">
        <ele>447.39999389648</ele>
        <time>2016-01-13T13:10:43.000Z</time>
      </trkpt>
      <trkpt lat="45.27317" lon="4.69026">
        <ele>446.60000610352</ele>
        <time>2016-01-13T13:10:55.000Z</time>
      </trkpt>
      <trkpt lat="45.27313" lon="4.69085">
        <ele>445.60000610352</ele>
        <time>2016-01-13T13:11:08.000Z</time>
      </trkpt>
      <trkpt lat="45.27314" lon="4.69162">
        <ele>443.60000610352</ele>
        <time>2016-01-13T13:11:17.000Z</time>
      </trkpt>
      <trkpt lat="45.27312" lon="4.69229">
        <ele>441.60000610352</ele>
        <time>2016-01-13T13:11:25.000Z</time>
      </trkpt>
      <trkpt lat="45.27311" lon="4.69269">
        <ele>441.20001220703</ele>
        <time>2016-01-13T13:11:32.000Z</time>
      </trkpt>
      <trkpt lat="45.2732" lon="4.69315">
        <ele>441.79998779297</ele>
        <time>2016-01-13T13:11:45.000Z</time>
      </trkpt>
      <trkpt lat="45.27325" lon="4.69333">
        <ele>442.79998779297</ele>
        <time>2016-01-13T13:11:51.000Z</time>
      </trkpt>
      <trkpt lat="45.27338" lon="4.69367">
        <ele>444.39999389648</ele>
        <time>2016-01-13T13:12:05.000Z</time>
      </trkpt>
      <trkpt lat="45.2735" lon="4.69425">
        <ele>448.20001220703</ele>
        <time>2016-01-13T13:12:25.000Z</time>
      </trkpt>
      <trkpt lat="45.27368" lon="4.69485">
        <ele>451.39999389648</ele>
        <time>2016-01-13T13:12:45.000Z</time>
      </trkpt>
      <trkpt lat="45.27378" lon="4.6953">
        <ele>453.60000610352</ele>
        <time>2016-01-13T13:12:59.000Z</time>
      </trkpt>
      <trkpt lat="45.27388" lon="4.69581">
        <ele>456.60000610352</ele>
        <time>2016-01-13T13:13:15.000Z</time>
      </trkpt>
      <trkpt lat="45.27398" lon="4.69621">
        <ele>459</ele>
        <time>2016-01-13T13:13:30.000Z</time>
      </trkpt>
      <trkpt lat="45.27404" lon="4.69647">
        <ele>460.60000610352</ele>
        <time>2016-01-13T13:13:41.000Z</time>
      </trkpt>
      <trkpt lat="45.27415" lon="4.69686">
        <ele>462.20001220703</ele>
        <time>2016-01-13T13:13:57.000Z</time>
      </trkpt>
      <trkpt lat="45.27427" lon="4.69732">
        <ele>465.79998779297</ele>
        <time>2016-01-13T13:14:15.000Z</time>
      </trkpt>
      <trkpt lat="45.27438" lon="4.69775">
        <ele>469.79998779297</ele>
        <time>2016-01-13T13:14:31.000Z</time>
      </trkpt>
      <trkpt lat="45.27452" lon="4.69825">
        <ele>473.60000610352</ele>
        <time>2016-01-13T13:14:48.000Z</time>
      </trkpt>
      <trkpt lat="45.27465" lon="4.69863">
        <ele>476.60000610352</ele>
        <time>2016-01-13T13:15:03.000Z</time>
      </trkpt>
      <trkpt lat="45.27471" lon="4.69871">
        <ele>477.39999389648</ele>
        <time>2016-01-13T13:15:07.000Z</time>
      </trkpt>
      <trkpt lat="45.27491" lon="4.69896">
        <ele>480.79998779297</ele>
        <time>2016-01-13T13:15:20.000Z</time>
      </trkpt>
      <trkpt lat="45.27513" lon="4.69916">
        <ele>483.79998779297</ele>
        <time>2016-01-13T13:15:33.000Z</time>
      </trkpt>
      <trkpt lat="45.27516" lon="4.69921">
        <ele>484.39999389648</ele>
        <time>2016-01-13T13:15:35.000Z</time>
      </trkpt>
      <trkpt lat="45.27516" lon="4.69923">
        <ele>484.60000610352</ele>
        <time>2016-01-13T13:15:36.000Z</time>
      </trkpt>
      <trkpt lat="45.27516" lon="4.69926">
        <ele>485</ele>
        <time>2016-01-13T13:15:37.000Z</time>
      </trkpt>
      <trkpt lat="45.27516" lon="4.69953">
        <ele>486.79998779297</ele>
        <time>2016-01-13T13:15:46.000Z</time>
      </trkpt>
      <trkpt lat="45.27515" lon="4.69983">
        <ele>488.60000610352</ele>
        <time>2016-01-13T13:15:56.000Z</time>
      </trkpt>
      <trkpt lat="45.27501" lon="4.70009">
        <ele>489</ele>
        <time>2016-01-13T13:16:10.000Z</time>
      </trkpt>
      <trkpt lat="45.27481" lon="4.70025">
        <ele>488.60000610352</ele>
        <time>2016-01-13T13:16:20.000Z</time>
      </trkpt>
      <trkpt lat="45.27481" lon="4.70024">
        <ele>488.60000610352</ele>
        <time>2016-01-13T13:16:25.000Z</time>
      </trkpt>
      <trkpt lat="45.27473" lon="4.70024">
        <ele>488</ele>
        <time>2016-01-13T13:18:01.000Z</time>
      </trkpt>
      <trkpt lat="45.2747" lon="4.70026">
        <ele>488</ele>
        <time>2016-01-13T13:18:02.000Z</time>
      </trkpt>
      <trkpt lat="45.27468" lon="4.70029">
        <ele>487.79998779297</ele>
        <time>2016-01-13T13:18:03.000Z</time>
      </trkpt>
      <trkpt lat="45.27465" lon="4.70032">
        <ele>487.79998779297</ele>
        <time>2016-01-13T13:18:04.000Z</time>
      </trkpt>
      <trkpt lat="45.27444" lon="4.70051">
        <ele>489.39999389648</ele>
        <time>2016-01-13T13:18:13.000Z</time>
      </trkpt>
      <trkpt lat="45.27442" lon="4.70052">
        <ele>489.60000610352</ele>
        <time>2016-01-13T13:18:14.000Z</time>
      </trkpt>
      <trkpt lat="45.27439" lon="4.70054">
        <ele>489.79998779297</ele>
        <time>2016-01-13T13:18:15.000Z</time>
      </trkpt>
      <trkpt lat="45.27437" lon="4.70056">
        <ele>490</ele>
        <time>2016-01-13T13:18:16.000Z</time>
      </trkpt>
      <trkpt lat="45.27434" lon="4.70058">
        <ele>490.20001220703</ele>
        <time>2016-01-13T13:18:17.000Z</time>
      </trkpt>
      <trkpt lat="45.27432" lon="4.70059">
        <ele>490.39999389648</ele>
        <time>2016-01-13T13:18:18.000Z</time>
      </trkpt>
      <trkpt lat="45.27407" lon="4.70063">
        <ele>490.20001220703</ele>
        <time>2016-01-13T13:18:28.000Z</time>
      </trkpt>
      <trkpt lat="45.27377" lon="4.70052">
        <ele>487</ele>
        <time>2016-01-13T13:18:40.000Z</time>
      </trkpt>
      <trkpt lat="45.27366" lon="4.70057">
        <ele>487.79998779297</ele>
        <time>2016-01-13T13:18:44.000Z</time>
      </trkpt>
      <trkpt lat="45.27363" lon="4.70059">
        <ele>488</ele>
        <time>2016-01-13T13:18:45.000Z</time>
      </trkpt>
      <trkpt lat="45.2736" lon="4.7006">
        <ele>488.20001220703</ele>
        <time>2016-01-13T13:18:46.000Z</time>
      </trkpt>
      <trkpt lat="45.27357" lon="4.70061">
        <ele>488.20001220703</ele>
        <time>2016-01-13T13:18:47.000Z</time>
      </trkpt>
      <trkpt lat="45.27354" lon="4.70062">
        <ele>488.39999389648</ele>
        <time>2016-01-13T13:18:48.000Z</time>
      </trkpt>
      <trkpt lat="45.27352" lon="4.70063">
        <ele>488.39999389648</ele>
        <time>2016-01-13T13:18:49.000Z</time>
      </trkpt>
      <trkpt lat="45.27349" lon="4.70064">
        <ele>488.60000610352</ele>
        <time>2016-01-13T13:18:50.000Z</time>
      </trkpt>
      <trkpt lat="45.27346" lon="4.70066">
        <ele>489</ele>
        <time>2016-01-13T13:18:51.000Z</time>
      </trkpt>
      <trkpt lat="45.27343" lon="4.70068">
        <ele>489.20001220703</ele>
        <time>2016-01-13T13:18:52.000Z</time>
      </trkpt>
      <trkpt lat="45.2734" lon="4.70069">
        <ele>489.39999389648</ele>
        <time>2016-01-13T13:18:53.000Z</time>
      </trkpt>
      <trkpt lat="45.27337" lon="4.70071">
        <ele>489.60000610352</ele>
        <time>2016-01-13T13:18:54.000Z</time>
      </trkpt>
      <trkpt lat="45.27306" lon="4.70115">
        <ele>493.60000610352</ele>
        <time>2016-01-13T13:19:07.000Z</time>
      </trkpt>
      <trkpt lat="45.27289" lon="4.70171">
        <ele>497.79998779297</ele>
        <time>2016-01-13T13:19:21.000Z</time>
      </trkpt>
      <trkpt lat="45.27272" lon="4.70211">
        <ele>499.79998779297</ele>
        <time>2016-01-13T13:19:33.000Z</time>
      </trkpt>
      <trkpt lat="45.27272" lon="4.70219">
        <ele>500</ele>
        <time>2016-01-13T13:19:40.000Z</time>
      </trkpt>
      <trkpt lat="45.27279" lon="4.70224">
        <ele>500.39999389648</ele>
        <time>2016-01-13T13:19:46.000Z</time>
      </trkpt>
      <trkpt lat="45.27301" lon="4.7024">
        <ele>502.39999389648</ele>
        <time>2016-01-13T13:19:58.000Z</time>
      </trkpt>
      <trkpt lat="45.27323" lon="4.70256">
        <ele>504.79998779297</ele>
        <time>2016-01-13T13:20:11.000Z</time>
      </trkpt>
      <trkpt lat="45.2733" lon="4.70262">
        <ele>505.60000610352</ele>
        <time>2016-01-13T13:20:15.000Z</time>
      </trkpt>
      <trkpt lat="45.27357" lon="4.70274">
        <ele>508.60000610352</ele>
        <time>2016-01-13T13:20:31.000Z</time>
      </trkpt>
      <trkpt lat="45.27378" lon="4.70273">
        <ele>510</ele>
        <time>2016-01-13T13:20:42.000Z</time>
      </trkpt>
      <trkpt lat="45.27403" lon="4.70287">
        <ele>513.40002441406</ele>
        <time>2016-01-13T13:20:57.000Z</time>
      </trkpt>
      <trkpt lat="45.27422" lon="4.70307">
        <ele>514.59997558594</ele>
        <time>2016-01-13T13:21:09.000Z</time>
      </trkpt>
      <trkpt lat="45.27443" lon="4.70327">
        <ele>515.79998779297</ele>
        <time>2016-01-13T13:21:23.000Z</time>
      </trkpt>
      <trkpt lat="45.27466" lon="4.70337">
        <ele>517.79998779297</ele>
        <time>2016-01-13T13:21:36.000Z</time>
      </trkpt>
      <trkpt lat="45.27485" lon="4.7033">
        <ele>519.79998779297</ele>
        <time>2016-01-13T13:21:49.000Z</time>
      </trkpt>
      <trkpt lat="45.27502" lon="4.70328">
        <ele>521.40002441406</ele>
        <time>2016-01-13T13:22:01.000Z</time>
      </trkpt>
      <trkpt lat="45.27505" lon="4.7033">
        <ele>521.40002441406</ele>
        <time>2016-01-13T13:22:03.000Z</time>
      </trkpt>
      <trkpt lat="45.27512" lon="4.70331">
        <ele>521.59997558594</ele>
        <time>2016-01-13T13:22:13.000Z</time>
      </trkpt>
      <trkpt lat="45.27522" lon="4.70312">
        <ele>521</ele>
        <time>2016-01-13T13:22:53.000Z</time>
      </trkpt>
      <trkpt lat="45.27523" lon="4.70302">
        <ele>520.59997558594</ele>
        <time>2016-01-13T13:22:58.000Z</time>
      </trkpt>
      <trkpt lat="45.27524" lon="4.70294">
        <ele>520.20001220703</ele>
        <time>2016-01-13T13:23:02.000Z</time>
      </trkpt>
      <trkpt lat="45.27521" lon="4.70282">
        <ele>519.59997558594</ele>
        <time>2016-01-13T13:23:08.000Z</time>
      </trkpt>
      <trkpt lat="45.2752" lon="4.70272">
        <ele>519</ele>
        <time>2016-01-13T13:23:12.000Z</time>
      </trkpt>
      <trkpt lat="45.27526" lon="4.70249">
        <ele>517.59997558594</ele>
        <time>2016-01-13T13:23:22.000Z</time>
      </trkpt>
      <trkpt lat="45.27531" lon="4.70248">
        <ele>517.40002441406</ele>
        <time>2016-01-13T13:23:25.000Z</time>
      </trkpt>
      <trkpt lat="45.27541" lon="4.70227">
        <ele>515.79998779297</ele>
        <time>2016-01-13T13:23:36.000Z</time>
      </trkpt>
      <trkpt lat="45.27551" lon="4.70217">
        <ele>514.79998779297</ele>
        <time>2016-01-13T13:23:46.000Z</time>
      </trkpt>
      <trkpt lat="45.27551" lon="4.70216">
        <ele>514.79998779297</ele>
        <time>2016-01-13T13:23:49.000Z</time>
      </trkpt>
      <trkpt lat="45.27555" lon="4.70224">
        <ele>515.20001220703</ele>
        <time>2016-01-13T13:24:03.000Z</time>
      </trkpt>
      <trkpt lat="45.27556" lon="4.70225">
        <ele>515.20001220703</ele>
        <time>2016-01-13T13:24:04.000Z</time>
      </trkpt>
      <trkpt lat="45.27561" lon="4.70234">
        <ele>515.79998779297</ele>
        <time>2016-01-13T13:24:09.000Z</time>
      </trkpt>
      <trkpt lat="45.27563" lon="4.70237">
        <ele>516</ele>
        <time>2016-01-13T13:24:11.000Z</time>
      </trkpt>
      <trkpt lat="45.27565" lon="4.70238">
        <ele>516</ele>
        <time>2016-01-13T13:24:13.000Z</time>
      </trkpt>
      <trkpt lat="45.27584" lon="4.70243">
        <ele>516</ele>
        <time>2016-01-13T13:24:23.000Z</time>
      </trkpt>
      <trkpt lat="45.27588" lon="4.70252">
        <ele>516.59997558594</ele>
        <time>2016-01-13T13:24:29.000Z</time>
      </trkpt>
      <trkpt lat="45.27588" lon="4.70259">
        <ele>517</ele>
        <time>2016-01-13T13:24:32.000Z</time>
      </trkpt>
      <trkpt lat="45.27593" lon="4.7028">
        <ele>518.40002441406</ele>
        <time>2016-01-13T13:24:42.000Z</time>
      </trkpt>
      <trkpt lat="45.27602" lon="4.70295">
        <ele>519.79998779297</ele>
        <time>2016-01-13T13:24:52.000Z</time>
      </trkpt>
      <trkpt lat="45.27621" lon="4.70299">
        <ele>519.79998779297</ele>
        <time>2016-01-13T13:25:04.000Z</time>
      </trkpt>
      <trkpt lat="45.27628" lon="4.70301">
        <ele>519.79998779297</ele>
        <time>2016-01-13T13:25:09.000Z</time>
      </trkpt>
      <trkpt lat="45.27654" lon="4.70306">
        <ele>520.20001220703</ele>
        <time>2016-01-13T13:25:24.000Z</time>
      </trkpt>
      <trkpt lat="45.27673" lon="4.7031">
        <ele>520.59997558594</ele>
        <time>2016-01-13T13:25:35.000Z</time>
      </trkpt>
      <trkpt lat="45.27683" lon="4.7031">
        <ele>520.40002441406</ele>
        <time>2016-01-13T13:25:41.000Z</time>
      </trkpt>
      <trkpt lat="45.27702" lon="4.7032">
        <ele>521.59997558594</ele>
        <time>2016-01-13T13:25:53.000Z</time>
      </trkpt>
      <trkpt lat="45.27708" lon="4.70324">
        <ele>522</ele>
        <time>2016-01-13T13:25:56.000Z</time>
      </trkpt>
      <trkpt lat="45.27744" lon="4.7032">
        <ele>517.59997558594</ele>
        <time>2016-01-13T13:26:11.000Z</time>
      </trkpt>
      <trkpt lat="45.27748" lon="4.70319">
        <ele>517.20001220703</ele>
        <time>2016-01-13T13:26:12.000Z</time>
      </trkpt>
      <trkpt lat="45.27762" lon="4.7032">
        <ele>516.79998779297</ele>
        <time>2016-01-13T13:26:15.000Z</time>
      </trkpt>
      <trkpt lat="45.27771" lon="4.70323">
        <ele>516.59997558594</ele>
        <time>2016-01-13T13:26:17.000Z</time>
      </trkpt>
      <trkpt lat="45.27788" lon="4.70328">
        <ele>516.20001220703</ele>
        <time>2016-01-13T13:26:21.000Z</time>
      </trkpt>
      <trkpt lat="45.27805" lon="4.70335">
        <ele>515.59997558594</ele>
        <time>2016-01-13T13:26:24.000Z</time>
      </trkpt>
      <trkpt lat="45.27834" lon="4.70326">
        <ele>513.20001220703</ele>
        <time>2016-01-13T13:26:30.000Z</time>
      </trkpt>
      <trkpt lat="45.27851" lon="4.70318">
        <ele>511.79998779297</ele>
        <time>2016-01-13T13:26:35.000Z</time>
      </trkpt>
      <trkpt lat="45.27854" lon="4.70316">
        <ele>511.60000610352</ele>
        <time>2016-01-13T13:26:36.000Z</time>
      </trkpt>
      <trkpt lat="45.27857" lon="4.70315">
        <ele>511.39999389648</ele>
        <time>2016-01-13T13:26:37.000Z</time>
      </trkpt>
      <trkpt lat="45.2786" lon="4.70316">
        <ele>511.20001220703</ele>
        <time>2016-01-13T13:26:38.000Z</time>
      </trkpt>
      <trkpt lat="45.27863" lon="4.70317">
        <ele>511.20001220703</ele>
        <time>2016-01-13T13:26:39.000Z</time>
      </trkpt>
      <trkpt lat="45.27865" lon="4.70319">
        <ele>511</ele>
        <time>2016-01-13T13:26:40.000Z</time>
      </trkpt>
      <trkpt lat="45.27869" lon="4.70321">
        <ele>510.79998779297</ele>
        <time>2016-01-13T13:26:41.000Z</time>
      </trkpt>
      <trkpt lat="45.27873" lon="4.70324">
        <ele>510.79998779297</ele>
        <time>2016-01-13T13:26:42.000Z</time>
      </trkpt>
      <trkpt lat="45.27883" lon="4.70328">
        <ele>510.79998779297</ele>
        <time>2016-01-13T13:26:44.000Z</time>
      </trkpt>
      <trkpt lat="45.27889" lon="4.70331">
        <ele>511.39999389648</ele>
        <time>2016-01-13T13:26:45.000Z</time>
      </trkpt>
      <trkpt lat="45.27907" lon="4.70339">
        <ele>513.20001220703</ele>
        <time>2016-01-13T13:26:48.000Z</time>
      </trkpt>
      <trkpt lat="45.27912" lon="4.70339">
        <ele>513.59997558594</ele>
        <time>2016-01-13T13:26:49.000Z</time>
      </trkpt>
      <trkpt lat="45.27922" lon="4.70339">
        <ele>514.40002441406</ele>
        <time>2016-01-13T13:26:52.000Z</time>
      </trkpt>
      <trkpt lat="45.27923" lon="4.70341">
        <ele>514.59997558594</ele>
        <time>2016-01-13T13:26:53.000Z</time>
      </trkpt>
      <trkpt lat="45.27924" lon="4.70343">
        <ele>514.79998779297</ele>
        <time>2016-01-13T13:26:57.000Z</time>
      </trkpt>
      <trkpt lat="45.27924" lon="4.70343">
        <ele>514.79998779297</ele>
        <time>2016-01-13T13:26:58.000Z</time>
      </trkpt>
      <trkpt lat="45.27927" lon="4.70352">
        <ele>515.40002441406</ele>
        <time>2016-01-13T13:27:03.000Z</time>
      </trkpt>
      <trkpt lat="45.27926" lon="4.70353">
        <ele>515.20001220703</ele>
        <time>2016-01-13T13:27:07.000Z</time>
      </trkpt>
      <trkpt lat="45.2793" lon="4.70357">
        <ele>515.79998779297</ele>
        <time>2016-01-13T13:28:30.000Z</time>
      </trkpt>
      <trkpt lat="45.27953" lon="4.70355">
        <ele>517.79998779297</ele>
        <time>2016-01-13T13:28:41.000Z</time>
      </trkpt>
      <trkpt lat="45.2797" lon="4.70333">
        <ele>519</ele>
        <time>2016-01-13T13:28:55.000Z</time>
      </trkpt>
      <trkpt lat="45.27971" lon="4.70322">
        <ele>519</ele>
        <time>2016-01-13T13:29:00.000Z</time>
      </trkpt>
      <trkpt lat="45.27974" lon="4.70311">
        <ele>519</ele>
        <time>2016-01-13T13:29:05.000Z</time>
      </trkpt>
      <trkpt lat="45.27977" lon="4.70268">
        <ele>517</ele>
        <time>2016-01-13T13:29:20.000Z</time>
      </trkpt>
      <trkpt lat="45.27977" lon="4.70249">
        <ele>514.79998779297</ele>
        <time>2016-01-13T13:29:25.000Z</time>
      </trkpt>
      <trkpt lat="45.27991" lon="4.70192">
        <ele>509.60000610352</ele>
        <time>2016-01-13T13:29:33.000Z</time>
      </trkpt>
      <trkpt lat="45.28008" lon="4.70142">
        <ele>506.20001220703</ele>
        <time>2016-01-13T13:29:38.000Z</time>
      </trkpt>
      <trkpt lat="45.2802" lon="4.70115">
        <ele>504.39999389648</ele>
        <time>2016-01-13T13:29:42.000Z</time>
      </trkpt>
      <trkpt lat="45.28032" lon="4.70115">
        <ele>505</ele>
        <time>2016-01-13T13:29:47.000Z</time>
      </trkpt>
      <trkpt lat="45.28034" lon="4.70115">
        <ele>505</ele>
        <time>2016-01-13T13:29:48.000Z</time>
      </trkpt>
      <trkpt lat="45.28074" lon="4.70121">
        <ele>506.39999389648</ele>
        <time>2016-01-13T13:30:01.000Z</time>
      </trkpt>
      <trkpt lat="45.28106" lon="4.70123">
        <ele>507</ele>
        <time>2016-01-13T13:30:11.000Z</time>
      </trkpt>
      <trkpt lat="45.28141" lon="4.7013">
        <ele>507.39999389648</ele>
        <time>2016-01-13T13:30:22.000Z</time>
      </trkpt>
      <trkpt lat="45.28178" lon="4.70142">
        <ele>508.79998779297</ele>
        <time>2016-01-13T13:30:34.000Z</time>
      </trkpt>
      <trkpt lat="45.28217" lon="4.70153">
        <ele>510</ele>
        <time>2016-01-13T13:30:46.000Z</time>
      </trkpt>
      <trkpt lat="45.28277" lon="4.70145">
        <ele>509.79998779297</ele>
        <time>2016-01-13T13:31:04.000Z</time>
      </trkpt>
      <trkpt lat="45.28337" lon="4.70121">
        <ele>509.60000610352</ele>
        <time>2016-01-13T13:31:21.000Z</time>
      </trkpt>
      <trkpt lat="45.28392" lon="4.70083">
        <ele>506.60000610352</ele>
        <time>2016-01-13T13:31:35.000Z</time>
      </trkpt>
      <trkpt lat="45.28432" lon="4.70051">
        <ele>504.20001220703</ele>
        <time>2016-01-13T13:31:43.000Z</time>
      </trkpt>
      <trkpt lat="45.28454" lon="4.70033">
        <ele>503.20001220703</ele>
        <time>2016-01-13T13:31:47.000Z</time>
      </trkpt>
      <trkpt lat="45.28461" lon="4.70031">
        <ele>503</ele>
        <time>2016-01-13T13:31:48.000Z</time>
      </trkpt>
      <trkpt lat="45.28496" lon="4.70021">
        <ele>504</ele>
        <time>2016-01-13T13:31:54.000Z</time>
      </trkpt>
      <trkpt lat="45.28551" lon="4.7001">
        <ele>506.20001220703</ele>
        <time>2016-01-13T13:32:05.000Z</time>
      </trkpt>
      <trkpt lat="45.28555" lon="4.7001">
        <ele>506.60000610352</ele>
        <time>2016-01-13T13:32:06.000Z</time>
      </trkpt>
      <trkpt lat="45.28559" lon="4.70012">
        <ele>507</ele>
        <time>2016-01-13T13:32:07.000Z</time>
      </trkpt>
      <trkpt lat="45.28563" lon="4.70015">
        <ele>507.39999389648</ele>
        <time>2016-01-13T13:32:08.000Z</time>
      </trkpt>
      <trkpt lat="45.28566" lon="4.70017">
        <ele>508</ele>
        <time>2016-01-13T13:32:09.000Z</time>
      </trkpt>
      <trkpt lat="45.28599" lon="4.70022">
        <ele>511.39999389648</ele>
        <time>2016-01-13T13:32:19.000Z</time>
      </trkpt>
      <trkpt lat="45.2864" lon="4.70022">
        <ele>514.79998779297</ele>
        <time>2016-01-13T13:32:34.000Z</time>
      </trkpt>
      <trkpt lat="45.28663" lon="4.7002">
        <ele>516.40002441406</ele>
        <time>2016-01-13T13:32:47.000Z</time>
      </trkpt>
      <trkpt lat="45.28676" lon="4.70019">
        <ele>517.20001220703</ele>
        <time>2016-01-13T13:32:56.000Z</time>
      </trkpt>
      <trkpt lat="45.28693" lon="4.7002">
        <ele>518.59997558594</ele>
        <time>2016-01-13T13:33:06.000Z</time>
      </trkpt>
      <trkpt lat="45.28713" lon="4.70019">
        <ele>520.59997558594</ele>
        <time>2016-01-13T13:33:17.000Z</time>
      </trkpt>
      <trkpt lat="45.28746" lon="4.70018">
        <ele>523</ele>
        <time>2016-01-13T13:33:34.000Z</time>
      </trkpt>
      <trkpt lat="45.28781" lon="4.70023">
        <ele>525.59997558594</ele>
        <time>2016-01-13T13:33:51.000Z</time>
      </trkpt>
      <trkpt lat="45.28808" lon="4.70045">
        <ele>527.59997558594</ele>
        <time>2016-01-13T13:34:06.000Z</time>
      </trkpt>
      <trkpt lat="45.28828" lon="4.70067">
        <ele>528.79998779297</ele>
        <time>2016-01-13T13:34:19.000Z</time>
      </trkpt>
      <trkpt lat="45.28847" lon="4.70091">
        <ele>530.20001220703</ele>
        <time>2016-01-13T13:34:31.000Z</time>
      </trkpt>
      <trkpt lat="45.28878" lon="4.70127">
        <ele>532</ele>
        <time>2016-01-13T13:34:48.000Z</time>
      </trkpt>
      <trkpt lat="45.28919" lon="4.7014">
        <ele>536.20001220703</ele>
        <time>2016-01-13T13:35:05.000Z</time>
      </trkpt>
      <trkpt lat="45.28959" lon="4.70151">
        <ele>540.59997558594</ele>
        <time>2016-01-13T13:35:22.000Z</time>
      </trkpt>
      <trkpt lat="45.28992" lon="4.70154">
        <ele>545.40002441406</ele>
        <time>2016-01-13T13:35:39.000Z</time>
      </trkpt>
      <trkpt lat="45.29018" lon="4.70149">
        <ele>549</ele>
        <time>2016-01-13T13:35:55.000Z</time>
      </trkpt>
      <trkpt lat="45.29039" lon="4.70154">
        <ele>551.79998779297</ele>
        <time>2016-01-13T13:36:08.000Z</time>
      </trkpt>
      <trkpt lat="45.29052" lon="4.70156">
        <ele>553.40002441406</ele>
        <time>2016-01-13T13:36:15.000Z</time>
      </trkpt>
      <trkpt lat="45.29058" lon="4.70159">
        <ele>554.20001220703</ele>
        <time>2016-01-13T13:36:19.000Z</time>
      </trkpt>
      <trkpt lat="45.29065" lon="4.70163">
        <ele>555</ele>
        <time>2016-01-13T13:36:23.000Z</time>
      </trkpt>
      <trkpt lat="45.29067" lon="4.70172">
        <ele>555.40002441406</ele>
        <time>2016-01-13T13:36:27.000Z</time>
      </trkpt>
      <trkpt lat="45.29063" lon="4.7021">
        <ele>556.59997558594</ele>
        <time>2016-01-13T13:36:40.000Z</time>
      </trkpt>
      <trkpt lat="45.29058" lon="4.70246">
        <ele>558.79998779297</ele>
        <time>2016-01-13T13:36:52.000Z</time>
      </trkpt>
      <trkpt lat="45.29056" lon="4.70265">
        <ele>560</ele>
        <time>2016-01-13T13:37:00.000Z</time>
      </trkpt>
      <trkpt lat="45.29056" lon="4.7027">
        <ele>560.20001220703</ele>
        <time>2016-01-13T13:37:02.000Z</time>
      </trkpt>
      <trkpt lat="45.29059" lon="4.70295">
        <ele>563</ele>
        <time>2016-01-13T13:37:12.000Z</time>
      </trkpt>
      <trkpt lat="45.29059" lon="4.70328">
        <ele>564.79998779297</ele>
        <time>2016-01-13T13:37:24.000Z</time>
      </trkpt>
      <trkpt lat="45.29067" lon="4.70347">
        <ele>567.59997558594</ele>
        <time>2016-01-13T13:37:33.000Z</time>
      </trkpt>
      <trkpt lat="45.29071" lon="4.70355">
        <ele>569</ele>
        <time>2016-01-13T13:37:37.000Z</time>
      </trkpt>
      <trkpt lat="45.29079" lon="4.7036">
        <ele>571.20001220703</ele>
        <time>2016-01-13T13:37:41.000Z</time>
      </trkpt>
      <trkpt lat="45.29084" lon="4.70368">
        <ele>572.79998779297</ele>
        <time>2016-01-13T13:37:45.000Z</time>
      </trkpt>
      <trkpt lat="45.2909" lon="4.70389">
        <ele>574.79998779297</ele>
        <time>2016-01-13T13:37:53.000Z</time>
      </trkpt>
      <trkpt lat="45.29096" lon="4.70397">
        <ele>576.59997558594</ele>
        <time>2016-01-13T13:37:58.000Z</time>
      </trkpt>
      <trkpt lat="45.291" lon="4.70406">
        <ele>578</ele>
        <time>2016-01-13T13:38:03.000Z</time>
      </trkpt>
      <trkpt lat="45.29109" lon="4.7042">
        <ele>580.79998779297</ele>
        <time>2016-01-13T13:38:11.000Z</time>
      </trkpt>
      <trkpt lat="45.29115" lon="4.70436">
        <ele>582.59997558594</ele>
        <time>2016-01-13T13:38:18.000Z</time>
      </trkpt>
      <trkpt lat="45.29121" lon="4.7045">
        <ele>584.20001220703</ele>
        <time>2016-01-13T13:38:24.000Z</time>
      </trkpt>
      <trkpt lat="45.29127" lon="4.70458">
        <ele>585.79998779297</ele>
        <time>2016-01-13T13:38:28.000Z</time>
      </trkpt>
      <trkpt lat="45.29135" lon="4.70478">
        <ele>587.20001220703</ele>
        <time>2016-01-13T13:38:38.000Z</time>
      </trkpt>
      <trkpt lat="45.29137" lon="4.70481">
        <ele>587.59997558594</ele>
        <time>2016-01-13T13:38:40.000Z</time>
      </trkpt>
      <trkpt lat="45.2915" lon="4.70497">
        <ele>590.40002441406</ele>
        <time>2016-01-13T13:38:50.000Z</time>
      </trkpt>
      <trkpt lat="45.29158" lon="4.70513">
        <ele>592</ele>
        <time>2016-01-13T13:38:57.000Z</time>
      </trkpt>
      <trkpt lat="45.29164" lon="4.70524">
        <ele>593</ele>
        <time>2016-01-13T13:39:02.000Z</time>
      </trkpt>
      <trkpt lat="45.29176" lon="4.70546">
        <ele>595.40002441406</ele>
        <time>2016-01-13T13:39:14.000Z</time>
      </trkpt>
      <trkpt lat="45.29177" lon="4.70548">
        <ele>595.59997558594</ele>
        <time>2016-01-13T13:39:15.000Z</time>
      </trkpt>
      <trkpt lat="45.29179" lon="4.70555">
        <ele>596</ele>
        <time>2016-01-13T13:39:18.000Z</time>
      </trkpt>
      <trkpt lat="45.29192" lon="4.70578">
        <ele>598.59997558594</ele>
        <time>2016-01-13T13:39:28.000Z</time>
      </trkpt>
      <trkpt lat="45.29198" lon="4.706">
        <ele>599.59997558594</ele>
        <time>2016-01-13T13:39:37.000Z</time>
      </trkpt>
      <trkpt lat="45.29203" lon="4.70615">
        <ele>600</ele>
        <time>2016-01-13T13:39:43.000Z</time>
      </trkpt>
      <trkpt lat="45.29206" lon="4.70624">
        <ele>600.40002441406</ele>
        <time>2016-01-13T13:39:47.000Z</time>
      </trkpt>
      <trkpt lat="45.2921" lon="4.70632">
        <ele>601.59997558594</ele>
        <time>2016-01-13T13:39:52.000Z</time>
      </trkpt>
      <trkpt lat="45.29221" lon="4.70653">
        <ele>602.79998779297</ele>
        <time>2016-01-13T13:40:03.000Z</time>
      </trkpt>
      <trkpt lat="45.29223" lon="4.70655">
        <ele>603</ele>
        <time>2016-01-13T13:40:05.000Z</time>
      </trkpt>
      <trkpt lat="45.29226" lon="4.70664">
        <ele>603.20001220703</ele>
        <time>2016-01-13T13:40:10.000Z</time>
      </trkpt>
      <trkpt lat="45.29229" lon="4.70671">
        <ele>603.40002441406</ele>
        <time>2016-01-13T13:40:14.000Z</time>
      </trkpt>
      <trkpt lat="45.29235" lon="4.7068">
        <ele>603.59997558594</ele>
        <time>2016-01-13T13:40:19.000Z</time>
      </trkpt>
      <trkpt lat="45.29242" lon="4.70699">
        <ele>604</ele>
        <time>2016-01-13T13:40:27.000Z</time>
      </trkpt>
      <trkpt lat="45.29249" lon="4.70714">
        <ele>603.40002441406</ele>
        <time>2016-01-13T13:40:34.000Z</time>
      </trkpt>
      <trkpt lat="45.29252" lon="4.70722">
        <ele>603</ele>
        <time>2016-01-13T13:40:38.000Z</time>
      </trkpt>
      <trkpt lat="45.29261" lon="4.70736">
        <ele>602.40002441406</ele>
        <time>2016-01-13T13:40:46.000Z</time>
      </trkpt>
      <trkpt lat="45.29267" lon="4.70746">
        <ele>602</ele>
        <time>2016-01-13T13:40:52.000Z</time>
      </trkpt>
      <trkpt lat="45.29276" lon="4.70768">
        <ele>600.59997558594</ele>
        <time>2016-01-13T13:41:04.000Z</time>
      </trkpt>
      <trkpt lat="45.29278" lon="4.70768">
        <ele>600.79998779297</ele>
        <time>2016-01-13T13:41:05.000Z</time>
      </trkpt>
      <trkpt lat="45.29296" lon="4.70759">
        <ele>604.20001220703</ele>
        <time>2016-01-13T13:41:17.000Z</time>
      </trkpt>
      <trkpt lat="45.29314" lon="4.70738">
        <ele>603</ele>
        <time>2016-01-13T13:41:30.000Z</time>
      </trkpt>
      <trkpt lat="45.2932" lon="4.70711">
        <ele>606.20001220703</ele>
        <time>2016-01-13T13:41:43.000Z</time>
      </trkpt>
      <trkpt lat="45.29319" lon="4.70683">
        <ele>608.40002441406</ele>
        <time>2016-01-13T13:41:56.000Z</time>
      </trkpt>
      <trkpt lat="45.2932" lon="4.70646">
        <ele>609.20001220703</ele>
        <time>2016-01-13T13:42:08.000Z</time>
      </trkpt>
      <trkpt lat="45.29319" lon="4.70623">
        <ele>612.79998779297</ele>
        <time>2016-01-13T13:42:15.000Z</time>
      </trkpt>
      <trkpt lat="45.29324" lon="4.7058">
        <ele>612.79998779297</ele>
        <time>2016-01-13T13:42:26.000Z</time>
      </trkpt>
      <trkpt lat="45.29337" lon="4.70542">
        <ele>615.79998779297</ele>
        <time>2016-01-13T13:42:35.000Z</time>
      </trkpt>
      <trkpt lat="45.29368" lon="4.70533">
        <ele>619.40002441406</ele>
        <time>2016-01-13T13:42:46.000Z</time>
      </trkpt>
      <trkpt lat="45.2938" lon="4.7053">
        <ele>621.20001220703</ele>
        <time>2016-01-13T13:42:57.000Z</time>
      </trkpt>
      <trkpt lat="45.29381" lon="4.70537">
        <ele>621</ele>
        <time>2016-01-13T13:45:01.000Z</time>
      </trkpt>
      <trkpt lat="45.29399" lon="4.7054">
        <ele>621.40002441406</ele>
        <time>2016-01-13T13:45:13.000Z</time>
      </trkpt>
      <trkpt lat="45.29418" lon="4.7055">
        <ele>620.79998779297</ele>
        <time>2016-01-13T13:45:27.000Z</time>
      </trkpt>
      <trkpt lat="45.29437" lon="4.70554">
        <ele>621.20001220703</ele>
        <time>2016-01-13T13:45:39.000Z</time>
      </trkpt>
      <trkpt lat="45.29457" lon="4.70547">
        <ele>623.20001220703</ele>
        <time>2016-01-13T13:45:53.000Z</time>
      </trkpt>
      <trkpt lat="45.29467" lon="4.70535">
        <ele>624.79998779297</ele>
        <time>2016-01-13T13:46:03.000Z</time>
      </trkpt>
      <trkpt lat="45.29468" lon="4.70532">
        <ele>624.79998779297</ele>
        <time>2016-01-13T13:46:05.000Z</time>
      </trkpt>
      <trkpt lat="45.29473" lon="4.70524">
        <ele>625</ele>
        <time>2016-01-13T13:46:11.000Z</time>
      </trkpt>
      <trkpt lat="45.29478" lon="4.70514">
        <ele>625.20001220703</ele>
        <time>2016-01-13T13:46:18.000Z</time>
      </trkpt>
      <trkpt lat="45.29481" lon="4.70508">
        <ele>625.20001220703</ele>
        <time>2016-01-13T13:46:22.000Z</time>
      </trkpt>
      <trkpt lat="45.29485" lon="4.70493">
        <ele>625.79998779297</ele>
        <time>2016-01-13T13:46:30.000Z</time>
      </trkpt>
      <trkpt lat="45.29491" lon="4.70457">
        <ele>629.20001220703</ele>
        <time>2016-01-13T13:46:47.000Z</time>
      </trkpt>
      <trkpt lat="45.29496" lon="4.70411">
        <ele>631.20001220703</ele>
        <time>2016-01-13T13:47:03.000Z</time>
      </trkpt>
      <trkpt lat="45.29508" lon="4.70356">
        <ele>635</ele>
        <time>2016-01-13T13:47:21.000Z</time>
      </trkpt>
      <trkpt lat="45.29524" lon="4.70318">
        <ele>638</ele>
        <time>2016-01-13T13:47:35.000Z</time>
      </trkpt>
      <trkpt lat="45.29524" lon="4.70275">
        <ele>641</ele>
        <time>2016-01-13T13:47:49.000Z</time>
      </trkpt>
      <trkpt lat="45.29524" lon="4.70241">
        <ele>642.59997558594</ele>
        <time>2016-01-13T13:48:01.000Z</time>
      </trkpt>
      <trkpt lat="45.29527" lon="4.70208">
        <ele>644.40002441406</ele>
        <time>2016-01-13T13:48:13.000Z</time>
      </trkpt>
      <trkpt lat="45.2953" lon="4.70206">
        <ele>644.59997558594</ele>
        <time>2016-01-13T13:48:19.000Z</time>
      </trkpt>
      <trkpt lat="45.29537" lon="4.70206">
        <ele>645.20001220703</ele>
        <time>2016-01-13T13:48:27.000Z</time>
      </trkpt>
      <trkpt lat="45.29543" lon="4.70203">
        <ele>645.79998779297</ele>
        <time>2016-01-13T13:48:29.000Z</time>
      </trkpt>
      <trkpt lat="45.29576" lon="4.70204">
        <ele>646.59997558594</ele>
        <time>2016-01-13T13:48:43.000Z</time>
      </trkpt>
      <trkpt lat="45.29604" lon="4.70201">
        <ele>647.40002441406</ele>
        <time>2016-01-13T13:48:55.000Z</time>
      </trkpt>
      <trkpt lat="45.29636" lon="4.70203">
        <ele>648.20001220703</ele>
        <time>2016-01-13T13:49:07.000Z</time>
      </trkpt>
      <trkpt lat="45.29669" lon="4.70209">
        <ele>648.79998779297</ele>
        <time>2016-01-13T13:49:18.000Z</time>
      </trkpt>
      <trkpt lat="45.29697" lon="4.7021">
        <ele>649.79998779297</ele>
        <time>2016-01-13T13:49:27.000Z</time>
      </trkpt>
      <trkpt lat="45.29727" lon="4.70218">
        <ele>650</ele>
        <time>2016-01-13T13:49:37.000Z</time>
      </trkpt>
      <trkpt lat="45.29771" lon="4.7022">
        <ele>651.40002441406</ele>
        <time>2016-01-13T13:49:50.000Z</time>
      </trkpt>
      <trkpt lat="45.29824" lon="4.70227">
        <ele>653.40002441406</ele>
        <time>2016-01-13T13:50:05.000Z</time>
      </trkpt>
      <trkpt lat="45.29873" lon="4.70235">
        <ele>659</ele>
        <time>2016-01-13T13:50:18.000Z</time>
      </trkpt>
      <trkpt lat="45.29913" lon="4.70249">
        <ele>657.40002441406</ele>
        <time>2016-01-13T13:50:30.000Z</time>
      </trkpt>
      <trkpt lat="45.29957" lon="4.70256">
        <ele>656.79998779297</ele>
        <time>2016-01-13T13:50:43.000Z</time>
      </trkpt>
      <trkpt lat="45.29975" lon="4.70259">
        <ele>655.79998779297</ele>
        <time>2016-01-13T13:50:48.000Z</time>
      </trkpt>
      <trkpt lat="45.30015" lon="4.70261">
        <ele>654</ele>
        <time>2016-01-13T13:50:56.000Z</time>
      </trkpt>
      <trkpt lat="45.3005" lon="4.70275">
        <ele>649.40002441406</ele>
        <time>2016-01-13T13:51:02.000Z</time>
      </trkpt>
      <trkpt lat="45.30107" lon="4.70267">
        <ele>649.79998779297</ele>
        <time>2016-01-13T13:51:09.000Z</time>
      </trkpt>
      <trkpt lat="45.30124" lon="4.7026">
        <ele>649.79998779297</ele>
        <time>2016-01-13T13:51:11.000Z</time>
      </trkpt>
      <trkpt lat="45.3014" lon="4.70255">
        <ele>651.20001220703</ele>
        <time>2016-01-13T13:51:13.000Z</time>
      </trkpt>
      <trkpt lat="45.30165" lon="4.70263">
        <ele>652.79998779297</ele>
        <time>2016-01-13T13:51:18.000Z</time>
      </trkpt>
      <trkpt lat="45.30187" lon="4.70276">
        <ele>653.59997558594</ele>
        <time>2016-01-13T13:51:26.000Z</time>
      </trkpt>
      <trkpt lat="45.30208" lon="4.70284">
        <ele>654.79998779297</ele>
        <time>2016-01-13T13:51:32.000Z</time>
      </trkpt>
      <trkpt lat="45.30236" lon="4.70297">
        <ele>654.40002441406</ele>
        <time>2016-01-13T13:51:42.000Z</time>
      </trkpt>
      <trkpt lat="45.30273" lon="4.70312">
        <ele>653.79998779297</ele>
        <time>2016-01-13T13:51:56.000Z</time>
      </trkpt>
      <trkpt lat="45.30298" lon="4.70296">
        <ele>656.79998779297</ele>
        <time>2016-01-13T13:52:08.000Z</time>
      </trkpt>
      <trkpt lat="45.30306" lon="4.7029">
        <ele>657.59997558594</ele>
        <time>2016-01-13T13:52:14.000Z</time>
      </trkpt>
      <trkpt lat="45.30315" lon="4.70282">
        <ele>658.20001220703</ele>
        <time>2016-01-13T13:52:20.000Z</time>
      </trkpt>
      <trkpt lat="45.30337" lon="4.70266">
        <ele>659.79998779297</ele>
        <time>2016-01-13T13:52:33.000Z</time>
      </trkpt>
      <trkpt lat="45.30357" lon="4.70244">
        <ele>662.40002441406</ele>
        <time>2016-01-13T13:52:47.000Z</time>
      </trkpt>
      <trkpt lat="45.30356" lon="4.70233">
        <ele>663.79998779297</ele>
        <time>2016-01-13T13:52:51.000Z</time>
      </trkpt>
      <trkpt lat="45.30354" lon="4.70227">
        <ele>664.59997558594</ele>
        <time>2016-01-13T13:52:54.000Z</time>
      </trkpt>
      <trkpt lat="45.30349" lon="4.70209">
        <ele>666.79998779297</ele>
        <time>2016-01-13T13:53:02.000Z</time>
      </trkpt>
      <trkpt lat="45.3035" lon="4.70181">
        <ele>669.59997558594</ele>
        <time>2016-01-13T13:53:14.000Z</time>
      </trkpt>
      <trkpt lat="45.30353" lon="4.70156">
        <ele>672.20001220703</ele>
        <time>2016-01-13T13:53:28.000Z</time>
      </trkpt>
      <trkpt lat="45.30353" lon="4.70154">
        <ele>672.40002441406</ele>
        <time>2016-01-13T13:53:29.000Z</time>
      </trkpt>
      <trkpt lat="45.30351" lon="4.70143">
        <ele>673.40002441406</ele>
        <time>2016-01-13T13:53:33.000Z</time>
      </trkpt>
      <trkpt lat="45.30346" lon="4.7013">
        <ele>674.79998779297</ele>
        <time>2016-01-13T13:53:39.000Z</time>
      </trkpt>
      <trkpt lat="45.30342" lon="4.70121">
        <ele>675.40002441406</ele>
        <time>2016-01-13T13:53:43.000Z</time>
      </trkpt>
      <trkpt lat="45.30338" lon="4.70116">
        <ele>675.59997558594</ele>
        <time>2016-01-13T13:53:46.000Z</time>
      </trkpt>
      <trkpt lat="45.30328" lon="4.7009">
        <ele>677</ele>
        <time>2016-01-13T13:53:58.000Z</time>
      </trkpt>
      <trkpt lat="45.30327" lon="4.70088">
        <ele>677</ele>
        <time>2016-01-13T13:54:00.000Z</time>
      </trkpt>
      <trkpt lat="45.30307" lon="4.70057">
        <ele>678.20001220703</ele>
        <time>2016-01-13T13:54:14.000Z</time>
      </trkpt>
      <trkpt lat="45.30302" lon="4.70022">
        <ele>680</ele>
        <time>2016-01-13T13:54:27.000Z</time>
      </trkpt>
      <trkpt lat="45.30294" lon="4.69982">
        <ele>680.59997558594</ele>
        <time>2016-01-13T13:54:40.000Z</time>
      </trkpt>
      <trkpt lat="45.30291" lon="4.69972">
        <ele>680.59997558594</ele>
        <time>2016-01-13T13:54:44.000Z</time>
      </trkpt>
      <trkpt lat="45.30289" lon="4.69968">
        <ele>680.40002441406</ele>
        <time>2016-01-13T13:54:50.000Z</time>
      </trkpt>
      <trkpt lat="45.30294" lon="4.69962">
        <ele>681.20001220703</ele>
        <time>2016-01-13T14:04:41.000Z</time>
      </trkpt>
      <trkpt lat="45.30314" lon="4.69966">
        <ele>683</ele>
        <time>2016-01-13T14:04:54.000Z</time>
      </trkpt>
      <trkpt lat="45.3032" lon="4.69968">
        <ele>683.40002441406</ele>
        <time>2016-01-13T14:04:57.000Z</time>
      </trkpt>
      <trkpt lat="45.30331" lon="4.69973">
        <ele>684</ele>
        <time>2016-01-13T14:05:04.000Z</time>
      </trkpt>
      <trkpt lat="45.30338" lon="4.69975">
        <ele>684.40002441406</ele>
        <time>2016-01-13T14:05:08.000Z</time>
      </trkpt>
      <trkpt lat="45.30357" lon="4.69975">
        <ele>685.79998779297</ele>
        <time>2016-01-13T14:05:17.000Z</time>
      </trkpt>
      <trkpt lat="45.30365" lon="4.69975">
        <ele>686.40002441406</ele>
        <time>2016-01-13T14:05:20.000Z</time>
      </trkpt>
      <trkpt lat="45.30397" lon="4.69983">
        <ele>687.59997558594</ele>
        <time>2016-01-13T14:05:32.000Z</time>
      </trkpt>
      <trkpt lat="45.3043" lon="4.69991">
        <ele>688.20001220703</ele>
        <time>2016-01-13T14:05:46.000Z</time>
      </trkpt>
      <trkpt lat="45.3046" lon="4.69999">
        <ele>688.40002441406</ele>
        <time>2016-01-13T14:05:59.000Z</time>
      </trkpt>
      <trkpt lat="45.30485" lon="4.70009">
        <ele>687.40002441406</ele>
        <time>2016-01-13T14:06:08.000Z</time>
      </trkpt>
      <trkpt lat="45.30522" lon="4.70016">
        <ele>685.40002441406</ele>
        <time>2016-01-13T14:06:21.000Z</time>
      </trkpt>
      <trkpt lat="45.30557" lon="4.69997">
        <ele>688.59997558594</ele>
        <time>2016-01-13T14:06:33.000Z</time>
      </trkpt>
      <trkpt lat="45.30561" lon="4.69996">
        <ele>689</ele>
        <time>2016-01-13T14:06:34.000Z</time>
      </trkpt>
      <trkpt lat="45.306" lon="4.69983">
        <ele>694.20001220703</ele>
        <time>2016-01-13T14:06:46.000Z</time>
      </trkpt>
      <trkpt lat="45.30632" lon="4.69982">
        <ele>697.59997558594</ele>
        <time>2016-01-13T14:06:55.000Z</time>
      </trkpt>
      <trkpt lat="45.30634" lon="4.69982">
        <ele>697.40002441406</ele>
        <time>2016-01-13T14:06:56.000Z</time>
      </trkpt>
      <trkpt lat="45.30643" lon="4.69985">
        <ele>697</ele>
        <time>2016-01-13T14:07:05.000Z</time>
      </trkpt>
      <trkpt lat="45.30659" lon="4.69991">
        <ele>695.79998779297</ele>
        <time>2016-01-13T14:07:14.000Z</time>
      </trkpt>
      <trkpt lat="45.30675" lon="4.69998">
        <ele>694.59997558594</ele>
        <time>2016-01-13T14:07:19.000Z</time>
      </trkpt>
      <trkpt lat="45.30683" lon="4.7">
        <ele>694</ele>
        <time>2016-01-13T14:07:21.000Z</time>
      </trkpt>
      <trkpt lat="45.30698" lon="4.70006">
        <ele>692.59997558594</ele>
        <time>2016-01-13T14:07:25.000Z</time>
      </trkpt>
      <trkpt lat="45.30709" lon="4.70012">
        <ele>691.40002441406</ele>
        <time>2016-01-13T14:07:28.000Z</time>
      </trkpt>
      <trkpt lat="45.3073" lon="4.70022">
        <ele>686.59997558594</ele>
        <time>2016-01-13T14:07:32.000Z</time>
      </trkpt>
      <trkpt lat="45.30783" lon="4.70042">
        <ele>673.20001220703</ele>
        <time>2016-01-13T14:07:39.000Z</time>
      </trkpt>
      <trkpt lat="45.3082" lon="4.70041">
        <ele>661.40002441406</ele>
        <time>2016-01-13T14:07:44.000Z</time>
      </trkpt>
      <trkpt lat="45.30834" lon="4.7003">
        <ele>655.40002441406</ele>
        <time>2016-01-13T14:07:47.000Z</time>
      </trkpt>
      <trkpt lat="45.30851" lon="4.70004">
        <ele>649</ele>
        <time>2016-01-13T14:07:51.000Z</time>
      </trkpt>
      <trkpt lat="45.30854" lon="4.69996">
        <ele>647.40002441406</ele>
        <time>2016-01-13T14:07:52.000Z</time>
      </trkpt>
      <trkpt lat="45.30856" lon="4.69937">
        <ele>642.79998779297</ele>
        <time>2016-01-13T14:07:58.000Z</time>
      </trkpt>
      <trkpt lat="45.30855" lon="4.69909">
        <ele>640.79998779297</ele>
        <time>2016-01-13T14:08:01.000Z</time>
      </trkpt>
      <trkpt lat="45.3085" lon="4.69887">
        <ele>640.59997558594</ele>
        <time>2016-01-13T14:08:04.000Z</time>
      </trkpt>
      <trkpt lat="45.30851" lon="4.69848">
        <ele>636.20001220703</ele>
        <time>2016-01-13T14:08:11.000Z</time>
      </trkpt>
      <trkpt lat="45.3085" lon="4.69835">
        <ele>635.40002441406</ele>
        <time>2016-01-13T14:08:14.000Z</time>
      </trkpt>
      <trkpt lat="45.30855" lon="4.6981">
        <ele>631</ele>
        <time>2016-01-13T14:08:21.000Z</time>
      </trkpt>
      <trkpt lat="45.30851" lon="4.698">
        <ele>631.79998779297</ele>
        <time>2016-01-13T14:08:23.000Z</time>
      </trkpt>
      <trkpt lat="45.30843" lon="4.69779">
        <ele>632.79998779297</ele>
        <time>2016-01-13T14:08:28.000Z</time>
      </trkpt>
      <trkpt lat="45.30847" lon="4.69761">
        <ele>629</ele>
        <time>2016-01-13T14:08:34.000Z</time>
      </trkpt>
      <trkpt lat="45.30847" lon="4.69749">
        <ele>627.79998779297</ele>
        <time>2016-01-13T14:08:38.000Z</time>
      </trkpt>
      <trkpt lat="45.3085" lon="4.69742">
        <ele>625.79998779297</ele>
        <time>2016-01-13T14:08:40.000Z</time>
      </trkpt>
      <trkpt lat="45.3085" lon="4.69725">
        <ele>623.59997558594</ele>
        <time>2016-01-13T14:08:44.000Z</time>
      </trkpt>
      <trkpt lat="45.3085" lon="4.69711">
        <ele>622.20001220703</ele>
        <time>2016-01-13T14:08:48.000Z</time>
      </trkpt>
      <trkpt lat="45.3085" lon="4.69709">
        <ele>622</ele>
        <time>2016-01-13T14:08:51.000Z</time>
      </trkpt>
      <trkpt lat="45.3085" lon="4.69709">
        <ele>622</ele>
        <time>2016-01-13T14:08:54.000Z</time>
      </trkpt>
      <trkpt lat="45.3085" lon="4.69702">
        <ele>621.40002441406</ele>
        <time>2016-01-13T14:09:31.000Z</time>
      </trkpt>
      <trkpt lat="45.30849" lon="4.69699">
        <ele>621.59997558594</ele>
        <time>2016-01-13T14:09:33.000Z</time>
      </trkpt>
      <trkpt lat="45.30845" lon="4.69669">
        <ele>620.40002441406</ele>
        <time>2016-01-13T14:09:41.000Z</time>
      </trkpt>
      <trkpt lat="45.30834" lon="4.69628">
        <ele>621</ele>
        <time>2016-01-13T14:09:50.000Z</time>
      </trkpt>
      <trkpt lat="45.30832" lon="4.69624">
        <ele>621.40002441406</ele>
        <time>2016-01-13T14:09:51.000Z</time>
      </trkpt>
      <trkpt lat="45.30829" lon="4.69615">
        <ele>621.79998779297</ele>
        <time>2016-01-13T14:09:53.000Z</time>
      </trkpt>
      <trkpt lat="45.30819" lon="4.69589">
        <ele>624.59997558594</ele>
        <time>2016-01-13T14:09:59.000Z</time>
      </trkpt>
      <trkpt lat="45.30813" lon="4.69564">
        <ele>625.79998779297</ele>
        <time>2016-01-13T14:10:05.000Z</time>
      </trkpt>
      <trkpt lat="45.30809" lon="4.69554">
        <ele>626.40002441406</ele>
        <time>2016-01-13T14:10:07.000Z</time>
      </trkpt>
      <trkpt lat="45.30811" lon="4.6954">
        <ele>625.20001220703</ele>
        <time>2016-01-13T14:10:09.000Z</time>
      </trkpt>
      <trkpt lat="45.3081" lon="4.69513">
        <ele>622.40002441406</ele>
        <time>2016-01-13T14:10:13.000Z</time>
      </trkpt>
      <trkpt lat="45.30789" lon="4.69434">
        <ele>620.40002441406</ele>
        <time>2016-01-13T14:10:26.000Z</time>
      </trkpt>
      <trkpt lat="45.30783" lon="4.69419">
        <ele>620.20001220703</ele>
        <time>2016-01-13T14:10:29.000Z</time>
      </trkpt>
      <trkpt lat="45.30776" lon="4.69401">
        <ele>619.40002441406</ele>
        <time>2016-01-13T14:10:33.000Z</time>
      </trkpt>
      <trkpt lat="45.30765" lon="4.69379">
        <ele>619.40002441406</ele>
        <time>2016-01-13T14:10:38.000Z</time>
      </trkpt>
      <trkpt lat="45.30758" lon="4.69353">
        <ele>617.40002441406</ele>
        <time>2016-01-13T14:10:44.000Z</time>
      </trkpt>
      <trkpt lat="45.3075" lon="4.69338">
        <ele>617.59997558594</ele>
        <time>2016-01-13T14:10:47.000Z</time>
      </trkpt>
      <trkpt lat="45.30749" lon="4.69313">
        <ele>613.59997558594</ele>
        <time>2016-01-13T14:10:51.000Z</time>
      </trkpt>
      <trkpt lat="45.30747" lon="4.6929">
        <ele>610.20001220703</ele>
        <time>2016-01-13T14:10:54.000Z</time>
      </trkpt>
      <trkpt lat="45.3074" lon="4.69271">
        <ele>610.79998779297</ele>
        <time>2016-01-13T14:10:59.000Z</time>
      </trkpt>
      <trkpt lat="45.3074" lon="4.69265">
        <ele>610.59997558594</ele>
        <time>2016-01-13T14:11:02.000Z</time>
      </trkpt>
      <trkpt lat="45.30736" lon="4.69235">
        <ele>610</ele>
        <time>2016-01-13T14:11:07.000Z</time>
      </trkpt>
      <trkpt lat="45.30733" lon="4.69224">
        <ele>610.40002441406</ele>
        <time>2016-01-13T14:11:09.000Z</time>
      </trkpt>
      <trkpt lat="45.30732" lon="4.69199">
        <ele>608.59997558594</ele>
        <time>2016-01-13T14:11:14.000Z</time>
      </trkpt>
      <trkpt lat="45.30732" lon="4.69195">
        <ele>608.59997558594</ele>
        <time>2016-01-13T14:11:15.000Z</time>
      </trkpt>
      <trkpt lat="45.3074" lon="4.69147">
        <ele>607.20001220703</ele>
        <time>2016-01-13T14:11:25.000Z</time>
      </trkpt>
      <trkpt lat="45.30741" lon="4.69142">
        <ele>607.40002441406</ele>
        <time>2016-01-13T14:11:26.000Z</time>
      </trkpt>
      <trkpt lat="45.30744" lon="4.69116">
        <ele>608.59997558594</ele>
        <time>2016-01-13T14:11:31.000Z</time>
      </trkpt>
      <trkpt lat="45.30751" lon="4.69068">
        <ele>611.79998779297</ele>
        <time>2016-01-13T14:11:41.000Z</time>
      </trkpt>
      <trkpt lat="45.30757" lon="4.69029">
        <ele>618.40002441406</ele>
        <time>2016-01-13T14:11:51.000Z</time>
      </trkpt>
      <trkpt lat="45.30763" lon="4.69007">
        <ele>617.79998779297</ele>
        <time>2016-01-13T14:11:58.000Z</time>
      </trkpt>
      <trkpt lat="45.30769" lon="4.68987">
        <ele>619</ele>
        <time>2016-01-13T14:12:05.000Z</time>
      </trkpt>
      <trkpt lat="45.30776" lon="4.68952">
        <ele>621.79998779297</ele>
        <time>2016-01-13T14:12:16.000Z</time>
      </trkpt>
      <trkpt lat="45.30776" lon="4.68945">
        <ele>621.59997558594</ele>
        <time>2016-01-13T14:12:18.000Z</time>
      </trkpt>
      <trkpt lat="45.30778" lon="4.68924">
        <ele>621.40002441406</ele>
        <time>2016-01-13T14:12:26.000Z</time>
      </trkpt>
      <trkpt lat="45.30775" lon="4.68885">
        <ele>623</ele>
        <time>2016-01-13T14:12:43.000Z</time>
      </trkpt>
      <trkpt lat="45.30768" lon="4.68859">
        <ele>623.59997558594</ele>
        <time>2016-01-13T14:12:56.000Z</time>
      </trkpt>
      <trkpt lat="45.30761" lon="4.68828">
        <ele>622.79998779297</ele>
        <time>2016-01-13T14:13:10.000Z</time>
      </trkpt>
      <trkpt lat="45.30761" lon="4.68799">
        <ele>622</ele>
        <time>2016-01-13T14:13:16.000Z</time>
      </trkpt>
      <trkpt lat="45.30765" lon="4.68776">
        <ele>620.59997558594</ele>
        <time>2016-01-13T14:13:19.000Z</time>
      </trkpt>
      <trkpt lat="45.30773" lon="4.68752">
        <ele>618.40002441406</ele>
        <time>2016-01-13T14:13:22.000Z</time>
      </trkpt>
      <trkpt lat="45.30786" lon="4.6873">
        <ele>616.79998779297</ele>
        <time>2016-01-13T14:13:25.000Z</time>
      </trkpt>
      <trkpt lat="45.30803" lon="4.68711">
        <ele>613.79998779297</ele>
        <time>2016-01-13T14:13:28.000Z</time>
      </trkpt>
      <trkpt lat="45.30814" lon="4.68667">
        <ele>608.59997558594</ele>
        <time>2016-01-13T14:13:33.000Z</time>
      </trkpt>
      <trkpt lat="45.3081" lon="4.68639">
        <ele>608.40002441406</ele>
        <time>2016-01-13T14:13:36.000Z</time>
      </trkpt>
      <trkpt lat="45.3081" lon="4.68619">
        <ele>607.79998779297</ele>
        <time>2016-01-13T14:13:39.000Z</time>
      </trkpt>
      <trkpt lat="45.30818" lon="4.68614">
        <ele>605.79998779297</ele>
        <time>2016-01-13T14:13:43.000Z</time>
      </trkpt>
      <trkpt lat="45.30831" lon="4.68616">
        <ele>602.40002441406</ele>
        <time>2016-01-13T14:13:46.000Z</time>
      </trkpt>
      <trkpt lat="45.30871" lon="4.6864">
        <ele>593</ele>
        <time>2016-01-13T14:13:52.000Z</time>
      </trkpt>
      <trkpt lat="45.30886" lon="4.68654">
        <ele>589</ele>
        <time>2016-01-13T14:13:54.000Z</time>
      </trkpt>
      <trkpt lat="45.30904" lon="4.68673">
        <ele>583.20001220703</ele>
        <time>2016-01-13T14:13:58.000Z</time>
      </trkpt>
      <trkpt lat="45.30905" lon="4.68676">
        <ele>582.79998779297</ele>
        <time>2016-01-13T14:14:00.000Z</time>
      </trkpt>
      <trkpt lat="45.30907" lon="4.6868">
        <ele>582</ele>
        <time>2016-01-13T14:14:02.000Z</time>
      </trkpt>
      <trkpt lat="45.30909" lon="4.68683">
        <ele>581.59997558594</ele>
        <time>2016-01-13T14:14:03.000Z</time>
      </trkpt>
      <trkpt lat="45.30912" lon="4.68687">
        <ele>580.59997558594</ele>
        <time>2016-01-13T14:14:04.000Z</time>
      </trkpt>
      <trkpt lat="45.30915" lon="4.68691">
        <ele>579.79998779297</ele>
        <time>2016-01-13T14:14:05.000Z</time>
      </trkpt>
      <trkpt lat="45.30918" lon="4.68696">
        <ele>578.79998779297</ele>
        <time>2016-01-13T14:14:06.000Z</time>
      </trkpt>
      <trkpt lat="45.3092" lon="4.68702">
        <ele>578.20001220703</ele>
        <time>2016-01-13T14:14:07.000Z</time>
      </trkpt>
      <trkpt lat="45.30922" lon="4.68707">
        <ele>577.40002441406</ele>
        <time>2016-01-13T14:14:08.000Z</time>
      </trkpt>
      <trkpt lat="45.30924" lon="4.68713">
        <ele>576.59997558594</ele>
        <time>2016-01-13T14:14:09.000Z</time>
      </trkpt>
      <trkpt lat="45.30925" lon="4.68718">
        <ele>576.20001220703</ele>
        <time>2016-01-13T14:14:10.000Z</time>
      </trkpt>
      <trkpt lat="45.30926" lon="4.68724">
        <ele>575.79998779297</ele>
        <time>2016-01-13T14:14:11.000Z</time>
      </trkpt>
      <trkpt lat="45.30928" lon="4.6873">
        <ele>575.40002441406</ele>
        <time>2016-01-13T14:14:12.000Z</time>
      </trkpt>
      <trkpt lat="45.30928" lon="4.68736">
        <ele>575</ele>
        <time>2016-01-13T14:14:13.000Z</time>
      </trkpt>
      <trkpt lat="45.30929" lon="4.68748">
        <ele>574.59997558594</ele>
        <time>2016-01-13T14:14:15.000Z</time>
      </trkpt>
      <trkpt lat="45.30929" lon="4.68754">
        <ele>575</ele>
        <time>2016-01-13T14:14:16.000Z</time>
      </trkpt>
      <trkpt lat="45.30925" lon="4.68783">
        <ele>579.20001220703</ele>
        <time>2016-01-13T14:14:21.000Z</time>
      </trkpt>
      <trkpt lat="45.30927" lon="4.6881">
        <ele>579.79998779297</ele>
        <time>2016-01-13T14:14:24.000Z</time>
      </trkpt>
      <trkpt lat="45.30928" lon="4.68821">
        <ele>579.79998779297</ele>
        <time>2016-01-13T14:14:25.000Z</time>
      </trkpt>
      <trkpt lat="45.30932" lon="4.68865">
        <ele>579.59997558594</ele>
        <time>2016-01-13T14:14:29.000Z</time>
      </trkpt>
      <trkpt lat="45.30936" lon="4.68896">
        <ele>578.40002441406</ele>
        <time>2016-01-13T14:14:32.000Z</time>
      </trkpt>
      <trkpt lat="45.30939" lon="4.68906">
        <ele>577.59997558594</ele>
        <time>2016-01-13T14:14:33.000Z</time>
      </trkpt>
      <trkpt lat="45.30942" lon="4.68916">
        <ele>576.40002441406</ele>
        <time>2016-01-13T14:14:34.000Z</time>
      </trkpt>
      <trkpt lat="45.30946" lon="4.68927">
        <ele>574.79998779297</ele>
        <time>2016-01-13T14:14:35.000Z</time>
      </trkpt>
      <trkpt lat="45.3095" lon="4.68937">
        <ele>573.40002441406</ele>
        <time>2016-01-13T14:14:36.000Z</time>
      </trkpt>
      <trkpt lat="45.30953" lon="4.68947">
        <ele>572.20001220703</ele>
        <time>2016-01-13T14:14:37.000Z</time>
      </trkpt>
      <trkpt lat="45.30952" lon="4.68957">
        <ele>572.20001220703</ele>
        <time>2016-01-13T14:14:38.000Z</time>
      </trkpt>
      <trkpt lat="45.30951" lon="4.68967">
        <ele>573</ele>
        <time>2016-01-13T14:14:39.000Z</time>
      </trkpt>
      <trkpt lat="45.3095" lon="4.68974">
        <ele>573.40002441406</ele>
        <time>2016-01-13T14:14:40.000Z</time>
      </trkpt>
      <trkpt lat="45.30949" lon="4.68978">
        <ele>574</ele>
        <time>2016-01-13T14:14:41.000Z</time>
      </trkpt>
      <trkpt lat="45.30948" lon="4.68981">
        <ele>574.79998779297</ele>
        <time>2016-01-13T14:14:42.000Z</time>
      </trkpt>
      <trkpt lat="45.30945" lon="4.68983">
        <ele>575.79998779297</ele>
        <time>2016-01-13T14:14:43.000Z</time>
      </trkpt>
      <trkpt lat="45.30945" lon="4.68985">
        <ele>576</ele>
        <time>2016-01-13T14:14:44.000Z</time>
      </trkpt>
      <trkpt lat="45.30943" lon="4.68988">
        <ele>576.59997558594</ele>
        <time>2016-01-13T14:14:45.000Z</time>
      </trkpt>
      <trkpt lat="45.30942" lon="4.68992">
        <ele>577</ele>
        <time>2016-01-13T14:14:46.000Z</time>
      </trkpt>
      <trkpt lat="45.30929" lon="4.69026">
        <ele>580.79998779297</ele>
        <time>2016-01-13T14:14:54.000Z</time>
      </trkpt>
      <trkpt lat="45.30917" lon="4.69043">
        <ele>582.40002441406</ele>
        <time>2016-01-13T14:14:58.000Z</time>
      </trkpt>
      <trkpt lat="45.30913" lon="4.69046">
        <ele>583</ele>
        <time>2016-01-13T14:14:59.000Z</time>
      </trkpt>
      <trkpt lat="45.30907" lon="4.69049">
        <ele>584.20001220703</ele>
        <time>2016-01-13T14:15:00.000Z</time>
      </trkpt>
      <trkpt lat="45.30886" lon="4.69056">
        <ele>587.40002441406</ele>
        <time>2016-01-13T14:15:05.000Z</time>
      </trkpt>
      <trkpt lat="45.30878" lon="4.69053">
        <ele>589.59997558594</ele>
        <time>2016-01-13T14:15:07.000Z</time>
      </trkpt>
      <trkpt lat="45.30872" lon="4.69052">
        <ele>591</ele>
        <time>2016-01-13T14:15:08.000Z</time>
      </trkpt>
      <trkpt lat="45.30858" lon="4.69057">
        <ele>592.59997558594</ele>
        <time>2016-01-13T14:15:11.000Z</time>
      </trkpt>
      <trkpt lat="45.30853" lon="4.69063">
        <ele>592.20001220703</ele>
        <time>2016-01-13T14:15:12.000Z</time>
      </trkpt>
      <trkpt lat="45.30851" lon="4.69071">
        <ele>590.59997558594</ele>
        <time>2016-01-13T14:15:13.000Z</time>
      </trkpt>
      <trkpt lat="45.30849" lon="4.69079">
        <ele>589.40002441406</ele>
        <time>2016-01-13T14:15:14.000Z</time>
      </trkpt>
      <trkpt lat="45.30846" lon="4.69087">
        <ele>587.59997558594</ele>
        <time>2016-01-13T14:15:15.000Z</time>
      </trkpt>
      <trkpt lat="45.30844" lon="4.69095">
        <ele>586.40002441406</ele>
        <time>2016-01-13T14:15:16.000Z</time>
      </trkpt>
      <trkpt lat="45.30842" lon="4.69102">
        <ele>585</ele>
        <time>2016-01-13T14:15:17.000Z</time>
      </trkpt>
      <trkpt lat="45.3084" lon="4.69114">
        <ele>582.59997558594</ele>
        <time>2016-01-13T14:15:19.000Z</time>
      </trkpt>
      <trkpt lat="45.3084" lon="4.69121">
        <ele>581</ele>
        <time>2016-01-13T14:15:20.000Z</time>
      </trkpt>
      <trkpt lat="45.3084" lon="4.69128">
        <ele>579.40002441406</ele>
        <time>2016-01-13T14:15:21.000Z</time>
      </trkpt>
      <trkpt lat="45.30841" lon="4.69135">
        <ele>577.79998779297</ele>
        <time>2016-01-13T14:15:22.000Z</time>
      </trkpt>
      <trkpt lat="45.30842" lon="4.69141">
        <ele>576</ele>
        <time>2016-01-13T14:15:23.000Z</time>
      </trkpt>
      <trkpt lat="45.30843" lon="4.69146">
        <ele>575</ele>
        <time>2016-01-13T14:15:24.000Z</time>
      </trkpt>
      <trkpt lat="45.30842" lon="4.6915">
        <ele>574.20001220703</ele>
        <time>2016-01-13T14:15:25.000Z</time>
      </trkpt>
      <trkpt lat="45.30841" lon="4.69155">
        <ele>573.59997558594</ele>
        <time>2016-01-13T14:15:26.000Z</time>
      </trkpt>
      <trkpt lat="45.30839" lon="4.6916">
        <ele>572.79998779297</ele>
        <time>2016-01-13T14:15:27.000Z</time>
      </trkpt>
      <trkpt lat="45.30837" lon="4.69164">
        <ele>572.59997558594</ele>
        <time>2016-01-13T14:15:28.000Z</time>
      </trkpt>
      <trkpt lat="45.30836" lon="4.69167">
        <ele>572.79998779297</ele>
        <time>2016-01-13T14:15:29.000Z</time>
      </trkpt>
      <trkpt lat="45.30835" lon="4.69171">
        <ele>572.59997558594</ele>
        <time>2016-01-13T14:15:30.000Z</time>
      </trkpt>
      <trkpt lat="45.30832" lon="4.69175">
        <ele>573.20001220703</ele>
        <time>2016-01-13T14:15:31.000Z</time>
      </trkpt>
      <trkpt lat="45.3083" lon="4.69178">
        <ele>573.79998779297</ele>
        <time>2016-01-13T14:15:32.000Z</time>
      </trkpt>
      <trkpt lat="45.30831" lon="4.69181">
        <ele>573.20001220703</ele>
        <time>2016-01-13T14:15:33.000Z</time>
      </trkpt>
      <trkpt lat="45.30832" lon="4.69184">
        <ele>572.40002441406</ele>
        <time>2016-01-13T14:15:34.000Z</time>
      </trkpt>
      <trkpt lat="45.30833" lon="4.69187">
        <ele>571.79998779297</ele>
        <time>2016-01-13T14:15:35.000Z</time>
      </trkpt>
      <trkpt lat="45.3084" lon="4.69202">
        <ele>568.20001220703</ele>
        <time>2016-01-13T14:15:41.000Z</time>
      </trkpt>
      <trkpt lat="45.30842" lon="4.69205">
        <ele>567.40002441406</ele>
        <time>2016-01-13T14:15:42.000Z</time>
      </trkpt>
      <trkpt lat="45.30845" lon="4.69209">
        <ele>567</ele>
        <time>2016-01-13T14:15:43.000Z</time>
      </trkpt>
      <trkpt lat="45.30849" lon="4.69216">
        <ele>566.20001220703</ele>
        <time>2016-01-13T14:15:44.000Z</time>
      </trkpt>
      <trkpt lat="45.30855" lon="4.69221">
        <ele>564.59997558594</ele>
        <time>2016-01-13T14:15:45.000Z</time>
      </trkpt>
      <trkpt lat="45.30859" lon="4.69225">
        <ele>563.59997558594</ele>
        <time>2016-01-13T14:15:46.000Z</time>
      </trkpt>
      <trkpt lat="45.30873" lon="4.69241">
        <ele>560.59997558594</ele>
        <time>2016-01-13T14:15:50.000Z</time>
      </trkpt>
      <trkpt lat="45.30875" lon="4.69243">
        <ele>560</ele>
        <time>2016-01-13T14:15:51.000Z</time>
      </trkpt>
      <trkpt lat="45.30879" lon="4.69245">
        <ele>559</ele>
        <time>2016-01-13T14:15:52.000Z</time>
      </trkpt>
      <trkpt lat="45.30888" lon="4.69251">
        <ele>556.20001220703</ele>
        <time>2016-01-13T14:15:54.000Z</time>
      </trkpt>
      <trkpt lat="45.30893" lon="4.69256">
        <ele>555.20001220703</ele>
        <time>2016-01-13T14:15:55.000Z</time>
      </trkpt>
      <trkpt lat="45.30901" lon="4.69267">
        <ele>553</ele>
        <time>2016-01-13T14:15:57.000Z</time>
      </trkpt>
      <trkpt lat="45.30909" lon="4.69275">
        <ele>551</ele>
        <time>2016-01-13T14:15:59.000Z</time>
      </trkpt>
      <trkpt lat="45.30917" lon="4.69286">
        <ele>549</ele>
        <time>2016-01-13T14:16:01.000Z</time>
      </trkpt>
      <trkpt lat="45.30921" lon="4.69291">
        <ele>548.20001220703</ele>
        <time>2016-01-13T14:16:02.000Z</time>
      </trkpt>
      <trkpt lat="45.30924" lon="4.69296">
        <ele>548</ele>
        <time>2016-01-13T14:16:03.000Z</time>
      </trkpt>
      <trkpt lat="45.30926" lon="4.69301">
        <ele>548</ele>
        <time>2016-01-13T14:16:04.000Z</time>
      </trkpt>
      <trkpt lat="45.30928" lon="4.69306">
        <ele>547.79998779297</ele>
        <time>2016-01-13T14:16:05.000Z</time>
      </trkpt>
      <trkpt lat="45.3093" lon="4.69311">
        <ele>547.79998779297</ele>
        <time>2016-01-13T14:16:06.000Z</time>
      </trkpt>
      <trkpt lat="45.30933" lon="4.69317">
        <ele>547.79998779297</ele>
        <time>2016-01-13T14:16:07.000Z</time>
      </trkpt>
      <trkpt lat="45.30935" lon="4.69322">
        <ele>547.59997558594</ele>
        <time>2016-01-13T14:16:08.000Z</time>
      </trkpt>
      <trkpt lat="45.30937" lon="4.69327">
        <ele>547.40002441406</ele>
        <time>2016-01-13T14:16:09.000Z</time>
      </trkpt>
      <trkpt lat="45.30956" lon="4.69383">
        <ele>548.59997558594</ele>
        <time>2016-01-13T14:16:18.000Z</time>
      </trkpt>
      <trkpt lat="45.3096" lon="4.69389">
        <ele>547.79998779297</ele>
        <time>2016-01-13T14:16:19.000Z</time>
      </trkpt>
      <trkpt lat="45.30963" lon="4.69397">
        <ele>547.79998779297</ele>
        <time>2016-01-13T14:16:20.000Z</time>
      </trkpt>
      <trkpt lat="45.30966" lon="4.69404">
        <ele>547.79998779297</ele>
        <time>2016-01-13T14:16:21.000Z</time>
      </trkpt>
      <trkpt lat="45.30969" lon="4.69413">
        <ele>548.20001220703</ele>
        <time>2016-01-13T14:16:22.000Z</time>
      </trkpt>
      <trkpt lat="45.30986" lon="4.69452">
        <ele>549.20001220703</ele>
        <time>2016-01-13T14:16:27.000Z</time>
      </trkpt>
      <trkpt lat="45.30987" lon="4.69459">
        <ele>549.20001220703</ele>
        <time>2016-01-13T14:16:28.000Z</time>
      </trkpt>
      <trkpt lat="45.3099" lon="4.69466">
        <ele>548.59997558594</ele>
        <time>2016-01-13T14:16:29.000Z</time>
      </trkpt>
      <trkpt lat="45.30992" lon="4.69471">
        <ele>548</ele>
        <time>2016-01-13T14:16:30.000Z</time>
      </trkpt>
      <trkpt lat="45.30995" lon="4.69476">
        <ele>547.40002441406</ele>
        <time>2016-01-13T14:16:31.000Z</time>
      </trkpt>
      <trkpt lat="45.30997" lon="4.69483">
        <ele>547</ele>
        <time>2016-01-13T14:16:32.000Z</time>
      </trkpt>
      <trkpt lat="45.30998" lon="4.69489">
        <ele>546.79998779297</ele>
        <time>2016-01-13T14:16:33.000Z</time>
      </trkpt>
      <trkpt lat="45.30998" lon="4.695">
        <ele>547.79998779297</ele>
        <time>2016-01-13T14:16:35.000Z</time>
      </trkpt>
      <trkpt lat="45.30998" lon="4.69505">
        <ele>548.40002441406</ele>
        <time>2016-01-13T14:16:36.000Z</time>
      </trkpt>
      <trkpt lat="45.30999" lon="4.69508">
        <ele>548.40002441406</ele>
        <time>2016-01-13T14:16:37.000Z</time>
      </trkpt>
      <trkpt lat="45.31002" lon="4.69513">
        <ele>548</ele>
        <time>2016-01-13T14:16:43.000Z</time>
      </trkpt>
      <trkpt lat="45.30994" lon="4.69538">
        <ele>552.79998779297</ele>
        <time>2016-01-13T14:16:53.000Z</time>
      </trkpt>
      <trkpt lat="45.3099" lon="4.69541">
        <ele>554</ele>
        <time>2016-01-13T14:16:54.000Z</time>
      </trkpt>
      <trkpt lat="45.30985" lon="4.69543">
        <ele>555.59997558594</ele>
        <time>2016-01-13T14:16:55.000Z</time>
      </trkpt>
      <trkpt lat="45.30981" lon="4.69548">
        <ele>556.79998779297</ele>
        <time>2016-01-13T14:16:56.000Z</time>
      </trkpt>
      <trkpt lat="45.30977" lon="4.69552">
        <ele>558.20001220703</ele>
        <time>2016-01-13T14:16:57.000Z</time>
      </trkpt>
      <trkpt lat="45.30976" lon="4.69558">
        <ele>559</ele>
        <time>2016-01-13T14:16:58.000Z</time>
      </trkpt>
      <trkpt lat="45.30974" lon="4.69564">
        <ele>559.40002441406</ele>
        <time>2016-01-13T14:16:59.000Z</time>
      </trkpt>
      <trkpt lat="45.30975" lon="4.6957">
        <ele>559.40002441406</ele>
        <time>2016-01-13T14:17:00.000Z</time>
      </trkpt>
      <trkpt lat="45.30976" lon="4.69576">
        <ele>559</ele>
        <time>2016-01-13T14:17:01.000Z</time>
      </trkpt>
      <trkpt lat="45.30977" lon="4.69581">
        <ele>559</ele>
        <time>2016-01-13T14:17:02.000Z</time>
      </trkpt>
      <trkpt lat="45.30977" lon="4.69585">
        <ele>559.20001220703</ele>
        <time>2016-01-13T14:17:03.000Z</time>
      </trkpt>
      <trkpt lat="45.30986" lon="4.69618">
        <ele>556.20001220703</ele>
        <time>2016-01-13T14:17:13.000Z</time>
      </trkpt>
      <trkpt lat="45.30987" lon="4.69622">
        <ele>556.20001220703</ele>
        <time>2016-01-13T14:17:14.000Z</time>
      </trkpt>
      <trkpt lat="45.30988" lon="4.69626">
        <ele>556.40002441406</ele>
        <time>2016-01-13T14:17:15.000Z</time>
      </trkpt>
      <trkpt lat="45.30988" lon="4.69638">
        <ele>557.40002441406</ele>
        <time>2016-01-13T14:17:19.000Z</time>
      </trkpt>
      <trkpt lat="45.30987" lon="4.69641">
        <ele>558</ele>
        <time>2016-01-13T14:17:20.000Z</time>
      </trkpt>
      <trkpt lat="45.30988" lon="4.69649">
        <ele>558.20001220703</ele>
        <time>2016-01-13T14:17:23.000Z</time>
      </trkpt>
      <trkpt lat="45.30988" lon="4.69652">
        <ele>558.20001220703</ele>
        <time>2016-01-13T14:17:24.000Z</time>
      </trkpt>
      <trkpt lat="45.30989" lon="4.69655">
        <ele>558.20001220703</ele>
        <time>2016-01-13T14:17:25.000Z</time>
      </trkpt>
      <trkpt lat="45.30992" lon="4.69659">
        <ele>557.40002441406</ele>
        <time>2016-01-13T14:17:26.000Z</time>
      </trkpt>
      <trkpt lat="45.30995" lon="4.69663">
        <ele>556.79998779297</ele>
        <time>2016-01-13T14:17:27.000Z</time>
      </trkpt>
      <trkpt lat="45.30997" lon="4.69667">
        <ele>556.20001220703</ele>
        <time>2016-01-13T14:17:28.000Z</time>
      </trkpt>
      <trkpt lat="45.31" lon="4.69672">
        <ele>555.40002441406</ele>
        <time>2016-01-13T14:17:29.000Z</time>
      </trkpt>
      <trkpt lat="45.31002" lon="4.69678">
        <ele>555</ele>
        <time>2016-01-13T14:17:30.000Z</time>
      </trkpt>
      <trkpt lat="45.31005" lon="4.69684">
        <ele>554.40002441406</ele>
        <time>2016-01-13T14:17:31.000Z</time>
      </trkpt>
      <trkpt lat="45.31008" lon="4.69691">
        <ele>554</ele>
        <time>2016-01-13T14:17:32.000Z</time>
      </trkpt>
      <trkpt lat="45.31011" lon="4.69704">
        <ele>553.59997558594</ele>
        <time>2016-01-13T14:17:34.000Z</time>
      </trkpt>
      <trkpt lat="45.31014" lon="4.69711">
        <ele>553.59997558594</ele>
        <time>2016-01-13T14:17:35.000Z</time>
      </trkpt>
      <trkpt lat="45.31017" lon="4.69717">
        <ele>553.40002441406</ele>
        <time>2016-01-13T14:17:36.000Z</time>
      </trkpt>
      <trkpt lat="45.31026" lon="4.69735">
        <ele>552.59997558594</ele>
        <time>2016-01-13T14:17:39.000Z</time>
      </trkpt>
      <trkpt lat="45.31029" lon="4.6974">
        <ele>552.59997558594</ele>
        <time>2016-01-13T14:17:40.000Z</time>
      </trkpt>
      <trkpt lat="45.31034" lon="4.69746">
        <ele>551.40002441406</ele>
        <time>2016-01-13T14:17:42.000Z</time>
      </trkpt>
      <trkpt lat="45.31037" lon="4.69749">
        <ele>551.20001220703</ele>
        <time>2016-01-13T14:17:43.000Z</time>
      </trkpt>
      <trkpt lat="45.3104" lon="4.69754">
        <ele>550.79998779297</ele>
        <time>2016-01-13T14:17:44.000Z</time>
      </trkpt>
      <trkpt lat="45.31043" lon="4.69761">
        <ele>550.79998779297</ele>
        <time>2016-01-13T14:17:45.000Z</time>
      </trkpt>
      <trkpt lat="45.31047" lon="4.6977">
        <ele>550.59997558594</ele>
        <time>2016-01-13T14:17:46.000Z</time>
      </trkpt>
      <trkpt lat="45.3105" lon="4.69778">
        <ele>551</ele>
        <time>2016-01-13T14:17:47.000Z</time>
      </trkpt>
      <trkpt lat="45.31055" lon="4.69785">
        <ele>551</ele>
        <time>2016-01-13T14:17:48.000Z</time>
      </trkpt>
      <trkpt lat="45.3106" lon="4.69792">
        <ele>550.79998779297</ele>
        <time>2016-01-13T14:17:49.000Z</time>
      </trkpt>
      <trkpt lat="45.31066" lon="4.69797">
        <ele>550.59997558594</ele>
        <time>2016-01-13T14:17:50.000Z</time>
      </trkpt>
      <trkpt lat="45.31072" lon="4.69802">
        <ele>549.79998779297</ele>
        <time>2016-01-13T14:17:51.000Z</time>
      </trkpt>
      <trkpt lat="45.31079" lon="4.69806">
        <ele>549</ele>
        <time>2016-01-13T14:17:52.000Z</time>
      </trkpt>
      <trkpt lat="45.31086" lon="4.6981">
        <ele>548</ele>
        <time>2016-01-13T14:17:53.000Z</time>
      </trkpt>
      <trkpt lat="45.31099" lon="4.69816">
        <ele>546</ele>
        <time>2016-01-13T14:17:55.000Z</time>
      </trkpt>
      <trkpt lat="45.31108" lon="4.69817">
        <ele>544</ele>
        <time>2016-01-13T14:17:56.000Z</time>
      </trkpt>
      <trkpt lat="45.31158" lon="4.69821">
        <ele>533.40002441406</ele>
        <time>2016-01-13T14:18:02.000Z</time>
      </trkpt>
      <trkpt lat="45.31162" lon="4.69824">
        <ele>533</ele>
        <time>2016-01-13T14:18:03.000Z</time>
      </trkpt>
      <trkpt lat="45.31169" lon="4.69829">
        <ele>532.20001220703</ele>
        <time>2016-01-13T14:18:07.000Z</time>
      </trkpt>
      <trkpt lat="45.31175" lon="4.69836">
        <ele>532.20001220703</ele>
        <time>2016-01-13T14:18:09.000Z</time>
      </trkpt>
      <trkpt lat="45.31178" lon="4.6984">
        <ele>532</ele>
        <time>2016-01-13T14:18:10.000Z</time>
      </trkpt>
      <trkpt lat="45.31182" lon="4.69843">
        <ele>531.79998779297</ele>
        <time>2016-01-13T14:18:11.000Z</time>
      </trkpt>
      <trkpt lat="45.31188" lon="4.69846">
        <ele>530.79998779297</ele>
        <time>2016-01-13T14:18:12.000Z</time>
      </trkpt>
      <trkpt lat="45.31194" lon="4.69848">
        <ele>529.59997558594</ele>
        <time>2016-01-13T14:18:13.000Z</time>
      </trkpt>
      <trkpt lat="45.31202" lon="4.6985">
        <ele>528.40002441406</ele>
        <time>2016-01-13T14:18:14.000Z</time>
      </trkpt>
      <trkpt lat="45.31208" lon="4.69855">
        <ele>527.79998779297</ele>
        <time>2016-01-13T14:18:15.000Z</time>
      </trkpt>
      <trkpt lat="45.31213" lon="4.69862">
        <ele>527.79998779297</ele>
        <time>2016-01-13T14:18:16.000Z</time>
      </trkpt>
      <trkpt lat="45.31218" lon="4.69871">
        <ele>528</ele>
        <time>2016-01-13T14:18:17.000Z</time>
      </trkpt>
      <trkpt lat="45.31222" lon="4.69881">
        <ele>527.59997558594</ele>
        <time>2016-01-13T14:18:18.000Z</time>
      </trkpt>
      <trkpt lat="45.31229" lon="4.69901">
        <ele>527</ele>
        <time>2016-01-13T14:18:20.000Z</time>
      </trkpt>
      <trkpt lat="45.31232" lon="4.69912">
        <ele>527</ele>
        <time>2016-01-13T14:18:21.000Z</time>
      </trkpt>
      <trkpt lat="45.31237" lon="4.69935">
        <ele>526.79998779297</ele>
        <time>2016-01-13T14:18:23.000Z</time>
      </trkpt>
      <trkpt lat="45.31242" lon="4.69945">
        <ele>526.40002441406</ele>
        <time>2016-01-13T14:18:24.000Z</time>
      </trkpt>
      <trkpt lat="45.31252" lon="4.69963">
        <ele>525</ele>
        <time>2016-01-13T14:18:26.000Z</time>
      </trkpt>
      <trkpt lat="45.31257" lon="4.69972">
        <ele>524</ele>
        <time>2016-01-13T14:18:27.000Z</time>
      </trkpt>
      <trkpt lat="45.31281" lon="4.70001">
        <ele>519.79998779297</ele>
        <time>2016-01-13T14:18:31.000Z</time>
      </trkpt>
      <trkpt lat="45.31292" lon="4.70018">
        <ele>518</ele>
        <time>2016-01-13T14:18:33.000Z</time>
      </trkpt>
      <trkpt lat="45.31312" lon="4.70044">
        <ele>516.79998779297</ele>
        <time>2016-01-13T14:18:36.000Z</time>
      </trkpt>
      <trkpt lat="45.31317" lon="4.70053">
        <ele>517.79998779297</ele>
        <time>2016-01-13T14:18:37.000Z</time>
      </trkpt>
      <trkpt lat="45.31325" lon="4.70071">
        <ele>519.40002441406</ele>
        <time>2016-01-13T14:18:39.000Z</time>
      </trkpt>
      <trkpt lat="45.31328" lon="4.70075">
        <ele>519.59997558594</ele>
        <time>2016-01-13T14:18:40.000Z</time>
      </trkpt>
      <trkpt lat="45.31331" lon="4.70076">
        <ele>519.59997558594</ele>
        <time>2016-01-13T14:18:44.000Z</time>
      </trkpt>
      <trkpt lat="45.31331" lon="4.70077">
        <ele>519.59997558594</ele>
        <time>2016-01-13T14:18:45.000Z</time>
      </trkpt>
      <trkpt lat="45.3133" lon="4.70077">
        <ele>519.59997558594</ele>
        <time>2016-01-13T14:18:49.000Z</time>
      </trkpt>
      <trkpt lat="45.31331" lon="4.70066">
        <ele>517.79998779297</ele>
        <time>2016-01-13T14:20:00.000Z</time>
      </trkpt>
      <trkpt lat="45.31332" lon="4.70058">
        <ele>516.20001220703</ele>
        <time>2016-01-13T14:20:02.000Z</time>
      </trkpt>
      <trkpt lat="45.31333" lon="4.70054">
        <ele>515.40002441406</ele>
        <time>2016-01-13T14:20:03.000Z</time>
      </trkpt>
      <trkpt lat="45.31334" lon="4.7005">
        <ele>514.40002441406</ele>
        <time>2016-01-13T14:20:04.000Z</time>
      </trkpt>
      <trkpt lat="45.31334" lon="4.70044">
        <ele>513.20001220703</ele>
        <time>2016-01-13T14:20:05.000Z</time>
      </trkpt>
      <trkpt lat="45.31334" lon="4.70038">
        <ele>512</ele>
        <time>2016-01-13T14:20:06.000Z</time>
      </trkpt>
      <trkpt lat="45.31335" lon="4.70021">
        <ele>510.60000610352</ele>
        <time>2016-01-13T14:20:10.000Z</time>
      </trkpt>
      <trkpt lat="45.31339" lon="4.70021">
        <ele>510</ele>
        <time>2016-01-13T14:20:12.000Z</time>
      </trkpt>
      <trkpt lat="45.31341" lon="4.70025">
        <ele>509.79998779297</ele>
        <time>2016-01-13T14:20:13.000Z</time>
      </trkpt>
      <trkpt lat="45.31342" lon="4.70029">
        <ele>509.79998779297</ele>
        <time>2016-01-13T14:20:14.000Z</time>
      </trkpt>
      <trkpt lat="45.31346" lon="4.70039">
        <ele>510.20001220703</ele>
        <time>2016-01-13T14:20:16.000Z</time>
      </trkpt>
      <trkpt lat="45.31351" lon="4.70051">
        <ele>511.60000610352</ele>
        <time>2016-01-13T14:20:18.000Z</time>
      </trkpt>
      <trkpt lat="45.31355" lon="4.70056">
        <ele>512</ele>
        <time>2016-01-13T14:20:19.000Z</time>
      </trkpt>
      <trkpt lat="45.31359" lon="4.70061">
        <ele>512.20001220703</ele>
        <time>2016-01-13T14:20:20.000Z</time>
      </trkpt>
      <trkpt lat="45.31364" lon="4.70063">
        <ele>512</ele>
        <time>2016-01-13T14:20:21.000Z</time>
      </trkpt>
      <trkpt lat="45.31369" lon="4.70064">
        <ele>511.20001220703</ele>
        <time>2016-01-13T14:20:22.000Z</time>
      </trkpt>
      <trkpt lat="45.31376" lon="4.70064">
        <ele>510</ele>
        <time>2016-01-13T14:20:23.000Z</time>
      </trkpt>
      <trkpt lat="45.31382" lon="4.70064">
        <ele>508.79998779297</ele>
        <time>2016-01-13T14:20:24.000Z</time>
      </trkpt>
      <trkpt lat="45.31425" lon="4.70056">
        <ele>501.60000610352</ele>
        <time>2016-01-13T14:20:32.000Z</time>
      </trkpt>
      <trkpt lat="45.31453" lon="4.7005">
        <ele>498</ele>
        <time>2016-01-13T14:20:37.000Z</time>
      </trkpt>
      <trkpt lat="45.31459" lon="4.70048">
        <ele>497</ele>
        <time>2016-01-13T14:20:38.000Z</time>
      </trkpt>
      <trkpt lat="45.31465" lon="4.70048">
        <ele>496.20001220703</ele>
        <time>2016-01-13T14:20:39.000Z</time>
      </trkpt>
      <trkpt lat="45.3147" lon="4.70051">
        <ele>495</ele>
        <time>2016-01-13T14:20:40.000Z</time>
      </trkpt>
      <trkpt lat="45.31476" lon="4.70055">
        <ele>494.20001220703</ele>
        <time>2016-01-13T14:20:41.000Z</time>
      </trkpt>
      <trkpt lat="45.31483" lon="4.7006">
        <ele>492.79998779297</ele>
        <time>2016-01-13T14:20:42.000Z</time>
      </trkpt>
      <trkpt lat="45.31515" lon="4.70078">
        <ele>487.20001220703</ele>
        <time>2016-01-13T14:20:46.000Z</time>
      </trkpt>
      <trkpt lat="45.31528" lon="4.70098">
        <ele>486.20001220703</ele>
        <time>2016-01-13T14:20:49.000Z</time>
      </trkpt>
      <trkpt lat="45.31536" lon="4.70127">
        <ele>487</ele>
        <time>2016-01-13T14:20:52.000Z</time>
      </trkpt>
      <trkpt lat="45.31538" lon="4.70138">
        <ele>486.60000610352</ele>
        <time>2016-01-13T14:20:53.000Z</time>
      </trkpt>
      <trkpt lat="45.31549" lon="4.70172">
        <ele>484</ele>
        <time>2016-01-13T14:20:56.000Z</time>
      </trkpt>
      <trkpt lat="45.31562" lon="4.70193">
        <ele>480.39999389648</ele>
        <time>2016-01-13T14:20:58.000Z</time>
      </trkpt>
      <trkpt lat="45.31588" lon="4.70235">
        <ele>475</ele>
        <time>2016-01-13T14:21:02.000Z</time>
      </trkpt>
      <trkpt lat="45.31597" lon="4.7024">
        <ele>472.79998779297</ele>
        <time>2016-01-13T14:21:03.000Z</time>
      </trkpt>
      <trkpt lat="45.31636" lon="4.70274">
        <ele>463.79998779297</ele>
        <time>2016-01-13T14:21:08.000Z</time>
      </trkpt>
      <trkpt lat="45.31644" lon="4.70283">
        <ele>462.79998779297</ele>
        <time>2016-01-13T14:21:09.000Z</time>
      </trkpt>
      <trkpt lat="45.31657" lon="4.70331">
        <ele>461.79998779297</ele>
        <time>2016-01-13T14:21:13.000Z</time>
      </trkpt>
      <trkpt lat="45.3167" lon="4.70395">
        <ele>460.39999389648</ele>
        <time>2016-01-13T14:21:18.000Z</time>
      </trkpt>
      <trkpt lat="45.31681" lon="4.70425">
        <ele>458</ele>
        <time>2016-01-13T14:21:22.000Z</time>
      </trkpt>
      <trkpt lat="45.31682" lon="4.7044">
        <ele>457.20001220703</ele>
        <time>2016-01-13T14:21:25.000Z</time>
      </trkpt>
      <trkpt lat="45.31682" lon="4.70446">
        <ele>457</ele>
        <time>2016-01-13T14:21:26.000Z</time>
      </trkpt>
      <trkpt lat="45.31679" lon="4.70459">
        <ele>457</ele>
        <time>2016-01-13T14:21:28.000Z</time>
      </trkpt>
      <trkpt lat="45.31682" lon="4.7051">
        <ele>454</ele>
        <time>2016-01-13T14:21:34.000Z</time>
      </trkpt>
      <trkpt lat="45.31685" lon="4.70531">
        <ele>452.79998779297</ele>
        <time>2016-01-13T14:21:36.000Z</time>
      </trkpt>
      <trkpt lat="45.31686" lon="4.70572">
        <ele>450.20001220703</ele>
        <time>2016-01-13T14:21:40.000Z</time>
      </trkpt>
      <trkpt lat="45.31684" lon="4.70601">
        <ele>449.39999389648</ele>
        <time>2016-01-13T14:21:44.000Z</time>
      </trkpt>
      <trkpt lat="45.31677" lon="4.70626">
        <ele>451</ele>
        <time>2016-01-13T14:21:48.000Z</time>
      </trkpt>
      <trkpt lat="45.31676" lon="4.70645">
        <ele>450.20001220703</ele>
        <time>2016-01-13T14:21:51.000Z</time>
      </trkpt>
      <trkpt lat="45.31678" lon="4.70676">
        <ele>448.79998779297</ele>
        <time>2016-01-13T14:21:56.000Z</time>
      </trkpt>
      <trkpt lat="45.31678" lon="4.70731">
        <ele>450.20001220703</ele>
        <time>2016-01-13T14:22:07.000Z</time>
      </trkpt>
      <trkpt lat="45.31676" lon="4.70732">
        <ele>450.79998779297</ele>
        <time>2016-01-13T14:22:13.000Z</time>
      </trkpt>
      <trkpt lat="45.31679" lon="4.70737">
        <ele>450</ele>
        <time>2016-01-13T14:23:18.000Z</time>
      </trkpt>
      <trkpt lat="45.31689" lon="4.70749">
        <ele>447.60000610352</ele>
        <time>2016-01-13T14:23:23.000Z</time>
      </trkpt>
      <trkpt lat="45.31752" lon="4.70769">
        <ele>435.60000610352</ele>
        <time>2016-01-13T14:23:33.000Z</time>
      </trkpt>
      <trkpt lat="45.31757" lon="4.7077">
        <ele>435</ele>
        <time>2016-01-13T14:23:34.000Z</time>
      </trkpt>
      <trkpt lat="45.31761" lon="4.70772">
        <ele>434.39999389648</ele>
        <time>2016-01-13T14:23:35.000Z</time>
      </trkpt>
      <trkpt lat="45.31766" lon="4.70773">
        <ele>433.79998779297</ele>
        <time>2016-01-13T14:23:36.000Z</time>
      </trkpt>
      <trkpt lat="45.31771" lon="4.70776">
        <ele>433.20001220703</ele>
        <time>2016-01-13T14:23:37.000Z</time>
      </trkpt>
      <trkpt lat="45.31776" lon="4.7078">
        <ele>432.79998779297</ele>
        <time>2016-01-13T14:23:38.000Z</time>
      </trkpt>
      <trkpt lat="45.3178" lon="4.70785">
        <ele>432.39999389648</ele>
        <time>2016-01-13T14:23:39.000Z</time>
      </trkpt>
      <trkpt lat="45.31784" lon="4.7079">
        <ele>432.20001220703</ele>
        <time>2016-01-13T14:23:40.000Z</time>
      </trkpt>
      <trkpt lat="45.31788" lon="4.70796">
        <ele>432.20001220703</ele>
        <time>2016-01-13T14:23:41.000Z</time>
      </trkpt>
      <trkpt lat="45.31792" lon="4.70803">
        <ele>432.20001220703</ele>
        <time>2016-01-13T14:23:42.000Z</time>
      </trkpt>
      <trkpt lat="45.31817" lon="4.70851">
        <ele>433.20001220703</ele>
        <time>2016-01-13T14:23:48.000Z</time>
      </trkpt>
      <trkpt lat="45.3183" lon="4.70879">
        <ele>433.39999389648</ele>
        <time>2016-01-13T14:23:52.000Z</time>
      </trkpt>
      <trkpt lat="45.31832" lon="4.70887">
        <ele>433.39999389648</ele>
        <time>2016-01-13T14:23:53.000Z</time>
      </trkpt>
      <trkpt lat="45.31832" lon="4.70894">
        <ele>433.60000610352</ele>
        <time>2016-01-13T14:23:54.000Z</time>
      </trkpt>
      <trkpt lat="45.31832" lon="4.70902">
        <ele>434.20001220703</ele>
        <time>2016-01-13T14:23:55.000Z</time>
      </trkpt>
      <trkpt lat="45.31832" lon="4.7091">
        <ele>434.39999389648</ele>
        <time>2016-01-13T14:23:56.000Z</time>
      </trkpt>
      <trkpt lat="45.31831" lon="4.70933">
        <ele>435</ele>
        <time>2016-01-13T14:23:59.000Z</time>
      </trkpt>
      <trkpt lat="45.31836" lon="4.70983">
        <ele>436.39999389648</ele>
        <time>2016-01-13T14:24:10.000Z</time>
      </trkpt>
      <trkpt lat="45.31837" lon="4.71068">
        <ele>439.39999389648</ele>
        <time>2016-01-13T14:24:23.000Z</time>
      </trkpt>
      <trkpt lat="45.31842" lon="4.71178">
        <ele>440.79998779297</ele>
        <time>2016-01-13T14:24:38.000Z</time>
      </trkpt>
      <trkpt lat="45.31842" lon="4.71187">
        <ele>441</ele>
        <time>2016-01-13T14:24:39.000Z</time>
      </trkpt>
      <trkpt lat="45.31843" lon="4.71196">
        <ele>441</ele>
        <time>2016-01-13T14:24:40.000Z</time>
      </trkpt>
      <trkpt lat="45.31844" lon="4.71205">
        <ele>440.79998779297</ele>
        <time>2016-01-13T14:24:41.000Z</time>
      </trkpt>
      <trkpt lat="45.31858" lon="4.71248">
        <ele>439</ele>
        <time>2016-01-13T14:24:47.000Z</time>
      </trkpt>
      <trkpt lat="45.31878" lon="4.71368">
        <ele>440.20001220703</ele>
        <time>2016-01-13T14:25:03.000Z</time>
      </trkpt>
      <trkpt lat="45.31893" lon="4.71471">
        <ele>441</ele>
        <time>2016-01-13T14:25:17.000Z</time>
      </trkpt>
      <trkpt lat="45.31892" lon="4.7148">
        <ele>440.79998779297</ele>
        <time>2016-01-13T14:25:18.000Z</time>
      </trkpt>
      <trkpt lat="45.31891" lon="4.71499">
        <ele>440.20001220703</ele>
        <time>2016-01-13T14:25:20.000Z</time>
      </trkpt>
      <trkpt lat="45.31881" lon="4.71614">
        <ele>435.39999389648</ele>
        <time>2016-01-13T14:25:30.000Z</time>
      </trkpt>
      <trkpt lat="45.31882" lon="4.71658">
        <ele>433.39999389648</ele>
        <time>2016-01-13T14:25:34.000Z</time>
      </trkpt>
      <trkpt lat="45.31879" lon="4.71858">
        <ele>431.79998779297</ele>
        <time>2016-01-13T14:25:53.000Z</time>
      </trkpt>
      <trkpt lat="45.31883" lon="4.71962">
        <ele>426.60000610352</ele>
        <time>2016-01-13T14:26:04.000Z</time>
      </trkpt>
      <trkpt lat="45.31883" lon="4.71971">
        <ele>427</ele>
        <time>2016-01-13T14:26:05.000Z</time>
      </trkpt>
      <trkpt lat="45.31881" lon="4.7198">
        <ele>427.39999389648</ele>
        <time>2016-01-13T14:26:06.000Z</time>
      </trkpt>
      <trkpt lat="45.31875" lon="4.72028">
        <ele>429.79998779297</ele>
        <time>2016-01-13T14:26:12.000Z</time>
      </trkpt>
      <trkpt lat="45.31876" lon="4.72035">
        <ele>429.60000610352</ele>
        <time>2016-01-13T14:26:13.000Z</time>
      </trkpt>
      <trkpt lat="45.31878" lon="4.72041">
        <ele>429.20001220703</ele>
        <time>2016-01-13T14:26:14.000Z</time>
      </trkpt>
      <trkpt lat="45.31882" lon="4.72047">
        <ele>428.79998779297</ele>
        <time>2016-01-13T14:26:15.000Z</time>
      </trkpt>
      <trkpt lat="45.31885" lon="4.72053">
        <ele>428.20001220703</ele>
        <time>2016-01-13T14:26:16.000Z</time>
      </trkpt>
      <trkpt lat="45.31888" lon="4.72061">
        <ele>427.79998779297</ele>
        <time>2016-01-13T14:26:17.000Z</time>
      </trkpt>
      <trkpt lat="45.3189" lon="4.72069">
        <ele>427.60000610352</ele>
        <time>2016-01-13T14:26:18.000Z</time>
      </trkpt>
      <trkpt lat="45.31892" lon="4.72077">
        <ele>427.39999389648</ele>
        <time>2016-01-13T14:26:19.000Z</time>
      </trkpt>
      <trkpt lat="45.31894" lon="4.72085">
        <ele>427.20001220703</ele>
        <time>2016-01-13T14:26:20.000Z</time>
      </trkpt>
      <trkpt lat="45.31925" lon="4.72203">
        <ele>421.39999389648</ele>
        <time>2016-01-13T14:26:32.000Z</time>
      </trkpt>
      <trkpt lat="45.31956" lon="4.72288">
        <ele>419</ele>
        <time>2016-01-13T14:26:39.000Z</time>
      </trkpt>
      <trkpt lat="45.31961" lon="4.72311">
        <ele>419.20001220703</ele>
        <time>2016-01-13T14:26:41.000Z</time>
      </trkpt>
      <trkpt lat="45.31963" lon="4.72323">
        <ele>419.39999389648</ele>
        <time>2016-01-13T14:26:42.000Z</time>
      </trkpt>
      <trkpt lat="45.31963" lon="4.72333">
        <ele>419.60000610352</ele>
        <time>2016-01-13T14:26:43.000Z</time>
      </trkpt>
      <trkpt lat="45.31963" lon="4.72342">
        <ele>419.60000610352</ele>
        <time>2016-01-13T14:26:44.000Z</time>
      </trkpt>
      <trkpt lat="45.31963" lon="4.72349">
        <ele>419.79998779297</ele>
        <time>2016-01-13T14:26:45.000Z</time>
      </trkpt>
      <trkpt lat="45.31961" lon="4.7236">
        <ele>419.79998779297</ele>
        <time>2016-01-13T14:26:47.000Z</time>
      </trkpt>
      <trkpt lat="45.31957" lon="4.72362">
        <ele>420</ele>
        <time>2016-01-13T14:26:48.000Z</time>
      </trkpt>
      <trkpt lat="45.31953" lon="4.72364">
        <ele>419.79998779297</ele>
        <time>2016-01-13T14:26:49.000Z</time>
      </trkpt>
      <trkpt lat="45.31938" lon="4.72373">
        <ele>419</ele>
        <time>2016-01-13T14:26:52.000Z</time>
      </trkpt>
      <trkpt lat="45.31935" lon="4.72378">
        <ele>418.79998779297</ele>
        <time>2016-01-13T14:26:53.000Z</time>
      </trkpt>
      <trkpt lat="45.31932" lon="4.72384">
        <ele>418.60000610352</ele>
        <time>2016-01-13T14:26:54.000Z</time>
      </trkpt>
      <trkpt lat="45.31925" lon="4.72404">
        <ele>417.79998779297</ele>
        <time>2016-01-13T14:26:57.000Z</time>
      </trkpt>
      <trkpt lat="45.31918" lon="4.72424">
        <ele>416.79998779297</ele>
        <time>2016-01-13T14:27:02.000Z</time>
      </trkpt>
      <trkpt lat="45.31915" lon="4.72424">
        <ele>416.79998779297</ele>
        <time>2016-01-13T14:27:04.000Z</time>
      </trkpt>
      <trkpt lat="45.31914" lon="4.72423">
        <ele>416.79998779297</ele>
        <time>2016-01-13T14:27:08.000Z</time>
      </trkpt>
      <trkpt lat="45.31918" lon="4.72416">
        <ele>417.20001220703</ele>
        <time>2016-01-13T14:27:29.000Z</time>
      </trkpt>
      <trkpt lat="45.31919" lon="4.7241">
        <ele>417.39999389648</ele>
        <time>2016-01-13T14:27:31.000Z</time>
      </trkpt>
      <trkpt lat="45.3192" lon="4.72407">
        <ele>417.60000610352</ele>
        <time>2016-01-13T14:27:32.000Z</time>
      </trkpt>
      <trkpt lat="45.31921" lon="4.72403">
        <ele>417.60000610352</ele>
        <time>2016-01-13T14:27:33.000Z</time>
      </trkpt>
      <trkpt lat="45.31927" lon="4.72376">
        <ele>418.60000610352</ele>
        <time>2016-01-13T14:27:40.000Z</time>
      </trkpt>
      <trkpt lat="45.31927" lon="4.72375">
        <ele>418.60000610352</ele>
        <time>2016-01-13T14:27:51.000Z</time>
      </trkpt>
      <trkpt lat="45.31928" lon="4.7238">
        <ele>418.39999389648</ele>
        <time>2016-01-13T14:35:46.000Z</time>
      </trkpt>
      <trkpt lat="45.31923" lon="4.72397">
        <ele>417.79998779297</ele>
        <time>2016-01-13T14:35:53.000Z</time>
      </trkpt>
      <trkpt lat="45.31922" lon="4.724">
        <ele>417.79998779297</ele>
        <time>2016-01-13T14:35:54.000Z</time>
      </trkpt>
      <trkpt lat="45.31921" lon="4.72403">
        <ele>417.60000610352</ele>
        <time>2016-01-13T14:35:55.000Z</time>
      </trkpt>
      <trkpt lat="45.31919" lon="4.72407">
        <ele>417.60000610352</ele>
        <time>2016-01-13T14:35:56.000Z</time>
      </trkpt>
      <trkpt lat="45.31918" lon="4.7241">
        <ele>417.39999389648</ele>
        <time>2016-01-13T14:35:57.000Z</time>
      </trkpt>
      <trkpt lat="45.31917" lon="4.72414">
        <ele>417.20001220703</ele>
        <time>2016-01-13T14:35:58.000Z</time>
      </trkpt>
      <trkpt lat="45.31911" lon="4.72439">
        <ele>416</ele>
        <time>2016-01-13T14:36:05.000Z</time>
      </trkpt>
      <trkpt lat="45.31891" lon="4.72521">
        <ele>411.20001220703</ele>
        <time>2016-01-13T14:36:15.000Z</time>
      </trkpt>
      <trkpt lat="45.3189" lon="4.72533">
        <ele>410.60000610352</ele>
        <time>2016-01-13T14:36:16.000Z</time>
      </trkpt>
      <trkpt lat="45.31889" lon="4.72589">
        <ele>408.60000610352</ele>
        <time>2016-01-13T14:36:21.000Z</time>
      </trkpt>
      <trkpt lat="45.31887" lon="4.72599">
        <ele>408.20001220703</ele>
        <time>2016-01-13T14:36:22.000Z</time>
      </trkpt>
      <trkpt lat="45.31885" lon="4.72609">
        <ele>407.60000610352</ele>
        <time>2016-01-13T14:36:23.000Z</time>
      </trkpt>
      <trkpt lat="45.31882" lon="4.72617">
        <ele>407.20001220703</ele>
        <time>2016-01-13T14:36:24.000Z</time>
      </trkpt>
      <trkpt lat="45.31878" lon="4.72625">
        <ele>406.79998779297</ele>
        <time>2016-01-13T14:36:25.000Z</time>
      </trkpt>
      <trkpt lat="45.31874" lon="4.72632">
        <ele>406.20001220703</ele>
        <time>2016-01-13T14:36:26.000Z</time>
      </trkpt>
      <trkpt lat="45.3187" lon="4.72638">
        <ele>406</ele>
        <time>2016-01-13T14:36:27.000Z</time>
      </trkpt>
      <trkpt lat="45.31866" lon="4.72644">
        <ele>405.60000610352</ele>
        <time>2016-01-13T14:36:28.000Z</time>
      </trkpt>
      <trkpt lat="45.31862" lon="4.72649">
        <ele>405.20001220703</ele>
        <time>2016-01-13T14:36:29.000Z</time>
      </trkpt>
      <trkpt lat="45.31858" lon="4.72654">
        <ele>404.79998779297</ele>
        <time>2016-01-13T14:36:30.000Z</time>
      </trkpt>
      <trkpt lat="45.31837" lon="4.72677">
        <ele>404</ele>
        <time>2016-01-13T14:36:36.000Z</time>
      </trkpt>
      <trkpt lat="45.31835" lon="4.72682">
        <ele>404</ele>
        <time>2016-01-13T14:36:37.000Z</time>
      </trkpt>
      <trkpt lat="45.31811" lon="4.72728">
        <ele>404.39999389648</ele>
        <time>2016-01-13T14:36:48.000Z</time>
      </trkpt>
      <trkpt lat="45.31771" lon="4.72789">
        <ele>405.60000610352</ele>
        <time>2016-01-13T14:37:05.000Z</time>
      </trkpt>
      <trkpt lat="45.31757" lon="4.72804">
        <ele>406.20001220703</ele>
        <time>2016-01-13T14:37:10.000Z</time>
      </trkpt>
      <trkpt lat="45.31755" lon="4.72808">
        <ele>406.20001220703</ele>
        <time>2016-01-13T14:37:11.000Z</time>
      </trkpt>
      <trkpt lat="45.31753" lon="4.7281">
        <ele>406.39999389648</ele>
        <time>2016-01-13T14:37:12.000Z</time>
      </trkpt>
      <trkpt lat="45.31745" lon="4.7281">
        <ele>406.60000610352</ele>
        <time>2016-01-13T14:37:14.000Z</time>
      </trkpt>
      <trkpt lat="45.3174" lon="4.72811">
        <ele>406.60000610352</ele>
        <time>2016-01-13T14:37:15.000Z</time>
      </trkpt>
      <trkpt lat="45.31731" lon="4.72815">
        <ele>406.60000610352</ele>
        <time>2016-01-13T14:37:17.000Z</time>
      </trkpt>
      <trkpt lat="45.31722" lon="4.72822">
        <ele>406.60000610352</ele>
        <time>2016-01-13T14:37:19.000Z</time>
      </trkpt>
      <trkpt lat="45.31717" lon="4.72822">
        <ele>406.60000610352</ele>
        <time>2016-01-13T14:37:20.000Z</time>
      </trkpt>
      <trkpt lat="45.31711" lon="4.7282">
        <ele>406.39999389648</ele>
        <time>2016-01-13T14:37:21.000Z</time>
      </trkpt>
      <trkpt lat="45.31706" lon="4.72815">
        <ele>406.39999389648</ele>
        <time>2016-01-13T14:37:22.000Z</time>
      </trkpt>
      <trkpt lat="45.31702" lon="4.7281">
        <ele>406.20001220703</ele>
        <time>2016-01-13T14:37:23.000Z</time>
      </trkpt>
      <trkpt lat="45.31698" lon="4.72806">
        <ele>406</ele>
        <time>2016-01-13T14:37:24.000Z</time>
      </trkpt>
      <trkpt lat="45.31689" lon="4.728">
        <ele>405.60000610352</ele>
        <time>2016-01-13T14:37:26.000Z</time>
      </trkpt>
      <trkpt lat="45.31686" lon="4.72795">
        <ele>405.60000610352</ele>
        <time>2016-01-13T14:37:27.000Z</time>
      </trkpt>
      <trkpt lat="45.31682" lon="4.7279">
        <ele>405.39999389648</ele>
        <time>2016-01-13T14:37:28.000Z</time>
      </trkpt>
      <trkpt lat="45.31676" lon="4.72783">
        <ele>405.39999389648</ele>
        <time>2016-01-13T14:37:32.000Z</time>
      </trkpt>
      <trkpt lat="45.31672" lon="4.72787">
        <ele>405</ele>
        <time>2016-01-13T14:37:33.000Z</time>
      </trkpt>
      <trkpt lat="45.31669" lon="4.72792">
        <ele>404.79998779297</ele>
        <time>2016-01-13T14:37:34.000Z</time>
      </trkpt>
      <trkpt lat="45.31652" lon="4.72819">
        <ele>403.60000610352</ele>
        <time>2016-01-13T14:37:39.000Z</time>
      </trkpt>
      <trkpt lat="45.31647" lon="4.72823">
        <ele>403.20001220703</ele>
        <time>2016-01-13T14:37:40.000Z</time>
      </trkpt>
      <trkpt lat="45.3164" lon="4.72824">
        <ele>402.79998779297</ele>
        <time>2016-01-13T14:37:41.000Z</time>
      </trkpt>
      <trkpt lat="45.31633" lon="4.72824">
        <ele>402.20001220703</ele>
        <time>2016-01-13T14:37:42.000Z</time>
      </trkpt>
      <trkpt lat="45.31626" lon="4.72823">
        <ele>402.20001220703</ele>
        <time>2016-01-13T14:37:43.000Z</time>
      </trkpt>
      <trkpt lat="45.31619" lon="4.72821">
        <ele>402.39999389648</ele>
        <time>2016-01-13T14:37:44.000Z</time>
      </trkpt>
      <trkpt lat="45.3159" lon="4.72821">
        <ele>402.60000610352</ele>
        <time>2016-01-13T14:37:48.000Z</time>
      </trkpt>
      <trkpt lat="45.31575" lon="4.72819">
        <ele>402.79998779297</ele>
        <time>2016-01-13T14:37:50.000Z</time>
      </trkpt>
      <trkpt lat="45.31531" lon="4.72811">
        <ele>401.39999389648</ele>
        <time>2016-01-13T14:37:56.000Z</time>
      </trkpt>
      <trkpt lat="45.31523" lon="4.72809">
        <ele>401</ele>
        <time>2016-01-13T14:37:57.000Z</time>
      </trkpt>
      <trkpt lat="45.315" lon="4.72806">
        <ele>399.79998779297</ele>
        <time>2016-01-13T14:38:00.000Z</time>
      </trkpt>
      <trkpt lat="45.31417" lon="4.72798">
        <ele>393</ele>
        <time>2016-01-13T14:38:10.000Z</time>
      </trkpt>
      <trkpt lat="45.31349" lon="4.7279">
        <ele>389.39999389648</ele>
        <time>2016-01-13T14:38:18.000Z</time>
      </trkpt>
      <trkpt lat="45.31214" lon="4.72774">
        <ele>391.20001220703</ele>
        <time>2016-01-13T14:38:38.000Z</time>
      </trkpt>
      <trkpt lat="45.31102" lon="4.72757">
        <ele>390.39999389648</ele>
        <time>2016-01-13T14:38:54.000Z</time>
      </trkpt>
      <trkpt lat="45.31071" lon="4.72748">
        <ele>388.79998779297</ele>
        <time>2016-01-13T14:38:58.000Z</time>
      </trkpt>
      <trkpt lat="45.31049" lon="4.7274">
        <ele>387.60000610352</ele>
        <time>2016-01-13T14:39:01.000Z</time>
      </trkpt>
      <trkpt lat="45.31042" lon="4.72739">
        <ele>387.60000610352</ele>
        <time>2016-01-13T14:39:02.000Z</time>
      </trkpt>
      <trkpt lat="45.31034" lon="4.72739">
        <ele>387.39999389648</ele>
        <time>2016-01-13T14:39:03.000Z</time>
      </trkpt>
      <trkpt lat="45.31013" lon="4.72741">
        <ele>387</ele>
        <time>2016-01-13T14:39:06.000Z</time>
      </trkpt>
      <trkpt lat="45.30985" lon="4.72742">
        <ele>387</ele>
        <time>2016-01-13T14:39:10.000Z</time>
      </trkpt>
      <trkpt lat="45.30915" lon="4.72726">
        <ele>390.79998779297</ele>
        <time>2016-01-13T14:39:23.000Z</time>
      </trkpt>
      <trkpt lat="45.309" lon="4.72722">
        <ele>391.79998779297</ele>
        <time>2016-01-13T14:39:27.000Z</time>
      </trkpt>
      <trkpt lat="45.30879" lon="4.72714">
        <ele>393.39999389648</ele>
        <time>2016-01-13T14:39:33.000Z</time>
      </trkpt>
      <trkpt lat="45.30858" lon="4.72707">
        <ele>394</ele>
        <time>2016-01-13T14:39:38.000Z</time>
      </trkpt>
      <trkpt lat="45.30807" lon="4.72696">
        <ele>395.39999389648</ele>
        <time>2016-01-13T14:39:52.000Z</time>
      </trkpt>
      <trkpt lat="45.30778" lon="4.727">
        <ele>394.79998779297</ele>
        <time>2016-01-13T14:39:59.000Z</time>
      </trkpt>
      <trkpt lat="45.30762" lon="4.72709">
        <ele>394</ele>
        <time>2016-01-13T14:40:02.000Z</time>
      </trkpt>
      <trkpt lat="45.30727" lon="4.72715">
        <ele>392.79998779297</ele>
        <time>2016-01-13T14:40:07.000Z</time>
      </trkpt>
      <trkpt lat="45.30686" lon="4.7271">
        <ele>390.39999389648</ele>
        <time>2016-01-13T14:40:12.000Z</time>
      </trkpt>
      <trkpt lat="45.30661" lon="4.72699">
        <ele>389.60000610352</ele>
        <time>2016-01-13T14:40:15.000Z</time>
      </trkpt>
      <trkpt lat="45.30639" lon="4.72702">
        <ele>387.79998779297</ele>
        <time>2016-01-13T14:40:19.000Z</time>
      </trkpt>
      <trkpt lat="45.30562" lon="4.72722">
        <ele>381.79998779297</ele>
        <time>2016-01-13T14:40:28.000Z</time>
      </trkpt>
      <trkpt lat="45.30547" lon="4.7272">
        <ele>381.39999389648</ele>
        <time>2016-01-13T14:40:30.000Z</time>
      </trkpt>
      <trkpt lat="45.30527" lon="4.72714">
        <ele>382.20001220703</ele>
        <time>2016-01-13T14:40:33.000Z</time>
      </trkpt>
      <trkpt lat="45.30521" lon="4.72713">
        <ele>382.20001220703</ele>
        <time>2016-01-13T14:40:34.000Z</time>
      </trkpt>
      <trkpt lat="45.30505" lon="4.72711">
        <ele>382.79998779297</ele>
        <time>2016-01-13T14:40:37.000Z</time>
      </trkpt>
      <trkpt lat="45.30461" lon="4.72703">
        <ele>384.20001220703</ele>
        <time>2016-01-13T14:40:48.000Z</time>
      </trkpt>
      <trkpt lat="45.30419" lon="4.72711">
        <ele>387.60000610352</ele>
        <time>2016-01-13T14:41:01.000Z</time>
      </trkpt>
      <trkpt lat="45.30389" lon="4.72725">
        <ele>389.60000610352</ele>
        <time>2016-01-13T14:41:13.000Z</time>
      </trkpt>
      <trkpt lat="45.3037" lon="4.72725">
        <ele>391.39999389648</ele>
        <time>2016-01-13T14:41:22.000Z</time>
      </trkpt>
      <trkpt lat="45.30362" lon="4.72719">
        <ele>392.39999389648</ele>
        <time>2016-01-13T14:41:27.000Z</time>
      </trkpt>
      <trkpt lat="45.30344" lon="4.727">
        <ele>395</ele>
        <time>2016-01-13T14:41:39.000Z</time>
      </trkpt>
      <trkpt lat="45.30315" lon="4.7267">
        <ele>399.60000610352</ele>
        <time>2016-01-13T14:41:55.000Z</time>
      </trkpt>
      <trkpt lat="45.30303" lon="4.72662">
        <ele>401.39999389648</ele>
        <time>2016-01-13T14:42:06.000Z</time>
      </trkpt>
      <trkpt lat="45.30295" lon="4.72665">
        <ele>402</ele>
        <time>2016-01-13T14:42:37.000Z</time>
      </trkpt>
      <trkpt lat="45.30292" lon="4.72665">
        <ele>402.20001220703</ele>
        <time>2016-01-13T14:42:38.000Z</time>
      </trkpt>
      <trkpt lat="45.30235" lon="4.72676">
        <ele>405.39999389648</ele>
        <time>2016-01-13T14:42:55.000Z</time>
      </trkpt>
      <trkpt lat="45.30184" lon="4.72686">
        <ele>407</ele>
        <time>2016-01-13T14:43:09.000Z</time>
      </trkpt>
      <trkpt lat="45.30179" lon="4.72687">
        <ele>407</ele>
        <time>2016-01-13T14:43:10.000Z</time>
      </trkpt>
      <trkpt lat="45.30116" lon="4.72691">
        <ele>407.39999389648</ele>
        <time>2016-01-13T14:43:23.000Z</time>
      </trkpt>
      <trkpt lat="45.30111" lon="4.72693">
        <ele>407</ele>
        <time>2016-01-13T14:43:24.000Z</time>
      </trkpt>
      <trkpt lat="45.30021" lon="4.72741">
        <ele>402.60000610352</ele>
        <time>2016-01-13T14:43:41.000Z</time>
      </trkpt>
      <trkpt lat="45.2998" lon="4.72769">
        <ele>402</ele>
        <time>2016-01-13T14:43:49.000Z</time>
      </trkpt>
      <trkpt lat="45.29975" lon="4.72771">
        <ele>402</ele>
        <time>2016-01-13T14:43:50.000Z</time>
      </trkpt>
      <trkpt lat="45.2988" lon="4.7282">
        <ele>403</ele>
        <time>2016-01-13T14:44:08.000Z</time>
      </trkpt>
      <trkpt lat="45.29869" lon="4.72824">
        <ele>402.79998779297</ele>
        <time>2016-01-13T14:44:10.000Z</time>
      </trkpt>
      <trkpt lat="45.29864" lon="4.72825">
        <ele>402.79998779297</ele>
        <time>2016-01-13T14:44:11.000Z</time>
      </trkpt>
      <trkpt lat="45.29798" lon="4.72844">
        <ele>403</ele>
        <time>2016-01-13T14:44:23.000Z</time>
      </trkpt>
      <trkpt lat="45.29699" lon="4.72924">
        <ele>404.60000610352</ele>
        <time>2016-01-13T14:44:42.000Z</time>
      </trkpt>
      <trkpt lat="45.29615" lon="4.72983">
        <ele>402.39999389648</ele>
        <time>2016-01-13T14:44:55.000Z</time>
      </trkpt>
      <trkpt lat="45.29601" lon="4.72989">
        <ele>402.20001220703</ele>
        <time>2016-01-13T14:44:57.000Z</time>
      </trkpt>
      <trkpt lat="45.29493" lon="4.73005">
        <ele>401.39999389648</ele>
        <time>2016-01-13T14:45:10.000Z</time>
      </trkpt>
      <trkpt lat="45.29403" lon="4.73019">
        <ele>398.39999389648</ele>
        <time>2016-01-13T14:45:21.000Z</time>
      </trkpt>
      <trkpt lat="45.29379" lon="4.73011">
        <ele>398.60000610352</ele>
        <time>2016-01-13T14:45:25.000Z</time>
      </trkpt>
      <trkpt lat="45.29375" lon="4.73006">
        <ele>398.79998779297</ele>
        <time>2016-01-13T14:45:26.000Z</time>
      </trkpt>
      <trkpt lat="45.29372" lon="4.72999">
        <ele>399</ele>
        <time>2016-01-13T14:45:27.000Z</time>
      </trkpt>
      <trkpt lat="45.2937" lon="4.72992">
        <ele>399.39999389648</ele>
        <time>2016-01-13T14:45:28.000Z</time>
      </trkpt>
      <trkpt lat="45.29368" lon="4.72985">
        <ele>399.60000610352</ele>
        <time>2016-01-13T14:45:29.000Z</time>
      </trkpt>
      <trkpt lat="45.29367" lon="4.72979">
        <ele>400</ele>
        <time>2016-01-13T14:45:30.000Z</time>
      </trkpt>
      <trkpt lat="45.29363" lon="4.72942">
        <ele>401.79998779297</ele>
        <time>2016-01-13T14:45:35.000Z</time>
      </trkpt>
      <trkpt lat="45.29361" lon="4.72864">
        <ele>406.79998779297</ele>
        <time>2016-01-13T14:45:45.000Z</time>
      </trkpt>
      <trkpt lat="45.29367" lon="4.72813">
        <ele>409</ele>
        <time>2016-01-13T14:45:55.000Z</time>
      </trkpt>
      <trkpt lat="45.29369" lon="4.72803">
        <ele>409.39999389648</ele>
        <time>2016-01-13T14:45:57.000Z</time>
      </trkpt>
      <trkpt lat="45.29366" lon="4.72764">
        <ele>410</ele>
        <time>2016-01-13T14:46:07.000Z</time>
      </trkpt>
      <trkpt lat="45.2936" lon="4.72695">
        <ele>410.60000610352</ele>
        <time>2016-01-13T14:46:20.000Z</time>
      </trkpt>
      <trkpt lat="45.29361" lon="4.7269">
        <ele>410.79998779297</ele>
        <time>2016-01-13T14:46:21.000Z</time>
      </trkpt>
      <trkpt lat="45.29364" lon="4.72685">
        <ele>411.20001220703</ele>
        <time>2016-01-13T14:46:22.000Z</time>
      </trkpt>
      <trkpt lat="45.29367" lon="4.72683">
        <ele>411.60000610352</ele>
        <time>2016-01-13T14:46:23.000Z</time>
      </trkpt>
      <trkpt lat="45.29371" lon="4.72683">
        <ele>412</ele>
        <time>2016-01-13T14:46:24.000Z</time>
      </trkpt>
      <trkpt lat="45.29374" lon="4.72683">
        <ele>412.20001220703</ele>
        <time>2016-01-13T14:46:25.000Z</time>
      </trkpt>
      <trkpt lat="45.29376" lon="4.72684">
        <ele>412.39999389648</ele>
        <time>2016-01-13T14:46:26.000Z</time>
      </trkpt>
      <trkpt lat="45.29401" lon="4.72707">
        <ele>414</ele>
        <time>2016-01-13T14:46:42.000Z</time>
      </trkpt>
      <trkpt lat="45.29402" lon="4.7271">
        <ele>414</ele>
        <time>2016-01-13T14:46:43.000Z</time>
      </trkpt>
      <trkpt lat="45.29402" lon="4.72713">
        <ele>414</ele>
        <time>2016-01-13T14:46:44.000Z</time>
      </trkpt>
      <trkpt lat="45.29418" lon="4.72741">
        <ele>415.60000610352</ele>
        <time>2016-01-13T14:46:54.000Z</time>
      </trkpt>
      <trkpt lat="45.29458" lon="4.72772">
        <ele>419.39999389648</ele>
        <time>2016-01-13T14:47:13.000Z</time>
      </trkpt>
      <trkpt lat="45.29462" lon="4.72777">
        <ele>419.79998779297</ele>
        <time>2016-01-13T14:47:16.000Z</time>
      </trkpt>
      <trkpt lat="45.29465" lon="4.72782">
        <ele>420</ele>
        <time>2016-01-13T14:47:23.000Z</time>
      </trkpt>
    </trkseg>
  </trk>
</gpx>